<?xml version="1.0" encoding="UTF-8" standalone="no" ?>
<gpx xmlns="http://www.topografix.com/GPX/1/1" xmlns:xsi="http://www.w3.org/2001/XMLSchema-instance" xsi:schemaLocation="http://www.topografix.com/GPX/1/1 http://www.topografix.com/GPX/1/1/gpx.xsd" version="1.1" creator="VisuGPX - https://www.visugpx.com">
  <metadata>
    <name>bois de Mieri</name>
    <desc><![CDATA[Sortie trail 1h30mn pour 15km]]></desc>
  </metadata>
  <trk>
    <name><![CDATA[bois de Mieri_1]]></name>
    <cmt><![CDATA[Michel]]></cmt>
    <trkseg>
      <trkpt lat="44.79456" lon="4.98145">
        <ele>316</ele>
        <time>2013-08-22T16:25:10Z</time>
      </trkpt>
      <trkpt lat="44.79429" lon="4.98132">
        <ele>315</ele>
        <time>2013-08-22T16:25:25Z</time>
      </trkpt>
      <trkpt lat="44.79428" lon="4.9813">
        <ele>315</ele>
        <time>2013-08-22T16:25:26Z</time>
      </trkpt>
      <trkpt lat="44.79426" lon="4.98127">
        <ele>315</ele>
        <time>2013-08-22T16:25:28Z</time>
      </trkpt>
      <trkpt lat="44.79424" lon="4.98125">
        <ele>315</ele>
        <time>2013-08-22T16:25:29Z</time>
      </trkpt>
      <trkpt lat="44.79422" lon="4.98123">
        <ele>315</ele>
        <time>2013-08-22T16:25:30Z</time>
      </trkpt>
      <trkpt lat="44.79421" lon="4.98121">
        <ele>315</ele>
        <time>2013-08-22T16:25:31Z</time>
      </trkpt>
      <trkpt lat="44.7942" lon="4.98119">
        <ele>315</ele>
        <time>2013-08-22T16:25:32Z</time>
      </trkpt>
      <trkpt lat="44.79419" lon="4.98117">
        <ele>315</ele>
        <time>2013-08-22T16:25:33Z</time>
      </trkpt>
      <trkpt lat="44.79418" lon="4.98115">
        <ele>315</ele>
        <time>2013-08-22T16:25:34Z</time>
      </trkpt>
      <trkpt lat="44.79416" lon="4.98114">
        <ele>315</ele>
        <time>2013-08-22T16:25:35Z</time>
      </trkpt>
      <trkpt lat="44.79414" lon="4.98112">
        <ele>315</ele>
        <time>2013-08-22T16:25:36Z</time>
      </trkpt>
      <trkpt lat="44.79411" lon="4.9811">
        <ele>315</ele>
        <time>2013-08-22T16:25:37Z</time>
      </trkpt>
      <trkpt lat="44.79409" lon="4.9811">
        <ele>315</ele>
        <time>2013-08-22T16:25:38Z</time>
      </trkpt>
      <trkpt lat="44.79408" lon="4.98109">
        <ele>315</ele>
        <time>2013-08-22T16:25:39Z</time>
      </trkpt>
      <trkpt lat="44.79406" lon="4.98106">
        <ele>315</ele>
        <time>2013-08-22T16:25:41Z</time>
      </trkpt>
      <trkpt lat="44.79405" lon="4.98105">
        <ele>315</ele>
        <time>2013-08-22T16:25:42Z</time>
      </trkpt>
      <trkpt lat="44.79404" lon="4.98103">
        <ele>315</ele>
        <time>2013-08-22T16:25:43Z</time>
      </trkpt>
      <trkpt lat="44.79403" lon="4.98101">
        <ele>315</ele>
        <time>2013-08-22T16:25:44Z</time>
      </trkpt>
      <trkpt lat="44.79405" lon="4.98099">
        <ele>315</ele>
        <time>2013-08-22T16:25:46Z</time>
      </trkpt>
      <trkpt lat="44.79406" lon="4.98096">
        <ele>315</ele>
        <time>2013-08-22T16:25:47Z</time>
      </trkpt>
      <trkpt lat="44.79407" lon="4.98094">
        <ele>315</ele>
        <time>2013-08-22T16:25:48Z</time>
      </trkpt>
      <trkpt lat="44.79408" lon="4.98092">
        <ele>315</ele>
        <time>2013-08-22T16:25:49Z</time>
      </trkpt>
      <trkpt lat="44.7941" lon="4.9809">
        <ele>315</ele>
        <time>2013-08-22T16:25:50Z</time>
      </trkpt>
      <trkpt lat="44.79412" lon="4.98087">
        <ele>315</ele>
        <time>2013-08-22T16:25:51Z</time>
      </trkpt>
      <trkpt lat="44.79413" lon="4.98085">
        <ele>314</ele>
        <time>2013-08-22T16:25:52Z</time>
      </trkpt>
      <trkpt lat="44.79414" lon="4.98083">
        <ele>313</ele>
        <time>2013-08-22T16:25:53Z</time>
      </trkpt>
      <trkpt lat="44.79415" lon="4.9808">
        <ele>312</ele>
        <time>2013-08-22T16:25:54Z</time>
      </trkpt>
      <trkpt lat="44.79417" lon="4.98078">
        <ele>311</ele>
        <time>2013-08-22T16:25:55Z</time>
      </trkpt>
      <trkpt lat="44.79417" lon="4.98075">
        <ele>311</ele>
        <time>2013-08-22T16:25:56Z</time>
      </trkpt>
      <trkpt lat="44.79418" lon="4.98071">
        <ele>311</ele>
        <time>2013-08-22T16:25:57Z</time>
      </trkpt>
      <trkpt lat="44.79419" lon="4.98069">
        <ele>311</ele>
        <time>2013-08-22T16:25:58Z</time>
      </trkpt>
      <trkpt lat="44.7942" lon="4.98065">
        <ele>311</ele>
        <time>2013-08-22T16:25:59Z</time>
      </trkpt>
      <trkpt lat="44.79421" lon="4.98062">
        <ele>311</ele>
        <time>2013-08-22T16:26:00Z</time>
      </trkpt>
      <trkpt lat="44.79422" lon="4.9806">
        <ele>311</ele>
        <time>2013-08-22T16:26:01Z</time>
      </trkpt>
      <trkpt lat="44.79423" lon="4.98057">
        <ele>311</ele>
        <time>2013-08-22T16:26:02Z</time>
      </trkpt>
      <trkpt lat="44.79424" lon="4.98056">
        <ele>310</ele>
        <time>2013-08-22T16:26:03Z</time>
      </trkpt>
      <trkpt lat="44.79426" lon="4.98054">
        <ele>310</ele>
        <time>2013-08-22T16:26:04Z</time>
      </trkpt>
      <trkpt lat="44.79428" lon="4.98051">
        <ele>310</ele>
        <time>2013-08-22T16:26:05Z</time>
      </trkpt>
      <trkpt lat="44.79428" lon="4.98047">
        <ele>309</ele>
        <time>2013-08-22T16:26:06Z</time>
      </trkpt>
      <trkpt lat="44.7943" lon="4.98043">
        <ele>309</ele>
        <time>2013-08-22T16:26:07Z</time>
      </trkpt>
      <trkpt lat="44.7943" lon="4.98039">
        <ele>308</ele>
        <time>2013-08-22T16:26:08Z</time>
      </trkpt>
      <trkpt lat="44.79429" lon="4.98034">
        <ele>307</ele>
        <time>2013-08-22T16:26:09Z</time>
      </trkpt>
      <trkpt lat="44.79429" lon="4.9803">
        <ele>307</ele>
        <time>2013-08-22T16:26:10Z</time>
      </trkpt>
      <trkpt lat="44.79429" lon="4.98027">
        <ele>306</ele>
        <time>2013-08-22T16:26:11Z</time>
      </trkpt>
      <trkpt lat="44.7943" lon="4.98023">
        <ele>305</ele>
        <time>2013-08-22T16:26:12Z</time>
      </trkpt>
      <trkpt lat="44.79431" lon="4.9802">
        <ele>304</ele>
        <time>2013-08-22T16:26:13Z</time>
      </trkpt>
      <trkpt lat="44.79432" lon="4.98016">
        <ele>303</ele>
        <time>2013-08-22T16:26:14Z</time>
      </trkpt>
      <trkpt lat="44.79433" lon="4.98012">
        <ele>303</ele>
        <time>2013-08-22T16:26:15Z</time>
      </trkpt>
      <trkpt lat="44.79434" lon="4.98009">
        <ele>302</ele>
        <time>2013-08-22T16:26:16Z</time>
      </trkpt>
      <trkpt lat="44.79435" lon="4.98005">
        <ele>302</ele>
        <time>2013-08-22T16:26:17Z</time>
      </trkpt>
      <trkpt lat="44.79436" lon="4.98002">
        <ele>302</ele>
        <time>2013-08-22T16:26:18Z</time>
      </trkpt>
      <trkpt lat="44.79437" lon="4.98">
        <ele>302</ele>
        <time>2013-08-22T16:26:19Z</time>
      </trkpt>
      <trkpt lat="44.79438" lon="4.97998">
        <ele>301</ele>
        <time>2013-08-22T16:26:20Z</time>
      </trkpt>
      <trkpt lat="44.79439" lon="4.97995">
        <ele>300</ele>
        <time>2013-08-22T16:26:21Z</time>
      </trkpt>
      <trkpt lat="44.7944" lon="4.97992">
        <ele>299</ele>
        <time>2013-08-22T16:26:22Z</time>
      </trkpt>
      <trkpt lat="44.79441" lon="4.97987">
        <ele>299</ele>
        <time>2013-08-22T16:26:23Z</time>
      </trkpt>
      <trkpt lat="44.79441" lon="4.97985">
        <ele>298</ele>
        <time>2013-08-22T16:26:24Z</time>
      </trkpt>
      <trkpt lat="44.79443" lon="4.97983">
        <ele>297</ele>
        <time>2013-08-22T16:26:25Z</time>
      </trkpt>
      <trkpt lat="44.79443" lon="4.9798">
        <ele>297</ele>
        <time>2013-08-22T16:26:26Z</time>
      </trkpt>
      <trkpt lat="44.79444" lon="4.97976">
        <ele>297</ele>
        <time>2013-08-22T16:26:27Z</time>
      </trkpt>
      <trkpt lat="44.79445" lon="4.97972">
        <ele>296</ele>
        <time>2013-08-22T16:26:28Z</time>
      </trkpt>
      <trkpt lat="44.79446" lon="4.97969">
        <ele>296</ele>
        <time>2013-08-22T16:26:29Z</time>
      </trkpt>
      <trkpt lat="44.79447" lon="4.97967">
        <ele>296</ele>
        <time>2013-08-22T16:26:30Z</time>
      </trkpt>
      <trkpt lat="44.79448" lon="4.97964">
        <ele>295</ele>
        <time>2013-08-22T16:26:31Z</time>
      </trkpt>
      <trkpt lat="44.79449" lon="4.9796">
        <ele>295</ele>
        <time>2013-08-22T16:26:32Z</time>
      </trkpt>
      <trkpt lat="44.7945" lon="4.97958">
        <ele>295</ele>
        <time>2013-08-22T16:26:33Z</time>
      </trkpt>
      <trkpt lat="44.79451" lon="4.97955">
        <ele>294</ele>
        <time>2013-08-22T16:26:34Z</time>
      </trkpt>
      <trkpt lat="44.79452" lon="4.97953">
        <ele>294</ele>
        <time>2013-08-22T16:26:35Z</time>
      </trkpt>
      <trkpt lat="44.79453" lon="4.97949">
        <ele>293</ele>
        <time>2013-08-22T16:26:36Z</time>
      </trkpt>
      <trkpt lat="44.79454" lon="4.97946">
        <ele>293</ele>
        <time>2013-08-22T16:26:37Z</time>
      </trkpt>
      <trkpt lat="44.79454" lon="4.97942">
        <ele>293</ele>
        <time>2013-08-22T16:26:38Z</time>
      </trkpt>
      <trkpt lat="44.79456" lon="4.97939">
        <ele>293</ele>
        <time>2013-08-22T16:26:39Z</time>
      </trkpt>
      <trkpt lat="44.79456" lon="4.97936">
        <ele>293</ele>
        <time>2013-08-22T16:26:40Z</time>
      </trkpt>
      <trkpt lat="44.79458" lon="4.97933">
        <ele>293</ele>
        <time>2013-08-22T16:26:41Z</time>
      </trkpt>
      <trkpt lat="44.79459" lon="4.9793">
        <ele>293</ele>
        <time>2013-08-22T16:26:42Z</time>
      </trkpt>
      <trkpt lat="44.79461" lon="4.97927">
        <ele>293</ele>
        <time>2013-08-22T16:26:43Z</time>
      </trkpt>
      <trkpt lat="44.79463" lon="4.97923">
        <ele>293</ele>
        <time>2013-08-22T16:26:44Z</time>
      </trkpt>
      <trkpt lat="44.79465" lon="4.97921">
        <ele>293</ele>
        <time>2013-08-22T16:26:45Z</time>
      </trkpt>
      <trkpt lat="44.79467" lon="4.97919">
        <ele>293</ele>
        <time>2013-08-22T16:26:46Z</time>
      </trkpt>
      <trkpt lat="44.79467" lon="4.97916">
        <ele>293</ele>
        <time>2013-08-22T16:26:47Z</time>
      </trkpt>
      <trkpt lat="44.79469" lon="4.97914">
        <ele>293</ele>
        <time>2013-08-22T16:26:48Z</time>
      </trkpt>
      <trkpt lat="44.79471" lon="4.97912">
        <ele>293</ele>
        <time>2013-08-22T16:26:49Z</time>
      </trkpt>
      <trkpt lat="44.79472" lon="4.97907">
        <ele>294</ele>
        <time>2013-08-22T16:26:50Z</time>
      </trkpt>
      <trkpt lat="44.79474" lon="4.97905">
        <ele>295</ele>
        <time>2013-08-22T16:26:51Z</time>
      </trkpt>
      <trkpt lat="44.79476" lon="4.97904">
        <ele>296</ele>
        <time>2013-08-22T16:26:52Z</time>
      </trkpt>
      <trkpt lat="44.79477" lon="4.97901">
        <ele>297</ele>
        <time>2013-08-22T16:26:53Z</time>
      </trkpt>
      <trkpt lat="44.79478" lon="4.97899">
        <ele>298</ele>
        <time>2013-08-22T16:26:54Z</time>
      </trkpt>
      <trkpt lat="44.79477" lon="4.97896">
        <ele>299</ele>
        <time>2013-08-22T16:26:55Z</time>
      </trkpt>
      <trkpt lat="44.79475" lon="4.97893">
        <ele>300</ele>
        <time>2013-08-22T16:26:56Z</time>
      </trkpt>
      <trkpt lat="44.79474" lon="4.97892">
        <ele>301</ele>
        <time>2013-08-22T16:26:57Z</time>
      </trkpt>
      <trkpt lat="44.79473" lon="4.9789">
        <ele>302</ele>
        <time>2013-08-22T16:26:58Z</time>
      </trkpt>
      <trkpt lat="44.79471" lon="4.9789">
        <ele>303</ele>
        <time>2013-08-22T16:26:59Z</time>
      </trkpt>
      <trkpt lat="44.79469" lon="4.97889">
        <ele>304</ele>
        <time>2013-08-22T16:27:00Z</time>
      </trkpt>
      <trkpt lat="44.79468" lon="4.97889">
        <ele>305</ele>
        <time>2013-08-22T16:27:01Z</time>
      </trkpt>
      <trkpt lat="44.79466" lon="4.97888">
        <ele>306</ele>
        <time>2013-08-22T16:27:02Z</time>
      </trkpt>
      <trkpt lat="44.79465" lon="4.97887">
        <ele>307</ele>
        <time>2013-08-22T16:27:03Z</time>
      </trkpt>
      <trkpt lat="44.79463" lon="4.97887">
        <ele>308</ele>
        <time>2013-08-22T16:27:04Z</time>
      </trkpt>
      <trkpt lat="44.79461" lon="4.97886">
        <ele>309</ele>
        <time>2013-08-22T16:27:05Z</time>
      </trkpt>
      <trkpt lat="44.7946" lon="4.97885">
        <ele>309</ele>
        <time>2013-08-22T16:27:06Z</time>
      </trkpt>
      <trkpt lat="44.79458" lon="4.97885">
        <ele>309</ele>
        <time>2013-08-22T16:27:07Z</time>
      </trkpt>
      <trkpt lat="44.79456" lon="4.97885">
        <ele>309</ele>
        <time>2013-08-22T16:27:08Z</time>
      </trkpt>
      <trkpt lat="44.79454" lon="4.97883">
        <ele>309</ele>
        <time>2013-08-22T16:27:09Z</time>
      </trkpt>
      <trkpt lat="44.79452" lon="4.97881">
        <ele>310</ele>
        <time>2013-08-22T16:27:10Z</time>
      </trkpt>
      <trkpt lat="44.7945" lon="4.97881">
        <ele>310</ele>
        <time>2013-08-22T16:27:11Z</time>
      </trkpt>
      <trkpt lat="44.79448" lon="4.9788">
        <ele>311</ele>
        <time>2013-08-22T16:27:12Z</time>
      </trkpt>
      <trkpt lat="44.79446" lon="4.97879">
        <ele>311</ele>
        <time>2013-08-22T16:27:13Z</time>
      </trkpt>
      <trkpt lat="44.79445" lon="4.97879">
        <ele>312</ele>
        <time>2013-08-22T16:27:15Z</time>
      </trkpt>
      <trkpt lat="44.79443" lon="4.97877">
        <ele>312</ele>
        <time>2013-08-22T16:27:15Z</time>
      </trkpt>
      <trkpt lat="44.79442" lon="4.97875">
        <ele>313</ele>
        <time>2013-08-22T16:27:16Z</time>
      </trkpt>
      <trkpt lat="44.79441" lon="4.97873">
        <ele>313</ele>
        <time>2013-08-22T16:27:17Z</time>
      </trkpt>
      <trkpt lat="44.79439" lon="4.97872">
        <ele>314</ele>
        <time>2013-08-22T16:27:18Z</time>
      </trkpt>
      <trkpt lat="44.79438" lon="4.9787">
        <ele>314</ele>
        <time>2013-08-22T16:27:19Z</time>
      </trkpt>
      <trkpt lat="44.79436" lon="4.97867">
        <ele>315</ele>
        <time>2013-08-22T16:27:20Z</time>
      </trkpt>
      <trkpt lat="44.79435" lon="4.97865">
        <ele>315</ele>
        <time>2013-08-22T16:27:21Z</time>
      </trkpt>
      <trkpt lat="44.79433" lon="4.97863">
        <ele>316</ele>
        <time>2013-08-22T16:27:23Z</time>
      </trkpt>
      <trkpt lat="44.79431" lon="4.97862">
        <ele>316</ele>
        <time>2013-08-22T16:27:24Z</time>
      </trkpt>
      <trkpt lat="44.79429" lon="4.97862">
        <ele>316</ele>
        <time>2013-08-22T16:27:25Z</time>
      </trkpt>
      <trkpt lat="44.79427" lon="4.97862">
        <ele>317</ele>
        <time>2013-08-22T16:27:26Z</time>
      </trkpt>
      <trkpt lat="44.79425" lon="4.9786">
        <ele>317</ele>
        <time>2013-08-22T16:27:27Z</time>
      </trkpt>
      <trkpt lat="44.79424" lon="4.97859">
        <ele>317</ele>
        <time>2013-08-22T16:27:28Z</time>
      </trkpt>
      <trkpt lat="44.79423" lon="4.97858">
        <ele>317</ele>
        <time>2013-08-22T16:27:29Z</time>
      </trkpt>
      <trkpt lat="44.79421" lon="4.97856">
        <ele>317</ele>
        <time>2013-08-22T16:27:30Z</time>
      </trkpt>
      <trkpt lat="44.79419" lon="4.97854">
        <ele>318</ele>
        <time>2013-08-22T16:27:31Z</time>
      </trkpt>
      <trkpt lat="44.79418" lon="4.97853">
        <ele>318</ele>
        <time>2013-08-22T16:27:32Z</time>
      </trkpt>
      <trkpt lat="44.79417" lon="4.97852">
        <ele>318</ele>
        <time>2013-08-22T16:27:33Z</time>
      </trkpt>
      <trkpt lat="44.79415" lon="4.9785">
        <ele>319</ele>
        <time>2013-08-22T16:27:34Z</time>
      </trkpt>
      <trkpt lat="44.79414" lon="4.97849">
        <ele>319</ele>
        <time>2013-08-22T16:27:35Z</time>
      </trkpt>
      <trkpt lat="44.79411" lon="4.97847">
        <ele>320</ele>
        <time>2013-08-22T16:27:36Z</time>
      </trkpt>
      <trkpt lat="44.79409" lon="4.97846">
        <ele>320</ele>
        <time>2013-08-22T16:27:37Z</time>
      </trkpt>
      <trkpt lat="44.79407" lon="4.97845">
        <ele>320</ele>
        <time>2013-08-22T16:27:38Z</time>
      </trkpt>
      <trkpt lat="44.79405" lon="4.97844">
        <ele>320</ele>
        <time>2013-08-22T16:27:39Z</time>
      </trkpt>
      <trkpt lat="44.79403" lon="4.97843">
        <ele>321</ele>
        <time>2013-08-22T16:27:40Z</time>
      </trkpt>
      <trkpt lat="44.79401" lon="4.97842">
        <ele>321</ele>
        <time>2013-08-22T16:27:41Z</time>
      </trkpt>
      <trkpt lat="44.79398" lon="4.9784">
        <ele>321</ele>
        <time>2013-08-22T16:27:42Z</time>
      </trkpt>
      <trkpt lat="44.79396" lon="4.97839">
        <ele>321</ele>
        <time>2013-08-22T16:27:43Z</time>
      </trkpt>
      <trkpt lat="44.79393" lon="4.97838">
        <ele>321</ele>
        <time>2013-08-22T16:27:44Z</time>
      </trkpt>
      <trkpt lat="44.79391" lon="4.97837">
        <ele>321</ele>
        <time>2013-08-22T16:27:45Z</time>
      </trkpt>
      <trkpt lat="44.79388" lon="4.97837">
        <ele>321</ele>
        <time>2013-08-22T16:27:46Z</time>
      </trkpt>
      <trkpt lat="44.79387" lon="4.97837">
        <ele>321</ele>
        <time>2013-08-22T16:27:47Z</time>
      </trkpt>
      <trkpt lat="44.79385" lon="4.97836">
        <ele>321</ele>
        <time>2013-08-22T16:27:48Z</time>
      </trkpt>
      <trkpt lat="44.79382" lon="4.97836">
        <ele>321</ele>
        <time>2013-08-22T16:27:49Z</time>
      </trkpt>
      <trkpt lat="44.7938" lon="4.97835">
        <ele>321</ele>
        <time>2013-08-22T16:27:50Z</time>
      </trkpt>
      <trkpt lat="44.79377" lon="4.97833">
        <ele>321</ele>
        <time>2013-08-22T16:27:51Z</time>
      </trkpt>
      <trkpt lat="44.79375" lon="4.97833">
        <ele>321</ele>
        <time>2013-08-22T16:27:52Z</time>
      </trkpt>
      <trkpt lat="44.79372" lon="4.97833">
        <ele>321</ele>
        <time>2013-08-22T16:27:53Z</time>
      </trkpt>
      <trkpt lat="44.7937" lon="4.97833">
        <ele>321</ele>
        <time>2013-08-22T16:27:54Z</time>
      </trkpt>
      <trkpt lat="44.79368" lon="4.97832">
        <ele>321</ele>
        <time>2013-08-22T16:27:55Z</time>
      </trkpt>
      <trkpt lat="44.79367" lon="4.97831">
        <ele>321</ele>
        <time>2013-08-22T16:27:56Z</time>
      </trkpt>
      <trkpt lat="44.79365" lon="4.9783">
        <ele>321</ele>
        <time>2013-08-22T16:27:57Z</time>
      </trkpt>
      <trkpt lat="44.79364" lon="4.97829">
        <ele>321</ele>
        <time>2013-08-22T16:27:58Z</time>
      </trkpt>
      <trkpt lat="44.79362" lon="4.97828">
        <ele>321</ele>
        <time>2013-08-22T16:27:59Z</time>
      </trkpt>
      <trkpt lat="44.7936" lon="4.97827">
        <ele>321</ele>
        <time>2013-08-22T16:28:00Z</time>
      </trkpt>
      <trkpt lat="44.79358" lon="4.97826">
        <ele>321</ele>
        <time>2013-08-22T16:28:01Z</time>
      </trkpt>
      <trkpt lat="44.79356" lon="4.97826">
        <ele>321</ele>
        <time>2013-08-22T16:28:02Z</time>
      </trkpt>
      <trkpt lat="44.79354" lon="4.97825">
        <ele>321</ele>
        <time>2013-08-22T16:28:03Z</time>
      </trkpt>
      <trkpt lat="44.79352" lon="4.97824">
        <ele>321</ele>
        <time>2013-08-22T16:28:04Z</time>
      </trkpt>
      <trkpt lat="44.7935" lon="4.97824">
        <ele>320</ele>
        <time>2013-08-22T16:28:05Z</time>
      </trkpt>
      <trkpt lat="44.79348" lon="4.97823">
        <ele>320</ele>
        <time>2013-08-22T16:28:06Z</time>
      </trkpt>
      <trkpt lat="44.79346" lon="4.97822">
        <ele>319</ele>
        <time>2013-08-22T16:28:07Z</time>
      </trkpt>
      <trkpt lat="44.79344" lon="4.97822">
        <ele>319</ele>
        <time>2013-08-22T16:28:08Z</time>
      </trkpt>
      <trkpt lat="44.79342" lon="4.97821">
        <ele>318</ele>
        <time>2013-08-22T16:28:09Z</time>
      </trkpt>
      <trkpt lat="44.7934" lon="4.97819">
        <ele>317</ele>
        <time>2013-08-22T16:28:10Z</time>
      </trkpt>
      <trkpt lat="44.79339" lon="4.97818">
        <ele>317</ele>
        <time>2013-08-22T16:28:11Z</time>
      </trkpt>
      <trkpt lat="44.79337" lon="4.97816">
        <ele>316</ele>
        <time>2013-08-22T16:28:12Z</time>
      </trkpt>
      <trkpt lat="44.79335" lon="4.97815">
        <ele>315</ele>
        <time>2013-08-22T16:28:13Z</time>
      </trkpt>
      <trkpt lat="44.79333" lon="4.97815">
        <ele>315</ele>
        <time>2013-08-22T16:28:14Z</time>
      </trkpt>
      <trkpt lat="44.79332" lon="4.97814">
        <ele>314</ele>
        <time>2013-08-22T16:28:15Z</time>
      </trkpt>
      <trkpt lat="44.7933" lon="4.97813">
        <ele>314</ele>
        <time>2013-08-22T16:28:16Z</time>
      </trkpt>
      <trkpt lat="44.79329" lon="4.97812">
        <ele>313</ele>
        <time>2013-08-22T16:28:17Z</time>
      </trkpt>
      <trkpt lat="44.79326" lon="4.9781">
        <ele>313</ele>
        <time>2013-08-22T16:28:18Z</time>
      </trkpt>
      <trkpt lat="44.79324" lon="4.97808">
        <ele>313</ele>
        <time>2013-08-22T16:28:19Z</time>
      </trkpt>
      <trkpt lat="44.79322" lon="4.97807">
        <ele>313</ele>
        <time>2013-08-22T16:28:20Z</time>
      </trkpt>
      <trkpt lat="44.79321" lon="4.97806">
        <ele>313</ele>
        <time>2013-08-22T16:28:21Z</time>
      </trkpt>
      <trkpt lat="44.79319" lon="4.97806">
        <ele>313</ele>
        <time>2013-08-22T16:28:22Z</time>
      </trkpt>
      <trkpt lat="44.79317" lon="4.97804">
        <ele>313</ele>
        <time>2013-08-22T16:28:23Z</time>
      </trkpt>
      <trkpt lat="44.79315" lon="4.97802">
        <ele>313</ele>
        <time>2013-08-22T16:28:24Z</time>
      </trkpt>
      <trkpt lat="44.79313" lon="4.978">
        <ele>313</ele>
        <time>2013-08-22T16:28:25Z</time>
      </trkpt>
      <trkpt lat="44.7931" lon="4.97798">
        <ele>313</ele>
        <time>2013-08-22T16:28:26Z</time>
      </trkpt>
      <trkpt lat="44.79308" lon="4.97795">
        <ele>313</ele>
        <time>2013-08-22T16:28:27Z</time>
      </trkpt>
      <trkpt lat="44.79307" lon="4.97793">
        <ele>313</ele>
        <time>2013-08-22T16:28:28Z</time>
      </trkpt>
      <trkpt lat="44.79305" lon="4.97791">
        <ele>313</ele>
        <time>2013-08-22T16:28:29Z</time>
      </trkpt>
      <trkpt lat="44.79303" lon="4.97789">
        <ele>313</ele>
        <time>2013-08-22T16:28:30Z</time>
      </trkpt>
      <trkpt lat="44.79301" lon="4.97788">
        <ele>313</ele>
        <time>2013-08-22T16:28:31Z</time>
      </trkpt>
      <trkpt lat="44.793" lon="4.97786">
        <ele>313</ele>
        <time>2013-08-22T16:28:32Z</time>
      </trkpt>
      <trkpt lat="44.79298" lon="4.97784">
        <ele>313</ele>
        <time>2013-08-22T16:28:33Z</time>
      </trkpt>
      <trkpt lat="44.79297" lon="4.97782">
        <ele>313</ele>
        <time>2013-08-22T16:28:34Z</time>
      </trkpt>
      <trkpt lat="44.79295" lon="4.9778">
        <ele>313</ele>
        <time>2013-08-22T16:28:35Z</time>
      </trkpt>
      <trkpt lat="44.79294" lon="4.97777">
        <ele>313</ele>
        <time>2013-08-22T16:28:36Z</time>
      </trkpt>
      <trkpt lat="44.79293" lon="4.97776">
        <ele>313</ele>
        <time>2013-08-22T16:28:37Z</time>
      </trkpt>
      <trkpt lat="44.79292" lon="4.97774">
        <ele>313</ele>
        <time>2013-08-22T16:28:38Z</time>
      </trkpt>
      <trkpt lat="44.7929" lon="4.97772">
        <ele>313</ele>
        <time>2013-08-22T16:28:39Z</time>
      </trkpt>
      <trkpt lat="44.79288" lon="4.9777">
        <ele>313</ele>
        <time>2013-08-22T16:28:40Z</time>
      </trkpt>
      <trkpt lat="44.79287" lon="4.97768">
        <ele>313</ele>
        <time>2013-08-22T16:28:41Z</time>
      </trkpt>
      <trkpt lat="44.79285" lon="4.97765">
        <ele>313</ele>
        <time>2013-08-22T16:28:42Z</time>
      </trkpt>
      <trkpt lat="44.79284" lon="4.97763">
        <ele>313</ele>
        <time>2013-08-22T16:28:43Z</time>
      </trkpt>
      <trkpt lat="44.79282" lon="4.97761">
        <ele>313</ele>
        <time>2013-08-22T16:28:44Z</time>
      </trkpt>
      <trkpt lat="44.7928" lon="4.97759">
        <ele>313</ele>
        <time>2013-08-22T16:28:45Z</time>
      </trkpt>
      <trkpt lat="44.79278" lon="4.97757">
        <ele>313</ele>
        <time>2013-08-22T16:28:46Z</time>
      </trkpt>
      <trkpt lat="44.79276" lon="4.97755">
        <ele>313</ele>
        <time>2013-08-22T16:28:47Z</time>
      </trkpt>
      <trkpt lat="44.79274" lon="4.97753">
        <ele>313</ele>
        <time>2013-08-22T16:28:48Z</time>
      </trkpt>
      <trkpt lat="44.79271" lon="4.97751">
        <ele>313</ele>
        <time>2013-08-22T16:28:49Z</time>
      </trkpt>
      <trkpt lat="44.79269" lon="4.97749">
        <ele>314</ele>
        <time>2013-08-22T16:28:50Z</time>
      </trkpt>
      <trkpt lat="44.79267" lon="4.97747">
        <ele>314</ele>
        <time>2013-08-22T16:28:51Z</time>
      </trkpt>
      <trkpt lat="44.79264" lon="4.97744">
        <ele>315</ele>
        <time>2013-08-22T16:28:52Z</time>
      </trkpt>
      <trkpt lat="44.79261" lon="4.97743">
        <ele>316</ele>
        <time>2013-08-22T16:28:53Z</time>
      </trkpt>
      <trkpt lat="44.7926" lon="4.97742">
        <ele>317</ele>
        <time>2013-08-22T16:28:54Z</time>
      </trkpt>
      <trkpt lat="44.79258" lon="4.9774">
        <ele>318</ele>
        <time>2013-08-22T16:28:55Z</time>
      </trkpt>
      <trkpt lat="44.79256" lon="4.97739">
        <ele>319</ele>
        <time>2013-08-22T16:28:56Z</time>
      </trkpt>
      <trkpt lat="44.79253" lon="4.97739">
        <ele>320</ele>
        <time>2013-08-22T16:28:57Z</time>
      </trkpt>
      <trkpt lat="44.7925" lon="4.97739">
        <ele>321</ele>
        <time>2013-08-22T16:28:58Z</time>
      </trkpt>
      <trkpt lat="44.79248" lon="4.97738">
        <ele>322</ele>
        <time>2013-08-22T16:28:59Z</time>
      </trkpt>
      <trkpt lat="44.79246" lon="4.97737">
        <ele>322</ele>
        <time>2013-08-22T16:29:00Z</time>
      </trkpt>
      <trkpt lat="44.79245" lon="4.97736">
        <ele>322</ele>
        <time>2013-08-22T16:29:01Z</time>
      </trkpt>
      <trkpt lat="44.79243" lon="4.97735">
        <ele>322</ele>
        <time>2013-08-22T16:29:02Z</time>
      </trkpt>
      <trkpt lat="44.7924" lon="4.97734">
        <ele>322</ele>
        <time>2013-08-22T16:29:03Z</time>
      </trkpt>
      <trkpt lat="44.79237" lon="4.97733">
        <ele>322</ele>
        <time>2013-08-22T16:29:04Z</time>
      </trkpt>
      <trkpt lat="44.79235" lon="4.97732">
        <ele>322</ele>
        <time>2013-08-22T16:29:05Z</time>
      </trkpt>
      <trkpt lat="44.79233" lon="4.9773">
        <ele>322</ele>
        <time>2013-08-22T16:29:06Z</time>
      </trkpt>
      <trkpt lat="44.79231" lon="4.97728">
        <ele>322</ele>
        <time>2013-08-22T16:29:07Z</time>
      </trkpt>
      <trkpt lat="44.79229" lon="4.97727">
        <ele>322</ele>
        <time>2013-08-22T16:29:08Z</time>
      </trkpt>
      <trkpt lat="44.79227" lon="4.97725">
        <ele>322</ele>
        <time>2013-08-22T16:29:09Z</time>
      </trkpt>
      <trkpt lat="44.79225" lon="4.97723">
        <ele>322</ele>
        <time>2013-08-22T16:29:10Z</time>
      </trkpt>
      <trkpt lat="44.79222" lon="4.97721">
        <ele>322</ele>
        <time>2013-08-22T16:29:11Z</time>
      </trkpt>
      <trkpt lat="44.7922" lon="4.97719">
        <ele>322</ele>
        <time>2013-08-22T16:29:13Z</time>
      </trkpt>
      <trkpt lat="44.79217" lon="4.97717">
        <ele>322</ele>
        <time>2013-08-22T16:29:13Z</time>
      </trkpt>
      <trkpt lat="44.79215" lon="4.97715">
        <ele>322</ele>
        <time>2013-08-22T16:29:14Z</time>
      </trkpt>
      <trkpt lat="44.79213" lon="4.97713">
        <ele>322</ele>
        <time>2013-08-22T16:29:15Z</time>
      </trkpt>
      <trkpt lat="44.7921" lon="4.97711">
        <ele>323</ele>
        <time>2013-08-22T16:29:16Z</time>
      </trkpt>
      <trkpt lat="44.79208" lon="4.9771">
        <ele>323</ele>
        <time>2013-08-22T16:29:17Z</time>
      </trkpt>
      <trkpt lat="44.79206" lon="4.97709">
        <ele>323</ele>
        <time>2013-08-22T16:29:18Z</time>
      </trkpt>
      <trkpt lat="44.79203" lon="4.97708">
        <ele>324</ele>
        <time>2013-08-22T16:29:19Z</time>
      </trkpt>
      <trkpt lat="44.79201" lon="4.97708">
        <ele>324</ele>
        <time>2013-08-22T16:29:20Z</time>
      </trkpt>
      <trkpt lat="44.79199" lon="4.97707">
        <ele>324</ele>
        <time>2013-08-22T16:29:21Z</time>
      </trkpt>
      <trkpt lat="44.79197" lon="4.97707">
        <ele>324</ele>
        <time>2013-08-22T16:29:22Z</time>
      </trkpt>
      <trkpt lat="44.79195" lon="4.97706">
        <ele>324</ele>
        <time>2013-08-22T16:29:23Z</time>
      </trkpt>
      <trkpt lat="44.79193" lon="4.97705">
        <ele>324</ele>
        <time>2013-08-22T16:29:24Z</time>
      </trkpt>
      <trkpt lat="44.7919" lon="4.97703">
        <ele>324</ele>
        <time>2013-08-22T16:29:25Z</time>
      </trkpt>
      <trkpt lat="44.79187" lon="4.97702">
        <ele>324</ele>
        <time>2013-08-22T16:29:26Z</time>
      </trkpt>
      <trkpt lat="44.79185" lon="4.97702">
        <ele>324</ele>
        <time>2013-08-22T16:29:27Z</time>
      </trkpt>
      <trkpt lat="44.79182" lon="4.97701">
        <ele>324</ele>
        <time>2013-08-22T16:29:28Z</time>
      </trkpt>
      <trkpt lat="44.7918" lon="4.97701">
        <ele>325</ele>
        <time>2013-08-22T16:29:29Z</time>
      </trkpt>
      <trkpt lat="44.79177" lon="4.97701">
        <ele>325</ele>
        <time>2013-08-22T16:29:30Z</time>
      </trkpt>
      <trkpt lat="44.79175" lon="4.977">
        <ele>325</ele>
        <time>2013-08-22T16:29:31Z</time>
      </trkpt>
      <trkpt lat="44.79172" lon="4.97701">
        <ele>325</ele>
        <time>2013-08-22T16:29:32Z</time>
      </trkpt>
      <trkpt lat="44.7917" lon="4.97702">
        <ele>325</ele>
        <time>2013-08-22T16:29:33Z</time>
      </trkpt>
      <trkpt lat="44.79168" lon="4.97702">
        <ele>325</ele>
        <time>2013-08-22T16:29:34Z</time>
      </trkpt>
      <trkpt lat="44.79164" lon="4.977">
        <ele>325</ele>
        <time>2013-08-22T16:29:35Z</time>
      </trkpt>
      <trkpt lat="44.79162" lon="4.977">
        <ele>325</ele>
        <time>2013-08-22T16:29:36Z</time>
      </trkpt>
      <trkpt lat="44.7916" lon="4.97699">
        <ele>325</ele>
        <time>2013-08-22T16:29:37Z</time>
      </trkpt>
      <trkpt lat="44.79158" lon="4.97699">
        <ele>325</ele>
        <time>2013-08-22T16:29:38Z</time>
      </trkpt>
      <trkpt lat="44.79155" lon="4.97698">
        <ele>325</ele>
        <time>2013-08-22T16:29:39Z</time>
      </trkpt>
      <trkpt lat="44.79153" lon="4.97697">
        <ele>325</ele>
        <time>2013-08-22T16:29:40Z</time>
      </trkpt>
      <trkpt lat="44.7915" lon="4.97695">
        <ele>325</ele>
        <time>2013-08-22T16:29:41Z</time>
      </trkpt>
      <trkpt lat="44.79148" lon="4.97694">
        <ele>325</ele>
        <time>2013-08-22T16:29:42Z</time>
      </trkpt>
      <trkpt lat="44.79145" lon="4.97693">
        <ele>325</ele>
        <time>2013-08-22T16:29:43Z</time>
      </trkpt>
      <trkpt lat="44.79142" lon="4.97692">
        <ele>325</ele>
        <time>2013-08-22T16:29:44Z</time>
      </trkpt>
      <trkpt lat="44.79139" lon="4.97692">
        <ele>325</ele>
        <time>2013-08-22T16:29:45Z</time>
      </trkpt>
      <trkpt lat="44.79138" lon="4.97692">
        <ele>325</ele>
        <time>2013-08-22T16:29:46Z</time>
      </trkpt>
      <trkpt lat="44.79136" lon="4.97692">
        <ele>325</ele>
        <time>2013-08-22T16:29:47Z</time>
      </trkpt>
      <trkpt lat="44.79133" lon="4.97691">
        <ele>325</ele>
        <time>2013-08-22T16:29:48Z</time>
      </trkpt>
      <trkpt lat="44.79131" lon="4.97691">
        <ele>325</ele>
        <time>2013-08-22T16:29:49Z</time>
      </trkpt>
      <trkpt lat="44.79129" lon="4.97691">
        <ele>325</ele>
        <time>2013-08-22T16:29:50Z</time>
      </trkpt>
      <trkpt lat="44.79127" lon="4.97692">
        <ele>325</ele>
        <time>2013-08-22T16:29:51Z</time>
      </trkpt>
      <trkpt lat="44.79124" lon="4.97693">
        <ele>325</ele>
        <time>2013-08-22T16:29:52Z</time>
      </trkpt>
      <trkpt lat="44.79122" lon="4.97694">
        <ele>324</ele>
        <time>2013-08-22T16:29:53Z</time>
      </trkpt>
      <trkpt lat="44.79121" lon="4.97695">
        <ele>323</ele>
        <time>2013-08-22T16:29:54Z</time>
      </trkpt>
      <trkpt lat="44.79119" lon="4.97696">
        <ele>323</ele>
        <time>2013-08-22T16:29:55Z</time>
      </trkpt>
      <trkpt lat="44.79118" lon="4.97697">
        <ele>322</ele>
        <time>2013-08-22T16:29:56Z</time>
      </trkpt>
      <trkpt lat="44.79116" lon="4.97698">
        <ele>322</ele>
        <time>2013-08-22T16:29:57Z</time>
      </trkpt>
      <trkpt lat="44.79114" lon="4.97701">
        <ele>321</ele>
        <time>2013-08-22T16:29:58Z</time>
      </trkpt>
      <trkpt lat="44.79112" lon="4.97702">
        <ele>320</ele>
        <time>2013-08-22T16:29:59Z</time>
      </trkpt>
      <trkpt lat="44.7911" lon="4.97703">
        <ele>320</ele>
        <time>2013-08-22T16:30:00Z</time>
      </trkpt>
      <trkpt lat="44.79108" lon="4.97705">
        <ele>319</ele>
        <time>2013-08-22T16:30:01Z</time>
      </trkpt>
      <trkpt lat="44.79105" lon="4.97705">
        <ele>318</ele>
        <time>2013-08-22T16:30:02Z</time>
      </trkpt>
      <trkpt lat="44.79103" lon="4.97705">
        <ele>318</ele>
        <time>2013-08-22T16:30:03Z</time>
      </trkpt>
      <trkpt lat="44.79101" lon="4.97704">
        <ele>317</ele>
        <time>2013-08-22T16:30:04Z</time>
      </trkpt>
      <trkpt lat="44.79099" lon="4.97702">
        <ele>317</ele>
        <time>2013-08-22T16:30:05Z</time>
      </trkpt>
      <trkpt lat="44.79098" lon="4.97698">
        <ele>317</ele>
        <time>2013-08-22T16:30:06Z</time>
      </trkpt>
      <trkpt lat="44.79097" lon="4.97694">
        <ele>317</ele>
        <time>2013-08-22T16:30:07Z</time>
      </trkpt>
      <trkpt lat="44.79098" lon="4.97691">
        <ele>317</ele>
        <time>2013-08-22T16:30:08Z</time>
      </trkpt>
      <trkpt lat="44.79099" lon="4.97689">
        <ele>317</ele>
        <time>2013-08-22T16:30:09Z</time>
      </trkpt>
      <trkpt lat="44.79101" lon="4.97686">
        <ele>317</ele>
        <time>2013-08-22T16:30:10Z</time>
      </trkpt>
      <trkpt lat="44.79103" lon="4.97683">
        <ele>317</ele>
        <time>2013-08-22T16:30:11Z</time>
      </trkpt>
      <trkpt lat="44.79105" lon="4.9768">
        <ele>317</ele>
        <time>2013-08-22T16:30:12Z</time>
      </trkpt>
      <trkpt lat="44.79108" lon="4.97677">
        <ele>317</ele>
        <time>2013-08-22T16:30:13Z</time>
      </trkpt>
      <trkpt lat="44.7911" lon="4.97675">
        <ele>317</ele>
        <time>2013-08-22T16:30:14Z</time>
      </trkpt>
      <trkpt lat="44.7911" lon="4.97674">
        <ele>317</ele>
        <time>2013-08-22T16:30:15Z</time>
      </trkpt>
      <trkpt lat="44.79111" lon="4.97672">
        <ele>317</ele>
        <time>2013-08-22T16:30:16Z</time>
      </trkpt>
      <trkpt lat="44.79111" lon="4.97668">
        <ele>317</ele>
        <time>2013-08-22T16:30:17Z</time>
      </trkpt>
      <trkpt lat="44.79111" lon="4.97664">
        <ele>317</ele>
        <time>2013-08-22T16:30:18Z</time>
      </trkpt>
      <trkpt lat="44.79111" lon="4.97661">
        <ele>317</ele>
        <time>2013-08-22T16:30:19Z</time>
      </trkpt>
      <trkpt lat="44.79111" lon="4.97658">
        <ele>317</ele>
        <time>2013-08-22T16:30:20Z</time>
      </trkpt>
      <trkpt lat="44.79111" lon="4.97655">
        <ele>318</ele>
        <time>2013-08-22T16:30:21Z</time>
      </trkpt>
      <trkpt lat="44.79111" lon="4.97652">
        <ele>318</ele>
        <time>2013-08-22T16:30:22Z</time>
      </trkpt>
      <trkpt lat="44.7911" lon="4.97649">
        <ele>319</ele>
        <time>2013-08-22T16:30:23Z</time>
      </trkpt>
      <trkpt lat="44.7911" lon="4.97647">
        <ele>319</ele>
        <time>2013-08-22T16:30:24Z</time>
      </trkpt>
      <trkpt lat="44.7911" lon="4.97644">
        <ele>319</ele>
        <time>2013-08-22T16:30:25Z</time>
      </trkpt>
      <trkpt lat="44.7911" lon="4.9764">
        <ele>320</ele>
        <time>2013-08-22T16:30:26Z</time>
      </trkpt>
      <trkpt lat="44.7911" lon="4.97637">
        <ele>320</ele>
        <time>2013-08-22T16:30:27Z</time>
      </trkpt>
      <trkpt lat="44.7911" lon="4.97634">
        <ele>320</ele>
        <time>2013-08-22T16:30:28Z</time>
      </trkpt>
      <trkpt lat="44.7911" lon="4.97631">
        <ele>321</ele>
        <time>2013-08-22T16:30:29Z</time>
      </trkpt>
      <trkpt lat="44.79111" lon="4.97628">
        <ele>321</ele>
        <time>2013-08-22T16:30:30Z</time>
      </trkpt>
      <trkpt lat="44.79112" lon="4.97625">
        <ele>321</ele>
        <time>2013-08-22T16:30:31Z</time>
      </trkpt>
      <trkpt lat="44.79114" lon="4.97622">
        <ele>322</ele>
        <time>2013-08-22T16:30:32Z</time>
      </trkpt>
      <trkpt lat="44.79115" lon="4.97619">
        <ele>322</ele>
        <time>2013-08-22T16:30:33Z</time>
      </trkpt>
      <trkpt lat="44.79116" lon="4.97617">
        <ele>322</ele>
        <time>2013-08-22T16:30:34Z</time>
      </trkpt>
      <trkpt lat="44.79117" lon="4.97615">
        <ele>323</ele>
        <time>2013-08-22T16:30:35Z</time>
      </trkpt>
      <trkpt lat="44.79119" lon="4.97613">
        <ele>323</ele>
        <time>2013-08-22T16:30:36Z</time>
      </trkpt>
      <trkpt lat="44.79121" lon="4.97611">
        <ele>324</ele>
        <time>2013-08-22T16:30:37Z</time>
      </trkpt>
      <trkpt lat="44.79123" lon="4.9761">
        <ele>324</ele>
        <time>2013-08-22T16:30:38Z</time>
      </trkpt>
      <trkpt lat="44.79125" lon="4.97608">
        <ele>324</ele>
        <time>2013-08-22T16:30:39Z</time>
      </trkpt>
      <trkpt lat="44.79128" lon="4.97607">
        <ele>325</ele>
        <time>2013-08-22T16:30:40Z</time>
      </trkpt>
      <trkpt lat="44.7913" lon="4.97605">
        <ele>325</ele>
        <time>2013-08-22T16:30:41Z</time>
      </trkpt>
      <trkpt lat="44.79132" lon="4.97603">
        <ele>325</ele>
        <time>2013-08-22T16:30:42Z</time>
      </trkpt>
      <trkpt lat="44.79135" lon="4.97602">
        <ele>325</ele>
        <time>2013-08-22T16:30:43Z</time>
      </trkpt>
      <trkpt lat="44.79138" lon="4.976">
        <ele>325</ele>
        <time>2013-08-22T16:30:44Z</time>
      </trkpt>
      <trkpt lat="44.7914" lon="4.97599">
        <ele>325</ele>
        <time>2013-08-22T16:30:45Z</time>
      </trkpt>
      <trkpt lat="44.79141" lon="4.97597">
        <ele>325</ele>
        <time>2013-08-22T16:30:46Z</time>
      </trkpt>
      <trkpt lat="44.79143" lon="4.97594">
        <ele>325</ele>
        <time>2013-08-22T16:30:47Z</time>
      </trkpt>
      <trkpt lat="44.79145" lon="4.97592">
        <ele>325</ele>
        <time>2013-08-22T16:30:48Z</time>
      </trkpt>
      <trkpt lat="44.79148" lon="4.97591">
        <ele>325</ele>
        <time>2013-08-22T16:30:49Z</time>
      </trkpt>
      <trkpt lat="44.7915" lon="4.97589">
        <ele>325</ele>
        <time>2013-08-22T16:30:50Z</time>
      </trkpt>
      <trkpt lat="44.79152" lon="4.97587">
        <ele>325</ele>
        <time>2013-08-22T16:30:51Z</time>
      </trkpt>
      <trkpt lat="44.79154" lon="4.97585">
        <ele>325</ele>
        <time>2013-08-22T16:30:52Z</time>
      </trkpt>
      <trkpt lat="44.79156" lon="4.97583">
        <ele>325</ele>
        <time>2013-08-22T16:30:53Z</time>
      </trkpt>
      <trkpt lat="44.79157" lon="4.97582">
        <ele>325</ele>
        <time>2013-08-22T16:30:54Z</time>
      </trkpt>
      <trkpt lat="44.79159" lon="4.9758">
        <ele>325</ele>
        <time>2013-08-22T16:30:55Z</time>
      </trkpt>
      <trkpt lat="44.79161" lon="4.97578">
        <ele>325</ele>
        <time>2013-08-22T16:30:56Z</time>
      </trkpt>
      <trkpt lat="44.79163" lon="4.97575">
        <ele>325</ele>
        <time>2013-08-22T16:30:57Z</time>
      </trkpt>
      <trkpt lat="44.79165" lon="4.97572">
        <ele>325</ele>
        <time>2013-08-22T16:30:58Z</time>
      </trkpt>
      <trkpt lat="44.79167" lon="4.97568">
        <ele>325</ele>
        <time>2013-08-22T16:30:59Z</time>
      </trkpt>
      <trkpt lat="44.79168" lon="4.97565">
        <ele>325</ele>
        <time>2013-08-22T16:31:00Z</time>
      </trkpt>
      <trkpt lat="44.7917" lon="4.97563">
        <ele>325</ele>
        <time>2013-08-22T16:31:01Z</time>
      </trkpt>
      <trkpt lat="44.79172" lon="4.97561">
        <ele>325</ele>
        <time>2013-08-22T16:31:02Z</time>
      </trkpt>
      <trkpt lat="44.79174" lon="4.97559">
        <ele>325</ele>
        <time>2013-08-22T16:31:03Z</time>
      </trkpt>
      <trkpt lat="44.79176" lon="4.97556">
        <ele>325</ele>
        <time>2013-08-22T16:31:04Z</time>
      </trkpt>
      <trkpt lat="44.79178" lon="4.97553">
        <ele>325</ele>
        <time>2013-08-22T16:31:05Z</time>
      </trkpt>
      <trkpt lat="44.7918" lon="4.9755">
        <ele>325</ele>
        <time>2013-08-22T16:31:06Z</time>
      </trkpt>
      <trkpt lat="44.79182" lon="4.97548">
        <ele>325</ele>
        <time>2013-08-22T16:31:07Z</time>
      </trkpt>
      <trkpt lat="44.79184" lon="4.97546">
        <ele>325</ele>
        <time>2013-08-22T16:31:08Z</time>
      </trkpt>
      <trkpt lat="44.79186" lon="4.97544">
        <ele>325</ele>
        <time>2013-08-22T16:31:09Z</time>
      </trkpt>
      <trkpt lat="44.79189" lon="4.97542">
        <ele>325</ele>
        <time>2013-08-22T16:31:10Z</time>
      </trkpt>
      <trkpt lat="44.7919" lon="4.97539">
        <ele>325</ele>
        <time>2013-08-22T16:31:11Z</time>
      </trkpt>
      <trkpt lat="44.79192" lon="4.97538">
        <ele>325</ele>
        <time>2013-08-22T16:31:12Z</time>
      </trkpt>
      <trkpt lat="44.79193" lon="4.97536">
        <ele>325</ele>
        <time>2013-08-22T16:31:13Z</time>
      </trkpt>
      <trkpt lat="44.79194" lon="4.97533">
        <ele>325</ele>
        <time>2013-08-22T16:31:14Z</time>
      </trkpt>
      <trkpt lat="44.79195" lon="4.9753">
        <ele>325</ele>
        <time>2013-08-22T16:31:15Z</time>
      </trkpt>
      <trkpt lat="44.79196" lon="4.97527">
        <ele>324</ele>
        <time>2013-08-22T16:31:16Z</time>
      </trkpt>
      <trkpt lat="44.79196" lon="4.97523">
        <ele>323</ele>
        <time>2013-08-22T16:31:17Z</time>
      </trkpt>
      <trkpt lat="44.79196" lon="4.97519">
        <ele>323</ele>
        <time>2013-08-22T16:31:18Z</time>
      </trkpt>
      <trkpt lat="44.79198" lon="4.97516">
        <ele>322</ele>
        <time>2013-08-22T16:31:19Z</time>
      </trkpt>
      <trkpt lat="44.79198" lon="4.97514">
        <ele>322</ele>
        <time>2013-08-22T16:31:20Z</time>
      </trkpt>
      <trkpt lat="44.792" lon="4.97512">
        <ele>322</ele>
        <time>2013-08-22T16:31:21Z</time>
      </trkpt>
      <trkpt lat="44.792" lon="4.9751">
        <ele>322</ele>
        <time>2013-08-22T16:31:22Z</time>
      </trkpt>
      <trkpt lat="44.79202" lon="4.97507">
        <ele>322</ele>
        <time>2013-08-22T16:31:23Z</time>
      </trkpt>
      <trkpt lat="44.79203" lon="4.97504">
        <ele>322</ele>
        <time>2013-08-22T16:31:24Z</time>
      </trkpt>
      <trkpt lat="44.79204" lon="4.97501">
        <ele>322</ele>
        <time>2013-08-22T16:31:25Z</time>
      </trkpt>
      <trkpt lat="44.79205" lon="4.97499">
        <ele>322</ele>
        <time>2013-08-22T16:31:26Z</time>
      </trkpt>
      <trkpt lat="44.79205" lon="4.97496">
        <ele>321</ele>
        <time>2013-08-22T16:31:27Z</time>
      </trkpt>
      <trkpt lat="44.79206" lon="4.97493">
        <ele>321</ele>
        <time>2013-08-22T16:31:28Z</time>
      </trkpt>
      <trkpt lat="44.79208" lon="4.9749">
        <ele>321</ele>
        <time>2013-08-22T16:31:29Z</time>
      </trkpt>
      <trkpt lat="44.79208" lon="4.97486">
        <ele>321</ele>
        <time>2013-08-22T16:31:30Z</time>
      </trkpt>
      <trkpt lat="44.7921" lon="4.97483">
        <ele>320</ele>
        <time>2013-08-22T16:31:31Z</time>
      </trkpt>
      <trkpt lat="44.79211" lon="4.9748">
        <ele>320</ele>
        <time>2013-08-22T16:31:32Z</time>
      </trkpt>
      <trkpt lat="44.79212" lon="4.97475">
        <ele>320</ele>
        <time>2013-08-22T16:31:33Z</time>
      </trkpt>
      <trkpt lat="44.79213" lon="4.97471">
        <ele>319</ele>
        <time>2013-08-22T16:31:34Z</time>
      </trkpt>
      <trkpt lat="44.79214" lon="4.97467">
        <ele>319</ele>
        <time>2013-08-22T16:31:35Z</time>
      </trkpt>
      <trkpt lat="44.79214" lon="4.97464">
        <ele>318</ele>
        <time>2013-08-22T16:31:36Z</time>
      </trkpt>
      <trkpt lat="44.79215" lon="4.97461">
        <ele>318</ele>
        <time>2013-08-22T16:31:37Z</time>
      </trkpt>
      <trkpt lat="44.79216" lon="4.97458">
        <ele>317</ele>
        <time>2013-08-22T16:31:38Z</time>
      </trkpt>
      <trkpt lat="44.79217" lon="4.97454">
        <ele>317</ele>
        <time>2013-08-22T16:31:39Z</time>
      </trkpt>
      <trkpt lat="44.79218" lon="4.97451">
        <ele>316</ele>
        <time>2013-08-22T16:31:40Z</time>
      </trkpt>
      <trkpt lat="44.7922" lon="4.97448">
        <ele>315</ele>
        <time>2013-08-22T16:31:41Z</time>
      </trkpt>
      <trkpt lat="44.79222" lon="4.97444">
        <ele>315</ele>
        <time>2013-08-22T16:31:42Z</time>
      </trkpt>
      <trkpt lat="44.79224" lon="4.97442">
        <ele>314</ele>
        <time>2013-08-22T16:31:43Z</time>
      </trkpt>
      <trkpt lat="44.79226" lon="4.97439">
        <ele>313</ele>
        <time>2013-08-22T16:31:44Z</time>
      </trkpt>
      <trkpt lat="44.79229" lon="4.97437">
        <ele>313</ele>
        <time>2013-08-22T16:31:45Z</time>
      </trkpt>
      <trkpt lat="44.79232" lon="4.97436">
        <ele>312</ele>
        <time>2013-08-22T16:31:46Z</time>
      </trkpt>
      <trkpt lat="44.79234" lon="4.97433">
        <ele>311</ele>
        <time>2013-08-22T16:31:47Z</time>
      </trkpt>
      <trkpt lat="44.79237" lon="4.97431">
        <ele>310</ele>
        <time>2013-08-22T16:31:48Z</time>
      </trkpt>
      <trkpt lat="44.79238" lon="4.97428">
        <ele>310</ele>
        <time>2013-08-22T16:31:49Z</time>
      </trkpt>
      <trkpt lat="44.79239" lon="4.97424">
        <ele>309</ele>
        <time>2013-08-22T16:31:50Z</time>
      </trkpt>
      <trkpt lat="44.79241" lon="4.9742">
        <ele>308</ele>
        <time>2013-08-22T16:31:51Z</time>
      </trkpt>
      <trkpt lat="44.79242" lon="4.97416">
        <ele>308</ele>
        <time>2013-08-22T16:31:52Z</time>
      </trkpt>
      <trkpt lat="44.79243" lon="4.97413">
        <ele>307</ele>
        <time>2013-08-22T16:31:53Z</time>
      </trkpt>
      <trkpt lat="44.79244" lon="4.9741">
        <ele>307</ele>
        <time>2013-08-22T16:31:54Z</time>
      </trkpt>
      <trkpt lat="44.79245" lon="4.97408">
        <ele>306</ele>
        <time>2013-08-22T16:31:55Z</time>
      </trkpt>
      <trkpt lat="44.79248" lon="4.97406">
        <ele>306</ele>
        <time>2013-08-22T16:31:56Z</time>
      </trkpt>
      <trkpt lat="44.7925" lon="4.97403">
        <ele>305</ele>
        <time>2013-08-22T16:31:57Z</time>
      </trkpt>
      <trkpt lat="44.79253" lon="4.97401">
        <ele>305</ele>
        <time>2013-08-22T16:31:58Z</time>
      </trkpt>
      <trkpt lat="44.79255" lon="4.97399">
        <ele>305</ele>
        <time>2013-08-22T16:31:59Z</time>
      </trkpt>
      <trkpt lat="44.79257" lon="4.97397">
        <ele>305</ele>
        <time>2013-08-22T16:32:00Z</time>
      </trkpt>
      <trkpt lat="44.79259" lon="4.97395">
        <ele>305</ele>
        <time>2013-08-22T16:32:01Z</time>
      </trkpt>
      <trkpt lat="44.79261" lon="4.97393">
        <ele>305</ele>
        <time>2013-08-22T16:32:02Z</time>
      </trkpt>
      <trkpt lat="44.79263" lon="4.97392">
        <ele>305</ele>
        <time>2013-08-22T16:32:03Z</time>
      </trkpt>
      <trkpt lat="44.79264" lon="4.97389">
        <ele>305</ele>
        <time>2013-08-22T16:32:04Z</time>
      </trkpt>
      <trkpt lat="44.79266" lon="4.97386">
        <ele>305</ele>
        <time>2013-08-22T16:32:05Z</time>
      </trkpt>
      <trkpt lat="44.79267" lon="4.97382">
        <ele>305</ele>
        <time>2013-08-22T16:32:06Z</time>
      </trkpt>
      <trkpt lat="44.79267" lon="4.97379">
        <ele>305</ele>
        <time>2013-08-22T16:32:07Z</time>
      </trkpt>
      <trkpt lat="44.79267" lon="4.97376">
        <ele>304</ele>
        <time>2013-08-22T16:32:08Z</time>
      </trkpt>
      <trkpt lat="44.79268" lon="4.97374">
        <ele>303</ele>
        <time>2013-08-22T16:32:09Z</time>
      </trkpt>
      <trkpt lat="44.79269" lon="4.97371">
        <ele>303</ele>
        <time>2013-08-22T16:32:10Z</time>
      </trkpt>
      <trkpt lat="44.7927" lon="4.97368">
        <ele>302</ele>
        <time>2013-08-22T16:32:11Z</time>
      </trkpt>
      <trkpt lat="44.79271" lon="4.97365">
        <ele>301</ele>
        <time>2013-08-22T16:32:12Z</time>
      </trkpt>
      <trkpt lat="44.79273" lon="4.97362">
        <ele>300</ele>
        <time>2013-08-22T16:32:13Z</time>
      </trkpt>
      <trkpt lat="44.79274" lon="4.97359">
        <ele>299</ele>
        <time>2013-08-22T16:32:14Z</time>
      </trkpt>
      <trkpt lat="44.79276" lon="4.97357">
        <ele>298</ele>
        <time>2013-08-22T16:32:15Z</time>
      </trkpt>
      <trkpt lat="44.79279" lon="4.97354">
        <ele>297</ele>
        <time>2013-08-22T16:32:16Z</time>
      </trkpt>
      <trkpt lat="44.79281" lon="4.97352">
        <ele>296</ele>
        <time>2013-08-22T16:32:17Z</time>
      </trkpt>
      <trkpt lat="44.79282" lon="4.97349">
        <ele>295</ele>
        <time>2013-08-22T16:32:18Z</time>
      </trkpt>
      <trkpt lat="44.79284" lon="4.97347">
        <ele>294</ele>
        <time>2013-08-22T16:32:19Z</time>
      </trkpt>
      <trkpt lat="44.79286" lon="4.97344">
        <ele>293</ele>
        <time>2013-08-22T16:32:20Z</time>
      </trkpt>
      <trkpt lat="44.79288" lon="4.97341">
        <ele>292</ele>
        <time>2013-08-22T16:32:21Z</time>
      </trkpt>
      <trkpt lat="44.79289" lon="4.97338">
        <ele>291</ele>
        <time>2013-08-22T16:32:22Z</time>
      </trkpt>
      <trkpt lat="44.79291" lon="4.97336">
        <ele>290</ele>
        <time>2013-08-22T16:32:23Z</time>
      </trkpt>
      <trkpt lat="44.79293" lon="4.97334">
        <ele>289</ele>
        <time>2013-08-22T16:32:24Z</time>
      </trkpt>
      <trkpt lat="44.79295" lon="4.97333">
        <ele>288</ele>
        <time>2013-08-22T16:32:25Z</time>
      </trkpt>
      <trkpt lat="44.79297" lon="4.97332">
        <ele>287</ele>
        <time>2013-08-22T16:32:26Z</time>
      </trkpt>
      <trkpt lat="44.79299" lon="4.97331">
        <ele>286</ele>
        <time>2013-08-22T16:32:27Z</time>
      </trkpt>
      <trkpt lat="44.79302" lon="4.9733">
        <ele>285</ele>
        <time>2013-08-22T16:32:28Z</time>
      </trkpt>
      <trkpt lat="44.79305" lon="4.97329">
        <ele>284</ele>
        <time>2013-08-22T16:32:29Z</time>
      </trkpt>
      <trkpt lat="44.79307" lon="4.97328">
        <ele>283</ele>
        <time>2013-08-22T16:32:30Z</time>
      </trkpt>
      <trkpt lat="44.79309" lon="4.97327">
        <ele>282</ele>
        <time>2013-08-22T16:32:31Z</time>
      </trkpt>
      <trkpt lat="44.79311" lon="4.97326">
        <ele>281</ele>
        <time>2013-08-22T16:32:32Z</time>
      </trkpt>
      <trkpt lat="44.79313" lon="4.97324">
        <ele>280</ele>
        <time>2013-08-22T16:32:33Z</time>
      </trkpt>
      <trkpt lat="44.79314" lon="4.97322">
        <ele>279</ele>
        <time>2013-08-22T16:32:34Z</time>
      </trkpt>
      <trkpt lat="44.79315" lon="4.97319">
        <ele>279</ele>
        <time>2013-08-22T16:32:36Z</time>
      </trkpt>
      <trkpt lat="44.79317" lon="4.97317">
        <ele>278</ele>
        <time>2013-08-22T16:32:36Z</time>
      </trkpt>
      <trkpt lat="44.79318" lon="4.97314">
        <ele>278</ele>
        <time>2013-08-22T16:32:37Z</time>
      </trkpt>
      <trkpt lat="44.79319" lon="4.97312">
        <ele>278</ele>
        <time>2013-08-22T16:32:38Z</time>
      </trkpt>
      <trkpt lat="44.7932" lon="4.97309">
        <ele>278</ele>
        <time>2013-08-22T16:32:39Z</time>
      </trkpt>
      <trkpt lat="44.79322" lon="4.97306">
        <ele>278</ele>
        <time>2013-08-22T16:32:40Z</time>
      </trkpt>
      <trkpt lat="44.79323" lon="4.97303">
        <ele>278</ele>
        <time>2013-08-22T16:32:41Z</time>
      </trkpt>
      <trkpt lat="44.79324" lon="4.97301">
        <ele>278</ele>
        <time>2013-08-22T16:32:42Z</time>
      </trkpt>
      <trkpt lat="44.79325" lon="4.97299">
        <ele>278</ele>
        <time>2013-08-22T16:32:43Z</time>
      </trkpt>
      <trkpt lat="44.79327" lon="4.97296">
        <ele>278</ele>
        <time>2013-08-22T16:32:44Z</time>
      </trkpt>
      <trkpt lat="44.79328" lon="4.97294">
        <ele>278</ele>
        <time>2013-08-22T16:32:45Z</time>
      </trkpt>
      <trkpt lat="44.79329" lon="4.97292">
        <ele>278</ele>
        <time>2013-08-22T16:32:46Z</time>
      </trkpt>
      <trkpt lat="44.79331" lon="4.9729">
        <ele>278</ele>
        <time>2013-08-22T16:32:47Z</time>
      </trkpt>
      <trkpt lat="44.79333" lon="4.97288">
        <ele>277</ele>
        <time>2013-08-22T16:32:48Z</time>
      </trkpt>
      <trkpt lat="44.79335" lon="4.97288">
        <ele>277</ele>
        <time>2013-08-22T16:32:49Z</time>
      </trkpt>
      <trkpt lat="44.79337" lon="4.97286">
        <ele>275</ele>
        <time>2013-08-22T16:32:51Z</time>
      </trkpt>
      <trkpt lat="44.79336" lon="4.97283">
        <ele>274</ele>
        <time>2013-08-22T16:32:52Z</time>
      </trkpt>
      <trkpt lat="44.79336" lon="4.9728">
        <ele>274</ele>
        <time>2013-08-22T16:32:53Z</time>
      </trkpt>
      <trkpt lat="44.79335" lon="4.97278">
        <ele>273</ele>
        <time>2013-08-22T16:32:54Z</time>
      </trkpt>
      <trkpt lat="44.79333" lon="4.97275">
        <ele>272</ele>
        <time>2013-08-22T16:32:55Z</time>
      </trkpt>
      <trkpt lat="44.79331" lon="4.97273">
        <ele>272</ele>
        <time>2013-08-22T16:32:56Z</time>
      </trkpt>
      <trkpt lat="44.79329" lon="4.97271">
        <ele>272</ele>
        <time>2013-08-22T16:32:57Z</time>
      </trkpt>
      <trkpt lat="44.79327" lon="4.97271">
        <ele>271</ele>
        <time>2013-08-22T16:32:58Z</time>
      </trkpt>
      <trkpt lat="44.79326" lon="4.97269">
        <ele>270</ele>
        <time>2013-08-22T16:32:59Z</time>
      </trkpt>
      <trkpt lat="44.79325" lon="4.97268">
        <ele>269</ele>
        <time>2013-08-22T16:33:00Z</time>
      </trkpt>
      <trkpt lat="44.79323" lon="4.97267">
        <ele>269</ele>
        <time>2013-08-22T16:33:01Z</time>
      </trkpt>
      <trkpt lat="44.79321" lon="4.97267">
        <ele>268</ele>
        <time>2013-08-22T16:33:02Z</time>
      </trkpt>
      <trkpt lat="44.79319" lon="4.97266">
        <ele>268</ele>
        <time>2013-08-22T16:33:03Z</time>
      </trkpt>
      <trkpt lat="44.79317" lon="4.97265">
        <ele>267</ele>
        <time>2013-08-22T16:33:04Z</time>
      </trkpt>
      <trkpt lat="44.79316" lon="4.97264">
        <ele>267</ele>
        <time>2013-08-22T16:33:05Z</time>
      </trkpt>
      <trkpt lat="44.79313" lon="4.97264">
        <ele>267</ele>
        <time>2013-08-22T16:33:06Z</time>
      </trkpt>
      <trkpt lat="44.79311" lon="4.97264">
        <ele>267</ele>
        <time>2013-08-22T16:33:07Z</time>
      </trkpt>
      <trkpt lat="44.79309" lon="4.97264">
        <ele>266</ele>
        <time>2013-08-22T16:33:08Z</time>
      </trkpt>
      <trkpt lat="44.79307" lon="4.97265">
        <ele>266</ele>
        <time>2013-08-22T16:33:09Z</time>
      </trkpt>
      <trkpt lat="44.79306" lon="4.97266">
        <ele>266</ele>
        <time>2013-08-22T16:33:10Z</time>
      </trkpt>
      <trkpt lat="44.79304" lon="4.97267">
        <ele>265</ele>
        <time>2013-08-22T16:33:11Z</time>
      </trkpt>
      <trkpt lat="44.79302" lon="4.97268">
        <ele>265</ele>
        <time>2013-08-22T16:33:12Z</time>
      </trkpt>
      <trkpt lat="44.793" lon="4.97268">
        <ele>264</ele>
        <time>2013-08-22T16:33:13Z</time>
      </trkpt>
      <trkpt lat="44.79298" lon="4.97269">
        <ele>264</ele>
        <time>2013-08-22T16:33:14Z</time>
      </trkpt>
      <trkpt lat="44.79295" lon="4.97268">
        <ele>264</ele>
        <time>2013-08-22T16:33:15Z</time>
      </trkpt>
      <trkpt lat="44.79292" lon="4.97268">
        <ele>264</ele>
        <time>2013-08-22T16:33:16Z</time>
      </trkpt>
      <trkpt lat="44.7929" lon="4.97269">
        <ele>264</ele>
        <time>2013-08-22T16:33:17Z</time>
      </trkpt>
      <trkpt lat="44.79288" lon="4.97271">
        <ele>264</ele>
        <time>2013-08-22T16:33:18Z</time>
      </trkpt>
      <trkpt lat="44.79286" lon="4.97271">
        <ele>264</ele>
        <time>2013-08-22T16:33:19Z</time>
      </trkpt>
      <trkpt lat="44.79284" lon="4.97272">
        <ele>264</ele>
        <time>2013-08-22T16:33:20Z</time>
      </trkpt>
      <trkpt lat="44.79282" lon="4.97272">
        <ele>264</ele>
        <time>2013-08-22T16:33:21Z</time>
      </trkpt>
      <trkpt lat="44.7928" lon="4.97274">
        <ele>264</ele>
        <time>2013-08-22T16:33:22Z</time>
      </trkpt>
      <trkpt lat="44.79278" lon="4.97274">
        <ele>264</ele>
        <time>2013-08-22T16:33:23Z</time>
      </trkpt>
      <trkpt lat="44.79276" lon="4.97275">
        <ele>264</ele>
        <time>2013-08-22T16:33:24Z</time>
      </trkpt>
      <trkpt lat="44.79275" lon="4.97275">
        <ele>264</ele>
        <time>2013-08-22T16:33:25Z</time>
      </trkpt>
      <trkpt lat="44.79273" lon="4.97276">
        <ele>264</ele>
        <time>2013-08-22T16:33:26Z</time>
      </trkpt>
      <trkpt lat="44.79272" lon="4.97276">
        <ele>264</ele>
        <time>2013-08-22T16:33:27Z</time>
      </trkpt>
      <trkpt lat="44.79269" lon="4.9728">
        <ele>264</ele>
        <time>2013-08-22T16:33:29Z</time>
      </trkpt>
      <trkpt lat="44.79266" lon="4.97284">
        <ele>264</ele>
        <time>2013-08-22T16:33:30Z</time>
      </trkpt>
      <trkpt lat="44.79264" lon="4.97287">
        <ele>264</ele>
        <time>2013-08-22T16:33:31Z</time>
      </trkpt>
      <trkpt lat="44.79261" lon="4.97291">
        <ele>263</ele>
        <time>2013-08-22T16:33:32Z</time>
      </trkpt>
      <trkpt lat="44.79259" lon="4.97294">
        <ele>263</ele>
        <time>2013-08-22T16:33:33Z</time>
      </trkpt>
      <trkpt lat="44.79257" lon="4.97297">
        <ele>263</ele>
        <time>2013-08-22T16:33:34Z</time>
      </trkpt>
      <trkpt lat="44.79254" lon="4.973">
        <ele>262</ele>
        <time>2013-08-22T16:33:35Z</time>
      </trkpt>
      <trkpt lat="44.79252" lon="4.97303">
        <ele>262</ele>
        <time>2013-08-22T16:33:36Z</time>
      </trkpt>
      <trkpt lat="44.7925" lon="4.97307">
        <ele>262</ele>
        <time>2013-08-22T16:33:37Z</time>
      </trkpt>
      <trkpt lat="44.79248" lon="4.9731">
        <ele>262</ele>
        <time>2013-08-22T16:33:38Z</time>
      </trkpt>
      <trkpt lat="44.79246" lon="4.97313">
        <ele>262</ele>
        <time>2013-08-22T16:33:39Z</time>
      </trkpt>
      <trkpt lat="44.79244" lon="4.97316">
        <ele>262</ele>
        <time>2013-08-22T16:33:40Z</time>
      </trkpt>
      <trkpt lat="44.79242" lon="4.97318">
        <ele>262</ele>
        <time>2013-08-22T16:33:41Z</time>
      </trkpt>
      <trkpt lat="44.7924" lon="4.97321">
        <ele>262</ele>
        <time>2013-08-22T16:33:42Z</time>
      </trkpt>
      <trkpt lat="44.79238" lon="4.97323">
        <ele>262</ele>
        <time>2013-08-22T16:33:43Z</time>
      </trkpt>
      <trkpt lat="44.79236" lon="4.97325">
        <ele>262</ele>
        <time>2013-08-22T16:33:44Z</time>
      </trkpt>
      <trkpt lat="44.79234" lon="4.97327">
        <ele>262</ele>
        <time>2013-08-22T16:33:45Z</time>
      </trkpt>
      <trkpt lat="44.79232" lon="4.97328">
        <ele>262</ele>
        <time>2013-08-22T16:33:46Z</time>
      </trkpt>
      <trkpt lat="44.7923" lon="4.9733">
        <ele>262</ele>
        <time>2013-08-22T16:33:47Z</time>
      </trkpt>
      <trkpt lat="44.79229" lon="4.97331">
        <ele>262</ele>
        <time>2013-08-22T16:33:48Z</time>
      </trkpt>
      <trkpt lat="44.79227" lon="4.97333">
        <ele>261</ele>
        <time>2013-08-22T16:33:49Z</time>
      </trkpt>
      <trkpt lat="44.79225" lon="4.97334">
        <ele>261</ele>
        <time>2013-08-22T16:33:50Z</time>
      </trkpt>
      <trkpt lat="44.79222" lon="4.97336">
        <ele>261</ele>
        <time>2013-08-22T16:33:51Z</time>
      </trkpt>
      <trkpt lat="44.79219" lon="4.97338">
        <ele>261</ele>
        <time>2013-08-22T16:33:52Z</time>
      </trkpt>
      <trkpt lat="44.79217" lon="4.9734">
        <ele>261</ele>
        <time>2013-08-22T16:33:53Z</time>
      </trkpt>
      <trkpt lat="44.79215" lon="4.97341">
        <ele>261</ele>
        <time>2013-08-22T16:33:54Z</time>
      </trkpt>
      <trkpt lat="44.79213" lon="4.97342">
        <ele>261</ele>
        <time>2013-08-22T16:33:55Z</time>
      </trkpt>
      <trkpt lat="44.79211" lon="4.97343">
        <ele>261</ele>
        <time>2013-08-22T16:33:56Z</time>
      </trkpt>
      <trkpt lat="44.79208" lon="4.97344">
        <ele>261</ele>
        <time>2013-08-22T16:33:57Z</time>
      </trkpt>
      <trkpt lat="44.79206" lon="4.97345">
        <ele>261</ele>
        <time>2013-08-22T16:33:58Z</time>
      </trkpt>
      <trkpt lat="44.79203" lon="4.97346">
        <ele>261</ele>
        <time>2013-08-22T16:33:59Z</time>
      </trkpt>
      <trkpt lat="44.792" lon="4.97346">
        <ele>261</ele>
        <time>2013-08-22T16:34:00Z</time>
      </trkpt>
      <trkpt lat="44.79197" lon="4.97347">
        <ele>261</ele>
        <time>2013-08-22T16:34:01Z</time>
      </trkpt>
      <trkpt lat="44.79195" lon="4.97349">
        <ele>261</ele>
        <time>2013-08-22T16:34:02Z</time>
      </trkpt>
      <trkpt lat="44.79192" lon="4.97351">
        <ele>261</ele>
        <time>2013-08-22T16:34:03Z</time>
      </trkpt>
      <trkpt lat="44.79188" lon="4.97351">
        <ele>261</ele>
        <time>2013-08-22T16:34:04Z</time>
      </trkpt>
      <trkpt lat="44.79185" lon="4.97352">
        <ele>261</ele>
        <time>2013-08-22T16:34:05Z</time>
      </trkpt>
      <trkpt lat="44.79183" lon="4.97352">
        <ele>261</ele>
        <time>2013-08-22T16:34:06Z</time>
      </trkpt>
      <trkpt lat="44.7918" lon="4.97352">
        <ele>261</ele>
        <time>2013-08-22T16:34:07Z</time>
      </trkpt>
      <trkpt lat="44.79178" lon="4.97352">
        <ele>261</ele>
        <time>2013-08-22T16:34:08Z</time>
      </trkpt>
      <trkpt lat="44.79176" lon="4.97353">
        <ele>261</ele>
        <time>2013-08-22T16:34:09Z</time>
      </trkpt>
      <trkpt lat="44.79174" lon="4.97354">
        <ele>261</ele>
        <time>2013-08-22T16:34:10Z</time>
      </trkpt>
      <trkpt lat="44.79171" lon="4.97353">
        <ele>261</ele>
        <time>2013-08-22T16:34:11Z</time>
      </trkpt>
      <trkpt lat="44.79168" lon="4.97353">
        <ele>261</ele>
        <time>2013-08-22T16:34:12Z</time>
      </trkpt>
      <trkpt lat="44.79165" lon="4.97353">
        <ele>261</ele>
        <time>2013-08-22T16:34:13Z</time>
      </trkpt>
      <trkpt lat="44.79162" lon="4.97352">
        <ele>261</ele>
        <time>2013-08-22T16:34:14Z</time>
      </trkpt>
      <trkpt lat="44.79159" lon="4.9735">
        <ele>261</ele>
        <time>2013-08-22T16:34:15Z</time>
      </trkpt>
      <trkpt lat="44.79157" lon="4.97348">
        <ele>261</ele>
        <time>2013-08-22T16:34:16Z</time>
      </trkpt>
      <trkpt lat="44.79154" lon="4.97347">
        <ele>261</ele>
        <time>2013-08-22T16:34:17Z</time>
      </trkpt>
      <trkpt lat="44.79152" lon="4.97347">
        <ele>261</ele>
        <time>2013-08-22T16:34:18Z</time>
      </trkpt>
      <trkpt lat="44.79148" lon="4.97347">
        <ele>261</ele>
        <time>2013-08-22T16:34:19Z</time>
      </trkpt>
      <trkpt lat="44.79145" lon="4.97346">
        <ele>261</ele>
        <time>2013-08-22T16:34:20Z</time>
      </trkpt>
      <trkpt lat="44.79143" lon="4.97345">
        <ele>261</ele>
        <time>2013-08-22T16:34:21Z</time>
      </trkpt>
      <trkpt lat="44.7914" lon="4.97344">
        <ele>262</ele>
        <time>2013-08-22T16:34:22Z</time>
      </trkpt>
      <trkpt lat="44.79138" lon="4.97343">
        <ele>263</ele>
        <time>2013-08-22T16:34:23Z</time>
      </trkpt>
      <trkpt lat="44.79135" lon="4.97343">
        <ele>263</ele>
        <time>2013-08-22T16:34:24Z</time>
      </trkpt>
      <trkpt lat="44.79132" lon="4.97343">
        <ele>264</ele>
        <time>2013-08-22T16:34:25Z</time>
      </trkpt>
      <trkpt lat="44.79129" lon="4.97342">
        <ele>264</ele>
        <time>2013-08-22T16:34:26Z</time>
      </trkpt>
      <trkpt lat="44.79127" lon="4.9734">
        <ele>265</ele>
        <time>2013-08-22T16:34:27Z</time>
      </trkpt>
      <trkpt lat="44.79124" lon="4.97338">
        <ele>266</ele>
        <time>2013-08-22T16:34:28Z</time>
      </trkpt>
      <trkpt lat="44.79122" lon="4.97335">
        <ele>266</ele>
        <time>2013-08-22T16:34:29Z</time>
      </trkpt>
      <trkpt lat="44.79119" lon="4.97333">
        <ele>267</ele>
        <time>2013-08-22T16:34:30Z</time>
      </trkpt>
      <trkpt lat="44.79117" lon="4.97331">
        <ele>267</ele>
        <time>2013-08-22T16:34:31Z</time>
      </trkpt>
      <trkpt lat="44.79115" lon="4.97329">
        <ele>268</ele>
        <time>2013-08-22T16:34:32Z</time>
      </trkpt>
      <trkpt lat="44.79113" lon="4.97326">
        <ele>268</ele>
        <time>2013-08-22T16:34:33Z</time>
      </trkpt>
      <trkpt lat="44.79111" lon="4.97324">
        <ele>269</ele>
        <time>2013-08-22T16:34:34Z</time>
      </trkpt>
      <trkpt lat="44.79109" lon="4.97322">
        <ele>269</ele>
        <time>2013-08-22T16:34:35Z</time>
      </trkpt>
      <trkpt lat="44.79106" lon="4.9732">
        <ele>270</ele>
        <time>2013-08-22T16:34:36Z</time>
      </trkpt>
      <trkpt lat="44.79104" lon="4.97317">
        <ele>270</ele>
        <time>2013-08-22T16:34:37Z</time>
      </trkpt>
      <trkpt lat="44.79102" lon="4.97315">
        <ele>270</ele>
        <time>2013-08-22T16:34:38Z</time>
      </trkpt>
      <trkpt lat="44.79099" lon="4.97313">
        <ele>270</ele>
        <time>2013-08-22T16:34:39Z</time>
      </trkpt>
      <trkpt lat="44.79096" lon="4.97311">
        <ele>271</ele>
        <time>2013-08-22T16:34:40Z</time>
      </trkpt>
      <trkpt lat="44.79094" lon="4.9731">
        <ele>271</ele>
        <time>2013-08-22T16:34:41Z</time>
      </trkpt>
      <trkpt lat="44.79091" lon="4.97308">
        <ele>271</ele>
        <time>2013-08-22T16:34:42Z</time>
      </trkpt>
      <trkpt lat="44.79089" lon="4.97307">
        <ele>272</ele>
        <time>2013-08-22T16:34:43Z</time>
      </trkpt>
      <trkpt lat="44.79086" lon="4.97307">
        <ele>272</ele>
        <time>2013-08-22T16:34:44Z</time>
      </trkpt>
      <trkpt lat="44.79084" lon="4.97307">
        <ele>272</ele>
        <time>2013-08-22T16:34:45Z</time>
      </trkpt>
      <trkpt lat="44.79081" lon="4.97307">
        <ele>273</ele>
        <time>2013-08-22T16:34:46Z</time>
      </trkpt>
      <trkpt lat="44.79079" lon="4.97308">
        <ele>273</ele>
        <time>2013-08-22T16:34:47Z</time>
      </trkpt>
      <trkpt lat="44.79077" lon="4.9731">
        <ele>273</ele>
        <time>2013-08-22T16:34:48Z</time>
      </trkpt>
      <trkpt lat="44.79074" lon="4.97311">
        <ele>273</ele>
        <time>2013-08-22T16:34:49Z</time>
      </trkpt>
      <trkpt lat="44.79072" lon="4.97313">
        <ele>273</ele>
        <time>2013-08-22T16:34:50Z</time>
      </trkpt>
      <trkpt lat="44.7907" lon="4.97315">
        <ele>273</ele>
        <time>2013-08-22T16:34:51Z</time>
      </trkpt>
      <trkpt lat="44.79068" lon="4.97318">
        <ele>273</ele>
        <time>2013-08-22T16:34:52Z</time>
      </trkpt>
      <trkpt lat="44.79066" lon="4.97321">
        <ele>273</ele>
        <time>2013-08-22T16:34:53Z</time>
      </trkpt>
      <trkpt lat="44.79065" lon="4.97324">
        <ele>273</ele>
        <time>2013-08-22T16:34:54Z</time>
      </trkpt>
      <trkpt lat="44.79063" lon="4.97326">
        <ele>273</ele>
        <time>2013-08-22T16:34:55Z</time>
      </trkpt>
      <trkpt lat="44.79061" lon="4.97329">
        <ele>273</ele>
        <time>2013-08-22T16:34:56Z</time>
      </trkpt>
      <trkpt lat="44.7906" lon="4.97333">
        <ele>273</ele>
        <time>2013-08-22T16:34:57Z</time>
      </trkpt>
      <trkpt lat="44.79057" lon="4.97337">
        <ele>273</ele>
        <time>2013-08-22T16:34:58Z</time>
      </trkpt>
      <trkpt lat="44.79055" lon="4.9734">
        <ele>273</ele>
        <time>2013-08-22T16:34:59Z</time>
      </trkpt>
      <trkpt lat="44.79053" lon="4.97343">
        <ele>273</ele>
        <time>2013-08-22T16:35:00Z</time>
      </trkpt>
      <trkpt lat="44.79052" lon="4.97347">
        <ele>273</ele>
        <time>2013-08-22T16:35:01Z</time>
      </trkpt>
      <trkpt lat="44.7905" lon="4.9735">
        <ele>273</ele>
        <time>2013-08-22T16:35:02Z</time>
      </trkpt>
      <trkpt lat="44.79049" lon="4.97354">
        <ele>273</ele>
        <time>2013-08-22T16:35:03Z</time>
      </trkpt>
      <trkpt lat="44.79047" lon="4.97357">
        <ele>273</ele>
        <time>2013-08-22T16:35:04Z</time>
      </trkpt>
      <trkpt lat="44.79046" lon="4.97359">
        <ele>273</ele>
        <time>2013-08-22T16:35:05Z</time>
      </trkpt>
      <trkpt lat="44.79043" lon="4.97361">
        <ele>273</ele>
        <time>2013-08-22T16:35:06Z</time>
      </trkpt>
      <trkpt lat="44.7904" lon="4.97362">
        <ele>272</ele>
        <time>2013-08-22T16:35:07Z</time>
      </trkpt>
      <trkpt lat="44.79037" lon="4.97361">
        <ele>272</ele>
        <time>2013-08-22T16:35:08Z</time>
      </trkpt>
      <trkpt lat="44.79035" lon="4.9736">
        <ele>272</ele>
        <time>2013-08-22T16:35:09Z</time>
      </trkpt>
      <trkpt lat="44.79033" lon="4.97358">
        <ele>272</ele>
        <time>2013-08-22T16:35:10Z</time>
      </trkpt>
      <trkpt lat="44.79031" lon="4.97356">
        <ele>272</ele>
        <time>2013-08-22T16:35:11Z</time>
      </trkpt>
      <trkpt lat="44.79029" lon="4.97354">
        <ele>272</ele>
        <time>2013-08-22T16:35:12Z</time>
      </trkpt>
      <trkpt lat="44.79027" lon="4.97352">
        <ele>272</ele>
        <time>2013-08-22T16:35:13Z</time>
      </trkpt>
      <trkpt lat="44.79025" lon="4.97351">
        <ele>272</ele>
        <time>2013-08-22T16:35:14Z</time>
      </trkpt>
      <trkpt lat="44.79023" lon="4.97351">
        <ele>272</ele>
        <time>2013-08-22T16:35:15Z</time>
      </trkpt>
      <trkpt lat="44.79021" lon="4.9735">
        <ele>272</ele>
        <time>2013-08-22T16:35:16Z</time>
      </trkpt>
      <trkpt lat="44.79018" lon="4.97348">
        <ele>272</ele>
        <time>2013-08-22T16:35:17Z</time>
      </trkpt>
      <trkpt lat="44.79016" lon="4.97347">
        <ele>272</ele>
        <time>2013-08-22T16:35:18Z</time>
      </trkpt>
      <trkpt lat="44.79013" lon="4.97345">
        <ele>272</ele>
        <time>2013-08-22T16:35:19Z</time>
      </trkpt>
      <trkpt lat="44.79012" lon="4.97344">
        <ele>272</ele>
        <time>2013-08-22T16:35:20Z</time>
      </trkpt>
      <trkpt lat="44.7901" lon="4.97342">
        <ele>272</ele>
        <time>2013-08-22T16:35:21Z</time>
      </trkpt>
      <trkpt lat="44.79007" lon="4.9734">
        <ele>272</ele>
        <time>2013-08-22T16:35:22Z</time>
      </trkpt>
      <trkpt lat="44.79005" lon="4.97338">
        <ele>271</ele>
        <time>2013-08-22T16:35:23Z</time>
      </trkpt>
      <trkpt lat="44.79003" lon="4.97337">
        <ele>271</ele>
        <time>2013-08-22T16:35:24Z</time>
      </trkpt>
      <trkpt lat="44.79001" lon="4.97335">
        <ele>271</ele>
        <time>2013-08-22T16:35:25Z</time>
      </trkpt>
      <trkpt lat="44.78999" lon="4.97333">
        <ele>270</ele>
        <time>2013-08-22T16:35:26Z</time>
      </trkpt>
      <trkpt lat="44.78997" lon="4.9733">
        <ele>270</ele>
        <time>2013-08-22T16:35:27Z</time>
      </trkpt>
      <trkpt lat="44.78995" lon="4.97328">
        <ele>270</ele>
        <time>2013-08-22T16:35:28Z</time>
      </trkpt>
      <trkpt lat="44.78993" lon="4.97326">
        <ele>270</ele>
        <time>2013-08-22T16:35:29Z</time>
      </trkpt>
      <trkpt lat="44.78991" lon="4.97323">
        <ele>270</ele>
        <time>2013-08-22T16:35:30Z</time>
      </trkpt>
      <trkpt lat="44.78989" lon="4.97321">
        <ele>270</ele>
        <time>2013-08-22T16:35:31Z</time>
      </trkpt>
      <trkpt lat="44.78986" lon="4.9732">
        <ele>270</ele>
        <time>2013-08-22T16:35:32Z</time>
      </trkpt>
      <trkpt lat="44.78984" lon="4.97318">
        <ele>270</ele>
        <time>2013-08-22T16:35:33Z</time>
      </trkpt>
      <trkpt lat="44.78982" lon="4.97317">
        <ele>270</ele>
        <time>2013-08-22T16:35:34Z</time>
      </trkpt>
      <trkpt lat="44.7898" lon="4.97316">
        <ele>270</ele>
        <time>2013-08-22T16:35:35Z</time>
      </trkpt>
      <trkpt lat="44.78978" lon="4.97315">
        <ele>270</ele>
        <time>2013-08-22T16:35:36Z</time>
      </trkpt>
      <trkpt lat="44.78976" lon="4.97313">
        <ele>270</ele>
        <time>2013-08-22T16:35:37Z</time>
      </trkpt>
      <trkpt lat="44.78973" lon="4.97312">
        <ele>270</ele>
        <time>2013-08-22T16:35:38Z</time>
      </trkpt>
      <trkpt lat="44.78971" lon="4.97311">
        <ele>270</ele>
        <time>2013-08-22T16:35:39Z</time>
      </trkpt>
      <trkpt lat="44.78969" lon="4.97309">
        <ele>270</ele>
        <time>2013-08-22T16:35:40Z</time>
      </trkpt>
      <trkpt lat="44.78967" lon="4.97309">
        <ele>270</ele>
        <time>2013-08-22T16:35:41Z</time>
      </trkpt>
      <trkpt lat="44.78965" lon="4.97309">
        <ele>270</ele>
        <time>2013-08-22T16:35:42Z</time>
      </trkpt>
      <trkpt lat="44.78962" lon="4.97308">
        <ele>270</ele>
        <time>2013-08-22T16:35:43Z</time>
      </trkpt>
      <trkpt lat="44.7896" lon="4.97309">
        <ele>270</ele>
        <time>2013-08-22T16:35:44Z</time>
      </trkpt>
      <trkpt lat="44.78958" lon="4.97309">
        <ele>270</ele>
        <time>2013-08-22T16:35:45Z</time>
      </trkpt>
      <trkpt lat="44.78956" lon="4.9731">
        <ele>270</ele>
        <time>2013-08-22T16:35:46Z</time>
      </trkpt>
      <trkpt lat="44.78954" lon="4.97312">
        <ele>270</ele>
        <time>2013-08-22T16:35:47Z</time>
      </trkpt>
      <trkpt lat="44.78952" lon="4.97313">
        <ele>270</ele>
        <time>2013-08-22T16:35:48Z</time>
      </trkpt>
      <trkpt lat="44.7895" lon="4.97315">
        <ele>270</ele>
        <time>2013-08-22T16:35:49Z</time>
      </trkpt>
      <trkpt lat="44.78948" lon="4.97317">
        <ele>270</ele>
        <time>2013-08-22T16:35:50Z</time>
      </trkpt>
      <trkpt lat="44.78946" lon="4.97319">
        <ele>270</ele>
        <time>2013-08-22T16:35:51Z</time>
      </trkpt>
      <trkpt lat="44.78944" lon="4.97321">
        <ele>270</ele>
        <time>2013-08-22T16:35:52Z</time>
      </trkpt>
      <trkpt lat="44.78942" lon="4.97324">
        <ele>270</ele>
        <time>2013-08-22T16:35:53Z</time>
      </trkpt>
      <trkpt lat="44.78939" lon="4.97327">
        <ele>270</ele>
        <time>2013-08-22T16:35:54Z</time>
      </trkpt>
      <trkpt lat="44.78936" lon="4.97329">
        <ele>270</ele>
        <time>2013-08-22T16:35:55Z</time>
      </trkpt>
      <trkpt lat="44.78933" lon="4.97331">
        <ele>270</ele>
        <time>2013-08-22T16:35:56Z</time>
      </trkpt>
      <trkpt lat="44.78931" lon="4.97332">
        <ele>270</ele>
        <time>2013-08-22T16:35:57Z</time>
      </trkpt>
      <trkpt lat="44.78929" lon="4.97334">
        <ele>270</ele>
        <time>2013-08-22T16:35:58Z</time>
      </trkpt>
      <trkpt lat="44.78928" lon="4.97337">
        <ele>270</ele>
        <time>2013-08-22T16:35:59Z</time>
      </trkpt>
      <trkpt lat="44.78926" lon="4.97339">
        <ele>270</ele>
        <time>2013-08-22T16:36:00Z</time>
      </trkpt>
      <trkpt lat="44.78923" lon="4.97342">
        <ele>270</ele>
        <time>2013-08-22T16:36:01Z</time>
      </trkpt>
      <trkpt lat="44.78923" lon="4.97345">
        <ele>270</ele>
        <time>2013-08-22T16:36:02Z</time>
      </trkpt>
      <trkpt lat="44.78923" lon="4.97349">
        <ele>270</ele>
        <time>2013-08-22T16:36:03Z</time>
      </trkpt>
      <trkpt lat="44.78922" lon="4.97353">
        <ele>270</ele>
        <time>2013-08-22T16:36:04Z</time>
      </trkpt>
      <trkpt lat="44.78922" lon="4.97356">
        <ele>270</ele>
        <time>2013-08-22T16:36:05Z</time>
      </trkpt>
      <trkpt lat="44.7892" lon="4.97359">
        <ele>271</ele>
        <time>2013-08-22T16:36:06Z</time>
      </trkpt>
      <trkpt lat="44.78918" lon="4.97362">
        <ele>271</ele>
        <time>2013-08-22T16:36:07Z</time>
      </trkpt>
      <trkpt lat="44.78916" lon="4.97365">
        <ele>271</ele>
        <time>2013-08-22T16:36:08Z</time>
      </trkpt>
      <trkpt lat="44.78913" lon="4.97368">
        <ele>271</ele>
        <time>2013-08-22T16:36:09Z</time>
      </trkpt>
      <trkpt lat="44.78911" lon="4.97371">
        <ele>271</ele>
        <time>2013-08-22T16:36:10Z</time>
      </trkpt>
      <trkpt lat="44.78909" lon="4.97374">
        <ele>271</ele>
        <time>2013-08-22T16:36:11Z</time>
      </trkpt>
      <trkpt lat="44.78905" lon="4.97377">
        <ele>271</ele>
        <time>2013-08-22T16:36:12Z</time>
      </trkpt>
      <trkpt lat="44.78902" lon="4.97378">
        <ele>271</ele>
        <time>2013-08-22T16:36:13Z</time>
      </trkpt>
      <trkpt lat="44.789" lon="4.97378">
        <ele>271</ele>
        <time>2013-08-22T16:36:14Z</time>
      </trkpt>
      <trkpt lat="44.78897" lon="4.9738">
        <ele>271</ele>
        <time>2013-08-22T16:36:15Z</time>
      </trkpt>
      <trkpt lat="44.78893" lon="4.97382">
        <ele>271</ele>
        <time>2013-08-22T16:36:16Z</time>
      </trkpt>
      <trkpt lat="44.78891" lon="4.97384">
        <ele>270</ele>
        <time>2013-08-22T16:36:17Z</time>
      </trkpt>
      <trkpt lat="44.78889" lon="4.97386">
        <ele>269</ele>
        <time>2013-08-22T16:36:18Z</time>
      </trkpt>
      <trkpt lat="44.78888" lon="4.97388">
        <ele>269</ele>
        <time>2013-08-22T16:36:19Z</time>
      </trkpt>
      <trkpt lat="44.78886" lon="4.97389">
        <ele>268</ele>
        <time>2013-08-22T16:36:21Z</time>
      </trkpt>
      <trkpt lat="44.78884" lon="4.97391">
        <ele>268</ele>
        <time>2013-08-22T16:36:22Z</time>
      </trkpt>
      <trkpt lat="44.78882" lon="4.97394">
        <ele>267</ele>
        <time>2013-08-22T16:36:23Z</time>
      </trkpt>
      <trkpt lat="44.7888" lon="4.97397">
        <ele>267</ele>
        <time>2013-08-22T16:36:24Z</time>
      </trkpt>
      <trkpt lat="44.78879" lon="4.974">
        <ele>267</ele>
        <time>2013-08-22T16:36:25Z</time>
      </trkpt>
      <trkpt lat="44.78878" lon="4.97402">
        <ele>267</ele>
        <time>2013-08-22T16:36:26Z</time>
      </trkpt>
      <trkpt lat="44.78877" lon="4.97405">
        <ele>267</ele>
        <time>2013-08-22T16:36:27Z</time>
      </trkpt>
      <trkpt lat="44.78875" lon="4.97408">
        <ele>267</ele>
        <time>2013-08-22T16:36:28Z</time>
      </trkpt>
      <trkpt lat="44.78874" lon="4.97411">
        <ele>267</ele>
        <time>2013-08-22T16:36:29Z</time>
      </trkpt>
      <trkpt lat="44.78873" lon="4.97414">
        <ele>267</ele>
        <time>2013-08-22T16:36:30Z</time>
      </trkpt>
      <trkpt lat="44.78871" lon="4.97417">
        <ele>267</ele>
        <time>2013-08-22T16:36:31Z</time>
      </trkpt>
      <trkpt lat="44.78869" lon="4.9742">
        <ele>267</ele>
        <time>2013-08-22T16:36:32Z</time>
      </trkpt>
      <trkpt lat="44.78868" lon="4.97424">
        <ele>267</ele>
        <time>2013-08-22T16:36:33Z</time>
      </trkpt>
      <trkpt lat="44.78867" lon="4.97428">
        <ele>267</ele>
        <time>2013-08-22T16:36:34Z</time>
      </trkpt>
      <trkpt lat="44.78865" lon="4.97431">
        <ele>267</ele>
        <time>2013-08-22T16:36:35Z</time>
      </trkpt>
      <trkpt lat="44.78865" lon="4.97435">
        <ele>267</ele>
        <time>2013-08-22T16:36:36Z</time>
      </trkpt>
      <trkpt lat="44.78864" lon="4.97438">
        <ele>268</ele>
        <time>2013-08-22T16:36:37Z</time>
      </trkpt>
      <trkpt lat="44.78865" lon="4.97441">
        <ele>269</ele>
        <time>2013-08-22T16:36:38Z</time>
      </trkpt>
      <trkpt lat="44.78865" lon="4.97444">
        <ele>269</ele>
        <time>2013-08-22T16:36:39Z</time>
      </trkpt>
      <trkpt lat="44.78866" lon="4.97447">
        <ele>269</ele>
        <time>2013-08-22T16:36:40Z</time>
      </trkpt>
      <trkpt lat="44.78866" lon="4.9745">
        <ele>269</ele>
        <time>2013-08-22T16:36:41Z</time>
      </trkpt>
      <trkpt lat="44.78867" lon="4.97453">
        <ele>269</ele>
        <time>2013-08-22T16:36:42Z</time>
      </trkpt>
      <trkpt lat="44.78867" lon="4.97456">
        <ele>269</ele>
        <time>2013-08-22T16:36:43Z</time>
      </trkpt>
      <trkpt lat="44.78867" lon="4.97458">
        <ele>269</ele>
        <time>2013-08-22T16:36:44Z</time>
      </trkpt>
      <trkpt lat="44.78867" lon="4.97461">
        <ele>268</ele>
        <time>2013-08-22T16:36:45Z</time>
      </trkpt>
      <trkpt lat="44.78867" lon="4.97464">
        <ele>267</ele>
        <time>2013-08-22T16:36:46Z</time>
      </trkpt>
      <trkpt lat="44.78867" lon="4.97468">
        <ele>266</ele>
        <time>2013-08-22T16:36:47Z</time>
      </trkpt>
      <trkpt lat="44.78867" lon="4.97472">
        <ele>265</ele>
        <time>2013-08-22T16:36:48Z</time>
      </trkpt>
      <trkpt lat="44.78868" lon="4.97476">
        <ele>264</ele>
        <time>2013-08-22T16:36:49Z</time>
      </trkpt>
      <trkpt lat="44.78866" lon="4.9748">
        <ele>263</ele>
        <time>2013-08-22T16:36:50Z</time>
      </trkpt>
      <trkpt lat="44.78865" lon="4.97484">
        <ele>262</ele>
        <time>2013-08-22T16:36:51Z</time>
      </trkpt>
      <trkpt lat="44.78864" lon="4.97488">
        <ele>261</ele>
        <time>2013-08-22T16:36:52Z</time>
      </trkpt>
      <trkpt lat="44.78863" lon="4.97491">
        <ele>260</ele>
        <time>2013-08-22T16:36:53Z</time>
      </trkpt>
      <trkpt lat="44.78862" lon="4.97494">
        <ele>260</ele>
        <time>2013-08-22T16:36:54Z</time>
      </trkpt>
      <trkpt lat="44.78862" lon="4.97495">
        <ele>260</ele>
        <time>2013-08-22T16:36:55Z</time>
      </trkpt>
      <trkpt lat="44.7886" lon="4.97497">
        <ele>260</ele>
        <time>2013-08-22T16:36:56Z</time>
      </trkpt>
      <trkpt lat="44.78859" lon="4.97498">
        <ele>260</ele>
        <time>2013-08-22T16:36:57Z</time>
      </trkpt>
      <trkpt lat="44.78857" lon="4.97499">
        <ele>260</ele>
        <time>2013-08-22T16:36:58Z</time>
      </trkpt>
      <trkpt lat="44.78854" lon="4.97499">
        <ele>260</ele>
        <time>2013-08-22T16:36:59Z</time>
      </trkpt>
      <trkpt lat="44.78852" lon="4.975">
        <ele>260</ele>
        <time>2013-08-22T16:37:00Z</time>
      </trkpt>
      <trkpt lat="44.78849" lon="4.975">
        <ele>260</ele>
        <time>2013-08-22T16:37:01Z</time>
      </trkpt>
      <trkpt lat="44.78847" lon="4.975">
        <ele>260</ele>
        <time>2013-08-22T16:37:02Z</time>
      </trkpt>
      <trkpt lat="44.78845" lon="4.97501">
        <ele>260</ele>
        <time>2013-08-22T16:37:03Z</time>
      </trkpt>
      <trkpt lat="44.78842" lon="4.97501">
        <ele>260</ele>
        <time>2013-08-22T16:37:04Z</time>
      </trkpt>
      <trkpt lat="44.78841" lon="4.975">
        <ele>260</ele>
        <time>2013-08-22T16:37:05Z</time>
      </trkpt>
      <trkpt lat="44.78839" lon="4.975">
        <ele>260</ele>
        <time>2013-08-22T16:37:06Z</time>
      </trkpt>
      <trkpt lat="44.78837" lon="4.975">
        <ele>260</ele>
        <time>2013-08-22T16:37:07Z</time>
      </trkpt>
      <trkpt lat="44.78835" lon="4.97501">
        <ele>260</ele>
        <time>2013-08-22T16:37:08Z</time>
      </trkpt>
      <trkpt lat="44.78833" lon="4.97501">
        <ele>261</ele>
        <time>2013-08-22T16:37:09Z</time>
      </trkpt>
      <trkpt lat="44.7883" lon="4.97502">
        <ele>261</ele>
        <time>2013-08-22T16:37:10Z</time>
      </trkpt>
      <trkpt lat="44.78828" lon="4.97502">
        <ele>261</ele>
        <time>2013-08-22T16:37:11Z</time>
      </trkpt>
      <trkpt lat="44.78825" lon="4.97504">
        <ele>262</ele>
        <time>2013-08-22T16:37:12Z</time>
      </trkpt>
      <trkpt lat="44.78822" lon="4.97506">
        <ele>262</ele>
        <time>2013-08-22T16:37:13Z</time>
      </trkpt>
      <trkpt lat="44.78819" lon="4.97509">
        <ele>262</ele>
        <time>2013-08-22T16:37:14Z</time>
      </trkpt>
      <trkpt lat="44.78816" lon="4.97512">
        <ele>262</ele>
        <time>2013-08-22T16:37:15Z</time>
      </trkpt>
      <trkpt lat="44.78814" lon="4.97514">
        <ele>262</ele>
        <time>2013-08-22T16:37:16Z</time>
      </trkpt>
      <trkpt lat="44.78811" lon="4.97516">
        <ele>262</ele>
        <time>2013-08-22T16:37:17Z</time>
      </trkpt>
      <trkpt lat="44.78809" lon="4.97519">
        <ele>262</ele>
        <time>2013-08-22T16:37:18Z</time>
      </trkpt>
      <trkpt lat="44.78806" lon="4.9752">
        <ele>262</ele>
        <time>2013-08-22T16:37:19Z</time>
      </trkpt>
      <trkpt lat="44.78804" lon="4.97522">
        <ele>262</ele>
        <time>2013-08-22T16:37:20Z</time>
      </trkpt>
      <trkpt lat="44.78801" lon="4.97524">
        <ele>262</ele>
        <time>2013-08-22T16:37:21Z</time>
      </trkpt>
      <trkpt lat="44.78799" lon="4.97526">
        <ele>262</ele>
        <time>2013-08-22T16:37:22Z</time>
      </trkpt>
      <trkpt lat="44.78796" lon="4.97528">
        <ele>262</ele>
        <time>2013-08-22T16:37:23Z</time>
      </trkpt>
      <trkpt lat="44.78794" lon="4.97529">
        <ele>262</ele>
        <time>2013-08-22T16:37:24Z</time>
      </trkpt>
      <trkpt lat="44.78792" lon="4.97531">
        <ele>262</ele>
        <time>2013-08-22T16:37:25Z</time>
      </trkpt>
      <trkpt lat="44.7879" lon="4.97532">
        <ele>262</ele>
        <time>2013-08-22T16:37:26Z</time>
      </trkpt>
      <trkpt lat="44.78789" lon="4.97534">
        <ele>262</ele>
        <time>2013-08-22T16:37:27Z</time>
      </trkpt>
      <trkpt lat="44.78787" lon="4.97536">
        <ele>262</ele>
        <time>2013-08-22T16:37:28Z</time>
      </trkpt>
      <trkpt lat="44.78785" lon="4.97538">
        <ele>262</ele>
        <time>2013-08-22T16:37:29Z</time>
      </trkpt>
      <trkpt lat="44.78783" lon="4.97539">
        <ele>262</ele>
        <time>2013-08-22T16:37:30Z</time>
      </trkpt>
      <trkpt lat="44.7878" lon="4.9754">
        <ele>262</ele>
        <time>2013-08-22T16:37:31Z</time>
      </trkpt>
      <trkpt lat="44.78777" lon="4.97541">
        <ele>262</ele>
        <time>2013-08-22T16:37:32Z</time>
      </trkpt>
      <trkpt lat="44.78774" lon="4.97542">
        <ele>262</ele>
        <time>2013-08-22T16:37:33Z</time>
      </trkpt>
      <trkpt lat="44.78772" lon="4.97543">
        <ele>262</ele>
        <time>2013-08-22T16:37:34Z</time>
      </trkpt>
      <trkpt lat="44.7877" lon="4.97545">
        <ele>262</ele>
        <time>2013-08-22T16:37:35Z</time>
      </trkpt>
      <trkpt lat="44.78768" lon="4.97547">
        <ele>262</ele>
        <time>2013-08-22T16:37:36Z</time>
      </trkpt>
      <trkpt lat="44.78767" lon="4.9755">
        <ele>262</ele>
        <time>2013-08-22T16:37:37Z</time>
      </trkpt>
      <trkpt lat="44.78765" lon="4.97554">
        <ele>262</ele>
        <time>2013-08-22T16:37:38Z</time>
      </trkpt>
      <trkpt lat="44.78764" lon="4.97557">
        <ele>262</ele>
        <time>2013-08-22T16:37:39Z</time>
      </trkpt>
      <trkpt lat="44.78764" lon="4.97559">
        <ele>262</ele>
        <time>2013-08-22T16:37:40Z</time>
      </trkpt>
      <trkpt lat="44.78764" lon="4.97562">
        <ele>262</ele>
        <time>2013-08-22T16:37:41Z</time>
      </trkpt>
      <trkpt lat="44.78764" lon="4.97564">
        <ele>262</ele>
        <time>2013-08-22T16:37:42Z</time>
      </trkpt>
      <trkpt lat="44.78764" lon="4.97566">
        <ele>262</ele>
        <time>2013-08-22T16:37:43Z</time>
      </trkpt>
      <trkpt lat="44.78765" lon="4.97569">
        <ele>262</ele>
        <time>2013-08-22T16:37:45Z</time>
      </trkpt>
      <trkpt lat="44.78765" lon="4.97571">
        <ele>262</ele>
        <time>2013-08-22T16:37:46Z</time>
      </trkpt>
      <trkpt lat="44.78766" lon="4.97573">
        <ele>262</ele>
        <time>2013-08-22T16:37:47Z</time>
      </trkpt>
      <trkpt lat="44.78768" lon="4.97575">
        <ele>262</ele>
        <time>2013-08-22T16:37:48Z</time>
      </trkpt>
      <trkpt lat="44.7877" lon="4.97577">
        <ele>262</ele>
        <time>2013-08-22T16:37:49Z</time>
      </trkpt>
      <trkpt lat="44.78771" lon="4.97578">
        <ele>262</ele>
        <time>2013-08-22T16:37:50Z</time>
      </trkpt>
      <trkpt lat="44.78772" lon="4.97579">
        <ele>262</ele>
        <time>2013-08-22T16:37:51Z</time>
      </trkpt>
      <trkpt lat="44.78773" lon="4.97581">
        <ele>262</ele>
        <time>2013-08-22T16:37:52Z</time>
      </trkpt>
      <trkpt lat="44.78775" lon="4.97583">
        <ele>262</ele>
        <time>2013-08-22T16:37:53Z</time>
      </trkpt>
      <trkpt lat="44.78775" lon="4.97586">
        <ele>262</ele>
        <time>2013-08-22T16:37:54Z</time>
      </trkpt>
      <trkpt lat="44.78776" lon="4.97587">
        <ele>262</ele>
        <time>2013-08-22T16:37:55Z</time>
      </trkpt>
      <trkpt lat="44.78777" lon="4.97589">
        <ele>262</ele>
        <time>2013-08-22T16:37:56Z</time>
      </trkpt>
      <trkpt lat="44.78778" lon="4.97592">
        <ele>262</ele>
        <time>2013-08-22T16:37:57Z</time>
      </trkpt>
      <trkpt lat="44.78779" lon="4.97593">
        <ele>262</ele>
        <time>2013-08-22T16:37:58Z</time>
      </trkpt>
      <trkpt lat="44.78782" lon="4.97597">
        <ele>262</ele>
        <time>2013-08-22T16:37:59Z</time>
      </trkpt>
      <trkpt lat="44.78785" lon="4.97601">
        <ele>262</ele>
        <time>2013-08-22T16:38:00Z</time>
      </trkpt>
      <trkpt lat="44.78787" lon="4.97604">
        <ele>263</ele>
        <time>2013-08-22T16:38:01Z</time>
      </trkpt>
      <trkpt lat="44.7879" lon="4.97606">
        <ele>264</ele>
        <time>2013-08-22T16:38:02Z</time>
      </trkpt>
      <trkpt lat="44.78791" lon="4.97608">
        <ele>265</ele>
        <time>2013-08-22T16:38:03Z</time>
      </trkpt>
      <trkpt lat="44.78791" lon="4.97609">
        <ele>267</ele>
        <time>2013-08-22T16:38:05Z</time>
      </trkpt>
      <trkpt lat="44.78793" lon="4.97611">
        <ele>268</ele>
        <time>2013-08-22T16:38:06Z</time>
      </trkpt>
      <trkpt lat="44.78795" lon="4.97612">
        <ele>269</ele>
        <time>2013-08-22T16:38:07Z</time>
      </trkpt>
      <trkpt lat="44.78796" lon="4.97614">
        <ele>270</ele>
        <time>2013-08-22T16:38:08Z</time>
      </trkpt>
      <trkpt lat="44.78798" lon="4.97615">
        <ele>271</ele>
        <time>2013-08-22T16:38:09Z</time>
      </trkpt>
      <trkpt lat="44.788" lon="4.97617">
        <ele>273</ele>
        <time>2013-08-22T16:38:11Z</time>
      </trkpt>
      <trkpt lat="44.78801" lon="4.97618">
        <ele>273</ele>
        <time>2013-08-22T16:38:12Z</time>
      </trkpt>
      <trkpt lat="44.78802" lon="4.97619">
        <ele>273</ele>
        <time>2013-08-22T16:38:13Z</time>
      </trkpt>
      <trkpt lat="44.78804" lon="4.97621">
        <ele>273</ele>
        <time>2013-08-22T16:38:14Z</time>
      </trkpt>
      <trkpt lat="44.78805" lon="4.97622">
        <ele>273</ele>
        <time>2013-08-22T16:38:15Z</time>
      </trkpt>
      <trkpt lat="44.78806" lon="4.97624">
        <ele>273</ele>
        <time>2013-08-22T16:38:16Z</time>
      </trkpt>
      <trkpt lat="44.78807" lon="4.97626">
        <ele>273</ele>
        <time>2013-08-22T16:38:17Z</time>
      </trkpt>
      <trkpt lat="44.78808" lon="4.97628">
        <ele>273</ele>
        <time>2013-08-22T16:38:19Z</time>
      </trkpt>
      <trkpt lat="44.78809" lon="4.9763">
        <ele>273</ele>
        <time>2013-08-22T16:38:20Z</time>
      </trkpt>
      <trkpt lat="44.78811" lon="4.97631">
        <ele>273</ele>
        <time>2013-08-22T16:38:21Z</time>
      </trkpt>
      <trkpt lat="44.78812" lon="4.97633">
        <ele>273</ele>
        <time>2013-08-22T16:38:23Z</time>
      </trkpt>
      <trkpt lat="44.78814" lon="4.97635">
        <ele>272</ele>
        <time>2013-08-22T16:38:25Z</time>
      </trkpt>
      <trkpt lat="44.78817" lon="4.97638">
        <ele>271</ele>
        <time>2013-08-22T16:38:27Z</time>
      </trkpt>
      <trkpt lat="44.78819" lon="4.9764">
        <ele>271</ele>
        <time>2013-08-22T16:38:29Z</time>
      </trkpt>
      <trkpt lat="44.78821" lon="4.97641">
        <ele>270</ele>
        <time>2013-08-22T16:38:30Z</time>
      </trkpt>
      <trkpt lat="44.78823" lon="4.97642">
        <ele>270</ele>
        <time>2013-08-22T16:38:31Z</time>
      </trkpt>
      <trkpt lat="44.78825" lon="4.97643">
        <ele>269</ele>
        <time>2013-08-22T16:38:32Z</time>
      </trkpt>
      <trkpt lat="44.78826" lon="4.97645">
        <ele>269</ele>
        <time>2013-08-22T16:38:33Z</time>
      </trkpt>
      <trkpt lat="44.78829" lon="4.97646">
        <ele>269</ele>
        <time>2013-08-22T16:38:34Z</time>
      </trkpt>
      <trkpt lat="44.78831" lon="4.97646">
        <ele>269</ele>
        <time>2013-08-22T16:38:35Z</time>
      </trkpt>
      <trkpt lat="44.78832" lon="4.97647">
        <ele>269</ele>
        <time>2013-08-22T16:38:36Z</time>
      </trkpt>
      <trkpt lat="44.78833" lon="4.97647">
        <ele>269</ele>
        <time>2013-08-22T16:38:37Z</time>
      </trkpt>
      <trkpt lat="44.78835" lon="4.97647">
        <ele>269</ele>
        <time>2013-08-22T16:38:38Z</time>
      </trkpt>
      <trkpt lat="44.78838" lon="4.97647">
        <ele>269</ele>
        <time>2013-08-22T16:38:40Z</time>
      </trkpt>
      <trkpt lat="44.78841" lon="4.9765">
        <ele>269</ele>
        <time>2013-08-22T16:38:42Z</time>
      </trkpt>
      <trkpt lat="44.78842" lon="4.97651">
        <ele>269</ele>
        <time>2013-08-22T16:38:43Z</time>
      </trkpt>
      <trkpt lat="44.78844" lon="4.97652">
        <ele>269</ele>
        <time>2013-08-22T16:38:44Z</time>
      </trkpt>
      <trkpt lat="44.78845" lon="4.97651">
        <ele>271</ele>
        <time>2013-08-22T16:38:46Z</time>
      </trkpt>
      <trkpt lat="44.78846" lon="4.9765">
        <ele>272</ele>
        <time>2013-08-22T16:38:47Z</time>
      </trkpt>
      <trkpt lat="44.78848" lon="4.97652">
        <ele>273</ele>
        <time>2013-08-22T16:38:48Z</time>
      </trkpt>
      <trkpt lat="44.7885" lon="4.97653">
        <ele>274</ele>
        <time>2013-08-22T16:38:49Z</time>
      </trkpt>
      <trkpt lat="44.78852" lon="4.97654">
        <ele>275</ele>
        <time>2013-08-22T16:38:50Z</time>
      </trkpt>
      <trkpt lat="44.78854" lon="4.97654">
        <ele>276</ele>
        <time>2013-08-22T16:38:51Z</time>
      </trkpt>
      <trkpt lat="44.78856" lon="4.97654">
        <ele>277</ele>
        <time>2013-08-22T16:38:52Z</time>
      </trkpt>
      <trkpt lat="44.78858" lon="4.97654">
        <ele>279</ele>
        <time>2013-08-22T16:38:53Z</time>
      </trkpt>
      <trkpt lat="44.7886" lon="4.97654">
        <ele>280</ele>
        <time>2013-08-22T16:38:54Z</time>
      </trkpt>
      <trkpt lat="44.78862" lon="4.97654">
        <ele>282</ele>
        <time>2013-08-22T16:38:55Z</time>
      </trkpt>
      <trkpt lat="44.78864" lon="4.97654">
        <ele>283</ele>
        <time>2013-08-22T16:38:56Z</time>
      </trkpt>
      <trkpt lat="44.78865" lon="4.97654">
        <ele>284</ele>
        <time>2013-08-22T16:38:57Z</time>
      </trkpt>
      <trkpt lat="44.78867" lon="4.97655">
        <ele>286</ele>
        <time>2013-08-22T16:38:58Z</time>
      </trkpt>
      <trkpt lat="44.78869" lon="4.97655">
        <ele>288</ele>
        <time>2013-08-22T16:38:59Z</time>
      </trkpt>
      <trkpt lat="44.7887" lon="4.97655">
        <ele>289</ele>
        <time>2013-08-22T16:39:00Z</time>
      </trkpt>
      <trkpt lat="44.78872" lon="4.97655">
        <ele>290</ele>
        <time>2013-08-22T16:39:01Z</time>
      </trkpt>
      <trkpt lat="44.78873" lon="4.97654">
        <ele>292</ele>
        <time>2013-08-22T16:39:02Z</time>
      </trkpt>
      <trkpt lat="44.78875" lon="4.97653">
        <ele>293</ele>
        <time>2013-08-22T16:39:03Z</time>
      </trkpt>
      <trkpt lat="44.78876" lon="4.97652">
        <ele>294</ele>
        <time>2013-08-22T16:39:04Z</time>
      </trkpt>
      <trkpt lat="44.78878" lon="4.97651">
        <ele>295</ele>
        <time>2013-08-22T16:39:05Z</time>
      </trkpt>
      <trkpt lat="44.78879" lon="4.97649">
        <ele>296</ele>
        <time>2013-08-22T16:39:06Z</time>
      </trkpt>
      <trkpt lat="44.7888" lon="4.97648">
        <ele>297</ele>
        <time>2013-08-22T16:39:07Z</time>
      </trkpt>
      <trkpt lat="44.78881" lon="4.97648">
        <ele>298</ele>
        <time>2013-08-22T16:39:08Z</time>
      </trkpt>
      <trkpt lat="44.78884" lon="4.97649">
        <ele>299</ele>
        <time>2013-08-22T16:39:09Z</time>
      </trkpt>
      <trkpt lat="44.78887" lon="4.97651">
        <ele>300</ele>
        <time>2013-08-22T16:39:10Z</time>
      </trkpt>
      <trkpt lat="44.78889" lon="4.97654">
        <ele>301</ele>
        <time>2013-08-22T16:39:11Z</time>
      </trkpt>
      <trkpt lat="44.78891" lon="4.97656">
        <ele>302</ele>
        <time>2013-08-22T16:39:12Z</time>
      </trkpt>
      <trkpt lat="44.78893" lon="4.97658">
        <ele>302</ele>
        <time>2013-08-22T16:39:13Z</time>
      </trkpt>
      <trkpt lat="44.78894" lon="4.9766">
        <ele>302</ele>
        <time>2013-08-22T16:39:14Z</time>
      </trkpt>
      <trkpt lat="44.78895" lon="4.97662">
        <ele>302</ele>
        <time>2013-08-22T16:39:15Z</time>
      </trkpt>
      <trkpt lat="44.78896" lon="4.97664">
        <ele>302</ele>
        <time>2013-08-22T16:39:16Z</time>
      </trkpt>
      <trkpt lat="44.78896" lon="4.97667">
        <ele>302</ele>
        <time>2013-08-22T16:39:17Z</time>
      </trkpt>
      <trkpt lat="44.78898" lon="4.97669">
        <ele>301</ele>
        <time>2013-08-22T16:39:18Z</time>
      </trkpt>
      <trkpt lat="44.789" lon="4.97672">
        <ele>301</ele>
        <time>2013-08-22T16:39:19Z</time>
      </trkpt>
      <trkpt lat="44.78902" lon="4.97673">
        <ele>300</ele>
        <time>2013-08-22T16:39:20Z</time>
      </trkpt>
      <trkpt lat="44.78904" lon="4.97674">
        <ele>300</ele>
        <time>2013-08-22T16:39:21Z</time>
      </trkpt>
      <trkpt lat="44.78906" lon="4.97675">
        <ele>300</ele>
        <time>2013-08-22T16:39:22Z</time>
      </trkpt>
      <trkpt lat="44.78908" lon="4.97675">
        <ele>300</ele>
        <time>2013-08-22T16:39:23Z</time>
      </trkpt>
      <trkpt lat="44.7891" lon="4.97676">
        <ele>300</ele>
        <time>2013-08-22T16:39:24Z</time>
      </trkpt>
      <trkpt lat="44.78912" lon="4.97677">
        <ele>300</ele>
        <time>2013-08-22T16:39:25Z</time>
      </trkpt>
      <trkpt lat="44.78913" lon="4.97677">
        <ele>300</ele>
        <time>2013-08-22T16:39:26Z</time>
      </trkpt>
      <trkpt lat="44.78916" lon="4.97679">
        <ele>300</ele>
        <time>2013-08-22T16:39:27Z</time>
      </trkpt>
      <trkpt lat="44.78918" lon="4.9768">
        <ele>300</ele>
        <time>2013-08-22T16:39:29Z</time>
      </trkpt>
      <trkpt lat="44.7892" lon="4.97682">
        <ele>300</ele>
        <time>2013-08-22T16:39:29Z</time>
      </trkpt>
      <trkpt lat="44.78922" lon="4.97683">
        <ele>300</ele>
        <time>2013-08-22T16:39:30Z</time>
      </trkpt>
      <trkpt lat="44.78923" lon="4.97683">
        <ele>300</ele>
        <time>2013-08-22T16:39:31Z</time>
      </trkpt>
      <trkpt lat="44.78925" lon="4.97683">
        <ele>300</ele>
        <time>2013-08-22T16:39:32Z</time>
      </trkpt>
      <trkpt lat="44.78926" lon="4.97685">
        <ele>300</ele>
        <time>2013-08-22T16:39:33Z</time>
      </trkpt>
      <trkpt lat="44.78928" lon="4.97686">
        <ele>300</ele>
        <time>2013-08-22T16:39:34Z</time>
      </trkpt>
      <trkpt lat="44.7893" lon="4.97688">
        <ele>300</ele>
        <time>2013-08-22T16:39:35Z</time>
      </trkpt>
      <trkpt lat="44.78931" lon="4.97689">
        <ele>300</ele>
        <time>2013-08-22T16:39:36Z</time>
      </trkpt>
      <trkpt lat="44.78933" lon="4.9769">
        <ele>300</ele>
        <time>2013-08-22T16:39:37Z</time>
      </trkpt>
      <trkpt lat="44.78935" lon="4.97692">
        <ele>301</ele>
        <time>2013-08-22T16:39:38Z</time>
      </trkpt>
      <trkpt lat="44.78938" lon="4.97693">
        <ele>301</ele>
        <time>2013-08-22T16:39:39Z</time>
      </trkpt>
      <trkpt lat="44.78941" lon="4.97695">
        <ele>302</ele>
        <time>2013-08-22T16:39:40Z</time>
      </trkpt>
      <trkpt lat="44.78942" lon="4.97697">
        <ele>302</ele>
        <time>2013-08-22T16:39:41Z</time>
      </trkpt>
      <trkpt lat="44.78943" lon="4.977">
        <ele>303</ele>
        <time>2013-08-22T16:39:42Z</time>
      </trkpt>
      <trkpt lat="44.78943" lon="4.97702">
        <ele>303</ele>
        <time>2013-08-22T16:39:43Z</time>
      </trkpt>
      <trkpt lat="44.78944" lon="4.97703">
        <ele>303</ele>
        <time>2013-08-22T16:39:44Z</time>
      </trkpt>
      <trkpt lat="44.78944" lon="4.97705">
        <ele>304</ele>
        <time>2013-08-22T16:39:45Z</time>
      </trkpt>
      <trkpt lat="44.78944" lon="4.97707">
        <ele>304</ele>
        <time>2013-08-22T16:39:46Z</time>
      </trkpt>
      <trkpt lat="44.78945" lon="4.97708">
        <ele>304</ele>
        <time>2013-08-22T16:39:47Z</time>
      </trkpt>
      <trkpt lat="44.78945" lon="4.9771">
        <ele>304</ele>
        <time>2013-08-22T16:39:48Z</time>
      </trkpt>
      <trkpt lat="44.78946" lon="4.97713">
        <ele>304</ele>
        <time>2013-08-22T16:39:49Z</time>
      </trkpt>
      <trkpt lat="44.78947" lon="4.97716">
        <ele>304</ele>
        <time>2013-08-22T16:39:50Z</time>
      </trkpt>
      <trkpt lat="44.78947" lon="4.97719">
        <ele>304</ele>
        <time>2013-08-22T16:39:51Z</time>
      </trkpt>
      <trkpt lat="44.78947" lon="4.97721">
        <ele>304</ele>
        <time>2013-08-22T16:39:52Z</time>
      </trkpt>
      <trkpt lat="44.78947" lon="4.97724">
        <ele>304</ele>
        <time>2013-08-22T16:39:53Z</time>
      </trkpt>
      <trkpt lat="44.78947" lon="4.97727">
        <ele>304</ele>
        <time>2013-08-22T16:39:54Z</time>
      </trkpt>
      <trkpt lat="44.78947" lon="4.9773">
        <ele>304</ele>
        <time>2013-08-22T16:39:55Z</time>
      </trkpt>
      <trkpt lat="44.78947" lon="4.97734">
        <ele>304</ele>
        <time>2013-08-22T16:39:56Z</time>
      </trkpt>
      <trkpt lat="44.78947" lon="4.97737">
        <ele>303</ele>
        <time>2013-08-22T16:39:57Z</time>
      </trkpt>
      <trkpt lat="44.78947" lon="4.9774">
        <ele>302</ele>
        <time>2013-08-22T16:39:58Z</time>
      </trkpt>
      <trkpt lat="44.78947" lon="4.97744">
        <ele>301</ele>
        <time>2013-08-22T16:39:59Z</time>
      </trkpt>
      <trkpt lat="44.78949" lon="4.97748">
        <ele>300</ele>
        <time>2013-08-22T16:40:00Z</time>
      </trkpt>
      <trkpt lat="44.78949" lon="4.97751">
        <ele>299</ele>
        <time>2013-08-22T16:40:01Z</time>
      </trkpt>
      <trkpt lat="44.7895" lon="4.97753">
        <ele>298</ele>
        <time>2013-08-22T16:40:02Z</time>
      </trkpt>
      <trkpt lat="44.78951" lon="4.97755">
        <ele>297</ele>
        <time>2013-08-22T16:40:03Z</time>
      </trkpt>
      <trkpt lat="44.78952" lon="4.97757">
        <ele>296</ele>
        <time>2013-08-22T16:40:04Z</time>
      </trkpt>
      <trkpt lat="44.78952" lon="4.9776">
        <ele>295</ele>
        <time>2013-08-22T16:40:05Z</time>
      </trkpt>
      <trkpt lat="44.78954" lon="4.97762">
        <ele>294</ele>
        <time>2013-08-22T16:40:06Z</time>
      </trkpt>
      <trkpt lat="44.78956" lon="4.97764">
        <ele>293</ele>
        <time>2013-08-22T16:40:07Z</time>
      </trkpt>
      <trkpt lat="44.78958" lon="4.97766">
        <ele>292</ele>
        <time>2013-08-22T16:40:08Z</time>
      </trkpt>
      <trkpt lat="44.78959" lon="4.97767">
        <ele>291</ele>
        <time>2013-08-22T16:40:09Z</time>
      </trkpt>
      <trkpt lat="44.7896" lon="4.97769">
        <ele>290</ele>
        <time>2013-08-22T16:40:10Z</time>
      </trkpt>
      <trkpt lat="44.78961" lon="4.97771">
        <ele>289</ele>
        <time>2013-08-22T16:40:11Z</time>
      </trkpt>
      <trkpt lat="44.78962" lon="4.97773">
        <ele>288</ele>
        <time>2013-08-22T16:40:12Z</time>
      </trkpt>
      <trkpt lat="44.78963" lon="4.97776">
        <ele>287</ele>
        <time>2013-08-22T16:40:13Z</time>
      </trkpt>
      <trkpt lat="44.78964" lon="4.97779">
        <ele>286</ele>
        <time>2013-08-22T16:40:14Z</time>
      </trkpt>
      <trkpt lat="44.78966" lon="4.97781">
        <ele>285</ele>
        <time>2013-08-22T16:40:15Z</time>
      </trkpt>
      <trkpt lat="44.78967" lon="4.97783">
        <ele>284</ele>
        <time>2013-08-22T16:40:16Z</time>
      </trkpt>
      <trkpt lat="44.78969" lon="4.97785">
        <ele>283</ele>
        <time>2013-08-22T16:40:17Z</time>
      </trkpt>
      <trkpt lat="44.7897" lon="4.97788">
        <ele>281</ele>
        <time>2013-08-22T16:40:18Z</time>
      </trkpt>
      <trkpt lat="44.78976" lon="4.97796">
        <ele>280</ele>
        <time>2013-08-22T16:40:19Z</time>
      </trkpt>
      <trkpt lat="44.78978" lon="4.97799">
        <ele>280</ele>
        <time>2013-08-22T16:40:20Z</time>
      </trkpt>
      <trkpt lat="44.7898" lon="4.97802">
        <ele>280</ele>
        <time>2013-08-22T16:40:21Z</time>
      </trkpt>
      <trkpt lat="44.78981" lon="4.97805">
        <ele>280</ele>
        <time>2013-08-22T16:40:22Z</time>
      </trkpt>
      <trkpt lat="44.78982" lon="4.97807">
        <ele>280</ele>
        <time>2013-08-22T16:40:23Z</time>
      </trkpt>
      <trkpt lat="44.78984" lon="4.9781">
        <ele>280</ele>
        <time>2013-08-22T16:40:24Z</time>
      </trkpt>
      <trkpt lat="44.78985" lon="4.97812">
        <ele>280</ele>
        <time>2013-08-22T16:40:25Z</time>
      </trkpt>
      <trkpt lat="44.78986" lon="4.97815">
        <ele>280</ele>
        <time>2013-08-22T16:40:26Z</time>
      </trkpt>
      <trkpt lat="44.78986" lon="4.97818">
        <ele>280</ele>
        <time>2013-08-22T16:40:27Z</time>
      </trkpt>
      <trkpt lat="44.78987" lon="4.9782">
        <ele>280</ele>
        <time>2013-08-22T16:40:28Z</time>
      </trkpt>
      <trkpt lat="44.78988" lon="4.97823">
        <ele>280</ele>
        <time>2013-08-22T16:40:29Z</time>
      </trkpt>
      <trkpt lat="44.78989" lon="4.97826">
        <ele>279</ele>
        <time>2013-08-22T16:40:30Z</time>
      </trkpt>
      <trkpt lat="44.78989" lon="4.97829">
        <ele>278</ele>
        <time>2013-08-22T16:40:31Z</time>
      </trkpt>
      <trkpt lat="44.78991" lon="4.97832">
        <ele>277</ele>
        <time>2013-08-22T16:40:32Z</time>
      </trkpt>
      <trkpt lat="44.78992" lon="4.97835">
        <ele>276</ele>
        <time>2013-08-22T16:40:33Z</time>
      </trkpt>
      <trkpt lat="44.78992" lon="4.97838">
        <ele>275</ele>
        <time>2013-08-22T16:40:34Z</time>
      </trkpt>
      <trkpt lat="44.78993" lon="4.97841">
        <ele>274</ele>
        <time>2013-08-22T16:40:35Z</time>
      </trkpt>
      <trkpt lat="44.78994" lon="4.97843">
        <ele>273</ele>
        <time>2013-08-22T16:40:36Z</time>
      </trkpt>
      <trkpt lat="44.78995" lon="4.97845">
        <ele>272</ele>
        <time>2013-08-22T16:40:37Z</time>
      </trkpt>
      <trkpt lat="44.78997" lon="4.97847">
        <ele>271</ele>
        <time>2013-08-22T16:40:38Z</time>
      </trkpt>
      <trkpt lat="44.78998" lon="4.97849">
        <ele>270</ele>
        <time>2013-08-22T16:40:39Z</time>
      </trkpt>
      <trkpt lat="44.78998" lon="4.97852">
        <ele>269</ele>
        <time>2013-08-22T16:40:40Z</time>
      </trkpt>
      <trkpt lat="44.78998" lon="4.97853">
        <ele>268</ele>
        <time>2013-08-22T16:40:41Z</time>
      </trkpt>
      <trkpt lat="44.78998" lon="4.97856">
        <ele>268</ele>
        <time>2013-08-22T16:40:42Z</time>
      </trkpt>
      <trkpt lat="44.78999" lon="4.97858">
        <ele>267</ele>
        <time>2013-08-22T16:40:43Z</time>
      </trkpt>
      <trkpt lat="44.78999" lon="4.97861">
        <ele>266</ele>
        <time>2013-08-22T16:40:44Z</time>
      </trkpt>
      <trkpt lat="44.79" lon="4.97863">
        <ele>266</ele>
        <time>2013-08-22T16:40:45Z</time>
      </trkpt>
      <trkpt lat="44.79" lon="4.97865">
        <ele>265</ele>
        <time>2013-08-22T16:40:46Z</time>
      </trkpt>
      <trkpt lat="44.79001" lon="4.97868">
        <ele>264</ele>
        <time>2013-08-22T16:40:48Z</time>
      </trkpt>
      <trkpt lat="44.79001" lon="4.97871">
        <ele>264</ele>
        <time>2013-08-22T16:40:49Z</time>
      </trkpt>
      <trkpt lat="44.79" lon="4.97873">
        <ele>264</ele>
        <time>2013-08-22T16:40:50Z</time>
      </trkpt>
      <trkpt lat="44.78999" lon="4.97876">
        <ele>263</ele>
        <time>2013-08-22T16:40:51Z</time>
      </trkpt>
      <trkpt lat="44.78999" lon="4.97879">
        <ele>263</ele>
        <time>2013-08-22T16:40:52Z</time>
      </trkpt>
      <trkpt lat="44.78999" lon="4.97882">
        <ele>262</ele>
        <time>2013-08-22T16:40:53Z</time>
      </trkpt>
      <trkpt lat="44.78999" lon="4.97885">
        <ele>262</ele>
        <time>2013-08-22T16:40:54Z</time>
      </trkpt>
      <trkpt lat="44.78999" lon="4.97888">
        <ele>262</ele>
        <time>2013-08-22T16:40:55Z</time>
      </trkpt>
      <trkpt lat="44.79" lon="4.97891">
        <ele>261</ele>
        <time>2013-08-22T16:40:56Z</time>
      </trkpt>
      <trkpt lat="44.79" lon="4.97894">
        <ele>261</ele>
        <time>2013-08-22T16:40:57Z</time>
      </trkpt>
      <trkpt lat="44.79" lon="4.97898">
        <ele>261</ele>
        <time>2013-08-22T16:40:58Z</time>
      </trkpt>
      <trkpt lat="44.79001" lon="4.97902">
        <ele>260</ele>
        <time>2013-08-22T16:40:59Z</time>
      </trkpt>
      <trkpt lat="44.79001" lon="4.97905">
        <ele>259</ele>
        <time>2013-08-22T16:41:00Z</time>
      </trkpt>
      <trkpt lat="44.79001" lon="4.97908">
        <ele>259</ele>
        <time>2013-08-22T16:41:01Z</time>
      </trkpt>
      <trkpt lat="44.79001" lon="4.97911">
        <ele>258</ele>
        <time>2013-08-22T16:41:02Z</time>
      </trkpt>
      <trkpt lat="44.79" lon="4.97914">
        <ele>257</ele>
        <time>2013-08-22T16:41:03Z</time>
      </trkpt>
      <trkpt lat="44.78999" lon="4.97917">
        <ele>256</ele>
        <time>2013-08-22T16:41:04Z</time>
      </trkpt>
      <trkpt lat="44.78999" lon="4.9792">
        <ele>255</ele>
        <time>2013-08-22T16:41:05Z</time>
      </trkpt>
      <trkpt lat="44.78999" lon="4.97924">
        <ele>254</ele>
        <time>2013-08-22T16:41:06Z</time>
      </trkpt>
      <trkpt lat="44.78999" lon="4.97927">
        <ele>254</ele>
        <time>2013-08-22T16:41:07Z</time>
      </trkpt>
      <trkpt lat="44.78998" lon="4.9793">
        <ele>253</ele>
        <time>2013-08-22T16:41:08Z</time>
      </trkpt>
      <trkpt lat="44.78998" lon="4.97933">
        <ele>252</ele>
        <time>2013-08-22T16:41:09Z</time>
      </trkpt>
      <trkpt lat="44.78998" lon="4.97937">
        <ele>252</ele>
        <time>2013-08-22T16:41:10Z</time>
      </trkpt>
      <trkpt lat="44.78998" lon="4.9794">
        <ele>252</ele>
        <time>2013-08-22T16:41:11Z</time>
      </trkpt>
      <trkpt lat="44.78999" lon="4.97944">
        <ele>252</ele>
        <time>2013-08-22T16:41:12Z</time>
      </trkpt>
      <trkpt lat="44.78999" lon="4.97948">
        <ele>252</ele>
        <time>2013-08-22T16:41:13Z</time>
      </trkpt>
      <trkpt lat="44.78999" lon="4.97951">
        <ele>252</ele>
        <time>2013-08-22T16:41:14Z</time>
      </trkpt>
      <trkpt lat="44.78999" lon="4.97954">
        <ele>252</ele>
        <time>2013-08-22T16:41:15Z</time>
      </trkpt>
      <trkpt lat="44.78999" lon="4.97957">
        <ele>252</ele>
        <time>2013-08-22T16:41:16Z</time>
      </trkpt>
      <trkpt lat="44.78998" lon="4.9796">
        <ele>252</ele>
        <time>2013-08-22T16:41:17Z</time>
      </trkpt>
      <trkpt lat="44.78997" lon="4.97963">
        <ele>252</ele>
        <time>2013-08-22T16:41:18Z</time>
      </trkpt>
      <trkpt lat="44.78997" lon="4.97966">
        <ele>252</ele>
        <time>2013-08-22T16:41:19Z</time>
      </trkpt>
      <trkpt lat="44.78997" lon="4.97969">
        <ele>252</ele>
        <time>2013-08-22T16:41:20Z</time>
      </trkpt>
      <trkpt lat="44.78997" lon="4.97973">
        <ele>252</ele>
        <time>2013-08-22T16:41:21Z</time>
      </trkpt>
      <trkpt lat="44.78997" lon="4.97978">
        <ele>252</ele>
        <time>2013-08-22T16:41:22Z</time>
      </trkpt>
      <trkpt lat="44.78997" lon="4.97983">
        <ele>252</ele>
        <time>2013-08-22T16:41:23Z</time>
      </trkpt>
      <trkpt lat="44.78996" lon="4.97987">
        <ele>252</ele>
        <time>2013-08-22T16:41:24Z</time>
      </trkpt>
      <trkpt lat="44.78994" lon="4.97991">
        <ele>252</ele>
        <time>2013-08-22T16:41:25Z</time>
      </trkpt>
      <trkpt lat="44.78994" lon="4.97995">
        <ele>252</ele>
        <time>2013-08-22T16:41:26Z</time>
      </trkpt>
      <trkpt lat="44.78993" lon="4.97999">
        <ele>252</ele>
        <time>2013-08-22T16:41:27Z</time>
      </trkpt>
      <trkpt lat="44.78993" lon="4.98003">
        <ele>252</ele>
        <time>2013-08-22T16:41:28Z</time>
      </trkpt>
      <trkpt lat="44.78993" lon="4.98007">
        <ele>252</ele>
        <time>2013-08-22T16:41:29Z</time>
      </trkpt>
      <trkpt lat="44.78993" lon="4.98012">
        <ele>252</ele>
        <time>2013-08-22T16:41:30Z</time>
      </trkpt>
      <trkpt lat="44.78993" lon="4.98016">
        <ele>252</ele>
        <time>2013-08-22T16:41:31Z</time>
      </trkpt>
      <trkpt lat="44.78993" lon="4.9802">
        <ele>252</ele>
        <time>2013-08-22T16:41:32Z</time>
      </trkpt>
      <trkpt lat="44.78992" lon="4.98024">
        <ele>252</ele>
        <time>2013-08-22T16:41:33Z</time>
      </trkpt>
      <trkpt lat="44.78992" lon="4.98027">
        <ele>252</ele>
        <time>2013-08-22T16:41:34Z</time>
      </trkpt>
      <trkpt lat="44.78991" lon="4.9803">
        <ele>252</ele>
        <time>2013-08-22T16:41:35Z</time>
      </trkpt>
      <trkpt lat="44.7899" lon="4.98034">
        <ele>252</ele>
        <time>2013-08-22T16:41:36Z</time>
      </trkpt>
      <trkpt lat="44.78989" lon="4.98038">
        <ele>252</ele>
        <time>2013-08-22T16:41:37Z</time>
      </trkpt>
      <trkpt lat="44.78988" lon="4.98041">
        <ele>252</ele>
        <time>2013-08-22T16:41:38Z</time>
      </trkpt>
      <trkpt lat="44.78988" lon="4.98045">
        <ele>252</ele>
        <time>2013-08-22T16:41:39Z</time>
      </trkpt>
      <trkpt lat="44.78987" lon="4.98049">
        <ele>252</ele>
        <time>2013-08-22T16:41:40Z</time>
      </trkpt>
      <trkpt lat="44.78988" lon="4.98053">
        <ele>251</ele>
        <time>2013-08-22T16:41:41Z</time>
      </trkpt>
      <trkpt lat="44.78988" lon="4.98058">
        <ele>250</ele>
        <time>2013-08-22T16:41:42Z</time>
      </trkpt>
      <trkpt lat="44.78988" lon="4.98063">
        <ele>249</ele>
        <time>2013-08-22T16:41:43Z</time>
      </trkpt>
      <trkpt lat="44.78988" lon="4.98067">
        <ele>248</ele>
        <time>2013-08-22T16:41:44Z</time>
      </trkpt>
      <trkpt lat="44.78988" lon="4.98072">
        <ele>248</ele>
        <time>2013-08-22T16:41:45Z</time>
      </trkpt>
      <trkpt lat="44.78987" lon="4.98077">
        <ele>248</ele>
        <time>2013-08-22T16:41:46Z</time>
      </trkpt>
      <trkpt lat="44.78987" lon="4.98081">
        <ele>248</ele>
        <time>2013-08-22T16:41:47Z</time>
      </trkpt>
      <trkpt lat="44.78986" lon="4.98086">
        <ele>248</ele>
        <time>2013-08-22T16:41:48Z</time>
      </trkpt>
      <trkpt lat="44.78985" lon="4.9809">
        <ele>248</ele>
        <time>2013-08-22T16:41:49Z</time>
      </trkpt>
      <trkpt lat="44.78984" lon="4.98094">
        <ele>248</ele>
        <time>2013-08-22T16:41:50Z</time>
      </trkpt>
      <trkpt lat="44.78984" lon="4.98099">
        <ele>248</ele>
        <time>2013-08-22T16:41:51Z</time>
      </trkpt>
      <trkpt lat="44.78984" lon="4.98103">
        <ele>248</ele>
        <time>2013-08-22T16:41:52Z</time>
      </trkpt>
      <trkpt lat="44.78984" lon="4.98107">
        <ele>248</ele>
        <time>2013-08-22T16:41:53Z</time>
      </trkpt>
      <trkpt lat="44.78984" lon="4.98111">
        <ele>248</ele>
        <time>2013-08-22T16:41:54Z</time>
      </trkpt>
      <trkpt lat="44.78984" lon="4.98115">
        <ele>248</ele>
        <time>2013-08-22T16:41:55Z</time>
      </trkpt>
      <trkpt lat="44.78984" lon="4.9812">
        <ele>247</ele>
        <time>2013-08-22T16:41:56Z</time>
      </trkpt>
      <trkpt lat="44.78984" lon="4.98125">
        <ele>247</ele>
        <time>2013-08-22T16:41:57Z</time>
      </trkpt>
      <trkpt lat="44.78983" lon="4.98129">
        <ele>247</ele>
        <time>2013-08-22T16:41:58Z</time>
      </trkpt>
      <trkpt lat="44.78981" lon="4.98132">
        <ele>246</ele>
        <time>2013-08-22T16:41:59Z</time>
      </trkpt>
      <trkpt lat="44.7898" lon="4.98137">
        <ele>246</ele>
        <time>2013-08-22T16:42:00Z</time>
      </trkpt>
      <trkpt lat="44.78979" lon="4.9814">
        <ele>246</ele>
        <time>2013-08-22T16:42:01Z</time>
      </trkpt>
      <trkpt lat="44.78978" lon="4.98144">
        <ele>245</ele>
        <time>2013-08-22T16:42:02Z</time>
      </trkpt>
      <trkpt lat="44.78977" lon="4.98147">
        <ele>245</ele>
        <time>2013-08-22T16:42:03Z</time>
      </trkpt>
      <trkpt lat="44.78977" lon="4.98151">
        <ele>245</ele>
        <time>2013-08-22T16:42:04Z</time>
      </trkpt>
      <trkpt lat="44.78976" lon="4.98154">
        <ele>245</ele>
        <time>2013-08-22T16:42:05Z</time>
      </trkpt>
      <trkpt lat="44.78976" lon="4.98158">
        <ele>245</ele>
        <time>2013-08-22T16:42:06Z</time>
      </trkpt>
      <trkpt lat="44.78975" lon="4.98161">
        <ele>245</ele>
        <time>2013-08-22T16:42:07Z</time>
      </trkpt>
      <trkpt lat="44.78975" lon="4.98164">
        <ele>245</ele>
        <time>2013-08-22T16:42:08Z</time>
      </trkpt>
      <trkpt lat="44.78974" lon="4.98168">
        <ele>245</ele>
        <time>2013-08-22T16:42:09Z</time>
      </trkpt>
      <trkpt lat="44.78973" lon="4.98172">
        <ele>245</ele>
        <time>2013-08-22T16:42:10Z</time>
      </trkpt>
      <trkpt lat="44.78973" lon="4.98176">
        <ele>245</ele>
        <time>2013-08-22T16:42:11Z</time>
      </trkpt>
      <trkpt lat="44.78972" lon="4.9818">
        <ele>245</ele>
        <time>2013-08-22T16:42:12Z</time>
      </trkpt>
      <trkpt lat="44.78971" lon="4.98184">
        <ele>245</ele>
        <time>2013-08-22T16:42:13Z</time>
      </trkpt>
      <trkpt lat="44.7897" lon="4.98187">
        <ele>245</ele>
        <time>2013-08-22T16:42:14Z</time>
      </trkpt>
      <trkpt lat="44.7897" lon="4.98191">
        <ele>245</ele>
        <time>2013-08-22T16:42:15Z</time>
      </trkpt>
      <trkpt lat="44.78969" lon="4.98194">
        <ele>245</ele>
        <time>2013-08-22T16:42:16Z</time>
      </trkpt>
      <trkpt lat="44.78968" lon="4.98198">
        <ele>245</ele>
        <time>2013-08-22T16:42:17Z</time>
      </trkpt>
      <trkpt lat="44.78968" lon="4.98201">
        <ele>245</ele>
        <time>2013-08-22T16:42:18Z</time>
      </trkpt>
      <trkpt lat="44.78967" lon="4.98205">
        <ele>245</ele>
        <time>2013-08-22T16:42:19Z</time>
      </trkpt>
      <trkpt lat="44.78967" lon="4.98209">
        <ele>245</ele>
        <time>2013-08-22T16:42:20Z</time>
      </trkpt>
      <trkpt lat="44.78966" lon="4.98212">
        <ele>245</ele>
        <time>2013-08-22T16:42:21Z</time>
      </trkpt>
      <trkpt lat="44.78965" lon="4.98216">
        <ele>245</ele>
        <time>2013-08-22T16:42:22Z</time>
      </trkpt>
      <trkpt lat="44.78964" lon="4.9822">
        <ele>245</ele>
        <time>2013-08-22T16:42:23Z</time>
      </trkpt>
      <trkpt lat="44.78963" lon="4.98224">
        <ele>245</ele>
        <time>2013-08-22T16:42:24Z</time>
      </trkpt>
      <trkpt lat="44.78962" lon="4.98229">
        <ele>245</ele>
        <time>2013-08-22T16:42:25Z</time>
      </trkpt>
      <trkpt lat="44.78962" lon="4.98233">
        <ele>245</ele>
        <time>2013-08-22T16:42:26Z</time>
      </trkpt>
      <trkpt lat="44.78961" lon="4.98237">
        <ele>245</ele>
        <time>2013-08-22T16:42:27Z</time>
      </trkpt>
      <trkpt lat="44.78961" lon="4.98241">
        <ele>245</ele>
        <time>2013-08-22T16:42:28Z</time>
      </trkpt>
      <trkpt lat="44.7896" lon="4.98245">
        <ele>245</ele>
        <time>2013-08-22T16:42:29Z</time>
      </trkpt>
      <trkpt lat="44.78959" lon="4.98249">
        <ele>245</ele>
        <time>2013-08-22T16:42:30Z</time>
      </trkpt>
      <trkpt lat="44.78959" lon="4.98253">
        <ele>245</ele>
        <time>2013-08-22T16:42:31Z</time>
      </trkpt>
      <trkpt lat="44.78958" lon="4.98257">
        <ele>245</ele>
        <time>2013-08-22T16:42:32Z</time>
      </trkpt>
      <trkpt lat="44.78958" lon="4.98262">
        <ele>245</ele>
        <time>2013-08-22T16:42:33Z</time>
      </trkpt>
      <trkpt lat="44.78958" lon="4.98266">
        <ele>245</ele>
        <time>2013-08-22T16:42:34Z</time>
      </trkpt>
      <trkpt lat="44.78957" lon="4.98271">
        <ele>245</ele>
        <time>2013-08-22T16:42:35Z</time>
      </trkpt>
      <trkpt lat="44.78959" lon="4.98277">
        <ele>245</ele>
        <time>2013-08-22T16:42:36Z</time>
      </trkpt>
      <trkpt lat="44.78959" lon="4.98282">
        <ele>245</ele>
        <time>2013-08-22T16:42:37Z</time>
      </trkpt>
      <trkpt lat="44.78958" lon="4.98286">
        <ele>245</ele>
        <time>2013-08-22T16:42:38Z</time>
      </trkpt>
      <trkpt lat="44.78957" lon="4.98289">
        <ele>245</ele>
        <time>2013-08-22T16:42:39Z</time>
      </trkpt>
      <trkpt lat="44.78957" lon="4.98293">
        <ele>245</ele>
        <time>2013-08-22T16:42:40Z</time>
      </trkpt>
      <trkpt lat="44.78956" lon="4.98297">
        <ele>245</ele>
        <time>2013-08-22T16:42:41Z</time>
      </trkpt>
      <trkpt lat="44.78955" lon="4.98301">
        <ele>245</ele>
        <time>2013-08-22T16:42:42Z</time>
      </trkpt>
      <trkpt lat="44.78955" lon="4.98305">
        <ele>245</ele>
        <time>2013-08-22T16:42:43Z</time>
      </trkpt>
      <trkpt lat="44.78955" lon="4.9831">
        <ele>245</ele>
        <time>2013-08-22T16:42:44Z</time>
      </trkpt>
      <trkpt lat="44.78955" lon="4.98313">
        <ele>245</ele>
        <time>2013-08-22T16:42:45Z</time>
      </trkpt>
      <trkpt lat="44.78955" lon="4.98317">
        <ele>245</ele>
        <time>2013-08-22T16:42:46Z</time>
      </trkpt>
      <trkpt lat="44.78955" lon="4.9832">
        <ele>245</ele>
        <time>2013-08-22T16:42:47Z</time>
      </trkpt>
      <trkpt lat="44.78954" lon="4.98324">
        <ele>245</ele>
        <time>2013-08-22T16:42:48Z</time>
      </trkpt>
      <trkpt lat="44.78954" lon="4.98328">
        <ele>245</ele>
        <time>2013-08-22T16:42:49Z</time>
      </trkpt>
      <trkpt lat="44.78953" lon="4.98333">
        <ele>245</ele>
        <time>2013-08-22T16:42:50Z</time>
      </trkpt>
      <trkpt lat="44.78952" lon="4.98337">
        <ele>245</ele>
        <time>2013-08-22T16:42:51Z</time>
      </trkpt>
      <trkpt lat="44.78952" lon="4.98341">
        <ele>245</ele>
        <time>2013-08-22T16:42:52Z</time>
      </trkpt>
      <trkpt lat="44.78952" lon="4.98345">
        <ele>245</ele>
        <time>2013-08-22T16:42:53Z</time>
      </trkpt>
      <trkpt lat="44.78952" lon="4.98348">
        <ele>245</ele>
        <time>2013-08-22T16:42:54Z</time>
      </trkpt>
      <trkpt lat="44.78952" lon="4.98351">
        <ele>245</ele>
        <time>2013-08-22T16:42:55Z</time>
      </trkpt>
      <trkpt lat="44.78952" lon="4.98354">
        <ele>245</ele>
        <time>2013-08-22T16:42:56Z</time>
      </trkpt>
      <trkpt lat="44.78952" lon="4.98358">
        <ele>245</ele>
        <time>2013-08-22T16:42:57Z</time>
      </trkpt>
      <trkpt lat="44.78952" lon="4.98362">
        <ele>245</ele>
        <time>2013-08-22T16:42:58Z</time>
      </trkpt>
      <trkpt lat="44.78952" lon="4.98365">
        <ele>245</ele>
        <time>2013-08-22T16:42:59Z</time>
      </trkpt>
      <trkpt lat="44.78952" lon="4.98369">
        <ele>245</ele>
        <time>2013-08-22T16:43:00Z</time>
      </trkpt>
      <trkpt lat="44.78952" lon="4.98373">
        <ele>245</ele>
        <time>2013-08-22T16:43:01Z</time>
      </trkpt>
      <trkpt lat="44.78952" lon="4.98376">
        <ele>245</ele>
        <time>2013-08-22T16:43:02Z</time>
      </trkpt>
      <trkpt lat="44.78952" lon="4.9838">
        <ele>245</ele>
        <time>2013-08-22T16:43:03Z</time>
      </trkpt>
      <trkpt lat="44.78952" lon="4.98384">
        <ele>245</ele>
        <time>2013-08-22T16:43:04Z</time>
      </trkpt>
      <trkpt lat="44.78952" lon="4.98388">
        <ele>245</ele>
        <time>2013-08-22T16:43:05Z</time>
      </trkpt>
      <trkpt lat="44.78952" lon="4.98392">
        <ele>245</ele>
        <time>2013-08-22T16:43:06Z</time>
      </trkpt>
      <trkpt lat="44.78952" lon="4.98395">
        <ele>245</ele>
        <time>2013-08-22T16:43:07Z</time>
      </trkpt>
      <trkpt lat="44.78952" lon="4.98399">
        <ele>245</ele>
        <time>2013-08-22T16:43:08Z</time>
      </trkpt>
      <trkpt lat="44.78952" lon="4.98402">
        <ele>245</ele>
        <time>2013-08-22T16:43:09Z</time>
      </trkpt>
      <trkpt lat="44.78952" lon="4.98406">
        <ele>245</ele>
        <time>2013-08-22T16:43:10Z</time>
      </trkpt>
      <trkpt lat="44.78952" lon="4.98411">
        <ele>245</ele>
        <time>2013-08-22T16:43:11Z</time>
      </trkpt>
      <trkpt lat="44.78952" lon="4.98415">
        <ele>245</ele>
        <time>2013-08-22T16:43:12Z</time>
      </trkpt>
      <trkpt lat="44.78952" lon="4.98418">
        <ele>245</ele>
        <time>2013-08-22T16:43:13Z</time>
      </trkpt>
      <trkpt lat="44.78951" lon="4.98423">
        <ele>245</ele>
        <time>2013-08-22T16:43:14Z</time>
      </trkpt>
      <trkpt lat="44.7895" lon="4.98427">
        <ele>245</ele>
        <time>2013-08-22T16:43:15Z</time>
      </trkpt>
      <trkpt lat="44.7895" lon="4.98431">
        <ele>245</ele>
        <time>2013-08-22T16:43:16Z</time>
      </trkpt>
      <trkpt lat="44.78949" lon="4.98436">
        <ele>245</ele>
        <time>2013-08-22T16:43:17Z</time>
      </trkpt>
      <trkpt lat="44.78949" lon="4.9844">
        <ele>245</ele>
        <time>2013-08-22T16:43:18Z</time>
      </trkpt>
      <trkpt lat="44.7895" lon="4.98443">
        <ele>245</ele>
        <time>2013-08-22T16:43:19Z</time>
      </trkpt>
      <trkpt lat="44.78951" lon="4.98447">
        <ele>245</ele>
        <time>2013-08-22T16:43:20Z</time>
      </trkpt>
      <trkpt lat="44.78951" lon="4.98451">
        <ele>245</ele>
        <time>2013-08-22T16:43:21Z</time>
      </trkpt>
      <trkpt lat="44.78952" lon="4.98455">
        <ele>246</ele>
        <time>2013-08-22T16:43:22Z</time>
      </trkpt>
      <trkpt lat="44.78953" lon="4.98459">
        <ele>247</ele>
        <time>2013-08-22T16:43:23Z</time>
      </trkpt>
      <trkpt lat="44.78954" lon="4.98463">
        <ele>248</ele>
        <time>2013-08-22T16:43:24Z</time>
      </trkpt>
      <trkpt lat="44.78954" lon="4.98466">
        <ele>249</ele>
        <time>2013-08-22T16:43:25Z</time>
      </trkpt>
      <trkpt lat="44.78954" lon="4.98469">
        <ele>250</ele>
        <time>2013-08-22T16:43:26Z</time>
      </trkpt>
      <trkpt lat="44.78954" lon="4.98474">
        <ele>251</ele>
        <time>2013-08-22T16:43:27Z</time>
      </trkpt>
      <trkpt lat="44.78954" lon="4.98478">
        <ele>252</ele>
        <time>2013-08-22T16:43:28Z</time>
      </trkpt>
      <trkpt lat="44.78953" lon="4.98481">
        <ele>254</ele>
        <time>2013-08-22T16:43:29Z</time>
      </trkpt>
      <trkpt lat="44.78951" lon="4.98484">
        <ele>255</ele>
        <time>2013-08-22T16:43:30Z</time>
      </trkpt>
      <trkpt lat="44.78952" lon="4.98488">
        <ele>257</ele>
        <time>2013-08-22T16:43:31Z</time>
      </trkpt>
      <trkpt lat="44.78952" lon="4.98492">
        <ele>259</ele>
        <time>2013-08-22T16:43:32Z</time>
      </trkpt>
      <trkpt lat="44.78951" lon="4.98495">
        <ele>261</ele>
        <time>2013-08-22T16:43:33Z</time>
      </trkpt>
      <trkpt lat="44.78951" lon="4.98499">
        <ele>263</ele>
        <time>2013-08-22T16:43:34Z</time>
      </trkpt>
      <trkpt lat="44.78951" lon="4.98503">
        <ele>266</ele>
        <time>2013-08-22T16:43:35Z</time>
      </trkpt>
      <trkpt lat="44.78952" lon="4.98507">
        <ele>269</ele>
        <time>2013-08-22T16:43:36Z</time>
      </trkpt>
      <trkpt lat="44.78952" lon="4.98509">
        <ele>272</ele>
        <time>2013-08-22T16:43:37Z</time>
      </trkpt>
      <trkpt lat="44.78951" lon="4.98511">
        <ele>275</ele>
        <time>2013-08-22T16:43:38Z</time>
      </trkpt>
      <trkpt lat="44.78949" lon="4.98513">
        <ele>279</ele>
        <time>2013-08-22T16:43:39Z</time>
      </trkpt>
      <trkpt lat="44.78947" lon="4.98516">
        <ele>282</ele>
        <time>2013-08-22T16:43:40Z</time>
      </trkpt>
      <trkpt lat="44.78945" lon="4.98518">
        <ele>285</ele>
        <time>2013-08-22T16:43:41Z</time>
      </trkpt>
      <trkpt lat="44.78944" lon="4.9852">
        <ele>288</ele>
        <time>2013-08-22T16:43:42Z</time>
      </trkpt>
      <trkpt lat="44.78942" lon="4.98522">
        <ele>291</ele>
        <time>2013-08-22T16:43:43Z</time>
      </trkpt>
      <trkpt lat="44.78939" lon="4.98525">
        <ele>294</ele>
        <time>2013-08-22T16:43:44Z</time>
      </trkpt>
      <trkpt lat="44.78936" lon="4.98528">
        <ele>297</ele>
        <time>2013-08-22T16:43:45Z</time>
      </trkpt>
      <trkpt lat="44.78934" lon="4.9853">
        <ele>300</ele>
        <time>2013-08-22T16:43:46Z</time>
      </trkpt>
      <trkpt lat="44.78931" lon="4.98531">
        <ele>303</ele>
        <time>2013-08-22T16:43:47Z</time>
      </trkpt>
      <trkpt lat="44.78929" lon="4.98534">
        <ele>305</ele>
        <time>2013-08-22T16:43:48Z</time>
      </trkpt>
      <trkpt lat="44.78926" lon="4.98535">
        <ele>307</ele>
        <time>2013-08-22T16:43:49Z</time>
      </trkpt>
      <trkpt lat="44.78924" lon="4.98537">
        <ele>309</ele>
        <time>2013-08-22T16:43:50Z</time>
      </trkpt>
      <trkpt lat="44.78921" lon="4.98538">
        <ele>311</ele>
        <time>2013-08-22T16:43:51Z</time>
      </trkpt>
      <trkpt lat="44.78919" lon="4.98538">
        <ele>312</ele>
        <time>2013-08-22T16:43:52Z</time>
      </trkpt>
      <trkpt lat="44.78917" lon="4.98538">
        <ele>313</ele>
        <time>2013-08-22T16:43:53Z</time>
      </trkpt>
      <trkpt lat="44.78914" lon="4.98539">
        <ele>314</ele>
        <time>2013-08-22T16:43:54Z</time>
      </trkpt>
      <trkpt lat="44.78912" lon="4.98539">
        <ele>315</ele>
        <time>2013-08-22T16:43:55Z</time>
      </trkpt>
      <trkpt lat="44.7891" lon="4.98539">
        <ele>316</ele>
        <time>2013-08-22T16:43:56Z</time>
      </trkpt>
      <trkpt lat="44.78908" lon="4.98539">
        <ele>317</ele>
        <time>2013-08-22T16:43:57Z</time>
      </trkpt>
      <trkpt lat="44.78905" lon="4.9854">
        <ele>318</ele>
        <time>2013-08-22T16:43:58Z</time>
      </trkpt>
      <trkpt lat="44.78902" lon="4.9854">
        <ele>319</ele>
        <time>2013-08-22T16:43:59Z</time>
      </trkpt>
      <trkpt lat="44.789" lon="4.98541">
        <ele>320</ele>
        <time>2013-08-22T16:44:00Z</time>
      </trkpt>
      <trkpt lat="44.78897" lon="4.98541">
        <ele>321</ele>
        <time>2013-08-22T16:44:01Z</time>
      </trkpt>
      <trkpt lat="44.78896" lon="4.98542">
        <ele>322</ele>
        <time>2013-08-22T16:44:02Z</time>
      </trkpt>
      <trkpt lat="44.78894" lon="4.98543">
        <ele>323</ele>
        <time>2013-08-22T16:44:03Z</time>
      </trkpt>
      <trkpt lat="44.78891" lon="4.98544">
        <ele>324</ele>
        <time>2013-08-22T16:44:04Z</time>
      </trkpt>
      <trkpt lat="44.78889" lon="4.98547">
        <ele>325</ele>
        <time>2013-08-22T16:44:05Z</time>
      </trkpt>
      <trkpt lat="44.78886" lon="4.98549">
        <ele>326</ele>
        <time>2013-08-22T16:44:06Z</time>
      </trkpt>
      <trkpt lat="44.78884" lon="4.98551">
        <ele>327</ele>
        <time>2013-08-22T16:44:07Z</time>
      </trkpt>
      <trkpt lat="44.78882" lon="4.98552">
        <ele>328</ele>
        <time>2013-08-22T16:44:08Z</time>
      </trkpt>
      <trkpt lat="44.7888" lon="4.98554">
        <ele>328</ele>
        <time>2013-08-22T16:44:09Z</time>
      </trkpt>
      <trkpt lat="44.78879" lon="4.98555">
        <ele>329</ele>
        <time>2013-08-22T16:44:10Z</time>
      </trkpt>
      <trkpt lat="44.78877" lon="4.98557">
        <ele>329</ele>
        <time>2013-08-22T16:44:11Z</time>
      </trkpt>
      <trkpt lat="44.78875" lon="4.98559">
        <ele>330</ele>
        <time>2013-08-22T16:44:12Z</time>
      </trkpt>
      <trkpt lat="44.78873" lon="4.98561">
        <ele>331</ele>
        <time>2013-08-22T16:44:13Z</time>
      </trkpt>
      <trkpt lat="44.78871" lon="4.98563">
        <ele>331</ele>
        <time>2013-08-22T16:44:14Z</time>
      </trkpt>
      <trkpt lat="44.78869" lon="4.98565">
        <ele>332</ele>
        <time>2013-08-22T16:44:15Z</time>
      </trkpt>
      <trkpt lat="44.78867" lon="4.98567">
        <ele>333</ele>
        <time>2013-08-22T16:44:16Z</time>
      </trkpt>
      <trkpt lat="44.78865" lon="4.98569">
        <ele>333</ele>
        <time>2013-08-22T16:44:17Z</time>
      </trkpt>
      <trkpt lat="44.78864" lon="4.98572">
        <ele>334</ele>
        <time>2013-08-22T16:44:18Z</time>
      </trkpt>
      <trkpt lat="44.78862" lon="4.98574">
        <ele>334</ele>
        <time>2013-08-22T16:44:19Z</time>
      </trkpt>
      <trkpt lat="44.7886" lon="4.98576">
        <ele>335</ele>
        <time>2013-08-22T16:44:20Z</time>
      </trkpt>
      <trkpt lat="44.78858" lon="4.98578">
        <ele>335</ele>
        <time>2013-08-22T16:44:21Z</time>
      </trkpt>
      <trkpt lat="44.78857" lon="4.98579">
        <ele>336</ele>
        <time>2013-08-22T16:44:22Z</time>
      </trkpt>
      <trkpt lat="44.78855" lon="4.98581">
        <ele>336</ele>
        <time>2013-08-22T16:44:23Z</time>
      </trkpt>
      <trkpt lat="44.78853" lon="4.98583">
        <ele>337</ele>
        <time>2013-08-22T16:44:24Z</time>
      </trkpt>
      <trkpt lat="44.7885" lon="4.98585">
        <ele>338</ele>
        <time>2013-08-22T16:44:25Z</time>
      </trkpt>
      <trkpt lat="44.78848" lon="4.98586">
        <ele>338</ele>
        <time>2013-08-22T16:44:26Z</time>
      </trkpt>
      <trkpt lat="44.78846" lon="4.98588">
        <ele>339</ele>
        <time>2013-08-22T16:44:27Z</time>
      </trkpt>
      <trkpt lat="44.78844" lon="4.9859">
        <ele>339</ele>
        <time>2013-08-22T16:44:28Z</time>
      </trkpt>
      <trkpt lat="44.78842" lon="4.98592">
        <ele>340</ele>
        <time>2013-08-22T16:44:29Z</time>
      </trkpt>
      <trkpt lat="44.7884" lon="4.98593">
        <ele>340</ele>
        <time>2013-08-22T16:44:30Z</time>
      </trkpt>
      <trkpt lat="44.78838" lon="4.98594">
        <ele>341</ele>
        <time>2013-08-22T16:44:31Z</time>
      </trkpt>
      <trkpt lat="44.78836" lon="4.98594">
        <ele>342</ele>
        <time>2013-08-22T16:44:32Z</time>
      </trkpt>
      <trkpt lat="44.78834" lon="4.98595">
        <ele>342</ele>
        <time>2013-08-22T16:44:34Z</time>
      </trkpt>
      <trkpt lat="44.78833" lon="4.98595">
        <ele>343</ele>
        <time>2013-08-22T16:44:35Z</time>
      </trkpt>
      <trkpt lat="44.78832" lon="4.98596">
        <ele>343</ele>
        <time>2013-08-22T16:44:36Z</time>
      </trkpt>
      <trkpt lat="44.7883" lon="4.98597">
        <ele>343</ele>
        <time>2013-08-22T16:44:37Z</time>
      </trkpt>
      <trkpt lat="44.78829" lon="4.98598">
        <ele>344</ele>
        <time>2013-08-22T16:44:38Z</time>
      </trkpt>
      <trkpt lat="44.78828" lon="4.986">
        <ele>345</ele>
        <time>2013-08-22T16:44:39Z</time>
      </trkpt>
      <trkpt lat="44.78827" lon="4.98602">
        <ele>345</ele>
        <time>2013-08-22T16:44:40Z</time>
      </trkpt>
      <trkpt lat="44.78826" lon="4.98604">
        <ele>346</ele>
        <time>2013-08-22T16:44:41Z</time>
      </trkpt>
      <trkpt lat="44.78825" lon="4.98606">
        <ele>347</ele>
        <time>2013-08-22T16:44:42Z</time>
      </trkpt>
      <trkpt lat="44.78824" lon="4.98608">
        <ele>347</ele>
        <time>2013-08-22T16:44:43Z</time>
      </trkpt>
      <trkpt lat="44.78823" lon="4.98609">
        <ele>348</ele>
        <time>2013-08-22T16:44:44Z</time>
      </trkpt>
      <trkpt lat="44.78822" lon="4.98611">
        <ele>348</ele>
        <time>2013-08-22T16:44:45Z</time>
      </trkpt>
      <trkpt lat="44.78822" lon="4.98613">
        <ele>349</ele>
        <time>2013-08-22T16:44:46Z</time>
      </trkpt>
      <trkpt lat="44.7882" lon="4.98615">
        <ele>349</ele>
        <time>2013-08-22T16:44:47Z</time>
      </trkpt>
      <trkpt lat="44.78819" lon="4.98617">
        <ele>350</ele>
        <time>2013-08-22T16:44:48Z</time>
      </trkpt>
      <trkpt lat="44.78819" lon="4.9862">
        <ele>350</ele>
        <time>2013-08-22T16:44:49Z</time>
      </trkpt>
      <trkpt lat="44.78818" lon="4.98623">
        <ele>350</ele>
        <time>2013-08-22T16:44:50Z</time>
      </trkpt>
      <trkpt lat="44.78817" lon="4.98625">
        <ele>351</ele>
        <time>2013-08-22T16:44:51Z</time>
      </trkpt>
      <trkpt lat="44.78816" lon="4.98627">
        <ele>351</ele>
        <time>2013-08-22T16:44:52Z</time>
      </trkpt>
      <trkpt lat="44.78816" lon="4.9863">
        <ele>351</ele>
        <time>2013-08-22T16:44:53Z</time>
      </trkpt>
      <trkpt lat="44.78816" lon="4.98632">
        <ele>351</ele>
        <time>2013-08-22T16:44:54Z</time>
      </trkpt>
      <trkpt lat="44.78816" lon="4.98635">
        <ele>351</ele>
        <time>2013-08-22T16:44:55Z</time>
      </trkpt>
      <trkpt lat="44.78815" lon="4.98638">
        <ele>351</ele>
        <time>2013-08-22T16:44:56Z</time>
      </trkpt>
      <trkpt lat="44.78815" lon="4.9864">
        <ele>351</ele>
        <time>2013-08-22T16:44:57Z</time>
      </trkpt>
      <trkpt lat="44.78815" lon="4.98643">
        <ele>351</ele>
        <time>2013-08-22T16:44:58Z</time>
      </trkpt>
      <trkpt lat="44.78815" lon="4.98646">
        <ele>351</ele>
        <time>2013-08-22T16:44:59Z</time>
      </trkpt>
      <trkpt lat="44.78815" lon="4.98649">
        <ele>351</ele>
        <time>2013-08-22T16:45:00Z</time>
      </trkpt>
      <trkpt lat="44.78814" lon="4.98653">
        <ele>351</ele>
        <time>2013-08-22T16:45:01Z</time>
      </trkpt>
      <trkpt lat="44.78814" lon="4.98657">
        <ele>351</ele>
        <time>2013-08-22T16:45:02Z</time>
      </trkpt>
      <trkpt lat="44.78814" lon="4.9866">
        <ele>351</ele>
        <time>2013-08-22T16:45:03Z</time>
      </trkpt>
      <trkpt lat="44.78814" lon="4.98662">
        <ele>351</ele>
        <time>2013-08-22T16:45:04Z</time>
      </trkpt>
      <trkpt lat="44.78813" lon="4.98665">
        <ele>351</ele>
        <time>2013-08-22T16:45:05Z</time>
      </trkpt>
      <trkpt lat="44.78813" lon="4.98667">
        <ele>351</ele>
        <time>2013-08-22T16:45:06Z</time>
      </trkpt>
      <trkpt lat="44.78812" lon="4.98671">
        <ele>351</ele>
        <time>2013-08-22T16:45:07Z</time>
      </trkpt>
      <trkpt lat="44.78812" lon="4.98674">
        <ele>351</ele>
        <time>2013-08-22T16:45:08Z</time>
      </trkpt>
      <trkpt lat="44.78811" lon="4.98677">
        <ele>351</ele>
        <time>2013-08-22T16:45:09Z</time>
      </trkpt>
      <trkpt lat="44.7881" lon="4.9868">
        <ele>351</ele>
        <time>2013-08-22T16:45:10Z</time>
      </trkpt>
      <trkpt lat="44.78809" lon="4.98682">
        <ele>351</ele>
        <time>2013-08-22T16:45:11Z</time>
      </trkpt>
      <trkpt lat="44.78808" lon="4.98685">
        <ele>350</ele>
        <time>2013-08-22T16:45:12Z</time>
      </trkpt>
      <trkpt lat="44.78806" lon="4.98687">
        <ele>349</ele>
        <time>2013-08-22T16:45:13Z</time>
      </trkpt>
      <trkpt lat="44.78805" lon="4.98689">
        <ele>349</ele>
        <time>2013-08-22T16:45:14Z</time>
      </trkpt>
      <trkpt lat="44.78804" lon="4.98692">
        <ele>348</ele>
        <time>2013-08-22T16:45:15Z</time>
      </trkpt>
      <trkpt lat="44.78805" lon="4.98694">
        <ele>348</ele>
        <time>2013-08-22T16:45:16Z</time>
      </trkpt>
      <trkpt lat="44.78805" lon="4.98697">
        <ele>348</ele>
        <time>2013-08-22T16:45:17Z</time>
      </trkpt>
      <trkpt lat="44.78804" lon="4.98699">
        <ele>348</ele>
        <time>2013-08-22T16:45:18Z</time>
      </trkpt>
      <trkpt lat="44.78804" lon="4.98702">
        <ele>347</ele>
        <time>2013-08-22T16:45:19Z</time>
      </trkpt>
      <trkpt lat="44.78803" lon="4.98705">
        <ele>347</ele>
        <time>2013-08-22T16:45:20Z</time>
      </trkpt>
      <trkpt lat="44.78803" lon="4.98708">
        <ele>346</ele>
        <time>2013-08-22T16:45:21Z</time>
      </trkpt>
      <trkpt lat="44.78802" lon="4.9871">
        <ele>345</ele>
        <time>2013-08-22T16:45:22Z</time>
      </trkpt>
      <trkpt lat="44.78801" lon="4.98712">
        <ele>344</ele>
        <time>2013-08-22T16:45:23Z</time>
      </trkpt>
      <trkpt lat="44.78802" lon="4.98719">
        <ele>344</ele>
        <time>2013-08-22T16:45:24Z</time>
      </trkpt>
      <trkpt lat="44.78803" lon="4.98724">
        <ele>344</ele>
        <time>2013-08-22T16:45:25Z</time>
      </trkpt>
      <trkpt lat="44.78802" lon="4.98729">
        <ele>344</ele>
        <time>2013-08-22T16:45:26Z</time>
      </trkpt>
      <trkpt lat="44.78802" lon="4.98733">
        <ele>344</ele>
        <time>2013-08-22T16:45:27Z</time>
      </trkpt>
      <trkpt lat="44.78802" lon="4.98736">
        <ele>345</ele>
        <time>2013-08-22T16:45:28Z</time>
      </trkpt>
      <trkpt lat="44.78801" lon="4.98737">
        <ele>346</ele>
        <time>2013-08-22T16:45:29Z</time>
      </trkpt>
      <trkpt lat="44.788" lon="4.9874">
        <ele>348</ele>
        <time>2013-08-22T16:45:31Z</time>
      </trkpt>
      <trkpt lat="44.78799" lon="4.98742">
        <ele>348</ele>
        <time>2013-08-22T16:45:32Z</time>
      </trkpt>
      <trkpt lat="44.78798" lon="4.98745">
        <ele>348</ele>
        <time>2013-08-22T16:45:33Z</time>
      </trkpt>
      <trkpt lat="44.78797" lon="4.98748">
        <ele>348</ele>
        <time>2013-08-22T16:45:34Z</time>
      </trkpt>
      <trkpt lat="44.78796" lon="4.9875">
        <ele>348</ele>
        <time>2013-08-22T16:45:35Z</time>
      </trkpt>
      <trkpt lat="44.78795" lon="4.98753">
        <ele>348</ele>
        <time>2013-08-22T16:45:36Z</time>
      </trkpt>
      <trkpt lat="44.78794" lon="4.98756">
        <ele>348</ele>
        <time>2013-08-22T16:45:37Z</time>
      </trkpt>
      <trkpt lat="44.78793" lon="4.98758">
        <ele>348</ele>
        <time>2013-08-22T16:45:38Z</time>
      </trkpt>
      <trkpt lat="44.78792" lon="4.98761">
        <ele>348</ele>
        <time>2013-08-22T16:45:39Z</time>
      </trkpt>
      <trkpt lat="44.78791" lon="4.98763">
        <ele>348</ele>
        <time>2013-08-22T16:45:40Z</time>
      </trkpt>
      <trkpt lat="44.7879" lon="4.98766">
        <ele>347</ele>
        <time>2013-08-22T16:45:41Z</time>
      </trkpt>
      <trkpt lat="44.78789" lon="4.98769">
        <ele>346</ele>
        <time>2013-08-22T16:45:42Z</time>
      </trkpt>
      <trkpt lat="44.78788" lon="4.98771">
        <ele>346</ele>
        <time>2013-08-22T16:45:43Z</time>
      </trkpt>
      <trkpt lat="44.78787" lon="4.98774">
        <ele>346</ele>
        <time>2013-08-22T16:45:44Z</time>
      </trkpt>
      <trkpt lat="44.78786" lon="4.98777">
        <ele>345</ele>
        <time>2013-08-22T16:45:45Z</time>
      </trkpt>
      <trkpt lat="44.78786" lon="4.9878">
        <ele>345</ele>
        <time>2013-08-22T16:45:46Z</time>
      </trkpt>
      <trkpt lat="44.78785" lon="4.98783">
        <ele>344</ele>
        <time>2013-08-22T16:45:47Z</time>
      </trkpt>
      <trkpt lat="44.78784" lon="4.98787">
        <ele>343</ele>
        <time>2013-08-22T16:45:48Z</time>
      </trkpt>
      <trkpt lat="44.78783" lon="4.9879">
        <ele>343</ele>
        <time>2013-08-22T16:45:49Z</time>
      </trkpt>
      <trkpt lat="44.78783" lon="4.98793">
        <ele>342</ele>
        <time>2013-08-22T16:45:50Z</time>
      </trkpt>
      <trkpt lat="44.78782" lon="4.98795">
        <ele>341</ele>
        <time>2013-08-22T16:45:51Z</time>
      </trkpt>
      <trkpt lat="44.7878" lon="4.98798">
        <ele>340</ele>
        <time>2013-08-22T16:45:52Z</time>
      </trkpt>
      <trkpt lat="44.78779" lon="4.98802">
        <ele>339</ele>
        <time>2013-08-22T16:45:53Z</time>
      </trkpt>
      <trkpt lat="44.78777" lon="4.98805">
        <ele>338</ele>
        <time>2013-08-22T16:45:54Z</time>
      </trkpt>
      <trkpt lat="44.78776" lon="4.98808">
        <ele>338</ele>
        <time>2013-08-22T16:45:55Z</time>
      </trkpt>
      <trkpt lat="44.78775" lon="4.98812">
        <ele>337</ele>
        <time>2013-08-22T16:45:56Z</time>
      </trkpt>
      <trkpt lat="44.78774" lon="4.98815">
        <ele>336</ele>
        <time>2013-08-22T16:45:57Z</time>
      </trkpt>
      <trkpt lat="44.78773" lon="4.98818">
        <ele>336</ele>
        <time>2013-08-22T16:45:58Z</time>
      </trkpt>
      <trkpt lat="44.78772" lon="4.98821">
        <ele>335</ele>
        <time>2013-08-22T16:45:59Z</time>
      </trkpt>
      <trkpt lat="44.78772" lon="4.98824">
        <ele>334</ele>
        <time>2013-08-22T16:46:00Z</time>
      </trkpt>
      <trkpt lat="44.78771" lon="4.98826">
        <ele>333</ele>
        <time>2013-08-22T16:46:01Z</time>
      </trkpt>
      <trkpt lat="44.7877" lon="4.98829">
        <ele>333</ele>
        <time>2013-08-22T16:46:02Z</time>
      </trkpt>
      <trkpt lat="44.78769" lon="4.98832">
        <ele>332</ele>
        <time>2013-08-22T16:46:03Z</time>
      </trkpt>
      <trkpt lat="44.78769" lon="4.98835">
        <ele>332</ele>
        <time>2013-08-22T16:46:04Z</time>
      </trkpt>
      <trkpt lat="44.78767" lon="4.98838">
        <ele>331</ele>
        <time>2013-08-22T16:46:05Z</time>
      </trkpt>
      <trkpt lat="44.78765" lon="4.98841">
        <ele>331</ele>
        <time>2013-08-22T16:46:06Z</time>
      </trkpt>
      <trkpt lat="44.78764" lon="4.98844">
        <ele>331</ele>
        <time>2013-08-22T16:46:07Z</time>
      </trkpt>
      <trkpt lat="44.78763" lon="4.98847">
        <ele>330</ele>
        <time>2013-08-22T16:46:08Z</time>
      </trkpt>
      <trkpt lat="44.78762" lon="4.9885">
        <ele>330</ele>
        <time>2013-08-22T16:46:09Z</time>
      </trkpt>
      <trkpt lat="44.78761" lon="4.98854">
        <ele>329</ele>
        <time>2013-08-22T16:46:10Z</time>
      </trkpt>
      <trkpt lat="44.78759" lon="4.98858">
        <ele>329</ele>
        <time>2013-08-22T16:46:11Z</time>
      </trkpt>
      <trkpt lat="44.78759" lon="4.98861">
        <ele>328</ele>
        <time>2013-08-22T16:46:12Z</time>
      </trkpt>
      <trkpt lat="44.78757" lon="4.98864">
        <ele>328</ele>
        <time>2013-08-22T16:46:13Z</time>
      </trkpt>
      <trkpt lat="44.78756" lon="4.98867">
        <ele>327</ele>
        <time>2013-08-22T16:46:14Z</time>
      </trkpt>
      <trkpt lat="44.78755" lon="4.9887">
        <ele>326</ele>
        <time>2013-08-22T16:46:15Z</time>
      </trkpt>
      <trkpt lat="44.78755" lon="4.98874">
        <ele>326</ele>
        <time>2013-08-22T16:46:16Z</time>
      </trkpt>
      <trkpt lat="44.78754" lon="4.98877">
        <ele>326</ele>
        <time>2013-08-22T16:46:17Z</time>
      </trkpt>
      <trkpt lat="44.78753" lon="4.98881">
        <ele>326</ele>
        <time>2013-08-22T16:46:18Z</time>
      </trkpt>
      <trkpt lat="44.78752" lon="4.98884">
        <ele>325</ele>
        <time>2013-08-22T16:46:19Z</time>
      </trkpt>
      <trkpt lat="44.78752" lon="4.98887">
        <ele>325</ele>
        <time>2013-08-22T16:46:20Z</time>
      </trkpt>
      <trkpt lat="44.78751" lon="4.9889">
        <ele>325</ele>
        <time>2013-08-22T16:46:21Z</time>
      </trkpt>
      <trkpt lat="44.78751" lon="4.98894">
        <ele>324</ele>
        <time>2013-08-22T16:46:22Z</time>
      </trkpt>
      <trkpt lat="44.7875" lon="4.98899">
        <ele>324</ele>
        <time>2013-08-22T16:46:23Z</time>
      </trkpt>
      <trkpt lat="44.78749" lon="4.98903">
        <ele>323</ele>
        <time>2013-08-22T16:46:24Z</time>
      </trkpt>
      <trkpt lat="44.78748" lon="4.98906">
        <ele>323</ele>
        <time>2013-08-22T16:46:25Z</time>
      </trkpt>
      <trkpt lat="44.78747" lon="4.98909">
        <ele>323</ele>
        <time>2013-08-22T16:46:26Z</time>
      </trkpt>
      <trkpt lat="44.78746" lon="4.98913">
        <ele>323</ele>
        <time>2013-08-22T16:46:27Z</time>
      </trkpt>
      <trkpt lat="44.78744" lon="4.98916">
        <ele>323</ele>
        <time>2013-08-22T16:46:28Z</time>
      </trkpt>
      <trkpt lat="44.78743" lon="4.9892">
        <ele>323</ele>
        <time>2013-08-22T16:46:29Z</time>
      </trkpt>
      <trkpt lat="44.78742" lon="4.98923">
        <ele>323</ele>
        <time>2013-08-22T16:46:30Z</time>
      </trkpt>
      <trkpt lat="44.7874" lon="4.98925">
        <ele>323</ele>
        <time>2013-08-22T16:46:31Z</time>
      </trkpt>
      <trkpt lat="44.7874" lon="4.98928">
        <ele>323</ele>
        <time>2013-08-22T16:46:32Z</time>
      </trkpt>
      <trkpt lat="44.78738" lon="4.98931">
        <ele>323</ele>
        <time>2013-08-22T16:46:33Z</time>
      </trkpt>
      <trkpt lat="44.78736" lon="4.98933">
        <ele>323</ele>
        <time>2013-08-22T16:46:34Z</time>
      </trkpt>
      <trkpt lat="44.78735" lon="4.98936">
        <ele>323</ele>
        <time>2013-08-22T16:46:35Z</time>
      </trkpt>
      <trkpt lat="44.78734" lon="4.98939">
        <ele>323</ele>
        <time>2013-08-22T16:46:36Z</time>
      </trkpt>
      <trkpt lat="44.78733" lon="4.98941">
        <ele>322</ele>
        <time>2013-08-22T16:46:37Z</time>
      </trkpt>
      <trkpt lat="44.78732" lon="4.98944">
        <ele>322</ele>
        <time>2013-08-22T16:46:38Z</time>
      </trkpt>
      <trkpt lat="44.7873" lon="4.98947">
        <ele>322</ele>
        <time>2013-08-22T16:46:39Z</time>
      </trkpt>
      <trkpt lat="44.78728" lon="4.9895">
        <ele>322</ele>
        <time>2013-08-22T16:46:40Z</time>
      </trkpt>
      <trkpt lat="44.78727" lon="4.98953">
        <ele>322</ele>
        <time>2013-08-22T16:46:41Z</time>
      </trkpt>
      <trkpt lat="44.78725" lon="4.98956">
        <ele>322</ele>
        <time>2013-08-22T16:46:42Z</time>
      </trkpt>
      <trkpt lat="44.78723" lon="4.9896">
        <ele>322</ele>
        <time>2013-08-22T16:46:43Z</time>
      </trkpt>
      <trkpt lat="44.78722" lon="4.98964">
        <ele>322</ele>
        <time>2013-08-22T16:46:44Z</time>
      </trkpt>
      <trkpt lat="44.7872" lon="4.98968">
        <ele>322</ele>
        <time>2013-08-22T16:46:45Z</time>
      </trkpt>
      <trkpt lat="44.78719" lon="4.98972">
        <ele>322</ele>
        <time>2013-08-22T16:46:46Z</time>
      </trkpt>
      <trkpt lat="44.78718" lon="4.98974">
        <ele>322</ele>
        <time>2013-08-22T16:46:47Z</time>
      </trkpt>
      <trkpt lat="44.78717" lon="4.98978">
        <ele>322</ele>
        <time>2013-08-22T16:46:48Z</time>
      </trkpt>
      <trkpt lat="44.78715" lon="4.9898">
        <ele>322</ele>
        <time>2013-08-22T16:46:49Z</time>
      </trkpt>
      <trkpt lat="44.78713" lon="4.98983">
        <ele>322</ele>
        <time>2013-08-22T16:46:50Z</time>
      </trkpt>
      <trkpt lat="44.78711" lon="4.98985">
        <ele>322</ele>
        <time>2013-08-22T16:46:51Z</time>
      </trkpt>
      <trkpt lat="44.78709" lon="4.98987">
        <ele>322</ele>
        <time>2013-08-22T16:46:52Z</time>
      </trkpt>
      <trkpt lat="44.78707" lon="4.9899">
        <ele>322</ele>
        <time>2013-08-22T16:46:53Z</time>
      </trkpt>
      <trkpt lat="44.78706" lon="4.98992">
        <ele>322</ele>
        <time>2013-08-22T16:46:54Z</time>
      </trkpt>
      <trkpt lat="44.78704" lon="4.98994">
        <ele>323</ele>
        <time>2013-08-22T16:46:55Z</time>
      </trkpt>
      <trkpt lat="44.78702" lon="4.98996">
        <ele>323</ele>
        <time>2013-08-22T16:46:56Z</time>
      </trkpt>
      <trkpt lat="44.787" lon="4.98999">
        <ele>323</ele>
        <time>2013-08-22T16:46:57Z</time>
      </trkpt>
      <trkpt lat="44.78698" lon="4.99001">
        <ele>323</ele>
        <time>2013-08-22T16:46:58Z</time>
      </trkpt>
      <trkpt lat="44.78697" lon="4.99004">
        <ele>323</ele>
        <time>2013-08-22T16:46:59Z</time>
      </trkpt>
      <trkpt lat="44.78695" lon="4.99007">
        <ele>323</ele>
        <time>2013-08-22T16:47:00Z</time>
      </trkpt>
      <trkpt lat="44.78694" lon="4.9901">
        <ele>324</ele>
        <time>2013-08-22T16:47:01Z</time>
      </trkpt>
      <trkpt lat="44.78692" lon="4.99012">
        <ele>325</ele>
        <time>2013-08-22T16:47:02Z</time>
      </trkpt>
      <trkpt lat="44.78691" lon="4.99015">
        <ele>325</ele>
        <time>2013-08-22T16:47:03Z</time>
      </trkpt>
      <trkpt lat="44.78689" lon="4.99017">
        <ele>325</ele>
        <time>2013-08-22T16:47:04Z</time>
      </trkpt>
      <trkpt lat="44.78687" lon="4.99019">
        <ele>326</ele>
        <time>2013-08-22T16:47:05Z</time>
      </trkpt>
      <trkpt lat="44.78686" lon="4.99021">
        <ele>326</ele>
        <time>2013-08-22T16:47:06Z</time>
      </trkpt>
      <trkpt lat="44.78684" lon="4.99023">
        <ele>326</ele>
        <time>2013-08-22T16:47:07Z</time>
      </trkpt>
      <trkpt lat="44.78682" lon="4.99026">
        <ele>326</ele>
        <time>2013-08-22T16:47:08Z</time>
      </trkpt>
      <trkpt lat="44.7868" lon="4.99029">
        <ele>326</ele>
        <time>2013-08-22T16:47:09Z</time>
      </trkpt>
      <trkpt lat="44.78679" lon="4.99032">
        <ele>326</ele>
        <time>2013-08-22T16:47:10Z</time>
      </trkpt>
      <trkpt lat="44.78677" lon="4.99035">
        <ele>326</ele>
        <time>2013-08-22T16:47:11Z</time>
      </trkpt>
      <trkpt lat="44.78675" lon="4.99037">
        <ele>326</ele>
        <time>2013-08-22T16:47:12Z</time>
      </trkpt>
      <trkpt lat="44.78673" lon="4.99039">
        <ele>326</ele>
        <time>2013-08-22T16:47:13Z</time>
      </trkpt>
      <trkpt lat="44.78672" lon="4.99042">
        <ele>326</ele>
        <time>2013-08-22T16:47:14Z</time>
      </trkpt>
      <trkpt lat="44.78671" lon="4.99045">
        <ele>326</ele>
        <time>2013-08-22T16:47:15Z</time>
      </trkpt>
      <trkpt lat="44.78669" lon="4.99047">
        <ele>326</ele>
        <time>2013-08-22T16:47:16Z</time>
      </trkpt>
      <trkpt lat="44.78667" lon="4.9905">
        <ele>327</ele>
        <time>2013-08-22T16:47:17Z</time>
      </trkpt>
      <trkpt lat="44.78664" lon="4.99052">
        <ele>327</ele>
        <time>2013-08-22T16:47:18Z</time>
      </trkpt>
      <trkpt lat="44.78662" lon="4.99053">
        <ele>328</ele>
        <time>2013-08-22T16:47:19Z</time>
      </trkpt>
      <trkpt lat="44.7866" lon="4.99055">
        <ele>328</ele>
        <time>2013-08-22T16:47:20Z</time>
      </trkpt>
      <trkpt lat="44.78658" lon="4.99056">
        <ele>328</ele>
        <time>2013-08-22T16:47:21Z</time>
      </trkpt>
      <trkpt lat="44.78656" lon="4.99057">
        <ele>328</ele>
        <time>2013-08-22T16:47:22Z</time>
      </trkpt>
      <trkpt lat="44.78654" lon="4.99059">
        <ele>328</ele>
        <time>2013-08-22T16:47:23Z</time>
      </trkpt>
      <trkpt lat="44.78651" lon="4.99062">
        <ele>328</ele>
        <time>2013-08-22T16:47:24Z</time>
      </trkpt>
      <trkpt lat="44.78649" lon="4.99064">
        <ele>328</ele>
        <time>2013-08-22T16:47:25Z</time>
      </trkpt>
      <trkpt lat="44.78647" lon="4.99065">
        <ele>328</ele>
        <time>2013-08-22T16:47:26Z</time>
      </trkpt>
      <trkpt lat="44.78645" lon="4.99068">
        <ele>329</ele>
        <time>2013-08-22T16:47:27Z</time>
      </trkpt>
      <trkpt lat="44.78642" lon="4.99069">
        <ele>329</ele>
        <time>2013-08-22T16:47:28Z</time>
      </trkpt>
      <trkpt lat="44.78639" lon="4.9907">
        <ele>329</ele>
        <time>2013-08-22T16:47:29Z</time>
      </trkpt>
      <trkpt lat="44.78637" lon="4.99072">
        <ele>329</ele>
        <time>2013-08-22T16:47:30Z</time>
      </trkpt>
      <trkpt lat="44.78635" lon="4.99073">
        <ele>329</ele>
        <time>2013-08-22T16:47:31Z</time>
      </trkpt>
      <trkpt lat="44.78633" lon="4.99074">
        <ele>329</ele>
        <time>2013-08-22T16:47:32Z</time>
      </trkpt>
      <trkpt lat="44.78632" lon="4.99075">
        <ele>329</ele>
        <time>2013-08-22T16:47:33Z</time>
      </trkpt>
      <trkpt lat="44.7863" lon="4.99076">
        <ele>329</ele>
        <time>2013-08-22T16:47:34Z</time>
      </trkpt>
      <trkpt lat="44.78628" lon="4.99077">
        <ele>329</ele>
        <time>2013-08-22T16:47:35Z</time>
      </trkpt>
      <trkpt lat="44.78626" lon="4.99078">
        <ele>329</ele>
        <time>2013-08-22T16:47:36Z</time>
      </trkpt>
      <trkpt lat="44.78624" lon="4.99079">
        <ele>329</ele>
        <time>2013-08-22T16:47:37Z</time>
      </trkpt>
      <trkpt lat="44.78624" lon="4.99081">
        <ele>330</ele>
        <time>2013-08-22T16:47:38Z</time>
      </trkpt>
      <trkpt lat="44.78622" lon="4.99082">
        <ele>331</ele>
        <time>2013-08-22T16:47:39Z</time>
      </trkpt>
      <trkpt lat="44.78619" lon="4.99084">
        <ele>332</ele>
        <time>2013-08-22T16:47:40Z</time>
      </trkpt>
      <trkpt lat="44.78617" lon="4.99085">
        <ele>333</ele>
        <time>2013-08-22T16:47:41Z</time>
      </trkpt>
      <trkpt lat="44.78616" lon="4.99086">
        <ele>334</ele>
        <time>2013-08-22T16:47:42Z</time>
      </trkpt>
      <trkpt lat="44.78613" lon="4.99087">
        <ele>335</ele>
        <time>2013-08-22T16:47:43Z</time>
      </trkpt>
      <trkpt lat="44.78611" lon="4.99086">
        <ele>336</ele>
        <time>2013-08-22T16:47:44Z</time>
      </trkpt>
      <trkpt lat="44.78612" lon="4.99089">
        <ele>337</ele>
        <time>2013-08-22T16:47:45Z</time>
      </trkpt>
      <trkpt lat="44.7861" lon="4.9909">
        <ele>338</ele>
        <time>2013-08-22T16:47:46Z</time>
      </trkpt>
      <trkpt lat="44.78608" lon="4.9909">
        <ele>339</ele>
        <time>2013-08-22T16:47:47Z</time>
      </trkpt>
      <trkpt lat="44.78606" lon="4.99091">
        <ele>340</ele>
        <time>2013-08-22T16:47:48Z</time>
      </trkpt>
      <trkpt lat="44.78603" lon="4.99092">
        <ele>342</ele>
        <time>2013-08-22T16:47:49Z</time>
      </trkpt>
      <trkpt lat="44.786" lon="4.99092">
        <ele>343</ele>
        <time>2013-08-22T16:47:50Z</time>
      </trkpt>
      <trkpt lat="44.78598" lon="4.99093">
        <ele>344</ele>
        <time>2013-08-22T16:47:51Z</time>
      </trkpt>
      <trkpt lat="44.78595" lon="4.99094">
        <ele>345</ele>
        <time>2013-08-22T16:47:52Z</time>
      </trkpt>
      <trkpt lat="44.78596" lon="4.99096">
        <ele>346</ele>
        <time>2013-08-22T16:47:53Z</time>
      </trkpt>
      <trkpt lat="44.78594" lon="4.99099">
        <ele>349</ele>
        <time>2013-08-22T16:47:55Z</time>
      </trkpt>
      <trkpt lat="44.78593" lon="4.991">
        <ele>351</ele>
        <time>2013-08-22T16:47:56Z</time>
      </trkpt>
      <trkpt lat="44.7859" lon="4.99101">
        <ele>353</ele>
        <time>2013-08-22T16:47:57Z</time>
      </trkpt>
      <trkpt lat="44.78589" lon="4.99102">
        <ele>355</ele>
        <time>2013-08-22T16:47:58Z</time>
      </trkpt>
      <trkpt lat="44.78587" lon="4.99102">
        <ele>356</ele>
        <time>2013-08-22T16:47:59Z</time>
      </trkpt>
      <trkpt lat="44.78585" lon="4.99104">
        <ele>357</ele>
        <time>2013-08-22T16:48:00Z</time>
      </trkpt>
      <trkpt lat="44.78584" lon="4.99107">
        <ele>358</ele>
        <time>2013-08-22T16:48:01Z</time>
      </trkpt>
      <trkpt lat="44.78583" lon="4.99109">
        <ele>359</ele>
        <time>2013-08-22T16:48:02Z</time>
      </trkpt>
      <trkpt lat="44.78581" lon="4.99111">
        <ele>360</ele>
        <time>2013-08-22T16:48:03Z</time>
      </trkpt>
      <trkpt lat="44.78579" lon="4.99114">
        <ele>361</ele>
        <time>2013-08-22T16:48:04Z</time>
      </trkpt>
      <trkpt lat="44.78577" lon="4.99118">
        <ele>362</ele>
        <time>2013-08-22T16:48:05Z</time>
      </trkpt>
      <trkpt lat="44.78574" lon="4.99122">
        <ele>363</ele>
        <time>2013-08-22T16:48:06Z</time>
      </trkpt>
      <trkpt lat="44.78573" lon="4.99124">
        <ele>364</ele>
        <time>2013-08-22T16:48:07Z</time>
      </trkpt>
      <trkpt lat="44.78571" lon="4.99127">
        <ele>365</ele>
        <time>2013-08-22T16:48:08Z</time>
      </trkpt>
      <trkpt lat="44.78569" lon="4.9913">
        <ele>365</ele>
        <time>2013-08-22T16:48:09Z</time>
      </trkpt>
      <trkpt lat="44.78567" lon="4.99133">
        <ele>365</ele>
        <time>2013-08-22T16:48:10Z</time>
      </trkpt>
      <trkpt lat="44.78565" lon="4.99136">
        <ele>365</ele>
        <time>2013-08-22T16:48:11Z</time>
      </trkpt>
      <trkpt lat="44.78564" lon="4.99139">
        <ele>365</ele>
        <time>2013-08-22T16:48:12Z</time>
      </trkpt>
      <trkpt lat="44.78562" lon="4.99142">
        <ele>366</ele>
        <time>2013-08-22T16:48:13Z</time>
      </trkpt>
      <trkpt lat="44.7856" lon="4.99144">
        <ele>366</ele>
        <time>2013-08-22T16:48:14Z</time>
      </trkpt>
      <trkpt lat="44.78559" lon="4.99145">
        <ele>366</ele>
        <time>2013-08-22T16:48:15Z</time>
      </trkpt>
      <trkpt lat="44.78558" lon="4.99147">
        <ele>366</ele>
        <time>2013-08-22T16:48:16Z</time>
      </trkpt>
      <trkpt lat="44.78556" lon="4.99149">
        <ele>367</ele>
        <time>2013-08-22T16:48:17Z</time>
      </trkpt>
      <trkpt lat="44.78553" lon="4.99152">
        <ele>367</ele>
        <time>2013-08-22T16:48:18Z</time>
      </trkpt>
      <trkpt lat="44.78551" lon="4.99155">
        <ele>367</ele>
        <time>2013-08-22T16:48:19Z</time>
      </trkpt>
      <trkpt lat="44.78549" lon="4.99157">
        <ele>367</ele>
        <time>2013-08-22T16:48:20Z</time>
      </trkpt>
      <trkpt lat="44.78547" lon="4.9916">
        <ele>367</ele>
        <time>2013-08-22T16:48:21Z</time>
      </trkpt>
      <trkpt lat="44.78545" lon="4.99163">
        <ele>367</ele>
        <time>2013-08-22T16:48:22Z</time>
      </trkpt>
      <trkpt lat="44.78544" lon="4.99165">
        <ele>368</ele>
        <time>2013-08-22T16:48:23Z</time>
      </trkpt>
      <trkpt lat="44.78542" lon="4.99167">
        <ele>368</ele>
        <time>2013-08-22T16:48:24Z</time>
      </trkpt>
      <trkpt lat="44.7854" lon="4.99169">
        <ele>368</ele>
        <time>2013-08-22T16:48:25Z</time>
      </trkpt>
      <trkpt lat="44.78538" lon="4.99171">
        <ele>368</ele>
        <time>2013-08-22T16:48:26Z</time>
      </trkpt>
      <trkpt lat="44.78536" lon="4.99174">
        <ele>369</ele>
        <time>2013-08-22T16:48:27Z</time>
      </trkpt>
      <trkpt lat="44.78535" lon="4.99177">
        <ele>369</ele>
        <time>2013-08-22T16:48:28Z</time>
      </trkpt>
      <trkpt lat="44.78534" lon="4.9918">
        <ele>369</ele>
        <time>2013-08-22T16:48:29Z</time>
      </trkpt>
      <trkpt lat="44.78532" lon="4.99183">
        <ele>369</ele>
        <time>2013-08-22T16:48:30Z</time>
      </trkpt>
      <trkpt lat="44.78531" lon="4.99186">
        <ele>369</ele>
        <time>2013-08-22T16:48:31Z</time>
      </trkpt>
      <trkpt lat="44.7853" lon="4.99188">
        <ele>369</ele>
        <time>2013-08-22T16:48:32Z</time>
      </trkpt>
      <trkpt lat="44.78529" lon="4.99192">
        <ele>369</ele>
        <time>2013-08-22T16:48:33Z</time>
      </trkpt>
      <trkpt lat="44.78527" lon="4.99196">
        <ele>369</ele>
        <time>2013-08-22T16:48:34Z</time>
      </trkpt>
      <trkpt lat="44.78526" lon="4.99199">
        <ele>369</ele>
        <time>2013-08-22T16:48:35Z</time>
      </trkpt>
      <trkpt lat="44.78524" lon="4.99203">
        <ele>369</ele>
        <time>2013-08-22T16:48:36Z</time>
      </trkpt>
      <trkpt lat="44.78522" lon="4.99206">
        <ele>369</ele>
        <time>2013-08-22T16:48:37Z</time>
      </trkpt>
      <trkpt lat="44.7852" lon="4.9921">
        <ele>369</ele>
        <time>2013-08-22T16:48:38Z</time>
      </trkpt>
      <trkpt lat="44.78519" lon="4.99214">
        <ele>369</ele>
        <time>2013-08-22T16:48:39Z</time>
      </trkpt>
      <trkpt lat="44.78518" lon="4.99218">
        <ele>369</ele>
        <time>2013-08-22T16:48:40Z</time>
      </trkpt>
      <trkpt lat="44.78517" lon="4.99221">
        <ele>369</ele>
        <time>2013-08-22T16:48:41Z</time>
      </trkpt>
      <trkpt lat="44.78516" lon="4.99225">
        <ele>369</ele>
        <time>2013-08-22T16:48:42Z</time>
      </trkpt>
      <trkpt lat="44.78514" lon="4.99229">
        <ele>369</ele>
        <time>2013-08-22T16:48:43Z</time>
      </trkpt>
      <trkpt lat="44.78513" lon="4.99233">
        <ele>369</ele>
        <time>2013-08-22T16:48:44Z</time>
      </trkpt>
      <trkpt lat="44.78512" lon="4.99236">
        <ele>369</ele>
        <time>2013-08-22T16:48:45Z</time>
      </trkpt>
      <trkpt lat="44.78511" lon="4.99238">
        <ele>369</ele>
        <time>2013-08-22T16:48:46Z</time>
      </trkpt>
      <trkpt lat="44.78509" lon="4.99241">
        <ele>369</ele>
        <time>2013-08-22T16:48:47Z</time>
      </trkpt>
      <trkpt lat="44.78508" lon="4.99243">
        <ele>369</ele>
        <time>2013-08-22T16:48:48Z</time>
      </trkpt>
      <trkpt lat="44.78507" lon="4.99246">
        <ele>369</ele>
        <time>2013-08-22T16:48:49Z</time>
      </trkpt>
      <trkpt lat="44.78506" lon="4.99248">
        <ele>369</ele>
        <time>2013-08-22T16:48:50Z</time>
      </trkpt>
      <trkpt lat="44.78505" lon="4.99251">
        <ele>368</ele>
        <time>2013-08-22T16:48:51Z</time>
      </trkpt>
      <trkpt lat="44.78503" lon="4.99254">
        <ele>368</ele>
        <time>2013-08-22T16:48:52Z</time>
      </trkpt>
      <trkpt lat="44.78502" lon="4.99257">
        <ele>367</ele>
        <time>2013-08-22T16:48:53Z</time>
      </trkpt>
      <trkpt lat="44.78501" lon="4.99261">
        <ele>367</ele>
        <time>2013-08-22T16:48:54Z</time>
      </trkpt>
      <trkpt lat="44.78498" lon="4.99264">
        <ele>366</ele>
        <time>2013-08-22T16:48:55Z</time>
      </trkpt>
      <trkpt lat="44.78497" lon="4.99268">
        <ele>366</ele>
        <time>2013-08-22T16:48:56Z</time>
      </trkpt>
      <trkpt lat="44.78495" lon="4.99272">
        <ele>365</ele>
        <time>2013-08-22T16:48:57Z</time>
      </trkpt>
      <trkpt lat="44.78493" lon="4.99276">
        <ele>365</ele>
        <time>2013-08-22T16:48:58Z</time>
      </trkpt>
      <trkpt lat="44.7849" lon="4.9928">
        <ele>364</ele>
        <time>2013-08-22T16:48:59Z</time>
      </trkpt>
      <trkpt lat="44.78487" lon="4.99283">
        <ele>363</ele>
        <time>2013-08-22T16:49:00Z</time>
      </trkpt>
      <trkpt lat="44.78484" lon="4.99287">
        <ele>363</ele>
        <time>2013-08-22T16:49:01Z</time>
      </trkpt>
      <trkpt lat="44.78482" lon="4.9929">
        <ele>362</ele>
        <time>2013-08-22T16:49:02Z</time>
      </trkpt>
      <trkpt lat="44.7848" lon="4.99293">
        <ele>361</ele>
        <time>2013-08-22T16:49:03Z</time>
      </trkpt>
      <trkpt lat="44.7848" lon="4.99297">
        <ele>361</ele>
        <time>2013-08-22T16:49:04Z</time>
      </trkpt>
      <trkpt lat="44.78478" lon="4.993">
        <ele>361</ele>
        <time>2013-08-22T16:49:05Z</time>
      </trkpt>
      <trkpt lat="44.78477" lon="4.99303">
        <ele>361</ele>
        <time>2013-08-22T16:49:06Z</time>
      </trkpt>
      <trkpt lat="44.78475" lon="4.99306">
        <ele>361</ele>
        <time>2013-08-22T16:49:07Z</time>
      </trkpt>
      <trkpt lat="44.78474" lon="4.9931">
        <ele>361</ele>
        <time>2013-08-22T16:49:08Z</time>
      </trkpt>
      <trkpt lat="44.78473" lon="4.99313">
        <ele>361</ele>
        <time>2013-08-22T16:49:09Z</time>
      </trkpt>
      <trkpt lat="44.78472" lon="4.99318">
        <ele>361</ele>
        <time>2013-08-22T16:49:10Z</time>
      </trkpt>
      <trkpt lat="44.7847" lon="4.99322">
        <ele>361</ele>
        <time>2013-08-22T16:49:11Z</time>
      </trkpt>
      <trkpt lat="44.78468" lon="4.99325">
        <ele>361</ele>
        <time>2013-08-22T16:49:12Z</time>
      </trkpt>
      <trkpt lat="44.78466" lon="4.99328">
        <ele>361</ele>
        <time>2013-08-22T16:49:13Z</time>
      </trkpt>
      <trkpt lat="44.78463" lon="4.99331">
        <ele>361</ele>
        <time>2013-08-22T16:49:14Z</time>
      </trkpt>
      <trkpt lat="44.7846" lon="4.99334">
        <ele>361</ele>
        <time>2013-08-22T16:49:15Z</time>
      </trkpt>
      <trkpt lat="44.78458" lon="4.99336">
        <ele>361</ele>
        <time>2013-08-22T16:49:16Z</time>
      </trkpt>
      <trkpt lat="44.78455" lon="4.99338">
        <ele>361</ele>
        <time>2013-08-22T16:49:17Z</time>
      </trkpt>
      <trkpt lat="44.78453" lon="4.99338">
        <ele>361</ele>
        <time>2013-08-22T16:49:18Z</time>
      </trkpt>
      <trkpt lat="44.7845" lon="4.99339">
        <ele>361</ele>
        <time>2013-08-22T16:49:19Z</time>
      </trkpt>
      <trkpt lat="44.78448" lon="4.99338">
        <ele>361</ele>
        <time>2013-08-22T16:49:20Z</time>
      </trkpt>
      <trkpt lat="44.78448" lon="4.99337">
        <ele>361</ele>
        <time>2013-08-22T16:49:21Z</time>
      </trkpt>
      <trkpt lat="44.7845" lon="4.99334">
        <ele>361</ele>
        <time>2013-08-22T16:49:22Z</time>
      </trkpt>
      <trkpt lat="44.78451" lon="4.99332">
        <ele>361</ele>
        <time>2013-08-22T16:49:23Z</time>
      </trkpt>
      <trkpt lat="44.78452" lon="4.99329">
        <ele>361</ele>
        <time>2013-08-22T16:49:24Z</time>
      </trkpt>
      <trkpt lat="44.78453" lon="4.99326">
        <ele>361</ele>
        <time>2013-08-22T16:49:25Z</time>
      </trkpt>
      <trkpt lat="44.78453" lon="4.99323">
        <ele>361</ele>
        <time>2013-08-22T16:49:26Z</time>
      </trkpt>
      <trkpt lat="44.78453" lon="4.99321">
        <ele>362</ele>
        <time>2013-08-22T16:49:27Z</time>
      </trkpt>
      <trkpt lat="44.78453" lon="4.99318">
        <ele>362</ele>
        <time>2013-08-22T16:49:28Z</time>
      </trkpt>
      <trkpt lat="44.78453" lon="4.99315">
        <ele>362</ele>
        <time>2013-08-22T16:49:29Z</time>
      </trkpt>
      <trkpt lat="44.78453" lon="4.99313">
        <ele>362</ele>
        <time>2013-08-22T16:49:30Z</time>
      </trkpt>
      <trkpt lat="44.78454" lon="4.99311">
        <ele>363</ele>
        <time>2013-08-22T16:49:31Z</time>
      </trkpt>
      <trkpt lat="44.78454" lon="4.99308">
        <ele>363</ele>
        <time>2013-08-22T16:49:32Z</time>
      </trkpt>
      <trkpt lat="44.78455" lon="4.99306">
        <ele>363</ele>
        <time>2013-08-22T16:49:33Z</time>
      </trkpt>
      <trkpt lat="44.78455" lon="4.99303">
        <ele>363</ele>
        <time>2013-08-22T16:49:34Z</time>
      </trkpt>
      <trkpt lat="44.78456" lon="4.993">
        <ele>363</ele>
        <time>2013-08-22T16:49:35Z</time>
      </trkpt>
      <trkpt lat="44.78456" lon="4.99298">
        <ele>364</ele>
        <time>2013-08-22T16:49:36Z</time>
      </trkpt>
      <trkpt lat="44.78456" lon="4.99296">
        <ele>364</ele>
        <time>2013-08-22T16:49:37Z</time>
      </trkpt>
      <trkpt lat="44.78456" lon="4.99294">
        <ele>364</ele>
        <time>2013-08-22T16:49:38Z</time>
      </trkpt>
      <trkpt lat="44.78456" lon="4.99293">
        <ele>364</ele>
        <time>2013-08-22T16:49:39Z</time>
      </trkpt>
      <trkpt lat="44.78456" lon="4.99291">
        <ele>364</ele>
        <time>2013-08-22T16:49:40Z</time>
      </trkpt>
      <trkpt lat="44.78456" lon="4.99288">
        <ele>364</ele>
        <time>2013-08-22T16:49:41Z</time>
      </trkpt>
      <trkpt lat="44.78456" lon="4.99286">
        <ele>364</ele>
        <time>2013-08-22T16:49:42Z</time>
      </trkpt>
      <trkpt lat="44.78455" lon="4.99284">
        <ele>364</ele>
        <time>2013-08-22T16:49:43Z</time>
      </trkpt>
      <trkpt lat="44.78455" lon="4.99281">
        <ele>364</ele>
        <time>2013-08-22T16:49:44Z</time>
      </trkpt>
      <trkpt lat="44.78455" lon="4.99279">
        <ele>364</ele>
        <time>2013-08-22T16:49:45Z</time>
      </trkpt>
      <trkpt lat="44.78455" lon="4.99277">
        <ele>364</ele>
        <time>2013-08-22T16:49:47Z</time>
      </trkpt>
      <trkpt lat="44.78455" lon="4.99275">
        <ele>364</ele>
        <time>2013-08-22T16:49:48Z</time>
      </trkpt>
      <trkpt lat="44.78456" lon="4.99272">
        <ele>364</ele>
        <time>2013-08-22T16:49:50Z</time>
      </trkpt>
      <trkpt lat="44.78456" lon="4.9927">
        <ele>364</ele>
        <time>2013-08-22T16:49:51Z</time>
      </trkpt>
      <trkpt lat="44.78456" lon="4.99268">
        <ele>364</ele>
        <time>2013-08-22T16:49:52Z</time>
      </trkpt>
      <trkpt lat="44.78457" lon="4.99266">
        <ele>364</ele>
        <time>2013-08-22T16:49:53Z</time>
      </trkpt>
      <trkpt lat="44.78456" lon="4.99263">
        <ele>365</ele>
        <time>2013-08-22T16:49:54Z</time>
      </trkpt>
      <trkpt lat="44.78455" lon="4.9926">
        <ele>366</ele>
        <time>2013-08-22T16:49:55Z</time>
      </trkpt>
      <trkpt lat="44.78456" lon="4.99258">
        <ele>367</ele>
        <time>2013-08-22T16:49:56Z</time>
      </trkpt>
      <trkpt lat="44.78455" lon="4.99255">
        <ele>369</ele>
        <time>2013-08-22T16:49:58Z</time>
      </trkpt>
      <trkpt lat="44.78455" lon="4.99253">
        <ele>370</ele>
        <time>2013-08-22T16:49:59Z</time>
      </trkpt>
      <trkpt lat="44.78455" lon="4.99252">
        <ele>371</ele>
        <time>2013-08-22T16:50:00Z</time>
      </trkpt>
      <trkpt lat="44.78455" lon="4.9925">
        <ele>372</ele>
        <time>2013-08-22T16:50:01Z</time>
      </trkpt>
      <trkpt lat="44.78455" lon="4.99248">
        <ele>373</ele>
        <time>2013-08-22T16:50:03Z</time>
      </trkpt>
      <trkpt lat="44.78455" lon="4.99246">
        <ele>373</ele>
        <time>2013-08-22T16:50:04Z</time>
      </trkpt>
      <trkpt lat="44.78454" lon="4.99245">
        <ele>374</ele>
        <time>2013-08-22T16:50:05Z</time>
      </trkpt>
      <trkpt lat="44.78452" lon="4.99242">
        <ele>375</ele>
        <time>2013-08-22T16:50:07Z</time>
      </trkpt>
      <trkpt lat="44.7845" lon="4.99241">
        <ele>376</ele>
        <time>2013-08-22T16:50:08Z</time>
      </trkpt>
      <trkpt lat="44.78449" lon="4.99239">
        <ele>377</ele>
        <time>2013-08-22T16:50:09Z</time>
      </trkpt>
      <trkpt lat="44.78448" lon="4.99237">
        <ele>378</ele>
        <time>2013-08-22T16:50:10Z</time>
      </trkpt>
      <trkpt lat="44.78447" lon="4.99235">
        <ele>379</ele>
        <time>2013-08-22T16:50:11Z</time>
      </trkpt>
      <trkpt lat="44.78446" lon="4.99233">
        <ele>380</ele>
        <time>2013-08-22T16:50:12Z</time>
      </trkpt>
      <trkpt lat="44.78445" lon="4.99231">
        <ele>381</ele>
        <time>2013-08-22T16:50:13Z</time>
      </trkpt>
      <trkpt lat="44.78444" lon="4.99229">
        <ele>382</ele>
        <time>2013-08-22T16:50:14Z</time>
      </trkpt>
      <trkpt lat="44.78443" lon="4.99227">
        <ele>383</ele>
        <time>2013-08-22T16:50:15Z</time>
      </trkpt>
      <trkpt lat="44.78442" lon="4.99224">
        <ele>384</ele>
        <time>2013-08-22T16:50:16Z</time>
      </trkpt>
      <trkpt lat="44.78442" lon="4.99221">
        <ele>385</ele>
        <time>2013-08-22T16:50:17Z</time>
      </trkpt>
      <trkpt lat="44.78442" lon="4.99218">
        <ele>386</ele>
        <time>2013-08-22T16:50:18Z</time>
      </trkpt>
      <trkpt lat="44.78442" lon="4.99216">
        <ele>387</ele>
        <time>2013-08-22T16:50:19Z</time>
      </trkpt>
      <trkpt lat="44.78442" lon="4.99214">
        <ele>388</ele>
        <time>2013-08-22T16:50:20Z</time>
      </trkpt>
      <trkpt lat="44.7844" lon="4.99212">
        <ele>389</ele>
        <time>2013-08-22T16:50:21Z</time>
      </trkpt>
      <trkpt lat="44.78439" lon="4.99211">
        <ele>390</ele>
        <time>2013-08-22T16:50:22Z</time>
      </trkpt>
      <trkpt lat="44.78438" lon="4.99209">
        <ele>391</ele>
        <time>2013-08-22T16:50:23Z</time>
      </trkpt>
      <trkpt lat="44.78436" lon="4.99208">
        <ele>392</ele>
        <time>2013-08-22T16:50:24Z</time>
      </trkpt>
      <trkpt lat="44.78434" lon="4.99207">
        <ele>393</ele>
        <time>2013-08-22T16:50:25Z</time>
      </trkpt>
      <trkpt lat="44.78432" lon="4.99205">
        <ele>394</ele>
        <time>2013-08-22T16:50:26Z</time>
      </trkpt>
      <trkpt lat="44.7843" lon="4.99204">
        <ele>395</ele>
        <time>2013-08-22T16:50:27Z</time>
      </trkpt>
      <trkpt lat="44.78429" lon="4.99202">
        <ele>396</ele>
        <time>2013-08-22T16:50:28Z</time>
      </trkpt>
      <trkpt lat="44.78428" lon="4.992">
        <ele>397</ele>
        <time>2013-08-22T16:50:29Z</time>
      </trkpt>
      <trkpt lat="44.78426" lon="4.99198">
        <ele>398</ele>
        <time>2013-08-22T16:50:30Z</time>
      </trkpt>
      <trkpt lat="44.78425" lon="4.99197">
        <ele>398</ele>
        <time>2013-08-22T16:50:31Z</time>
      </trkpt>
      <trkpt lat="44.78423" lon="4.99195">
        <ele>399</ele>
        <time>2013-08-22T16:50:32Z</time>
      </trkpt>
      <trkpt lat="44.78421" lon="4.99194">
        <ele>399</ele>
        <time>2013-08-22T16:50:33Z</time>
      </trkpt>
      <trkpt lat="44.78419" lon="4.99192">
        <ele>399</ele>
        <time>2013-08-22T16:50:34Z</time>
      </trkpt>
      <trkpt lat="44.78417" lon="4.9919">
        <ele>399</ele>
        <time>2013-08-22T16:50:35Z</time>
      </trkpt>
      <trkpt lat="44.78416" lon="4.99187">
        <ele>400</ele>
        <time>2013-08-22T16:50:36Z</time>
      </trkpt>
      <trkpt lat="44.78414" lon="4.99186">
        <ele>400</ele>
        <time>2013-08-22T16:50:37Z</time>
      </trkpt>
      <trkpt lat="44.78412" lon="4.99184">
        <ele>400</ele>
        <time>2013-08-22T16:50:38Z</time>
      </trkpt>
      <trkpt lat="44.7841" lon="4.99183">
        <ele>400</ele>
        <time>2013-08-22T16:50:39Z</time>
      </trkpt>
      <trkpt lat="44.78409" lon="4.99181">
        <ele>400</ele>
        <time>2013-08-22T16:50:40Z</time>
      </trkpt>
      <trkpt lat="44.78407" lon="4.99178">
        <ele>400</ele>
        <time>2013-08-22T16:50:41Z</time>
      </trkpt>
      <trkpt lat="44.78405" lon="4.99176">
        <ele>400</ele>
        <time>2013-08-22T16:50:42Z</time>
      </trkpt>
      <trkpt lat="44.78404" lon="4.99173">
        <ele>400</ele>
        <time>2013-08-22T16:50:43Z</time>
      </trkpt>
      <trkpt lat="44.78402" lon="4.99171">
        <ele>400</ele>
        <time>2013-08-22T16:50:44Z</time>
      </trkpt>
      <trkpt lat="44.78401" lon="4.99169">
        <ele>401</ele>
        <time>2013-08-22T16:50:45Z</time>
      </trkpt>
      <trkpt lat="44.78399" lon="4.99166">
        <ele>401</ele>
        <time>2013-08-22T16:50:46Z</time>
      </trkpt>
      <trkpt lat="44.78397" lon="4.99164">
        <ele>401</ele>
        <time>2013-08-22T16:50:47Z</time>
      </trkpt>
      <trkpt lat="44.78396" lon="4.99161">
        <ele>401</ele>
        <time>2013-08-22T16:50:48Z</time>
      </trkpt>
      <trkpt lat="44.78395" lon="4.99157">
        <ele>401</ele>
        <time>2013-08-22T16:50:49Z</time>
      </trkpt>
      <trkpt lat="44.78394" lon="4.99154">
        <ele>401</ele>
        <time>2013-08-22T16:50:50Z</time>
      </trkpt>
      <trkpt lat="44.78393" lon="4.99151">
        <ele>401</ele>
        <time>2013-08-22T16:50:51Z</time>
      </trkpt>
      <trkpt lat="44.78392" lon="4.99149">
        <ele>401</ele>
        <time>2013-08-22T16:50:52Z</time>
      </trkpt>
      <trkpt lat="44.78391" lon="4.99146">
        <ele>401</ele>
        <time>2013-08-22T16:50:53Z</time>
      </trkpt>
      <trkpt lat="44.78392" lon="4.99148">
        <ele>401</ele>
        <time>2013-08-22T16:50:57Z</time>
      </trkpt>
      <trkpt lat="44.78393" lon="4.9915">
        <ele>401</ele>
        <time>2013-08-22T16:50:59Z</time>
      </trkpt>
      <trkpt lat="44.78394" lon="4.99153">
        <ele>401</ele>
        <time>2013-08-22T16:51:01Z</time>
      </trkpt>
      <trkpt lat="44.78396" lon="4.99154">
        <ele>401</ele>
        <time>2013-08-22T16:51:04Z</time>
      </trkpt>
      <trkpt lat="44.78397" lon="4.99155">
        <ele>401</ele>
        <time>2013-08-22T16:51:06Z</time>
      </trkpt>
      <trkpt lat="44.78399" lon="4.99156">
        <ele>401</ele>
        <time>2013-08-22T16:51:08Z</time>
      </trkpt>
      <trkpt lat="44.784" lon="4.99157">
        <ele>401</ele>
        <time>2013-08-22T16:51:15Z</time>
      </trkpt>
      <trkpt lat="44.78402" lon="4.99157">
        <ele>401</ele>
        <time>2013-08-22T16:51:18Z</time>
      </trkpt>
      <trkpt lat="44.78403" lon="4.99156">
        <ele>401</ele>
        <time>2013-08-22T16:51:19Z</time>
      </trkpt>
      <trkpt lat="44.78404" lon="4.99158">
        <ele>401</ele>
        <time>2013-08-22T16:51:23Z</time>
      </trkpt>
      <trkpt lat="44.78403" lon="4.9916">
        <ele>401</ele>
        <time>2013-08-22T16:51:25Z</time>
      </trkpt>
      <trkpt lat="44.78403" lon="4.99162">
        <ele>401</ele>
        <time>2013-08-22T16:51:30Z</time>
      </trkpt>
      <trkpt lat="44.78402" lon="4.99162">
        <ele>401</ele>
        <time>2013-08-22T16:51:36Z</time>
      </trkpt>
      <trkpt lat="44.784" lon="4.99162">
        <ele>401</ele>
        <time>2013-08-22T16:51:41Z</time>
      </trkpt>
      <trkpt lat="44.78399" lon="4.99162">
        <ele>403</ele>
        <time>2013-08-22T16:51:56Z</time>
      </trkpt>
      <trkpt lat="44.78398" lon="4.9916">
        <ele>403</ele>
        <time>2013-08-22T16:51:58Z</time>
      </trkpt>
      <trkpt lat="44.78397" lon="4.99157">
        <ele>403</ele>
        <time>2013-08-22T16:52:00Z</time>
      </trkpt>
      <trkpt lat="44.78395" lon="4.99156">
        <ele>403</ele>
        <time>2013-08-22T16:52:01Z</time>
      </trkpt>
      <trkpt lat="44.78394" lon="4.99154">
        <ele>403</ele>
        <time>2013-08-22T16:52:02Z</time>
      </trkpt>
      <trkpt lat="44.78393" lon="4.99152">
        <ele>404</ele>
        <time>2013-08-22T16:52:03Z</time>
      </trkpt>
      <trkpt lat="44.78392" lon="4.9915">
        <ele>404</ele>
        <time>2013-08-22T16:52:04Z</time>
      </trkpt>
      <trkpt lat="44.7839" lon="4.99148">
        <ele>404</ele>
        <time>2013-08-22T16:52:05Z</time>
      </trkpt>
      <trkpt lat="44.78388" lon="4.99146">
        <ele>404</ele>
        <time>2013-08-22T16:52:06Z</time>
      </trkpt>
      <trkpt lat="44.78387" lon="4.99143">
        <ele>404</ele>
        <time>2013-08-22T16:52:07Z</time>
      </trkpt>
      <trkpt lat="44.78385" lon="4.9914">
        <ele>404</ele>
        <time>2013-08-22T16:52:08Z</time>
      </trkpt>
      <trkpt lat="44.78383" lon="4.99137">
        <ele>404</ele>
        <time>2013-08-22T16:52:09Z</time>
      </trkpt>
      <trkpt lat="44.78381" lon="4.99135">
        <ele>404</ele>
        <time>2013-08-22T16:52:10Z</time>
      </trkpt>
      <trkpt lat="44.78379" lon="4.99133">
        <ele>404</ele>
        <time>2013-08-22T16:52:11Z</time>
      </trkpt>
      <trkpt lat="44.78377" lon="4.9913">
        <ele>404</ele>
        <time>2013-08-22T16:52:12Z</time>
      </trkpt>
      <trkpt lat="44.78376" lon="4.99127">
        <ele>404</ele>
        <time>2013-08-22T16:52:13Z</time>
      </trkpt>
      <trkpt lat="44.78374" lon="4.99124">
        <ele>404</ele>
        <time>2013-08-22T16:52:14Z</time>
      </trkpt>
      <trkpt lat="44.78372" lon="4.99122">
        <ele>404</ele>
        <time>2013-08-22T16:52:15Z</time>
      </trkpt>
      <trkpt lat="44.7837" lon="4.99119">
        <ele>404</ele>
        <time>2013-08-22T16:52:16Z</time>
      </trkpt>
      <trkpt lat="44.78369" lon="4.99115">
        <ele>404</ele>
        <time>2013-08-22T16:52:17Z</time>
      </trkpt>
      <trkpt lat="44.78368" lon="4.99112">
        <ele>404</ele>
        <time>2013-08-22T16:52:18Z</time>
      </trkpt>
      <trkpt lat="44.78366" lon="4.99108">
        <ele>404</ele>
        <time>2013-08-22T16:52:19Z</time>
      </trkpt>
      <trkpt lat="44.78365" lon="4.99105">
        <ele>404</ele>
        <time>2013-08-22T16:52:20Z</time>
      </trkpt>
      <trkpt lat="44.78364" lon="4.99102">
        <ele>404</ele>
        <time>2013-08-22T16:52:21Z</time>
      </trkpt>
      <trkpt lat="44.78363" lon="4.991">
        <ele>404</ele>
        <time>2013-08-22T16:52:22Z</time>
      </trkpt>
      <trkpt lat="44.78362" lon="4.99097">
        <ele>404</ele>
        <time>2013-08-22T16:52:23Z</time>
      </trkpt>
      <trkpt lat="44.7836" lon="4.99095">
        <ele>404</ele>
        <time>2013-08-22T16:52:24Z</time>
      </trkpt>
      <trkpt lat="44.78358" lon="4.99092">
        <ele>404</ele>
        <time>2013-08-22T16:52:25Z</time>
      </trkpt>
      <trkpt lat="44.78356" lon="4.9909">
        <ele>404</ele>
        <time>2013-08-22T16:52:26Z</time>
      </trkpt>
      <trkpt lat="44.78354" lon="4.99088">
        <ele>404</ele>
        <time>2013-08-22T16:52:27Z</time>
      </trkpt>
      <trkpt lat="44.78352" lon="4.99086">
        <ele>404</ele>
        <time>2013-08-22T16:52:28Z</time>
      </trkpt>
      <trkpt lat="44.7835" lon="4.99083">
        <ele>404</ele>
        <time>2013-08-22T16:52:29Z</time>
      </trkpt>
      <trkpt lat="44.78349" lon="4.99081">
        <ele>404</ele>
        <time>2013-08-22T16:52:30Z</time>
      </trkpt>
      <trkpt lat="44.78348" lon="4.99078">
        <ele>404</ele>
        <time>2013-08-22T16:52:31Z</time>
      </trkpt>
      <trkpt lat="44.78347" lon="4.99076">
        <ele>404</ele>
        <time>2013-08-22T16:52:32Z</time>
      </trkpt>
      <trkpt lat="44.78345" lon="4.99073">
        <ele>404</ele>
        <time>2013-08-22T16:52:33Z</time>
      </trkpt>
      <trkpt lat="44.78344" lon="4.99071">
        <ele>404</ele>
        <time>2013-08-22T16:52:34Z</time>
      </trkpt>
      <trkpt lat="44.78343" lon="4.9907">
        <ele>404</ele>
        <time>2013-08-22T16:52:35Z</time>
      </trkpt>
      <trkpt lat="44.78341" lon="4.99068">
        <ele>404</ele>
        <time>2013-08-22T16:52:36Z</time>
      </trkpt>
      <trkpt lat="44.78339" lon="4.99068">
        <ele>404</ele>
        <time>2013-08-22T16:52:37Z</time>
      </trkpt>
      <trkpt lat="44.78337" lon="4.99066">
        <ele>404</ele>
        <time>2013-08-22T16:52:38Z</time>
      </trkpt>
      <trkpt lat="44.78334" lon="4.99065">
        <ele>404</ele>
        <time>2013-08-22T16:52:39Z</time>
      </trkpt>
      <trkpt lat="44.78333" lon="4.99063">
        <ele>405</ele>
        <time>2013-08-22T16:52:40Z</time>
      </trkpt>
      <trkpt lat="44.78331" lon="4.99061">
        <ele>406</ele>
        <time>2013-08-22T16:52:41Z</time>
      </trkpt>
      <trkpt lat="44.78329" lon="4.99059">
        <ele>407</ele>
        <time>2013-08-22T16:52:42Z</time>
      </trkpt>
      <trkpt lat="44.78327" lon="4.99057">
        <ele>408</ele>
        <time>2013-08-22T16:52:43Z</time>
      </trkpt>
      <trkpt lat="44.78326" lon="4.99055">
        <ele>409</ele>
        <time>2013-08-22T16:52:44Z</time>
      </trkpt>
      <trkpt lat="44.78324" lon="4.99052">
        <ele>409</ele>
        <time>2013-08-22T16:52:45Z</time>
      </trkpt>
      <trkpt lat="44.78322" lon="4.9905">
        <ele>409</ele>
        <time>2013-08-22T16:52:46Z</time>
      </trkpt>
      <trkpt lat="44.7832" lon="4.99048">
        <ele>409</ele>
        <time>2013-08-22T16:52:47Z</time>
      </trkpt>
      <trkpt lat="44.78317" lon="4.99046">
        <ele>409</ele>
        <time>2013-08-22T16:52:48Z</time>
      </trkpt>
      <trkpt lat="44.78314" lon="4.99045">
        <ele>409</ele>
        <time>2013-08-22T16:52:49Z</time>
      </trkpt>
      <trkpt lat="44.78312" lon="4.99043">
        <ele>409</ele>
        <time>2013-08-22T16:52:50Z</time>
      </trkpt>
      <trkpt lat="44.78309" lon="4.99042">
        <ele>409</ele>
        <time>2013-08-22T16:52:51Z</time>
      </trkpt>
      <trkpt lat="44.78307" lon="4.9904">
        <ele>409</ele>
        <time>2013-08-22T16:52:52Z</time>
      </trkpt>
      <trkpt lat="44.78305" lon="4.99038">
        <ele>409</ele>
        <time>2013-08-22T16:52:53Z</time>
      </trkpt>
      <trkpt lat="44.78303" lon="4.99035">
        <ele>409</ele>
        <time>2013-08-22T16:52:54Z</time>
      </trkpt>
      <trkpt lat="44.78302" lon="4.9903">
        <ele>408</ele>
        <time>2013-08-22T16:52:55Z</time>
      </trkpt>
      <trkpt lat="44.78302" lon="4.99025">
        <ele>408</ele>
        <time>2013-08-22T16:52:56Z</time>
      </trkpt>
      <trkpt lat="44.78301" lon="4.99021">
        <ele>407</ele>
        <time>2013-08-22T16:52:57Z</time>
      </trkpt>
      <trkpt lat="44.78301" lon="4.99016">
        <ele>406</ele>
        <time>2013-08-22T16:52:58Z</time>
      </trkpt>
      <trkpt lat="44.78302" lon="4.99011">
        <ele>405</ele>
        <time>2013-08-22T16:52:59Z</time>
      </trkpt>
      <trkpt lat="44.78302" lon="4.99006">
        <ele>404</ele>
        <time>2013-08-22T16:53:00Z</time>
      </trkpt>
      <trkpt lat="44.78302" lon="4.99001">
        <ele>404</ele>
        <time>2013-08-22T16:53:01Z</time>
      </trkpt>
      <trkpt lat="44.78303" lon="4.98995">
        <ele>404</ele>
        <time>2013-08-22T16:53:02Z</time>
      </trkpt>
      <trkpt lat="44.78303" lon="4.9899">
        <ele>404</ele>
        <time>2013-08-22T16:53:03Z</time>
      </trkpt>
      <trkpt lat="44.78302" lon="4.98985">
        <ele>404</ele>
        <time>2013-08-22T16:53:04Z</time>
      </trkpt>
      <trkpt lat="44.78302" lon="4.9898">
        <ele>404</ele>
        <time>2013-08-22T16:53:05Z</time>
      </trkpt>
      <trkpt lat="44.78299" lon="4.98976">
        <ele>404</ele>
        <time>2013-08-22T16:53:06Z</time>
      </trkpt>
      <trkpt lat="44.78298" lon="4.98972">
        <ele>404</ele>
        <time>2013-08-22T16:53:07Z</time>
      </trkpt>
      <trkpt lat="44.78297" lon="4.98968">
        <ele>404</ele>
        <time>2013-08-22T16:53:08Z</time>
      </trkpt>
      <trkpt lat="44.78296" lon="4.98965">
        <ele>404</ele>
        <time>2013-08-22T16:53:09Z</time>
      </trkpt>
      <trkpt lat="44.78294" lon="4.98962">
        <ele>404</ele>
        <time>2013-08-22T16:53:10Z</time>
      </trkpt>
      <trkpt lat="44.78292" lon="4.98958">
        <ele>404</ele>
        <time>2013-08-22T16:53:11Z</time>
      </trkpt>
      <trkpt lat="44.78291" lon="4.98954">
        <ele>404</ele>
        <time>2013-08-22T16:53:12Z</time>
      </trkpt>
      <trkpt lat="44.78289" lon="4.98952">
        <ele>404</ele>
        <time>2013-08-22T16:53:13Z</time>
      </trkpt>
      <trkpt lat="44.78287" lon="4.98949">
        <ele>404</ele>
        <time>2013-08-22T16:53:14Z</time>
      </trkpt>
      <trkpt lat="44.78286" lon="4.98947">
        <ele>404</ele>
        <time>2013-08-22T16:53:15Z</time>
      </trkpt>
      <trkpt lat="44.78283" lon="4.98944">
        <ele>404</ele>
        <time>2013-08-22T16:53:16Z</time>
      </trkpt>
      <trkpt lat="44.78281" lon="4.98941">
        <ele>404</ele>
        <time>2013-08-22T16:53:17Z</time>
      </trkpt>
      <trkpt lat="44.78278" lon="4.98938">
        <ele>404</ele>
        <time>2013-08-22T16:53:19Z</time>
      </trkpt>
      <trkpt lat="44.78276" lon="4.98934">
        <ele>404</ele>
        <time>2013-08-22T16:53:19Z</time>
      </trkpt>
      <trkpt lat="44.78273" lon="4.98929">
        <ele>404</ele>
        <time>2013-08-22T16:53:20Z</time>
      </trkpt>
      <trkpt lat="44.7827" lon="4.98925">
        <ele>404</ele>
        <time>2013-08-22T16:53:21Z</time>
      </trkpt>
      <trkpt lat="44.78268" lon="4.98922">
        <ele>404</ele>
        <time>2013-08-22T16:53:22Z</time>
      </trkpt>
      <trkpt lat="44.78265" lon="4.98918">
        <ele>404</ele>
        <time>2013-08-22T16:53:23Z</time>
      </trkpt>
      <trkpt lat="44.78262" lon="4.98915">
        <ele>404</ele>
        <time>2013-08-22T16:53:24Z</time>
      </trkpt>
      <trkpt lat="44.7826" lon="4.98912">
        <ele>404</ele>
        <time>2013-08-22T16:53:25Z</time>
      </trkpt>
      <trkpt lat="44.78257" lon="4.98908">
        <ele>404</ele>
        <time>2013-08-22T16:53:26Z</time>
      </trkpt>
      <trkpt lat="44.78255" lon="4.98905">
        <ele>404</ele>
        <time>2013-08-22T16:53:27Z</time>
      </trkpt>
      <trkpt lat="44.78254" lon="4.98901">
        <ele>404</ele>
        <time>2013-08-22T16:53:28Z</time>
      </trkpt>
      <trkpt lat="44.78252" lon="4.98898">
        <ele>404</ele>
        <time>2013-08-22T16:53:29Z</time>
      </trkpt>
      <trkpt lat="44.78251" lon="4.98895">
        <ele>404</ele>
        <time>2013-08-22T16:53:30Z</time>
      </trkpt>
      <trkpt lat="44.78249" lon="4.98891">
        <ele>404</ele>
        <time>2013-08-22T16:53:31Z</time>
      </trkpt>
      <trkpt lat="44.78248" lon="4.98888">
        <ele>404</ele>
        <time>2013-08-22T16:53:32Z</time>
      </trkpt>
      <trkpt lat="44.78247" lon="4.98885">
        <ele>404</ele>
        <time>2013-08-22T16:53:33Z</time>
      </trkpt>
      <trkpt lat="44.78246" lon="4.98882">
        <ele>404</ele>
        <time>2013-08-22T16:53:34Z</time>
      </trkpt>
      <trkpt lat="44.78244" lon="4.98878">
        <ele>404</ele>
        <time>2013-08-22T16:53:35Z</time>
      </trkpt>
      <trkpt lat="44.78242" lon="4.98875">
        <ele>404</ele>
        <time>2013-08-22T16:53:36Z</time>
      </trkpt>
      <trkpt lat="44.7824" lon="4.98871">
        <ele>404</ele>
        <time>2013-08-22T16:53:37Z</time>
      </trkpt>
      <trkpt lat="44.78238" lon="4.98867">
        <ele>404</ele>
        <time>2013-08-22T16:53:38Z</time>
      </trkpt>
      <trkpt lat="44.78236" lon="4.98863">
        <ele>404</ele>
        <time>2013-08-22T16:53:39Z</time>
      </trkpt>
      <trkpt lat="44.78235" lon="4.98858">
        <ele>404</ele>
        <time>2013-08-22T16:53:40Z</time>
      </trkpt>
      <trkpt lat="44.78233" lon="4.98854">
        <ele>404</ele>
        <time>2013-08-22T16:53:41Z</time>
      </trkpt>
      <trkpt lat="44.78232" lon="4.9885">
        <ele>404</ele>
        <time>2013-08-22T16:53:42Z</time>
      </trkpt>
      <trkpt lat="44.78231" lon="4.98846">
        <ele>404</ele>
        <time>2013-08-22T16:53:43Z</time>
      </trkpt>
      <trkpt lat="44.7823" lon="4.98841">
        <ele>404</ele>
        <time>2013-08-22T16:53:44Z</time>
      </trkpt>
      <trkpt lat="44.7823" lon="4.98838">
        <ele>404</ele>
        <time>2013-08-22T16:53:45Z</time>
      </trkpt>
      <trkpt lat="44.78228" lon="4.98835">
        <ele>404</ele>
        <time>2013-08-22T16:53:46Z</time>
      </trkpt>
      <trkpt lat="44.78227" lon="4.98832">
        <ele>404</ele>
        <time>2013-08-22T16:53:47Z</time>
      </trkpt>
      <trkpt lat="44.78226" lon="4.9883">
        <ele>404</ele>
        <time>2013-08-22T16:53:48Z</time>
      </trkpt>
      <trkpt lat="44.78225" lon="4.98827">
        <ele>404</ele>
        <time>2013-08-22T16:53:49Z</time>
      </trkpt>
      <trkpt lat="44.78222" lon="4.98825">
        <ele>404</ele>
        <time>2013-08-22T16:53:50Z</time>
      </trkpt>
      <trkpt lat="44.7822" lon="4.98824">
        <ele>403</ele>
        <time>2013-08-22T16:53:51Z</time>
      </trkpt>
      <trkpt lat="44.78217" lon="4.98822">
        <ele>403</ele>
        <time>2013-08-22T16:53:52Z</time>
      </trkpt>
      <trkpt lat="44.78215" lon="4.9882">
        <ele>403</ele>
        <time>2013-08-22T16:53:53Z</time>
      </trkpt>
      <trkpt lat="44.78212" lon="4.98818">
        <ele>402</ele>
        <time>2013-08-22T16:53:54Z</time>
      </trkpt>
      <trkpt lat="44.78209" lon="4.98816">
        <ele>402</ele>
        <time>2013-08-22T16:53:55Z</time>
      </trkpt>
      <trkpt lat="44.78206" lon="4.98815">
        <ele>402</ele>
        <time>2013-08-22T16:53:56Z</time>
      </trkpt>
      <trkpt lat="44.78203" lon="4.98812">
        <ele>402</ele>
        <time>2013-08-22T16:53:57Z</time>
      </trkpt>
      <trkpt lat="44.782" lon="4.9881">
        <ele>402</ele>
        <time>2013-08-22T16:53:58Z</time>
      </trkpt>
      <trkpt lat="44.78196" lon="4.98808">
        <ele>402</ele>
        <time>2013-08-22T16:53:59Z</time>
      </trkpt>
      <trkpt lat="44.78193" lon="4.98805">
        <ele>401</ele>
        <time>2013-08-22T16:54:00Z</time>
      </trkpt>
      <trkpt lat="44.78191" lon="4.98803">
        <ele>401</ele>
        <time>2013-08-22T16:54:01Z</time>
      </trkpt>
      <trkpt lat="44.78188" lon="4.988">
        <ele>401</ele>
        <time>2013-08-22T16:54:02Z</time>
      </trkpt>
      <trkpt lat="44.78186" lon="4.98797">
        <ele>401</ele>
        <time>2013-08-22T16:54:03Z</time>
      </trkpt>
      <trkpt lat="44.78183" lon="4.98794">
        <ele>401</ele>
        <time>2013-08-22T16:54:04Z</time>
      </trkpt>
      <trkpt lat="44.7818" lon="4.98791">
        <ele>401</ele>
        <time>2013-08-22T16:54:05Z</time>
      </trkpt>
      <trkpt lat="44.78178" lon="4.98788">
        <ele>401</ele>
        <time>2013-08-22T16:54:06Z</time>
      </trkpt>
      <trkpt lat="44.78176" lon="4.98785">
        <ele>401</ele>
        <time>2013-08-22T16:54:07Z</time>
      </trkpt>
      <trkpt lat="44.78173" lon="4.98782">
        <ele>401</ele>
        <time>2013-08-22T16:54:08Z</time>
      </trkpt>
      <trkpt lat="44.78171" lon="4.98778">
        <ele>400</ele>
        <time>2013-08-22T16:54:09Z</time>
      </trkpt>
      <trkpt lat="44.78169" lon="4.98775">
        <ele>400</ele>
        <time>2013-08-22T16:54:10Z</time>
      </trkpt>
      <trkpt lat="44.78167" lon="4.98771">
        <ele>400</ele>
        <time>2013-08-22T16:54:11Z</time>
      </trkpt>
      <trkpt lat="44.78164" lon="4.98768">
        <ele>399</ele>
        <time>2013-08-22T16:54:12Z</time>
      </trkpt>
      <trkpt lat="44.78162" lon="4.98765">
        <ele>399</ele>
        <time>2013-08-22T16:54:13Z</time>
      </trkpt>
      <trkpt lat="44.78159" lon="4.98763">
        <ele>398</ele>
        <time>2013-08-22T16:54:14Z</time>
      </trkpt>
      <trkpt lat="44.78156" lon="4.9876">
        <ele>398</ele>
        <time>2013-08-22T16:54:15Z</time>
      </trkpt>
      <trkpt lat="44.78154" lon="4.98756">
        <ele>397</ele>
        <time>2013-08-22T16:54:16Z</time>
      </trkpt>
      <trkpt lat="44.78152" lon="4.98751">
        <ele>396</ele>
        <time>2013-08-22T16:54:17Z</time>
      </trkpt>
      <trkpt lat="44.78151" lon="4.98746">
        <ele>396</ele>
        <time>2013-08-22T16:54:18Z</time>
      </trkpt>
      <trkpt lat="44.78149" lon="4.98743">
        <ele>395</ele>
        <time>2013-08-22T16:54:19Z</time>
      </trkpt>
      <trkpt lat="44.78147" lon="4.9874">
        <ele>394</ele>
        <time>2013-08-22T16:54:20Z</time>
      </trkpt>
      <trkpt lat="44.78145" lon="4.98737">
        <ele>393</ele>
        <time>2013-08-22T16:54:21Z</time>
      </trkpt>
      <trkpt lat="44.78142" lon="4.98734">
        <ele>392</ele>
        <time>2013-08-22T16:54:22Z</time>
      </trkpt>
      <trkpt lat="44.78139" lon="4.98731">
        <ele>391</ele>
        <time>2013-08-22T16:54:23Z</time>
      </trkpt>
      <trkpt lat="44.78136" lon="4.98727">
        <ele>390</ele>
        <time>2013-08-22T16:54:24Z</time>
      </trkpt>
      <trkpt lat="44.78134" lon="4.98724">
        <ele>390</ele>
        <time>2013-08-22T16:54:25Z</time>
      </trkpt>
      <trkpt lat="44.78131" lon="4.9872">
        <ele>389</ele>
        <time>2013-08-22T16:54:26Z</time>
      </trkpt>
      <trkpt lat="44.78129" lon="4.98716">
        <ele>389</ele>
        <time>2013-08-22T16:54:27Z</time>
      </trkpt>
      <trkpt lat="44.78126" lon="4.98713">
        <ele>388</ele>
        <time>2013-08-22T16:54:28Z</time>
      </trkpt>
      <trkpt lat="44.78123" lon="4.9871">
        <ele>388</ele>
        <time>2013-08-22T16:54:29Z</time>
      </trkpt>
      <trkpt lat="44.78119" lon="4.98707">
        <ele>387</ele>
        <time>2013-08-22T16:54:30Z</time>
      </trkpt>
      <trkpt lat="44.78116" lon="4.98704">
        <ele>387</ele>
        <time>2013-08-22T16:54:31Z</time>
      </trkpt>
      <trkpt lat="44.78113" lon="4.98701">
        <ele>387</ele>
        <time>2013-08-22T16:54:32Z</time>
      </trkpt>
      <trkpt lat="44.7811" lon="4.98697">
        <ele>386</ele>
        <time>2013-08-22T16:54:33Z</time>
      </trkpt>
      <trkpt lat="44.78107" lon="4.98692">
        <ele>386</ele>
        <time>2013-08-22T16:54:34Z</time>
      </trkpt>
      <trkpt lat="44.78104" lon="4.98688">
        <ele>386</ele>
        <time>2013-08-22T16:54:35Z</time>
      </trkpt>
      <trkpt lat="44.78101" lon="4.98685">
        <ele>385</ele>
        <time>2013-08-22T16:54:36Z</time>
      </trkpt>
      <trkpt lat="44.78099" lon="4.98682">
        <ele>385</ele>
        <time>2013-08-22T16:54:37Z</time>
      </trkpt>
      <trkpt lat="44.78097" lon="4.98678">
        <ele>385</ele>
        <time>2013-08-22T16:54:38Z</time>
      </trkpt>
      <trkpt lat="44.78094" lon="4.98674">
        <ele>385</ele>
        <time>2013-08-22T16:54:39Z</time>
      </trkpt>
      <trkpt lat="44.78091" lon="4.98672">
        <ele>384</ele>
        <time>2013-08-22T16:54:40Z</time>
      </trkpt>
      <trkpt lat="44.78088" lon="4.9867">
        <ele>383</ele>
        <time>2013-08-22T16:54:41Z</time>
      </trkpt>
      <trkpt lat="44.78086" lon="4.98667">
        <ele>383</ele>
        <time>2013-08-22T16:54:42Z</time>
      </trkpt>
      <trkpt lat="44.78083" lon="4.98665">
        <ele>383</ele>
        <time>2013-08-22T16:54:43Z</time>
      </trkpt>
      <trkpt lat="44.78081" lon="4.98663">
        <ele>383</ele>
        <time>2013-08-22T16:54:44Z</time>
      </trkpt>
      <trkpt lat="44.78077" lon="4.98661">
        <ele>383</ele>
        <time>2013-08-22T16:54:45Z</time>
      </trkpt>
      <trkpt lat="44.78074" lon="4.98658">
        <ele>383</ele>
        <time>2013-08-22T16:54:46Z</time>
      </trkpt>
      <trkpt lat="44.78071" lon="4.98656">
        <ele>383</ele>
        <time>2013-08-22T16:54:47Z</time>
      </trkpt>
      <trkpt lat="44.78068" lon="4.98652">
        <ele>383</ele>
        <time>2013-08-22T16:54:48Z</time>
      </trkpt>
      <trkpt lat="44.78065" lon="4.98647">
        <ele>382</ele>
        <time>2013-08-22T16:54:49Z</time>
      </trkpt>
      <trkpt lat="44.78062" lon="4.98642">
        <ele>382</ele>
        <time>2013-08-22T16:54:50Z</time>
      </trkpt>
      <trkpt lat="44.7806" lon="4.98637">
        <ele>382</ele>
        <time>2013-08-22T16:54:51Z</time>
      </trkpt>
      <trkpt lat="44.78057" lon="4.98633">
        <ele>382</ele>
        <time>2013-08-22T16:54:52Z</time>
      </trkpt>
      <trkpt lat="44.78054" lon="4.98629">
        <ele>382</ele>
        <time>2013-08-22T16:54:53Z</time>
      </trkpt>
      <trkpt lat="44.78051" lon="4.98626">
        <ele>382</ele>
        <time>2013-08-22T16:54:54Z</time>
      </trkpt>
      <trkpt lat="44.78049" lon="4.98623">
        <ele>381</ele>
        <time>2013-08-22T16:54:55Z</time>
      </trkpt>
      <trkpt lat="44.78046" lon="4.98619">
        <ele>381</ele>
        <time>2013-08-22T16:54:56Z</time>
      </trkpt>
      <trkpt lat="44.78043" lon="4.98616">
        <ele>381</ele>
        <time>2013-08-22T16:54:57Z</time>
      </trkpt>
      <trkpt lat="44.7804" lon="4.98613">
        <ele>381</ele>
        <time>2013-08-22T16:54:58Z</time>
      </trkpt>
      <trkpt lat="44.78037" lon="4.98609">
        <ele>380</ele>
        <time>2013-08-22T16:54:59Z</time>
      </trkpt>
      <trkpt lat="44.78034" lon="4.98606">
        <ele>380</ele>
        <time>2013-08-22T16:55:00Z</time>
      </trkpt>
      <trkpt lat="44.78032" lon="4.98603">
        <ele>380</ele>
        <time>2013-08-22T16:55:01Z</time>
      </trkpt>
      <trkpt lat="44.78029" lon="4.98601">
        <ele>380</ele>
        <time>2013-08-22T16:55:02Z</time>
      </trkpt>
      <trkpt lat="44.78026" lon="4.986">
        <ele>380</ele>
        <time>2013-08-22T16:55:03Z</time>
      </trkpt>
      <trkpt lat="44.78024" lon="4.98597">
        <ele>380</ele>
        <time>2013-08-22T16:55:04Z</time>
      </trkpt>
      <trkpt lat="44.78021" lon="4.98593">
        <ele>380</ele>
        <time>2013-08-22T16:55:05Z</time>
      </trkpt>
      <trkpt lat="44.78019" lon="4.9859">
        <ele>380</ele>
        <time>2013-08-22T16:55:06Z</time>
      </trkpt>
      <trkpt lat="44.78016" lon="4.98589">
        <ele>380</ele>
        <time>2013-08-22T16:55:07Z</time>
      </trkpt>
      <trkpt lat="44.78014" lon="4.98587">
        <ele>380</ele>
        <time>2013-08-22T16:55:08Z</time>
      </trkpt>
      <trkpt lat="44.78012" lon="4.98586">
        <ele>380</ele>
        <time>2013-08-22T16:55:09Z</time>
      </trkpt>
      <trkpt lat="44.7801" lon="4.98583">
        <ele>380</ele>
        <time>2013-08-22T16:55:10Z</time>
      </trkpt>
      <trkpt lat="44.78007" lon="4.98581">
        <ele>380</ele>
        <time>2013-08-22T16:55:11Z</time>
      </trkpt>
      <trkpt lat="44.78005" lon="4.98579">
        <ele>380</ele>
        <time>2013-08-22T16:55:12Z</time>
      </trkpt>
      <trkpt lat="44.78002" lon="4.98577">
        <ele>380</ele>
        <time>2013-08-22T16:55:13Z</time>
      </trkpt>
      <trkpt lat="44.77999" lon="4.98574">
        <ele>380</ele>
        <time>2013-08-22T16:55:14Z</time>
      </trkpt>
      <trkpt lat="44.77996" lon="4.98572">
        <ele>380</ele>
        <time>2013-08-22T16:55:15Z</time>
      </trkpt>
      <trkpt lat="44.77994" lon="4.9857">
        <ele>380</ele>
        <time>2013-08-22T16:55:16Z</time>
      </trkpt>
      <trkpt lat="44.77991" lon="4.98567">
        <ele>380</ele>
        <time>2013-08-22T16:55:17Z</time>
      </trkpt>
      <trkpt lat="44.77988" lon="4.98566">
        <ele>380</ele>
        <time>2013-08-22T16:55:18Z</time>
      </trkpt>
      <trkpt lat="44.77985" lon="4.98564">
        <ele>380</ele>
        <time>2013-08-22T16:55:19Z</time>
      </trkpt>
      <trkpt lat="44.77982" lon="4.98562">
        <ele>380</ele>
        <time>2013-08-22T16:55:20Z</time>
      </trkpt>
      <trkpt lat="44.77979" lon="4.98561">
        <ele>380</ele>
        <time>2013-08-22T16:55:21Z</time>
      </trkpt>
      <trkpt lat="44.77977" lon="4.98558">
        <ele>380</ele>
        <time>2013-08-22T16:55:22Z</time>
      </trkpt>
      <trkpt lat="44.77975" lon="4.98555">
        <ele>380</ele>
        <time>2013-08-22T16:55:23Z</time>
      </trkpt>
      <trkpt lat="44.77973" lon="4.98552">
        <ele>380</ele>
        <time>2013-08-22T16:55:24Z</time>
      </trkpt>
      <trkpt lat="44.77972" lon="4.98549">
        <ele>380</ele>
        <time>2013-08-22T16:55:25Z</time>
      </trkpt>
      <trkpt lat="44.7797" lon="4.98546">
        <ele>380</ele>
        <time>2013-08-22T16:55:26Z</time>
      </trkpt>
      <trkpt lat="44.77969" lon="4.98543">
        <ele>380</ele>
        <time>2013-08-22T16:55:27Z</time>
      </trkpt>
      <trkpt lat="44.77967" lon="4.9854">
        <ele>380</ele>
        <time>2013-08-22T16:55:28Z</time>
      </trkpt>
      <trkpt lat="44.77965" lon="4.98537">
        <ele>380</ele>
        <time>2013-08-22T16:55:29Z</time>
      </trkpt>
      <trkpt lat="44.77963" lon="4.98534">
        <ele>380</ele>
        <time>2013-08-22T16:55:30Z</time>
      </trkpt>
      <trkpt lat="44.77961" lon="4.98531">
        <ele>380</ele>
        <time>2013-08-22T16:55:31Z</time>
      </trkpt>
      <trkpt lat="44.77959" lon="4.98528">
        <ele>380</ele>
        <time>2013-08-22T16:55:32Z</time>
      </trkpt>
      <trkpt lat="44.77958" lon="4.98525">
        <ele>381</ele>
        <time>2013-08-22T16:55:33Z</time>
      </trkpt>
      <trkpt lat="44.77957" lon="4.98522">
        <ele>381</ele>
        <time>2013-08-22T16:55:34Z</time>
      </trkpt>
      <trkpt lat="44.77956" lon="4.98519">
        <ele>381</ele>
        <time>2013-08-22T16:55:35Z</time>
      </trkpt>
      <trkpt lat="44.77955" lon="4.98515">
        <ele>381</ele>
        <time>2013-08-22T16:55:36Z</time>
      </trkpt>
      <trkpt lat="44.77954" lon="4.98511">
        <ele>381</ele>
        <time>2013-08-22T16:55:37Z</time>
      </trkpt>
      <trkpt lat="44.77953" lon="4.98506">
        <ele>381</ele>
        <time>2013-08-22T16:55:38Z</time>
      </trkpt>
      <trkpt lat="44.77951" lon="4.98502">
        <ele>381</ele>
        <time>2013-08-22T16:55:39Z</time>
      </trkpt>
      <trkpt lat="44.77949" lon="4.98498">
        <ele>381</ele>
        <time>2013-08-22T16:55:40Z</time>
      </trkpt>
      <trkpt lat="44.77947" lon="4.98493">
        <ele>381</ele>
        <time>2013-08-22T16:55:41Z</time>
      </trkpt>
      <trkpt lat="44.77945" lon="4.9849">
        <ele>381</ele>
        <time>2013-08-22T16:55:42Z</time>
      </trkpt>
      <trkpt lat="44.77943" lon="4.98487">
        <ele>381</ele>
        <time>2013-08-22T16:55:43Z</time>
      </trkpt>
      <trkpt lat="44.77941" lon="4.98484">
        <ele>381</ele>
        <time>2013-08-22T16:55:44Z</time>
      </trkpt>
      <trkpt lat="44.77939" lon="4.98481">
        <ele>381</ele>
        <time>2013-08-22T16:55:45Z</time>
      </trkpt>
      <trkpt lat="44.77937" lon="4.98479">
        <ele>381</ele>
        <time>2013-08-22T16:55:46Z</time>
      </trkpt>
      <trkpt lat="44.77934" lon="4.98475">
        <ele>381</ele>
        <time>2013-08-22T16:55:47Z</time>
      </trkpt>
      <trkpt lat="44.77932" lon="4.98471">
        <ele>381</ele>
        <time>2013-08-22T16:55:48Z</time>
      </trkpt>
      <trkpt lat="44.7793" lon="4.98467">
        <ele>381</ele>
        <time>2013-08-22T16:55:49Z</time>
      </trkpt>
      <trkpt lat="44.77928" lon="4.98464">
        <ele>381</ele>
        <time>2013-08-22T16:55:50Z</time>
      </trkpt>
      <trkpt lat="44.77925" lon="4.98461">
        <ele>381</ele>
        <time>2013-08-22T16:55:51Z</time>
      </trkpt>
      <trkpt lat="44.77923" lon="4.9846">
        <ele>381</ele>
        <time>2013-08-22T16:55:52Z</time>
      </trkpt>
      <trkpt lat="44.7792" lon="4.98457">
        <ele>381</ele>
        <time>2013-08-22T16:55:53Z</time>
      </trkpt>
      <trkpt lat="44.77917" lon="4.98453">
        <ele>381</ele>
        <time>2013-08-22T16:55:54Z</time>
      </trkpt>
      <trkpt lat="44.77914" lon="4.98449">
        <ele>381</ele>
        <time>2013-08-22T16:55:55Z</time>
      </trkpt>
      <trkpt lat="44.77911" lon="4.98446">
        <ele>381</ele>
        <time>2013-08-22T16:55:56Z</time>
      </trkpt>
      <trkpt lat="44.77908" lon="4.98443">
        <ele>381</ele>
        <time>2013-08-22T16:55:57Z</time>
      </trkpt>
      <trkpt lat="44.77906" lon="4.9844">
        <ele>381</ele>
        <time>2013-08-22T16:55:58Z</time>
      </trkpt>
      <trkpt lat="44.77903" lon="4.98437">
        <ele>381</ele>
        <time>2013-08-22T16:55:59Z</time>
      </trkpt>
      <trkpt lat="44.77901" lon="4.98435">
        <ele>381</ele>
        <time>2013-08-22T16:56:00Z</time>
      </trkpt>
      <trkpt lat="44.779" lon="4.98432">
        <ele>381</ele>
        <time>2013-08-22T16:56:01Z</time>
      </trkpt>
      <trkpt lat="44.77898" lon="4.98429">
        <ele>381</ele>
        <time>2013-08-22T16:56:02Z</time>
      </trkpt>
      <trkpt lat="44.77896" lon="4.98426">
        <ele>381</ele>
        <time>2013-08-22T16:56:03Z</time>
      </trkpt>
      <trkpt lat="44.77894" lon="4.98423">
        <ele>380</ele>
        <time>2013-08-22T16:56:04Z</time>
      </trkpt>
      <trkpt lat="44.77893" lon="4.98418">
        <ele>380</ele>
        <time>2013-08-22T16:56:05Z</time>
      </trkpt>
      <trkpt lat="44.77893" lon="4.98414">
        <ele>379</ele>
        <time>2013-08-22T16:56:06Z</time>
      </trkpt>
      <trkpt lat="44.77892" lon="4.98409">
        <ele>378</ele>
        <time>2013-08-22T16:56:07Z</time>
      </trkpt>
      <trkpt lat="44.77891" lon="4.98404">
        <ele>378</ele>
        <time>2013-08-22T16:56:08Z</time>
      </trkpt>
      <trkpt lat="44.7789" lon="4.984">
        <ele>377</ele>
        <time>2013-08-22T16:56:09Z</time>
      </trkpt>
      <trkpt lat="44.7789" lon="4.98396">
        <ele>377</ele>
        <time>2013-08-22T16:56:10Z</time>
      </trkpt>
      <trkpt lat="44.77889" lon="4.98392">
        <ele>376</ele>
        <time>2013-08-22T16:56:11Z</time>
      </trkpt>
      <trkpt lat="44.77888" lon="4.9839">
        <ele>376</ele>
        <time>2013-08-22T16:56:12Z</time>
      </trkpt>
      <trkpt lat="44.77887" lon="4.98387">
        <ele>375</ele>
        <time>2013-08-22T16:56:13Z</time>
      </trkpt>
      <trkpt lat="44.77884" lon="4.98387">
        <ele>375</ele>
        <time>2013-08-22T16:56:14Z</time>
      </trkpt>
      <trkpt lat="44.77882" lon="4.98385">
        <ele>375</ele>
        <time>2013-08-22T16:56:15Z</time>
      </trkpt>
      <trkpt lat="44.7788" lon="4.98382">
        <ele>374</ele>
        <time>2013-08-22T16:56:16Z</time>
      </trkpt>
      <trkpt lat="44.77877" lon="4.98379">
        <ele>374</ele>
        <time>2013-08-22T16:56:17Z</time>
      </trkpt>
      <trkpt lat="44.77874" lon="4.98377">
        <ele>374</ele>
        <time>2013-08-22T16:56:18Z</time>
      </trkpt>
      <trkpt lat="44.77872" lon="4.98374">
        <ele>374</ele>
        <time>2013-08-22T16:56:19Z</time>
      </trkpt>
      <trkpt lat="44.77871" lon="4.98371">
        <ele>373</ele>
        <time>2013-08-22T16:56:20Z</time>
      </trkpt>
      <trkpt lat="44.77869" lon="4.98367">
        <ele>373</ele>
        <time>2013-08-22T16:56:21Z</time>
      </trkpt>
      <trkpt lat="44.77868" lon="4.98364">
        <ele>373</ele>
        <time>2013-08-22T16:56:22Z</time>
      </trkpt>
      <trkpt lat="44.77867" lon="4.9836">
        <ele>373</ele>
        <time>2013-08-22T16:56:23Z</time>
      </trkpt>
      <trkpt lat="44.77866" lon="4.98357">
        <ele>373</ele>
        <time>2013-08-22T16:56:24Z</time>
      </trkpt>
      <trkpt lat="44.77865" lon="4.98353">
        <ele>372</ele>
        <time>2013-08-22T16:56:25Z</time>
      </trkpt>
      <trkpt lat="44.77864" lon="4.9835">
        <ele>372</ele>
        <time>2013-08-22T16:56:26Z</time>
      </trkpt>
      <trkpt lat="44.77862" lon="4.98347">
        <ele>372</ele>
        <time>2013-08-22T16:56:27Z</time>
      </trkpt>
      <trkpt lat="44.77861" lon="4.98344">
        <ele>372</ele>
        <time>2013-08-22T16:56:28Z</time>
      </trkpt>
      <trkpt lat="44.7786" lon="4.98341">
        <ele>371</ele>
        <time>2013-08-22T16:56:29Z</time>
      </trkpt>
      <trkpt lat="44.77859" lon="4.98336">
        <ele>371</ele>
        <time>2013-08-22T16:56:30Z</time>
      </trkpt>
      <trkpt lat="44.77858" lon="4.98333">
        <ele>371</ele>
        <time>2013-08-22T16:56:31Z</time>
      </trkpt>
      <trkpt lat="44.77856" lon="4.98329">
        <ele>370</ele>
        <time>2013-08-22T16:56:32Z</time>
      </trkpt>
      <trkpt lat="44.77853" lon="4.98327">
        <ele>370</ele>
        <time>2013-08-22T16:56:33Z</time>
      </trkpt>
      <trkpt lat="44.77851" lon="4.98325">
        <ele>370</ele>
        <time>2013-08-22T16:56:34Z</time>
      </trkpt>
      <trkpt lat="44.77849" lon="4.98323">
        <ele>370</ele>
        <time>2013-08-22T16:56:35Z</time>
      </trkpt>
      <trkpt lat="44.77847" lon="4.98321">
        <ele>370</ele>
        <time>2013-08-22T16:56:36Z</time>
      </trkpt>
      <trkpt lat="44.77845" lon="4.98318">
        <ele>370</ele>
        <time>2013-08-22T16:56:37Z</time>
      </trkpt>
      <trkpt lat="44.77842" lon="4.98316">
        <ele>370</ele>
        <time>2013-08-22T16:56:38Z</time>
      </trkpt>
      <trkpt lat="44.77839" lon="4.98314">
        <ele>369</ele>
        <time>2013-08-22T16:56:39Z</time>
      </trkpt>
      <trkpt lat="44.77836" lon="4.98313">
        <ele>369</ele>
        <time>2013-08-22T16:56:40Z</time>
      </trkpt>
      <trkpt lat="44.77833" lon="4.98312">
        <ele>369</ele>
        <time>2013-08-22T16:56:41Z</time>
      </trkpt>
      <trkpt lat="44.77829" lon="4.98312">
        <ele>369</ele>
        <time>2013-08-22T16:56:42Z</time>
      </trkpt>
      <trkpt lat="44.77827" lon="4.98311">
        <ele>369</ele>
        <time>2013-08-22T16:56:43Z</time>
      </trkpt>
      <trkpt lat="44.77824" lon="4.9831">
        <ele>369</ele>
        <time>2013-08-22T16:56:44Z</time>
      </trkpt>
      <trkpt lat="44.77821" lon="4.9831">
        <ele>369</ele>
        <time>2013-08-22T16:56:45Z</time>
      </trkpt>
      <trkpt lat="44.77817" lon="4.98309">
        <ele>369</ele>
        <time>2013-08-22T16:56:46Z</time>
      </trkpt>
      <trkpt lat="44.77814" lon="4.98307">
        <ele>369</ele>
        <time>2013-08-22T16:56:47Z</time>
      </trkpt>
      <trkpt lat="44.77811" lon="4.98305">
        <ele>369</ele>
        <time>2013-08-22T16:56:48Z</time>
      </trkpt>
      <trkpt lat="44.77808" lon="4.98303">
        <ele>369</ele>
        <time>2013-08-22T16:56:49Z</time>
      </trkpt>
      <trkpt lat="44.77805" lon="4.98302">
        <ele>369</ele>
        <time>2013-08-22T16:56:50Z</time>
      </trkpt>
      <trkpt lat="44.77801" lon="4.983">
        <ele>369</ele>
        <time>2013-08-22T16:56:51Z</time>
      </trkpt>
      <trkpt lat="44.77797" lon="4.98298">
        <ele>369</ele>
        <time>2013-08-22T16:56:52Z</time>
      </trkpt>
      <trkpt lat="44.77794" lon="4.98296">
        <ele>369</ele>
        <time>2013-08-22T16:56:53Z</time>
      </trkpt>
      <trkpt lat="44.7779" lon="4.98294">
        <ele>369</ele>
        <time>2013-08-22T16:56:54Z</time>
      </trkpt>
      <trkpt lat="44.77787" lon="4.98291">
        <ele>369</ele>
        <time>2013-08-22T16:56:55Z</time>
      </trkpt>
      <trkpt lat="44.77783" lon="4.98289">
        <ele>369</ele>
        <time>2013-08-22T16:56:56Z</time>
      </trkpt>
      <trkpt lat="44.77779" lon="4.98288">
        <ele>369</ele>
        <time>2013-08-22T16:56:57Z</time>
      </trkpt>
      <trkpt lat="44.77776" lon="4.98287">
        <ele>369</ele>
        <time>2013-08-22T16:56:58Z</time>
      </trkpt>
      <trkpt lat="44.77772" lon="4.98287">
        <ele>369</ele>
        <time>2013-08-22T16:56:59Z</time>
      </trkpt>
      <trkpt lat="44.77769" lon="4.98287">
        <ele>369</ele>
        <time>2013-08-22T16:57:00Z</time>
      </trkpt>
      <trkpt lat="44.77766" lon="4.98288">
        <ele>369</ele>
        <time>2013-08-22T16:57:01Z</time>
      </trkpt>
      <trkpt lat="44.77763" lon="4.98288">
        <ele>369</ele>
        <time>2013-08-22T16:57:02Z</time>
      </trkpt>
      <trkpt lat="44.77761" lon="4.98286">
        <ele>369</ele>
        <time>2013-08-22T16:57:03Z</time>
      </trkpt>
      <trkpt lat="44.77759" lon="4.98283">
        <ele>368</ele>
        <time>2013-08-22T16:57:04Z</time>
      </trkpt>
      <trkpt lat="44.77757" lon="4.98281">
        <ele>368</ele>
        <time>2013-08-22T16:57:05Z</time>
      </trkpt>
      <trkpt lat="44.77755" lon="4.98279">
        <ele>367</ele>
        <time>2013-08-22T16:57:06Z</time>
      </trkpt>
      <trkpt lat="44.77753" lon="4.98278">
        <ele>366</ele>
        <time>2013-08-22T16:57:07Z</time>
      </trkpt>
      <trkpt lat="44.7775" lon="4.98277">
        <ele>365</ele>
        <time>2013-08-22T16:57:08Z</time>
      </trkpt>
      <trkpt lat="44.77747" lon="4.98276">
        <ele>364</ele>
        <time>2013-08-22T16:57:09Z</time>
      </trkpt>
      <trkpt lat="44.77744" lon="4.98275">
        <ele>363</ele>
        <time>2013-08-22T16:57:10Z</time>
      </trkpt>
      <trkpt lat="44.77741" lon="4.98274">
        <ele>362</ele>
        <time>2013-08-22T16:57:11Z</time>
      </trkpt>
      <trkpt lat="44.77739" lon="4.98274">
        <ele>362</ele>
        <time>2013-08-22T16:57:12Z</time>
      </trkpt>
      <trkpt lat="44.77737" lon="4.98275">
        <ele>361</ele>
        <time>2013-08-22T16:57:13Z</time>
      </trkpt>
      <trkpt lat="44.77734" lon="4.98276">
        <ele>360</ele>
        <time>2013-08-22T16:57:14Z</time>
      </trkpt>
      <trkpt lat="44.77732" lon="4.98275">
        <ele>360</ele>
        <time>2013-08-22T16:57:15Z</time>
      </trkpt>
      <trkpt lat="44.77731" lon="4.98274">
        <ele>359</ele>
        <time>2013-08-22T16:57:16Z</time>
      </trkpt>
      <trkpt lat="44.77728" lon="4.98273">
        <ele>359</ele>
        <time>2013-08-22T16:57:17Z</time>
      </trkpt>
      <trkpt lat="44.77726" lon="4.98272">
        <ele>358</ele>
        <time>2013-08-22T16:57:18Z</time>
      </trkpt>
      <trkpt lat="44.77724" lon="4.9827">
        <ele>357</ele>
        <time>2013-08-22T16:57:19Z</time>
      </trkpt>
      <trkpt lat="44.77723" lon="4.98269">
        <ele>356</ele>
        <time>2013-08-22T16:57:20Z</time>
      </trkpt>
      <trkpt lat="44.77723" lon="4.98265">
        <ele>356</ele>
        <time>2013-08-22T16:57:21Z</time>
      </trkpt>
      <trkpt lat="44.77722" lon="4.9826">
        <ele>355</ele>
        <time>2013-08-22T16:57:22Z</time>
      </trkpt>
      <trkpt lat="44.77722" lon="4.98253">
        <ele>354</ele>
        <time>2013-08-22T16:57:23Z</time>
      </trkpt>
      <trkpt lat="44.77722" lon="4.98248">
        <ele>353</ele>
        <time>2013-08-22T16:57:24Z</time>
      </trkpt>
      <trkpt lat="44.77723" lon="4.98244">
        <ele>352</ele>
        <time>2013-08-22T16:57:25Z</time>
      </trkpt>
      <trkpt lat="44.77723" lon="4.98238">
        <ele>351</ele>
        <time>2013-08-22T16:57:26Z</time>
      </trkpt>
      <trkpt lat="44.77724" lon="4.98233">
        <ele>351</ele>
        <time>2013-08-22T16:57:27Z</time>
      </trkpt>
      <trkpt lat="44.77725" lon="4.98228">
        <ele>350</ele>
        <time>2013-08-22T16:57:28Z</time>
      </trkpt>
      <trkpt lat="44.77727" lon="4.98224">
        <ele>349</ele>
        <time>2013-08-22T16:57:29Z</time>
      </trkpt>
      <trkpt lat="44.7773" lon="4.98221">
        <ele>349</ele>
        <time>2013-08-22T16:57:30Z</time>
      </trkpt>
      <trkpt lat="44.77732" lon="4.98218">
        <ele>348</ele>
        <time>2013-08-22T16:57:31Z</time>
      </trkpt>
      <trkpt lat="44.77736" lon="4.98215">
        <ele>347</ele>
        <time>2013-08-22T16:57:32Z</time>
      </trkpt>
      <trkpt lat="44.7774" lon="4.98212">
        <ele>347</ele>
        <time>2013-08-22T16:57:33Z</time>
      </trkpt>
      <trkpt lat="44.77743" lon="4.9821">
        <ele>346</ele>
        <time>2013-08-22T16:57:34Z</time>
      </trkpt>
      <trkpt lat="44.77745" lon="4.98207">
        <ele>346</ele>
        <time>2013-08-22T16:57:35Z</time>
      </trkpt>
      <trkpt lat="44.77747" lon="4.98205">
        <ele>346</ele>
        <time>2013-08-22T16:57:36Z</time>
      </trkpt>
      <trkpt lat="44.77751" lon="4.98203">
        <ele>346</ele>
        <time>2013-08-22T16:57:37Z</time>
      </trkpt>
      <trkpt lat="44.77754" lon="4.98201">
        <ele>346</ele>
        <time>2013-08-22T16:57:38Z</time>
      </trkpt>
      <trkpt lat="44.77757" lon="4.982">
        <ele>345</ele>
        <time>2013-08-22T16:57:39Z</time>
      </trkpt>
      <trkpt lat="44.7776" lon="4.982">
        <ele>345</ele>
        <time>2013-08-22T16:57:40Z</time>
      </trkpt>
      <trkpt lat="44.77762" lon="4.982">
        <ele>344</ele>
        <time>2013-08-22T16:57:41Z</time>
      </trkpt>
      <trkpt lat="44.77765" lon="4.98199">
        <ele>344</ele>
        <time>2013-08-22T16:57:42Z</time>
      </trkpt>
      <trkpt lat="44.77767" lon="4.98198">
        <ele>344</ele>
        <time>2013-08-22T16:57:43Z</time>
      </trkpt>
      <trkpt lat="44.7777" lon="4.98197">
        <ele>343</ele>
        <time>2013-08-22T16:57:44Z</time>
      </trkpt>
      <trkpt lat="44.77773" lon="4.98196">
        <ele>343</ele>
        <time>2013-08-22T16:57:45Z</time>
      </trkpt>
      <trkpt lat="44.77775" lon="4.98195">
        <ele>343</ele>
        <time>2013-08-22T16:57:46Z</time>
      </trkpt>
      <trkpt lat="44.77776" lon="4.98192">
        <ele>343</ele>
        <time>2013-08-22T16:57:47Z</time>
      </trkpt>
      <trkpt lat="44.77778" lon="4.9819">
        <ele>343</ele>
        <time>2013-08-22T16:57:48Z</time>
      </trkpt>
      <trkpt lat="44.77779" lon="4.98187">
        <ele>343</ele>
        <time>2013-08-22T16:57:49Z</time>
      </trkpt>
      <trkpt lat="44.77777" lon="4.98185">
        <ele>343</ele>
        <time>2013-08-22T16:57:50Z</time>
      </trkpt>
      <trkpt lat="44.77775" lon="4.98184">
        <ele>343</ele>
        <time>2013-08-22T16:57:51Z</time>
      </trkpt>
      <trkpt lat="44.77773" lon="4.98183">
        <ele>343</ele>
        <time>2013-08-22T16:57:52Z</time>
      </trkpt>
      <trkpt lat="44.7777" lon="4.98183">
        <ele>343</ele>
        <time>2013-08-22T16:57:53Z</time>
      </trkpt>
      <trkpt lat="44.77768" lon="4.98182">
        <ele>343</ele>
        <time>2013-08-22T16:57:54Z</time>
      </trkpt>
      <trkpt lat="44.77766" lon="4.98182">
        <ele>343</ele>
        <time>2013-08-22T16:57:55Z</time>
      </trkpt>
      <trkpt lat="44.77763" lon="4.98182">
        <ele>342</ele>
        <time>2013-08-22T16:57:56Z</time>
      </trkpt>
      <trkpt lat="44.7776" lon="4.9818">
        <ele>342</ele>
        <time>2013-08-22T16:57:57Z</time>
      </trkpt>
      <trkpt lat="44.77757" lon="4.98179">
        <ele>342</ele>
        <time>2013-08-22T16:57:58Z</time>
      </trkpt>
      <trkpt lat="44.77753" lon="4.98178">
        <ele>341</ele>
        <time>2013-08-22T16:57:59Z</time>
      </trkpt>
      <trkpt lat="44.7775" lon="4.98178">
        <ele>341</ele>
        <time>2013-08-22T16:58:00Z</time>
      </trkpt>
      <trkpt lat="44.77747" lon="4.98178">
        <ele>341</ele>
        <time>2013-08-22T16:58:01Z</time>
      </trkpt>
      <trkpt lat="44.77744" lon="4.98178">
        <ele>341</ele>
        <time>2013-08-22T16:58:02Z</time>
      </trkpt>
      <trkpt lat="44.77741" lon="4.98178">
        <ele>341</ele>
        <time>2013-08-22T16:58:03Z</time>
      </trkpt>
      <trkpt lat="44.77738" lon="4.98178">
        <ele>341</ele>
        <time>2013-08-22T16:58:04Z</time>
      </trkpt>
      <trkpt lat="44.77735" lon="4.98177">
        <ele>341</ele>
        <time>2013-08-22T16:58:05Z</time>
      </trkpt>
      <trkpt lat="44.77732" lon="4.98176">
        <ele>341</ele>
        <time>2013-08-22T16:58:06Z</time>
      </trkpt>
      <trkpt lat="44.77729" lon="4.98175">
        <ele>341</ele>
        <time>2013-08-22T16:58:07Z</time>
      </trkpt>
      <trkpt lat="44.77726" lon="4.98175">
        <ele>341</ele>
        <time>2013-08-22T16:58:08Z</time>
      </trkpt>
      <trkpt lat="44.77722" lon="4.98175">
        <ele>341</ele>
        <time>2013-08-22T16:58:09Z</time>
      </trkpt>
      <trkpt lat="44.77719" lon="4.98175">
        <ele>341</ele>
        <time>2013-08-22T16:58:10Z</time>
      </trkpt>
      <trkpt lat="44.77716" lon="4.98175">
        <ele>340</ele>
        <time>2013-08-22T16:58:11Z</time>
      </trkpt>
      <trkpt lat="44.77713" lon="4.98175">
        <ele>340</ele>
        <time>2013-08-22T16:58:12Z</time>
      </trkpt>
      <trkpt lat="44.77711" lon="4.98175">
        <ele>340</ele>
        <time>2013-08-22T16:58:13Z</time>
      </trkpt>
      <trkpt lat="44.77708" lon="4.98175">
        <ele>340</ele>
        <time>2013-08-22T16:58:14Z</time>
      </trkpt>
      <trkpt lat="44.77705" lon="4.98176">
        <ele>340</ele>
        <time>2013-08-22T16:58:15Z</time>
      </trkpt>
      <trkpt lat="44.77702" lon="4.98177">
        <ele>340</ele>
        <time>2013-08-22T16:58:16Z</time>
      </trkpt>
      <trkpt lat="44.77699" lon="4.98178">
        <ele>340</ele>
        <time>2013-08-22T16:58:17Z</time>
      </trkpt>
      <trkpt lat="44.77695" lon="4.98179">
        <ele>340</ele>
        <time>2013-08-22T16:58:18Z</time>
      </trkpt>
      <trkpt lat="44.77693" lon="4.9818">
        <ele>340</ele>
        <time>2013-08-22T16:58:19Z</time>
      </trkpt>
      <trkpt lat="44.77689" lon="4.98179">
        <ele>340</ele>
        <time>2013-08-22T16:58:20Z</time>
      </trkpt>
      <trkpt lat="44.77686" lon="4.98179">
        <ele>340</ele>
        <time>2013-08-22T16:58:21Z</time>
      </trkpt>
      <trkpt lat="44.77682" lon="4.98179">
        <ele>340</ele>
        <time>2013-08-22T16:58:22Z</time>
      </trkpt>
      <trkpt lat="44.77679" lon="4.98181">
        <ele>339</ele>
        <time>2013-08-22T16:58:23Z</time>
      </trkpt>
      <trkpt lat="44.77675" lon="4.98183">
        <ele>339</ele>
        <time>2013-08-22T16:58:24Z</time>
      </trkpt>
      <trkpt lat="44.77671" lon="4.98183">
        <ele>339</ele>
        <time>2013-08-22T16:58:25Z</time>
      </trkpt>
      <trkpt lat="44.77667" lon="4.98182">
        <ele>339</ele>
        <time>2013-08-22T16:58:26Z</time>
      </trkpt>
      <trkpt lat="44.77664" lon="4.98181">
        <ele>339</ele>
        <time>2013-08-22T16:58:27Z</time>
      </trkpt>
      <trkpt lat="44.77661" lon="4.98178">
        <ele>339</ele>
        <time>2013-08-22T16:58:28Z</time>
      </trkpt>
      <trkpt lat="44.77658" lon="4.98176">
        <ele>339</ele>
        <time>2013-08-22T16:58:29Z</time>
      </trkpt>
      <trkpt lat="44.77655" lon="4.98174">
        <ele>339</ele>
        <time>2013-08-22T16:58:30Z</time>
      </trkpt>
      <trkpt lat="44.77652" lon="4.98171">
        <ele>339</ele>
        <time>2013-08-22T16:58:31Z</time>
      </trkpt>
      <trkpt lat="44.77649" lon="4.98168">
        <ele>339</ele>
        <time>2013-08-22T16:58:32Z</time>
      </trkpt>
      <trkpt lat="44.77645" lon="4.98164">
        <ele>339</ele>
        <time>2013-08-22T16:58:33Z</time>
      </trkpt>
      <trkpt lat="44.77643" lon="4.9816">
        <ele>339</ele>
        <time>2013-08-22T16:58:34Z</time>
      </trkpt>
      <trkpt lat="44.7764" lon="4.98156">
        <ele>339</ele>
        <time>2013-08-22T16:58:35Z</time>
      </trkpt>
      <trkpt lat="44.77636" lon="4.98152">
        <ele>339</ele>
        <time>2013-08-22T16:58:36Z</time>
      </trkpt>
      <trkpt lat="44.77633" lon="4.98149">
        <ele>339</ele>
        <time>2013-08-22T16:58:37Z</time>
      </trkpt>
      <trkpt lat="44.77629" lon="4.98146">
        <ele>339</ele>
        <time>2013-08-22T16:58:38Z</time>
      </trkpt>
      <trkpt lat="44.77626" lon="4.98143">
        <ele>339</ele>
        <time>2013-08-22T16:58:39Z</time>
      </trkpt>
      <trkpt lat="44.77623" lon="4.9814">
        <ele>339</ele>
        <time>2013-08-22T16:58:40Z</time>
      </trkpt>
      <trkpt lat="44.7762" lon="4.98136">
        <ele>339</ele>
        <time>2013-08-22T16:58:41Z</time>
      </trkpt>
      <trkpt lat="44.77617" lon="4.98133">
        <ele>339</ele>
        <time>2013-08-22T16:58:42Z</time>
      </trkpt>
      <trkpt lat="44.77615" lon="4.9813">
        <ele>339</ele>
        <time>2013-08-22T16:58:43Z</time>
      </trkpt>
      <trkpt lat="44.77612" lon="4.98127">
        <ele>339</ele>
        <time>2013-08-22T16:58:44Z</time>
      </trkpt>
      <trkpt lat="44.77609" lon="4.98124">
        <ele>339</ele>
        <time>2013-08-22T16:58:45Z</time>
      </trkpt>
      <trkpt lat="44.77606" lon="4.98122">
        <ele>339</ele>
        <time>2013-08-22T16:58:46Z</time>
      </trkpt>
      <trkpt lat="44.77603" lon="4.98119">
        <ele>339</ele>
        <time>2013-08-22T16:58:47Z</time>
      </trkpt>
      <trkpt lat="44.776" lon="4.98117">
        <ele>339</ele>
        <time>2013-08-22T16:58:48Z</time>
      </trkpt>
      <trkpt lat="44.77597" lon="4.98115">
        <ele>339</ele>
        <time>2013-08-22T16:58:49Z</time>
      </trkpt>
      <trkpt lat="44.77594" lon="4.98113">
        <ele>339</ele>
        <time>2013-08-22T16:58:50Z</time>
      </trkpt>
      <trkpt lat="44.77591" lon="4.98111">
        <ele>338</ele>
        <time>2013-08-22T16:58:51Z</time>
      </trkpt>
      <trkpt lat="44.77588" lon="4.98109">
        <ele>337</ele>
        <time>2013-08-22T16:58:52Z</time>
      </trkpt>
      <trkpt lat="44.77584" lon="4.98106">
        <ele>337</ele>
        <time>2013-08-22T16:58:53Z</time>
      </trkpt>
      <trkpt lat="44.77579" lon="4.98104">
        <ele>337</ele>
        <time>2013-08-22T16:58:54Z</time>
      </trkpt>
      <trkpt lat="44.77576" lon="4.98101">
        <ele>337</ele>
        <time>2013-08-22T16:58:55Z</time>
      </trkpt>
      <trkpt lat="44.77572" lon="4.98099">
        <ele>337</ele>
        <time>2013-08-22T16:58:56Z</time>
      </trkpt>
      <trkpt lat="44.77569" lon="4.98095">
        <ele>337</ele>
        <time>2013-08-22T16:58:57Z</time>
      </trkpt>
      <trkpt lat="44.77566" lon="4.98092">
        <ele>337</ele>
        <time>2013-08-22T16:58:58Z</time>
      </trkpt>
      <trkpt lat="44.77563" lon="4.9809">
        <ele>336</ele>
        <time>2013-08-22T16:58:59Z</time>
      </trkpt>
      <trkpt lat="44.7756" lon="4.98087">
        <ele>336</ele>
        <time>2013-08-22T16:59:00Z</time>
      </trkpt>
      <trkpt lat="44.77557" lon="4.98083">
        <ele>335</ele>
        <time>2013-08-22T16:59:01Z</time>
      </trkpt>
      <trkpt lat="44.77554" lon="4.98081">
        <ele>335</ele>
        <time>2013-08-22T16:59:02Z</time>
      </trkpt>
      <trkpt lat="44.77552" lon="4.98078">
        <ele>335</ele>
        <time>2013-08-22T16:59:03Z</time>
      </trkpt>
      <trkpt lat="44.77548" lon="4.98076">
        <ele>334</ele>
        <time>2013-08-22T16:59:04Z</time>
      </trkpt>
      <trkpt lat="44.77545" lon="4.98074">
        <ele>334</ele>
        <time>2013-08-22T16:59:05Z</time>
      </trkpt>
      <trkpt lat="44.77542" lon="4.98073">
        <ele>334</ele>
        <time>2013-08-22T16:59:06Z</time>
      </trkpt>
      <trkpt lat="44.77539" lon="4.98071">
        <ele>334</ele>
        <time>2013-08-22T16:59:07Z</time>
      </trkpt>
      <trkpt lat="44.77536" lon="4.98069">
        <ele>334</ele>
        <time>2013-08-22T16:59:08Z</time>
      </trkpt>
      <trkpt lat="44.77532" lon="4.98067">
        <ele>334</ele>
        <time>2013-08-22T16:59:09Z</time>
      </trkpt>
      <trkpt lat="44.77529" lon="4.98065">
        <ele>334</ele>
        <time>2013-08-22T16:59:10Z</time>
      </trkpt>
      <trkpt lat="44.77526" lon="4.98063">
        <ele>334</ele>
        <time>2013-08-22T16:59:11Z</time>
      </trkpt>
      <trkpt lat="44.77524" lon="4.98061">
        <ele>334</ele>
        <time>2013-08-22T16:59:12Z</time>
      </trkpt>
      <trkpt lat="44.77521" lon="4.98058">
        <ele>334</ele>
        <time>2013-08-22T16:59:13Z</time>
      </trkpt>
      <trkpt lat="44.77518" lon="4.98056">
        <ele>334</ele>
        <time>2013-08-22T16:59:14Z</time>
      </trkpt>
      <trkpt lat="44.77516" lon="4.98055">
        <ele>334</ele>
        <time>2013-08-22T16:59:15Z</time>
      </trkpt>
      <trkpt lat="44.77513" lon="4.98054">
        <ele>334</ele>
        <time>2013-08-22T16:59:16Z</time>
      </trkpt>
      <trkpt lat="44.7751" lon="4.98054">
        <ele>333</ele>
        <time>2013-08-22T16:59:17Z</time>
      </trkpt>
      <trkpt lat="44.77507" lon="4.98053">
        <ele>333</ele>
        <time>2013-08-22T16:59:18Z</time>
      </trkpt>
      <trkpt lat="44.77504" lon="4.98053">
        <ele>333</ele>
        <time>2013-08-22T16:59:19Z</time>
      </trkpt>
      <trkpt lat="44.77502" lon="4.98053">
        <ele>333</ele>
        <time>2013-08-22T16:59:20Z</time>
      </trkpt>
      <trkpt lat="44.77499" lon="4.98054">
        <ele>333</ele>
        <time>2013-08-22T16:59:21Z</time>
      </trkpt>
      <trkpt lat="44.77496" lon="4.98055">
        <ele>333</ele>
        <time>2013-08-22T16:59:22Z</time>
      </trkpt>
      <trkpt lat="44.77493" lon="4.98057">
        <ele>333</ele>
        <time>2013-08-22T16:59:23Z</time>
      </trkpt>
      <trkpt lat="44.77491" lon="4.98059">
        <ele>333</ele>
        <time>2013-08-22T16:59:24Z</time>
      </trkpt>
      <trkpt lat="44.77488" lon="4.98061">
        <ele>333</ele>
        <time>2013-08-22T16:59:25Z</time>
      </trkpt>
      <trkpt lat="44.77484" lon="4.98062">
        <ele>333</ele>
        <time>2013-08-22T16:59:26Z</time>
      </trkpt>
      <trkpt lat="44.77481" lon="4.98063">
        <ele>332</ele>
        <time>2013-08-22T16:59:27Z</time>
      </trkpt>
      <trkpt lat="44.77479" lon="4.98063">
        <ele>332</ele>
        <time>2013-08-22T16:59:28Z</time>
      </trkpt>
      <trkpt lat="44.77476" lon="4.98064">
        <ele>332</ele>
        <time>2013-08-22T16:59:29Z</time>
      </trkpt>
      <trkpt lat="44.77474" lon="4.98064">
        <ele>331</ele>
        <time>2013-08-22T16:59:30Z</time>
      </trkpt>
      <trkpt lat="44.77471" lon="4.98065">
        <ele>331</ele>
        <time>2013-08-22T16:59:31Z</time>
      </trkpt>
      <trkpt lat="44.77467" lon="4.98065">
        <ele>330</ele>
        <time>2013-08-22T16:59:32Z</time>
      </trkpt>
      <trkpt lat="44.77465" lon="4.98066">
        <ele>330</ele>
        <time>2013-08-22T16:59:33Z</time>
      </trkpt>
      <trkpt lat="44.77462" lon="4.98066">
        <ele>330</ele>
        <time>2013-08-22T16:59:34Z</time>
      </trkpt>
      <trkpt lat="44.77459" lon="4.98068">
        <ele>330</ele>
        <time>2013-08-22T16:59:35Z</time>
      </trkpt>
      <trkpt lat="44.77456" lon="4.98067">
        <ele>330</ele>
        <time>2013-08-22T16:59:36Z</time>
      </trkpt>
      <trkpt lat="44.77453" lon="4.98066">
        <ele>330</ele>
        <time>2013-08-22T16:59:37Z</time>
      </trkpt>
      <trkpt lat="44.7745" lon="4.98066">
        <ele>330</ele>
        <time>2013-08-22T16:59:38Z</time>
      </trkpt>
      <trkpt lat="44.77447" lon="4.98066">
        <ele>330</ele>
        <time>2013-08-22T16:59:39Z</time>
      </trkpt>
      <trkpt lat="44.77444" lon="4.98067">
        <ele>330</ele>
        <time>2013-08-22T16:59:40Z</time>
      </trkpt>
      <trkpt lat="44.77441" lon="4.98067">
        <ele>330</ele>
        <time>2013-08-22T16:59:41Z</time>
      </trkpt>
      <trkpt lat="44.77438" lon="4.98068">
        <ele>330</ele>
        <time>2013-08-22T16:59:42Z</time>
      </trkpt>
      <trkpt lat="44.77435" lon="4.98068">
        <ele>330</ele>
        <time>2013-08-22T16:59:43Z</time>
      </trkpt>
      <trkpt lat="44.77433" lon="4.98068">
        <ele>330</ele>
        <time>2013-08-22T16:59:44Z</time>
      </trkpt>
      <trkpt lat="44.7743" lon="4.98067">
        <ele>330</ele>
        <time>2013-08-22T16:59:45Z</time>
      </trkpt>
      <trkpt lat="44.77428" lon="4.98067">
        <ele>330</ele>
        <time>2013-08-22T16:59:46Z</time>
      </trkpt>
      <trkpt lat="44.77425" lon="4.98066">
        <ele>330</ele>
        <time>2013-08-22T16:59:47Z</time>
      </trkpt>
      <trkpt lat="44.77422" lon="4.98067">
        <ele>330</ele>
        <time>2013-08-22T16:59:48Z</time>
      </trkpt>
      <trkpt lat="44.77419" lon="4.98068">
        <ele>330</ele>
        <time>2013-08-22T16:59:49Z</time>
      </trkpt>
      <trkpt lat="44.77416" lon="4.98069">
        <ele>330</ele>
        <time>2013-08-22T16:59:50Z</time>
      </trkpt>
      <trkpt lat="44.77412" lon="4.98071">
        <ele>330</ele>
        <time>2013-08-22T16:59:51Z</time>
      </trkpt>
      <trkpt lat="44.77409" lon="4.98072">
        <ele>330</ele>
        <time>2013-08-22T16:59:52Z</time>
      </trkpt>
      <trkpt lat="44.77405" lon="4.98075">
        <ele>329</ele>
        <time>2013-08-22T16:59:53Z</time>
      </trkpt>
      <trkpt lat="44.774" lon="4.98077">
        <ele>328</ele>
        <time>2013-08-22T16:59:54Z</time>
      </trkpt>
      <trkpt lat="44.77396" lon="4.98079">
        <ele>328</ele>
        <time>2013-08-22T16:59:55Z</time>
      </trkpt>
      <trkpt lat="44.77391" lon="4.98083">
        <ele>328</ele>
        <time>2013-08-22T16:59:56Z</time>
      </trkpt>
      <trkpt lat="44.77388" lon="4.98085">
        <ele>328</ele>
        <time>2013-08-22T16:59:57Z</time>
      </trkpt>
      <trkpt lat="44.77385" lon="4.98086">
        <ele>328</ele>
        <time>2013-08-22T16:59:58Z</time>
      </trkpt>
      <trkpt lat="44.77383" lon="4.98087">
        <ele>328</ele>
        <time>2013-08-22T16:59:59Z</time>
      </trkpt>
      <trkpt lat="44.77381" lon="4.98088">
        <ele>327</ele>
        <time>2013-08-22T17:00:00Z</time>
      </trkpt>
      <trkpt lat="44.77381" lon="4.98091">
        <ele>326</ele>
        <time>2013-08-22T17:00:02Z</time>
      </trkpt>
      <trkpt lat="44.77382" lon="4.98094">
        <ele>326</ele>
        <time>2013-08-22T17:00:03Z</time>
      </trkpt>
      <trkpt lat="44.77383" lon="4.98098">
        <ele>325</ele>
        <time>2013-08-22T17:00:04Z</time>
      </trkpt>
      <trkpt lat="44.77385" lon="4.98101">
        <ele>325</ele>
        <time>2013-08-22T17:00:05Z</time>
      </trkpt>
      <trkpt lat="44.77386" lon="4.98104">
        <ele>325</ele>
        <time>2013-08-22T17:00:06Z</time>
      </trkpt>
      <trkpt lat="44.77387" lon="4.98107">
        <ele>325</ele>
        <time>2013-08-22T17:00:07Z</time>
      </trkpt>
      <trkpt lat="44.77389" lon="4.98109">
        <ele>325</ele>
        <time>2013-08-22T17:00:08Z</time>
      </trkpt>
      <trkpt lat="44.7739" lon="4.98113">
        <ele>325</ele>
        <time>2013-08-22T17:00:09Z</time>
      </trkpt>
      <trkpt lat="44.7739" lon="4.98117">
        <ele>325</ele>
        <time>2013-08-22T17:00:10Z</time>
      </trkpt>
      <trkpt lat="44.7739" lon="4.9812">
        <ele>325</ele>
        <time>2013-08-22T17:00:11Z</time>
      </trkpt>
      <trkpt lat="44.77391" lon="4.98124">
        <ele>325</ele>
        <time>2013-08-22T17:00:12Z</time>
      </trkpt>
      <trkpt lat="44.77391" lon="4.98127">
        <ele>325</ele>
        <time>2013-08-22T17:00:13Z</time>
      </trkpt>
      <trkpt lat="44.77392" lon="4.9813">
        <ele>325</ele>
        <time>2013-08-22T17:00:14Z</time>
      </trkpt>
      <trkpt lat="44.77393" lon="4.98133">
        <ele>325</ele>
        <time>2013-08-22T17:00:15Z</time>
      </trkpt>
      <trkpt lat="44.77394" lon="4.98136">
        <ele>325</ele>
        <time>2013-08-22T17:00:16Z</time>
      </trkpt>
      <trkpt lat="44.77396" lon="4.98138">
        <ele>325</ele>
        <time>2013-08-22T17:00:17Z</time>
      </trkpt>
      <trkpt lat="44.77398" lon="4.98141">
        <ele>325</ele>
        <time>2013-08-22T17:00:18Z</time>
      </trkpt>
      <trkpt lat="44.77399" lon="4.98142">
        <ele>325</ele>
        <time>2013-08-22T17:00:19Z</time>
      </trkpt>
      <trkpt lat="44.77401" lon="4.98145">
        <ele>325</ele>
        <time>2013-08-22T17:00:20Z</time>
      </trkpt>
      <trkpt lat="44.77403" lon="4.98146">
        <ele>325</ele>
        <time>2013-08-22T17:00:21Z</time>
      </trkpt>
      <trkpt lat="44.77404" lon="4.98149">
        <ele>325</ele>
        <time>2013-08-22T17:00:22Z</time>
      </trkpt>
      <trkpt lat="44.77406" lon="4.98153">
        <ele>325</ele>
        <time>2013-08-22T17:00:23Z</time>
      </trkpt>
      <trkpt lat="44.77407" lon="4.98156">
        <ele>325</ele>
        <time>2013-08-22T17:00:24Z</time>
      </trkpt>
      <trkpt lat="44.77408" lon="4.98158">
        <ele>325</ele>
        <time>2013-08-22T17:00:25Z</time>
      </trkpt>
      <trkpt lat="44.77409" lon="4.98161">
        <ele>325</ele>
        <time>2013-08-22T17:00:26Z</time>
      </trkpt>
      <trkpt lat="44.77411" lon="4.98164">
        <ele>325</ele>
        <time>2013-08-22T17:00:27Z</time>
      </trkpt>
      <trkpt lat="44.77412" lon="4.98167">
        <ele>325</ele>
        <time>2013-08-22T17:00:28Z</time>
      </trkpt>
      <trkpt lat="44.77414" lon="4.9817">
        <ele>325</ele>
        <time>2013-08-22T17:00:29Z</time>
      </trkpt>
      <trkpt lat="44.77415" lon="4.98172">
        <ele>325</ele>
        <time>2013-08-22T17:00:30Z</time>
      </trkpt>
      <trkpt lat="44.77417" lon="4.98175">
        <ele>325</ele>
        <time>2013-08-22T17:00:31Z</time>
      </trkpt>
      <trkpt lat="44.77418" lon="4.98177">
        <ele>325</ele>
        <time>2013-08-22T17:00:32Z</time>
      </trkpt>
      <trkpt lat="44.7742" lon="4.9818">
        <ele>325</ele>
        <time>2013-08-22T17:00:33Z</time>
      </trkpt>
      <trkpt lat="44.77422" lon="4.98183">
        <ele>325</ele>
        <time>2013-08-22T17:00:34Z</time>
      </trkpt>
      <trkpt lat="44.77424" lon="4.98186">
        <ele>325</ele>
        <time>2013-08-22T17:00:35Z</time>
      </trkpt>
      <trkpt lat="44.77427" lon="4.9819">
        <ele>325</ele>
        <time>2013-08-22T17:00:36Z</time>
      </trkpt>
      <trkpt lat="44.77429" lon="4.98194">
        <ele>325</ele>
        <time>2013-08-22T17:00:37Z</time>
      </trkpt>
      <trkpt lat="44.77431" lon="4.98197">
        <ele>325</ele>
        <time>2013-08-22T17:00:38Z</time>
      </trkpt>
      <trkpt lat="44.77432" lon="4.98199">
        <ele>325</ele>
        <time>2013-08-22T17:00:39Z</time>
      </trkpt>
      <trkpt lat="44.77433" lon="4.98203">
        <ele>325</ele>
        <time>2013-08-22T17:00:40Z</time>
      </trkpt>
      <trkpt lat="44.77435" lon="4.98205">
        <ele>325</ele>
        <time>2013-08-22T17:00:41Z</time>
      </trkpt>
      <trkpt lat="44.77436" lon="4.98208">
        <ele>325</ele>
        <time>2013-08-22T17:00:42Z</time>
      </trkpt>
      <trkpt lat="44.77437" lon="4.9821">
        <ele>325</ele>
        <time>2013-08-22T17:00:43Z</time>
      </trkpt>
      <trkpt lat="44.77438" lon="4.98212">
        <ele>326</ele>
        <time>2013-08-22T17:00:44Z</time>
      </trkpt>
      <trkpt lat="44.77439" lon="4.98213">
        <ele>327</ele>
        <time>2013-08-22T17:00:45Z</time>
      </trkpt>
      <trkpt lat="44.77441" lon="4.98214">
        <ele>328</ele>
        <time>2013-08-22T17:00:46Z</time>
      </trkpt>
      <trkpt lat="44.77443" lon="4.98216">
        <ele>329</ele>
        <time>2013-08-22T17:00:47Z</time>
      </trkpt>
      <trkpt lat="44.77446" lon="4.98217">
        <ele>330</ele>
        <time>2013-08-22T17:00:48Z</time>
      </trkpt>
      <trkpt lat="44.77449" lon="4.98218">
        <ele>331</ele>
        <time>2013-08-22T17:00:49Z</time>
      </trkpt>
      <trkpt lat="44.77451" lon="4.98219">
        <ele>332</ele>
        <time>2013-08-22T17:00:50Z</time>
      </trkpt>
      <trkpt lat="44.77454" lon="4.98219">
        <ele>332</ele>
        <time>2013-08-22T17:00:51Z</time>
      </trkpt>
      <trkpt lat="44.77456" lon="4.9822">
        <ele>333</ele>
        <time>2013-08-22T17:00:52Z</time>
      </trkpt>
      <trkpt lat="44.77458" lon="4.98221">
        <ele>334</ele>
        <time>2013-08-22T17:00:53Z</time>
      </trkpt>
      <trkpt lat="44.7746" lon="4.98223">
        <ele>334</ele>
        <time>2013-08-22T17:00:54Z</time>
      </trkpt>
      <trkpt lat="44.77464" lon="4.98226">
        <ele>334</ele>
        <time>2013-08-22T17:00:55Z</time>
      </trkpt>
      <trkpt lat="44.77468" lon="4.98229">
        <ele>334</ele>
        <time>2013-08-22T17:00:56Z</time>
      </trkpt>
      <trkpt lat="44.77471" lon="4.98231">
        <ele>334</ele>
        <time>2013-08-22T17:00:57Z</time>
      </trkpt>
      <trkpt lat="44.77474" lon="4.98234">
        <ele>334</ele>
        <time>2013-08-22T17:00:58Z</time>
      </trkpt>
      <trkpt lat="44.77477" lon="4.98236">
        <ele>334</ele>
        <time>2013-08-22T17:00:59Z</time>
      </trkpt>
      <trkpt lat="44.7748" lon="4.98239">
        <ele>334</ele>
        <time>2013-08-22T17:01:00Z</time>
      </trkpt>
      <trkpt lat="44.77483" lon="4.98241">
        <ele>333</ele>
        <time>2013-08-22T17:01:01Z</time>
      </trkpt>
      <trkpt lat="44.77485" lon="4.98244">
        <ele>332</ele>
        <time>2013-08-22T17:01:02Z</time>
      </trkpt>
      <trkpt lat="44.77487" lon="4.98246">
        <ele>331</ele>
        <time>2013-08-22T17:01:03Z</time>
      </trkpt>
      <trkpt lat="44.77489" lon="4.98248">
        <ele>330</ele>
        <time>2013-08-22T17:01:04Z</time>
      </trkpt>
      <trkpt lat="44.77491" lon="4.9825">
        <ele>330</ele>
        <time>2013-08-22T17:01:05Z</time>
      </trkpt>
      <trkpt lat="44.77493" lon="4.98253">
        <ele>329</ele>
        <time>2013-08-22T17:01:06Z</time>
      </trkpt>
      <trkpt lat="44.77495" lon="4.98256">
        <ele>328</ele>
        <time>2013-08-22T17:01:07Z</time>
      </trkpt>
      <trkpt lat="44.77497" lon="4.98259">
        <ele>327</ele>
        <time>2013-08-22T17:01:08Z</time>
      </trkpt>
      <trkpt lat="44.77499" lon="4.98263">
        <ele>327</ele>
        <time>2013-08-22T17:01:09Z</time>
      </trkpt>
      <trkpt lat="44.77501" lon="4.98267">
        <ele>327</ele>
        <time>2013-08-22T17:01:10Z</time>
      </trkpt>
      <trkpt lat="44.77502" lon="4.9827">
        <ele>327</ele>
        <time>2013-08-22T17:01:11Z</time>
      </trkpt>
      <trkpt lat="44.77504" lon="4.98274">
        <ele>327</ele>
        <time>2013-08-22T17:01:12Z</time>
      </trkpt>
      <trkpt lat="44.77505" lon="4.98277">
        <ele>327</ele>
        <time>2013-08-22T17:01:13Z</time>
      </trkpt>
      <trkpt lat="44.77507" lon="4.98279">
        <ele>327</ele>
        <time>2013-08-22T17:01:14Z</time>
      </trkpt>
      <trkpt lat="44.77509" lon="4.98283">
        <ele>326</ele>
        <time>2013-08-22T17:01:15Z</time>
      </trkpt>
      <trkpt lat="44.7751" lon="4.98286">
        <ele>326</ele>
        <time>2013-08-22T17:01:16Z</time>
      </trkpt>
      <trkpt lat="44.77512" lon="4.98289">
        <ele>326</ele>
        <time>2013-08-22T17:01:17Z</time>
      </trkpt>
      <trkpt lat="44.77515" lon="4.98292">
        <ele>326</ele>
        <time>2013-08-22T17:01:18Z</time>
      </trkpt>
      <trkpt lat="44.77516" lon="4.98295">
        <ele>326</ele>
        <time>2013-08-22T17:01:19Z</time>
      </trkpt>
      <trkpt lat="44.77519" lon="4.98298">
        <ele>326</ele>
        <time>2013-08-22T17:01:20Z</time>
      </trkpt>
      <trkpt lat="44.7752" lon="4.983">
        <ele>326</ele>
        <time>2013-08-22T17:01:21Z</time>
      </trkpt>
      <trkpt lat="44.77522" lon="4.98302">
        <ele>326</ele>
        <time>2013-08-22T17:01:22Z</time>
      </trkpt>
      <trkpt lat="44.77524" lon="4.98305">
        <ele>326</ele>
        <time>2013-08-22T17:01:23Z</time>
      </trkpt>
      <trkpt lat="44.77526" lon="4.98306">
        <ele>326</ele>
        <time>2013-08-22T17:01:24Z</time>
      </trkpt>
      <trkpt lat="44.77528" lon="4.98308">
        <ele>326</ele>
        <time>2013-08-22T17:01:25Z</time>
      </trkpt>
      <trkpt lat="44.77531" lon="4.98312">
        <ele>326</ele>
        <time>2013-08-22T17:01:26Z</time>
      </trkpt>
      <trkpt lat="44.77534" lon="4.98315">
        <ele>326</ele>
        <time>2013-08-22T17:01:27Z</time>
      </trkpt>
      <trkpt lat="44.77536" lon="4.98318">
        <ele>326</ele>
        <time>2013-08-22T17:01:28Z</time>
      </trkpt>
      <trkpt lat="44.77539" lon="4.9832">
        <ele>326</ele>
        <time>2013-08-22T17:01:29Z</time>
      </trkpt>
      <trkpt lat="44.77541" lon="4.98323">
        <ele>326</ele>
        <time>2013-08-22T17:01:30Z</time>
      </trkpt>
      <trkpt lat="44.77544" lon="4.98326">
        <ele>326</ele>
        <time>2013-08-22T17:01:31Z</time>
      </trkpt>
      <trkpt lat="44.77546" lon="4.98329">
        <ele>326</ele>
        <time>2013-08-22T17:01:32Z</time>
      </trkpt>
      <trkpt lat="44.77549" lon="4.98331">
        <ele>326</ele>
        <time>2013-08-22T17:01:33Z</time>
      </trkpt>
      <trkpt lat="44.77552" lon="4.98333">
        <ele>326</ele>
        <time>2013-08-22T17:01:34Z</time>
      </trkpt>
      <trkpt lat="44.77554" lon="4.98334">
        <ele>326</ele>
        <time>2013-08-22T17:01:35Z</time>
      </trkpt>
      <trkpt lat="44.77556" lon="4.98335">
        <ele>326</ele>
        <time>2013-08-22T17:01:36Z</time>
      </trkpt>
      <trkpt lat="44.77559" lon="4.98337">
        <ele>326</ele>
        <time>2013-08-22T17:01:37Z</time>
      </trkpt>
      <trkpt lat="44.77561" lon="4.98338">
        <ele>326</ele>
        <time>2013-08-22T17:01:38Z</time>
      </trkpt>
      <trkpt lat="44.77564" lon="4.9834">
        <ele>326</ele>
        <time>2013-08-22T17:01:39Z</time>
      </trkpt>
      <trkpt lat="44.77567" lon="4.98342">
        <ele>326</ele>
        <time>2013-08-22T17:01:40Z</time>
      </trkpt>
      <trkpt lat="44.77569" lon="4.98343">
        <ele>326</ele>
        <time>2013-08-22T17:01:41Z</time>
      </trkpt>
      <trkpt lat="44.77572" lon="4.98345">
        <ele>326</ele>
        <time>2013-08-22T17:01:42Z</time>
      </trkpt>
      <trkpt lat="44.77575" lon="4.98347">
        <ele>326</ele>
        <time>2013-08-22T17:01:43Z</time>
      </trkpt>
      <trkpt lat="44.77577" lon="4.98348">
        <ele>326</ele>
        <time>2013-08-22T17:01:44Z</time>
      </trkpt>
      <trkpt lat="44.7758" lon="4.98349">
        <ele>326</ele>
        <time>2013-08-22T17:01:45Z</time>
      </trkpt>
      <trkpt lat="44.77582" lon="4.98351">
        <ele>326</ele>
        <time>2013-08-22T17:01:46Z</time>
      </trkpt>
      <trkpt lat="44.77584" lon="4.98352">
        <ele>326</ele>
        <time>2013-08-22T17:01:47Z</time>
      </trkpt>
      <trkpt lat="44.77587" lon="4.98353">
        <ele>326</ele>
        <time>2013-08-22T17:01:48Z</time>
      </trkpt>
      <trkpt lat="44.77589" lon="4.98354">
        <ele>326</ele>
        <time>2013-08-22T17:01:49Z</time>
      </trkpt>
      <trkpt lat="44.77592" lon="4.98354">
        <ele>326</ele>
        <time>2013-08-22T17:01:50Z</time>
      </trkpt>
      <trkpt lat="44.77594" lon="4.98354">
        <ele>326</ele>
        <time>2013-08-22T17:01:51Z</time>
      </trkpt>
      <trkpt lat="44.77596" lon="4.98354">
        <ele>325</ele>
        <time>2013-08-22T17:01:52Z</time>
      </trkpt>
      <trkpt lat="44.77599" lon="4.98354">
        <ele>325</ele>
        <time>2013-08-22T17:01:53Z</time>
      </trkpt>
      <trkpt lat="44.77602" lon="4.98355">
        <ele>325</ele>
        <time>2013-08-22T17:01:54Z</time>
      </trkpt>
      <trkpt lat="44.77604" lon="4.98355">
        <ele>325</ele>
        <time>2013-08-22T17:01:55Z</time>
      </trkpt>
      <trkpt lat="44.77607" lon="4.98356">
        <ele>324</ele>
        <time>2013-08-22T17:01:56Z</time>
      </trkpt>
      <trkpt lat="44.77609" lon="4.98356">
        <ele>324</ele>
        <time>2013-08-22T17:01:57Z</time>
      </trkpt>
      <trkpt lat="44.77611" lon="4.98355">
        <ele>324</ele>
        <time>2013-08-22T17:01:58Z</time>
      </trkpt>
      <trkpt lat="44.77613" lon="4.98354">
        <ele>324</ele>
        <time>2013-08-22T17:01:59Z</time>
      </trkpt>
      <trkpt lat="44.77615" lon="4.98353">
        <ele>324</ele>
        <time>2013-08-22T17:02:00Z</time>
      </trkpt>
      <trkpt lat="44.77618" lon="4.98353">
        <ele>324</ele>
        <time>2013-08-22T17:02:01Z</time>
      </trkpt>
      <trkpt lat="44.7762" lon="4.98352">
        <ele>324</ele>
        <time>2013-08-22T17:02:02Z</time>
      </trkpt>
      <trkpt lat="44.77621" lon="4.98351">
        <ele>324</ele>
        <time>2013-08-22T17:02:03Z</time>
      </trkpt>
      <trkpt lat="44.77623" lon="4.98351">
        <ele>324</ele>
        <time>2013-08-22T17:02:04Z</time>
      </trkpt>
      <trkpt lat="44.77625" lon="4.98351">
        <ele>323</ele>
        <time>2013-08-22T17:02:05Z</time>
      </trkpt>
      <trkpt lat="44.77628" lon="4.9835">
        <ele>323</ele>
        <time>2013-08-22T17:02:06Z</time>
      </trkpt>
      <trkpt lat="44.7763" lon="4.9835">
        <ele>323</ele>
        <time>2013-08-22T17:02:07Z</time>
      </trkpt>
      <trkpt lat="44.77633" lon="4.9835">
        <ele>323</ele>
        <time>2013-08-22T17:02:08Z</time>
      </trkpt>
      <trkpt lat="44.77635" lon="4.9835">
        <ele>323</ele>
        <time>2013-08-22T17:02:09Z</time>
      </trkpt>
      <trkpt lat="44.77637" lon="4.98351">
        <ele>322</ele>
        <time>2013-08-22T17:02:10Z</time>
      </trkpt>
      <trkpt lat="44.7764" lon="4.98353">
        <ele>322</ele>
        <time>2013-08-22T17:02:11Z</time>
      </trkpt>
      <trkpt lat="44.77643" lon="4.98353">
        <ele>322</ele>
        <time>2013-08-22T17:02:12Z</time>
      </trkpt>
      <trkpt lat="44.77646" lon="4.98353">
        <ele>322</ele>
        <time>2013-08-22T17:02:13Z</time>
      </trkpt>
      <trkpt lat="44.77648" lon="4.98355">
        <ele>322</ele>
        <time>2013-08-22T17:02:14Z</time>
      </trkpt>
      <trkpt lat="44.77651" lon="4.98356">
        <ele>322</ele>
        <time>2013-08-22T17:02:15Z</time>
      </trkpt>
      <trkpt lat="44.77654" lon="4.98356">
        <ele>322</ele>
        <time>2013-08-22T17:02:16Z</time>
      </trkpt>
      <trkpt lat="44.77657" lon="4.98357">
        <ele>322</ele>
        <time>2013-08-22T17:02:17Z</time>
      </trkpt>
      <trkpt lat="44.7766" lon="4.98358">
        <ele>322</ele>
        <time>2013-08-22T17:02:18Z</time>
      </trkpt>
      <trkpt lat="44.77663" lon="4.9836">
        <ele>322</ele>
        <time>2013-08-22T17:02:19Z</time>
      </trkpt>
      <trkpt lat="44.77665" lon="4.98361">
        <ele>322</ele>
        <time>2013-08-22T17:02:20Z</time>
      </trkpt>
      <trkpt lat="44.77668" lon="4.98363">
        <ele>322</ele>
        <time>2013-08-22T17:02:21Z</time>
      </trkpt>
      <trkpt lat="44.7767" lon="4.98366">
        <ele>322</ele>
        <time>2013-08-22T17:02:22Z</time>
      </trkpt>
      <trkpt lat="44.77673" lon="4.98368">
        <ele>322</ele>
        <time>2013-08-22T17:02:23Z</time>
      </trkpt>
      <trkpt lat="44.77676" lon="4.9837">
        <ele>322</ele>
        <time>2013-08-22T17:02:24Z</time>
      </trkpt>
      <trkpt lat="44.77679" lon="4.98372">
        <ele>323</ele>
        <time>2013-08-22T17:02:25Z</time>
      </trkpt>
      <trkpt lat="44.77682" lon="4.98373">
        <ele>324</ele>
        <time>2013-08-22T17:02:26Z</time>
      </trkpt>
      <trkpt lat="44.77685" lon="4.98374">
        <ele>325</ele>
        <time>2013-08-22T17:02:27Z</time>
      </trkpt>
      <trkpt lat="44.77688" lon="4.98375">
        <ele>326</ele>
        <time>2013-08-22T17:02:28Z</time>
      </trkpt>
      <trkpt lat="44.7769" lon="4.98375">
        <ele>326</ele>
        <time>2013-08-22T17:02:29Z</time>
      </trkpt>
      <trkpt lat="44.77692" lon="4.98376">
        <ele>327</ele>
        <time>2013-08-22T17:02:30Z</time>
      </trkpt>
      <trkpt lat="44.77695" lon="4.98377">
        <ele>327</ele>
        <time>2013-08-22T17:02:31Z</time>
      </trkpt>
      <trkpt lat="44.77698" lon="4.98379">
        <ele>328</ele>
        <time>2013-08-22T17:02:32Z</time>
      </trkpt>
      <trkpt lat="44.77701" lon="4.9838">
        <ele>328</ele>
        <time>2013-08-22T17:02:33Z</time>
      </trkpt>
      <trkpt lat="44.77704" lon="4.98381">
        <ele>329</ele>
        <time>2013-08-22T17:02:34Z</time>
      </trkpt>
      <trkpt lat="44.77706" lon="4.98382">
        <ele>329</ele>
        <time>2013-08-22T17:02:35Z</time>
      </trkpt>
      <trkpt lat="44.77708" lon="4.98383">
        <ele>330</ele>
        <time>2013-08-22T17:02:36Z</time>
      </trkpt>
      <trkpt lat="44.7771" lon="4.98385">
        <ele>330</ele>
        <time>2013-08-22T17:02:37Z</time>
      </trkpt>
      <trkpt lat="44.77713" lon="4.98387">
        <ele>331</ele>
        <time>2013-08-22T17:02:38Z</time>
      </trkpt>
      <trkpt lat="44.77716" lon="4.98389">
        <ele>331</ele>
        <time>2013-08-22T17:02:39Z</time>
      </trkpt>
      <trkpt lat="44.77718" lon="4.98392">
        <ele>332</ele>
        <time>2013-08-22T17:02:40Z</time>
      </trkpt>
      <trkpt lat="44.77721" lon="4.98394">
        <ele>332</ele>
        <time>2013-08-22T17:02:41Z</time>
      </trkpt>
      <trkpt lat="44.77723" lon="4.98397">
        <ele>332</ele>
        <time>2013-08-22T17:02:42Z</time>
      </trkpt>
      <trkpt lat="44.77724" lon="4.984">
        <ele>332</ele>
        <time>2013-08-22T17:02:43Z</time>
      </trkpt>
      <trkpt lat="44.77726" lon="4.98403">
        <ele>332</ele>
        <time>2013-08-22T17:02:44Z</time>
      </trkpt>
      <trkpt lat="44.77727" lon="4.98406">
        <ele>332</ele>
        <time>2013-08-22T17:02:45Z</time>
      </trkpt>
      <trkpt lat="44.7773" lon="4.98408">
        <ele>333</ele>
        <time>2013-08-22T17:02:46Z</time>
      </trkpt>
      <trkpt lat="44.77732" lon="4.98411">
        <ele>333</ele>
        <time>2013-08-22T17:02:47Z</time>
      </trkpt>
      <trkpt lat="44.77735" lon="4.98414">
        <ele>334</ele>
        <time>2013-08-22T17:02:48Z</time>
      </trkpt>
      <trkpt lat="44.77738" lon="4.98416">
        <ele>334</ele>
        <time>2013-08-22T17:02:49Z</time>
      </trkpt>
      <trkpt lat="44.7774" lon="4.9842">
        <ele>335</ele>
        <time>2013-08-22T17:02:50Z</time>
      </trkpt>
      <trkpt lat="44.77742" lon="4.98422">
        <ele>336</ele>
        <time>2013-08-22T17:02:51Z</time>
      </trkpt>
      <trkpt lat="44.77743" lon="4.98425">
        <ele>336</ele>
        <time>2013-08-22T17:02:52Z</time>
      </trkpt>
      <trkpt lat="44.77745" lon="4.98429">
        <ele>337</ele>
        <time>2013-08-22T17:02:53Z</time>
      </trkpt>
      <trkpt lat="44.77746" lon="4.98432">
        <ele>338</ele>
        <time>2013-08-22T17:02:54Z</time>
      </trkpt>
      <trkpt lat="44.77748" lon="4.98436">
        <ele>339</ele>
        <time>2013-08-22T17:02:55Z</time>
      </trkpt>
      <trkpt lat="44.77749" lon="4.9844">
        <ele>340</ele>
        <time>2013-08-22T17:02:56Z</time>
      </trkpt>
      <trkpt lat="44.7775" lon="4.98444">
        <ele>341</ele>
        <time>2013-08-22T17:02:57Z</time>
      </trkpt>
      <trkpt lat="44.77753" lon="4.98448">
        <ele>342</ele>
        <time>2013-08-22T17:02:58Z</time>
      </trkpt>
      <trkpt lat="44.77755" lon="4.98452">
        <ele>343</ele>
        <time>2013-08-22T17:02:59Z</time>
      </trkpt>
      <trkpt lat="44.77757" lon="4.98456">
        <ele>343</ele>
        <time>2013-08-22T17:03:00Z</time>
      </trkpt>
      <trkpt lat="44.77759" lon="4.98459">
        <ele>344</ele>
        <time>2013-08-22T17:03:01Z</time>
      </trkpt>
      <trkpt lat="44.7776" lon="4.98463">
        <ele>344</ele>
        <time>2013-08-22T17:03:02Z</time>
      </trkpt>
      <trkpt lat="44.77762" lon="4.98466">
        <ele>345</ele>
        <time>2013-08-22T17:03:03Z</time>
      </trkpt>
      <trkpt lat="44.77763" lon="4.98469">
        <ele>345</ele>
        <time>2013-08-22T17:03:04Z</time>
      </trkpt>
      <trkpt lat="44.77764" lon="4.98472">
        <ele>346</ele>
        <time>2013-08-22T17:03:05Z</time>
      </trkpt>
      <trkpt lat="44.77765" lon="4.98474">
        <ele>347</ele>
        <time>2013-08-22T17:03:06Z</time>
      </trkpt>
      <trkpt lat="44.77766" lon="4.98478">
        <ele>348</ele>
        <time>2013-08-22T17:03:07Z</time>
      </trkpt>
      <trkpt lat="44.77768" lon="4.98481">
        <ele>348</ele>
        <time>2013-08-22T17:03:08Z</time>
      </trkpt>
      <trkpt lat="44.7777" lon="4.98483">
        <ele>349</ele>
        <time>2013-08-22T17:03:09Z</time>
      </trkpt>
      <trkpt lat="44.77772" lon="4.98486">
        <ele>350</ele>
        <time>2013-08-22T17:03:10Z</time>
      </trkpt>
      <trkpt lat="44.77774" lon="4.98489">
        <ele>350</ele>
        <time>2013-08-22T17:03:11Z</time>
      </trkpt>
      <trkpt lat="44.77776" lon="4.98492">
        <ele>351</ele>
        <time>2013-08-22T17:03:12Z</time>
      </trkpt>
      <trkpt lat="44.77779" lon="4.98495">
        <ele>351</ele>
        <time>2013-08-22T17:03:13Z</time>
      </trkpt>
      <trkpt lat="44.77781" lon="4.98499">
        <ele>351</ele>
        <time>2013-08-22T17:03:14Z</time>
      </trkpt>
      <trkpt lat="44.77783" lon="4.98503">
        <ele>351</ele>
        <time>2013-08-22T17:03:15Z</time>
      </trkpt>
      <trkpt lat="44.77786" lon="4.98506">
        <ele>351</ele>
        <time>2013-08-22T17:03:16Z</time>
      </trkpt>
      <trkpt lat="44.77788" lon="4.9851">
        <ele>351</ele>
        <time>2013-08-22T17:03:17Z</time>
      </trkpt>
      <trkpt lat="44.7779" lon="4.98514">
        <ele>351</ele>
        <time>2013-08-22T17:03:18Z</time>
      </trkpt>
      <trkpt lat="44.77792" lon="4.98518">
        <ele>351</ele>
        <time>2013-08-22T17:03:19Z</time>
      </trkpt>
      <trkpt lat="44.77794" lon="4.98522">
        <ele>351</ele>
        <time>2013-08-22T17:03:20Z</time>
      </trkpt>
      <trkpt lat="44.77796" lon="4.98526">
        <ele>351</ele>
        <time>2013-08-22T17:03:21Z</time>
      </trkpt>
      <trkpt lat="44.77797" lon="4.9853">
        <ele>351</ele>
        <time>2013-08-22T17:03:22Z</time>
      </trkpt>
      <trkpt lat="44.77799" lon="4.98535">
        <ele>351</ele>
        <time>2013-08-22T17:03:23Z</time>
      </trkpt>
      <trkpt lat="44.778" lon="4.98539">
        <ele>351</ele>
        <time>2013-08-22T17:03:24Z</time>
      </trkpt>
      <trkpt lat="44.77801" lon="4.98543">
        <ele>351</ele>
        <time>2013-08-22T17:03:25Z</time>
      </trkpt>
      <trkpt lat="44.77802" lon="4.98548">
        <ele>351</ele>
        <time>2013-08-22T17:03:26Z</time>
      </trkpt>
      <trkpt lat="44.77802" lon="4.98552">
        <ele>351</ele>
        <time>2013-08-22T17:03:27Z</time>
      </trkpt>
      <trkpt lat="44.77803" lon="4.98555">
        <ele>351</ele>
        <time>2013-08-22T17:03:28Z</time>
      </trkpt>
      <trkpt lat="44.77803" lon="4.98559">
        <ele>351</ele>
        <time>2013-08-22T17:03:29Z</time>
      </trkpt>
      <trkpt lat="44.77804" lon="4.98562">
        <ele>351</ele>
        <time>2013-08-22T17:03:30Z</time>
      </trkpt>
      <trkpt lat="44.77805" lon="4.98565">
        <ele>351</ele>
        <time>2013-08-22T17:03:31Z</time>
      </trkpt>
      <trkpt lat="44.77806" lon="4.98568">
        <ele>351</ele>
        <time>2013-08-22T17:03:32Z</time>
      </trkpt>
      <trkpt lat="44.77807" lon="4.98572">
        <ele>351</ele>
        <time>2013-08-22T17:03:33Z</time>
      </trkpt>
      <trkpt lat="44.77807" lon="4.98576">
        <ele>351</ele>
        <time>2013-08-22T17:03:34Z</time>
      </trkpt>
      <trkpt lat="44.77807" lon="4.9858">
        <ele>351</ele>
        <time>2013-08-22T17:03:35Z</time>
      </trkpt>
      <trkpt lat="44.77807" lon="4.98583">
        <ele>351</ele>
        <time>2013-08-22T17:03:36Z</time>
      </trkpt>
      <trkpt lat="44.77808" lon="4.98587">
        <ele>351</ele>
        <time>2013-08-22T17:03:37Z</time>
      </trkpt>
      <trkpt lat="44.77808" lon="4.9859">
        <ele>351</ele>
        <time>2013-08-22T17:03:38Z</time>
      </trkpt>
      <trkpt lat="44.77809" lon="4.98593">
        <ele>351</ele>
        <time>2013-08-22T17:03:39Z</time>
      </trkpt>
      <trkpt lat="44.7781" lon="4.98596">
        <ele>351</ele>
        <time>2013-08-22T17:03:40Z</time>
      </trkpt>
      <trkpt lat="44.77811" lon="4.98599">
        <ele>351</ele>
        <time>2013-08-22T17:03:41Z</time>
      </trkpt>
      <trkpt lat="44.77812" lon="4.98602">
        <ele>351</ele>
        <time>2013-08-22T17:03:42Z</time>
      </trkpt>
      <trkpt lat="44.77813" lon="4.98606">
        <ele>351</ele>
        <time>2013-08-22T17:03:43Z</time>
      </trkpt>
      <trkpt lat="44.77813" lon="4.9861">
        <ele>351</ele>
        <time>2013-08-22T17:03:44Z</time>
      </trkpt>
      <trkpt lat="44.77813" lon="4.98614">
        <ele>351</ele>
        <time>2013-08-22T17:03:45Z</time>
      </trkpt>
      <trkpt lat="44.77813" lon="4.98618">
        <ele>351</ele>
        <time>2013-08-22T17:03:46Z</time>
      </trkpt>
      <trkpt lat="44.77812" lon="4.98622">
        <ele>351</ele>
        <time>2013-08-22T17:03:47Z</time>
      </trkpt>
      <trkpt lat="44.77812" lon="4.98626">
        <ele>351</ele>
        <time>2013-08-22T17:03:48Z</time>
      </trkpt>
      <trkpt lat="44.77812" lon="4.9863">
        <ele>351</ele>
        <time>2013-08-22T17:03:49Z</time>
      </trkpt>
      <trkpt lat="44.77812" lon="4.98634">
        <ele>351</ele>
        <time>2013-08-22T17:03:50Z</time>
      </trkpt>
      <trkpt lat="44.77812" lon="4.98639">
        <ele>351</ele>
        <time>2013-08-22T17:03:51Z</time>
      </trkpt>
      <trkpt lat="44.77812" lon="4.98642">
        <ele>351</ele>
        <time>2013-08-22T17:03:52Z</time>
      </trkpt>
      <trkpt lat="44.77812" lon="4.98647">
        <ele>351</ele>
        <time>2013-08-22T17:03:53Z</time>
      </trkpt>
      <trkpt lat="44.77813" lon="4.98652">
        <ele>352</ele>
        <time>2013-08-22T17:03:54Z</time>
      </trkpt>
      <trkpt lat="44.77813" lon="4.98656">
        <ele>352</ele>
        <time>2013-08-22T17:03:55Z</time>
      </trkpt>
      <trkpt lat="44.77814" lon="4.98661">
        <ele>353</ele>
        <time>2013-08-22T17:03:56Z</time>
      </trkpt>
      <trkpt lat="44.77814" lon="4.98665">
        <ele>353</ele>
        <time>2013-08-22T17:03:57Z</time>
      </trkpt>
      <trkpt lat="44.77814" lon="4.98669">
        <ele>354</ele>
        <time>2013-08-22T17:03:58Z</time>
      </trkpt>
      <trkpt lat="44.77815" lon="4.98673">
        <ele>354</ele>
        <time>2013-08-22T17:03:59Z</time>
      </trkpt>
      <trkpt lat="44.77815" lon="4.98676">
        <ele>355</ele>
        <time>2013-08-22T17:04:00Z</time>
      </trkpt>
      <trkpt lat="44.77816" lon="4.9868">
        <ele>355</ele>
        <time>2013-08-22T17:04:01Z</time>
      </trkpt>
      <trkpt lat="44.77817" lon="4.98684">
        <ele>356</ele>
        <time>2013-08-22T17:04:02Z</time>
      </trkpt>
      <trkpt lat="44.77818" lon="4.98688">
        <ele>356</ele>
        <time>2013-08-22T17:04:03Z</time>
      </trkpt>
      <trkpt lat="44.77818" lon="4.98691">
        <ele>357</ele>
        <time>2013-08-22T17:04:04Z</time>
      </trkpt>
      <trkpt lat="44.77817" lon="4.98696">
        <ele>357</ele>
        <time>2013-08-22T17:04:05Z</time>
      </trkpt>
      <trkpt lat="44.77816" lon="4.98701">
        <ele>358</ele>
        <time>2013-08-22T17:04:06Z</time>
      </trkpt>
      <trkpt lat="44.77815" lon="4.98705">
        <ele>359</ele>
        <time>2013-08-22T17:04:07Z</time>
      </trkpt>
      <trkpt lat="44.77813" lon="4.98708">
        <ele>360</ele>
        <time>2013-08-22T17:04:08Z</time>
      </trkpt>
      <trkpt lat="44.77811" lon="4.98714">
        <ele>361</ele>
        <time>2013-08-22T17:04:09Z</time>
      </trkpt>
      <trkpt lat="44.7781" lon="4.98719">
        <ele>361</ele>
        <time>2013-08-22T17:04:10Z</time>
      </trkpt>
      <trkpt lat="44.7781" lon="4.98722">
        <ele>362</ele>
        <time>2013-08-22T17:04:11Z</time>
      </trkpt>
      <trkpt lat="44.7781" lon="4.98726">
        <ele>362</ele>
        <time>2013-08-22T17:04:12Z</time>
      </trkpt>
      <trkpt lat="44.77811" lon="4.98729">
        <ele>363</ele>
        <time>2013-08-22T17:04:13Z</time>
      </trkpt>
      <trkpt lat="44.77811" lon="4.98733">
        <ele>363</ele>
        <time>2013-08-22T17:04:14Z</time>
      </trkpt>
      <trkpt lat="44.77812" lon="4.98737">
        <ele>363</ele>
        <time>2013-08-22T17:04:15Z</time>
      </trkpt>
      <trkpt lat="44.77812" lon="4.98741">
        <ele>363</ele>
        <time>2013-08-22T17:04:16Z</time>
      </trkpt>
      <trkpt lat="44.77812" lon="4.98745">
        <ele>363</ele>
        <time>2013-08-22T17:04:17Z</time>
      </trkpt>
      <trkpt lat="44.77812" lon="4.98748">
        <ele>363</ele>
        <time>2013-08-22T17:04:18Z</time>
      </trkpt>
      <trkpt lat="44.77812" lon="4.98751">
        <ele>363</ele>
        <time>2013-08-22T17:04:19Z</time>
      </trkpt>
      <trkpt lat="44.77813" lon="4.98754">
        <ele>363</ele>
        <time>2013-08-22T17:04:20Z</time>
      </trkpt>
      <trkpt lat="44.77814" lon="4.98757">
        <ele>363</ele>
        <time>2013-08-22T17:04:21Z</time>
      </trkpt>
      <trkpt lat="44.77816" lon="4.9876">
        <ele>363</ele>
        <time>2013-08-22T17:04:22Z</time>
      </trkpt>
      <trkpt lat="44.77818" lon="4.98763">
        <ele>363</ele>
        <time>2013-08-22T17:04:23Z</time>
      </trkpt>
      <trkpt lat="44.7782" lon="4.98766">
        <ele>363</ele>
        <time>2013-08-22T17:04:24Z</time>
      </trkpt>
      <trkpt lat="44.77822" lon="4.98768">
        <ele>363</ele>
        <time>2013-08-22T17:04:25Z</time>
      </trkpt>
      <trkpt lat="44.77824" lon="4.98771">
        <ele>363</ele>
        <time>2013-08-22T17:04:26Z</time>
      </trkpt>
      <trkpt lat="44.77826" lon="4.98773">
        <ele>362</ele>
        <time>2013-08-22T17:04:27Z</time>
      </trkpt>
      <trkpt lat="44.77828" lon="4.98775">
        <ele>361</ele>
        <time>2013-08-22T17:04:28Z</time>
      </trkpt>
      <trkpt lat="44.7783" lon="4.98777">
        <ele>360</ele>
        <time>2013-08-22T17:04:29Z</time>
      </trkpt>
      <trkpt lat="44.77831" lon="4.98781">
        <ele>359</ele>
        <time>2013-08-22T17:04:30Z</time>
      </trkpt>
      <trkpt lat="44.77831" lon="4.98785">
        <ele>359</ele>
        <time>2013-08-22T17:04:31Z</time>
      </trkpt>
      <trkpt lat="44.77831" lon="4.98788">
        <ele>359</ele>
        <time>2013-08-22T17:04:32Z</time>
      </trkpt>
      <trkpt lat="44.77831" lon="4.98793">
        <ele>359</ele>
        <time>2013-08-22T17:04:33Z</time>
      </trkpt>
      <trkpt lat="44.77832" lon="4.98797">
        <ele>359</ele>
        <time>2013-08-22T17:04:34Z</time>
      </trkpt>
      <trkpt lat="44.77833" lon="4.98802">
        <ele>359</ele>
        <time>2013-08-22T17:04:35Z</time>
      </trkpt>
      <trkpt lat="44.77834" lon="4.98806">
        <ele>358</ele>
        <time>2013-08-22T17:04:36Z</time>
      </trkpt>
      <trkpt lat="44.77835" lon="4.98809">
        <ele>358</ele>
        <time>2013-08-22T17:04:37Z</time>
      </trkpt>
      <trkpt lat="44.77837" lon="4.98813">
        <ele>358</ele>
        <time>2013-08-22T17:04:38Z</time>
      </trkpt>
      <trkpt lat="44.77839" lon="4.98817">
        <ele>357</ele>
        <time>2013-08-22T17:04:39Z</time>
      </trkpt>
      <trkpt lat="44.77841" lon="4.98821">
        <ele>356</ele>
        <time>2013-08-22T17:04:40Z</time>
      </trkpt>
      <trkpt lat="44.77843" lon="4.98824">
        <ele>356</ele>
        <time>2013-08-22T17:04:41Z</time>
      </trkpt>
      <trkpt lat="44.77845" lon="4.98828">
        <ele>355</ele>
        <time>2013-08-22T17:04:42Z</time>
      </trkpt>
      <trkpt lat="44.77846" lon="4.98831">
        <ele>354</ele>
        <time>2013-08-22T17:04:43Z</time>
      </trkpt>
      <trkpt lat="44.77847" lon="4.98834">
        <ele>354</ele>
        <time>2013-08-22T17:04:44Z</time>
      </trkpt>
      <trkpt lat="44.77848" lon="4.98838">
        <ele>353</ele>
        <time>2013-08-22T17:04:45Z</time>
      </trkpt>
      <trkpt lat="44.77848" lon="4.98841">
        <ele>352</ele>
        <time>2013-08-22T17:04:46Z</time>
      </trkpt>
      <trkpt lat="44.77848" lon="4.98846">
        <ele>351</ele>
        <time>2013-08-22T17:04:47Z</time>
      </trkpt>
      <trkpt lat="44.77849" lon="4.9885">
        <ele>350</ele>
        <time>2013-08-22T17:04:48Z</time>
      </trkpt>
      <trkpt lat="44.7785" lon="4.98854">
        <ele>350</ele>
        <time>2013-08-22T17:04:49Z</time>
      </trkpt>
      <trkpt lat="44.77851" lon="4.98858">
        <ele>349</ele>
        <time>2013-08-22T17:04:50Z</time>
      </trkpt>
      <trkpt lat="44.77852" lon="4.98862">
        <ele>349</ele>
        <time>2013-08-22T17:04:51Z</time>
      </trkpt>
      <trkpt lat="44.77854" lon="4.98866">
        <ele>349</ele>
        <time>2013-08-22T17:04:52Z</time>
      </trkpt>
      <trkpt lat="44.77855" lon="4.9887">
        <ele>348</ele>
        <time>2013-08-22T17:04:53Z</time>
      </trkpt>
      <trkpt lat="44.77857" lon="4.98874">
        <ele>348</ele>
        <time>2013-08-22T17:04:54Z</time>
      </trkpt>
      <trkpt lat="44.77858" lon="4.98877">
        <ele>348</ele>
        <time>2013-08-22T17:04:55Z</time>
      </trkpt>
      <trkpt lat="44.77859" lon="4.98881">
        <ele>347</ele>
        <time>2013-08-22T17:04:56Z</time>
      </trkpt>
      <trkpt lat="44.7786" lon="4.98884">
        <ele>347</ele>
        <time>2013-08-22T17:04:57Z</time>
      </trkpt>
      <trkpt lat="44.77862" lon="4.98886">
        <ele>346</ele>
        <time>2013-08-22T17:04:58Z</time>
      </trkpt>
      <trkpt lat="44.77863" lon="4.9889">
        <ele>346</ele>
        <time>2013-08-22T17:04:59Z</time>
      </trkpt>
      <trkpt lat="44.77864" lon="4.98891">
        <ele>345</ele>
        <time>2013-08-22T17:05:00Z</time>
      </trkpt>
      <trkpt lat="44.77865" lon="4.98894">
        <ele>345</ele>
        <time>2013-08-22T17:05:01Z</time>
      </trkpt>
      <trkpt lat="44.77866" lon="4.98895">
        <ele>345</ele>
        <time>2013-08-22T17:05:02Z</time>
      </trkpt>
      <trkpt lat="44.77868" lon="4.98896">
        <ele>344</ele>
        <time>2013-08-22T17:05:03Z</time>
      </trkpt>
      <trkpt lat="44.7787" lon="4.98896">
        <ele>344</ele>
        <time>2013-08-22T17:05:04Z</time>
      </trkpt>
      <trkpt lat="44.77873" lon="4.98895">
        <ele>343</ele>
        <time>2013-08-22T17:05:05Z</time>
      </trkpt>
      <trkpt lat="44.77876" lon="4.98895">
        <ele>342</ele>
        <time>2013-08-22T17:05:06Z</time>
      </trkpt>
      <trkpt lat="44.77878" lon="4.98894">
        <ele>341</ele>
        <time>2013-08-22T17:05:07Z</time>
      </trkpt>
      <trkpt lat="44.7788" lon="4.98894">
        <ele>340</ele>
        <time>2013-08-22T17:05:08Z</time>
      </trkpt>
      <trkpt lat="44.77882" lon="4.98894">
        <ele>339</ele>
        <time>2013-08-22T17:05:09Z</time>
      </trkpt>
      <trkpt lat="44.77884" lon="4.98893">
        <ele>338</ele>
        <time>2013-08-22T17:05:10Z</time>
      </trkpt>
      <trkpt lat="44.77886" lon="4.98893">
        <ele>337</ele>
        <time>2013-08-22T17:05:11Z</time>
      </trkpt>
      <trkpt lat="44.77888" lon="4.98891">
        <ele>336</ele>
        <time>2013-08-22T17:05:12Z</time>
      </trkpt>
      <trkpt lat="44.77891" lon="4.98889">
        <ele>336</ele>
        <time>2013-08-22T17:05:13Z</time>
      </trkpt>
      <trkpt lat="44.77894" lon="4.98887">
        <ele>335</ele>
        <time>2013-08-22T17:05:14Z</time>
      </trkpt>
      <trkpt lat="44.77897" lon="4.98886">
        <ele>334</ele>
        <time>2013-08-22T17:05:15Z</time>
      </trkpt>
      <trkpt lat="44.77899" lon="4.98885">
        <ele>334</ele>
        <time>2013-08-22T17:05:16Z</time>
      </trkpt>
      <trkpt lat="44.77901" lon="4.98884">
        <ele>333</ele>
        <time>2013-08-22T17:05:17Z</time>
      </trkpt>
      <trkpt lat="44.77903" lon="4.98883">
        <ele>333</ele>
        <time>2013-08-22T17:05:18Z</time>
      </trkpt>
      <trkpt lat="44.77906" lon="4.98882">
        <ele>332</ele>
        <time>2013-08-22T17:05:19Z</time>
      </trkpt>
      <trkpt lat="44.77908" lon="4.98882">
        <ele>332</ele>
        <time>2013-08-22T17:05:20Z</time>
      </trkpt>
      <trkpt lat="44.7791" lon="4.98882">
        <ele>331</ele>
        <time>2013-08-22T17:05:21Z</time>
      </trkpt>
      <trkpt lat="44.77912" lon="4.98882">
        <ele>330</ele>
        <time>2013-08-22T17:05:22Z</time>
      </trkpt>
      <trkpt lat="44.77915" lon="4.98882">
        <ele>329</ele>
        <time>2013-08-22T17:05:23Z</time>
      </trkpt>
      <trkpt lat="44.77918" lon="4.98882">
        <ele>328</ele>
        <time>2013-08-22T17:05:24Z</time>
      </trkpt>
      <trkpt lat="44.77921" lon="4.98883">
        <ele>328</ele>
        <time>2013-08-22T17:05:25Z</time>
      </trkpt>
      <trkpt lat="44.77924" lon="4.98884">
        <ele>327</ele>
        <time>2013-08-22T17:05:26Z</time>
      </trkpt>
      <trkpt lat="44.77926" lon="4.98885">
        <ele>326</ele>
        <time>2013-08-22T17:05:27Z</time>
      </trkpt>
      <trkpt lat="44.77928" lon="4.98886">
        <ele>326</ele>
        <time>2013-08-22T17:05:28Z</time>
      </trkpt>
      <trkpt lat="44.77932" lon="4.98886">
        <ele>326</ele>
        <time>2013-08-22T17:05:29Z</time>
      </trkpt>
      <trkpt lat="44.77935" lon="4.98887">
        <ele>326</ele>
        <time>2013-08-22T17:05:30Z</time>
      </trkpt>
      <trkpt lat="44.77938" lon="4.98888">
        <ele>326</ele>
        <time>2013-08-22T17:05:31Z</time>
      </trkpt>
      <trkpt lat="44.77942" lon="4.98889">
        <ele>326</ele>
        <time>2013-08-22T17:05:32Z</time>
      </trkpt>
      <trkpt lat="44.77944" lon="4.98891">
        <ele>326</ele>
        <time>2013-08-22T17:05:33Z</time>
      </trkpt>
      <trkpt lat="44.77947" lon="4.98893">
        <ele>326</ele>
        <time>2013-08-22T17:05:34Z</time>
      </trkpt>
      <trkpt lat="44.7795" lon="4.98895">
        <ele>326</ele>
        <time>2013-08-22T17:05:35Z</time>
      </trkpt>
      <trkpt lat="44.77952" lon="4.98897">
        <ele>326</ele>
        <time>2013-08-22T17:05:36Z</time>
      </trkpt>
      <trkpt lat="44.77955" lon="4.98899">
        <ele>326</ele>
        <time>2013-08-22T17:05:37Z</time>
      </trkpt>
      <trkpt lat="44.77958" lon="4.98901">
        <ele>326</ele>
        <time>2013-08-22T17:05:38Z</time>
      </trkpt>
      <trkpt lat="44.77961" lon="4.98903">
        <ele>327</ele>
        <time>2013-08-22T17:05:39Z</time>
      </trkpt>
      <trkpt lat="44.77963" lon="4.98905">
        <ele>327</ele>
        <time>2013-08-22T17:05:40Z</time>
      </trkpt>
      <trkpt lat="44.77965" lon="4.98906">
        <ele>327</ele>
        <time>2013-08-22T17:05:41Z</time>
      </trkpt>
      <trkpt lat="44.77967" lon="4.98908">
        <ele>328</ele>
        <time>2013-08-22T17:05:42Z</time>
      </trkpt>
      <trkpt lat="44.77969" lon="4.9891">
        <ele>328</ele>
        <time>2013-08-22T17:05:43Z</time>
      </trkpt>
      <trkpt lat="44.77972" lon="4.98913">
        <ele>328</ele>
        <time>2013-08-22T17:05:44Z</time>
      </trkpt>
      <trkpt lat="44.77975" lon="4.98915">
        <ele>328</ele>
        <time>2013-08-22T17:05:45Z</time>
      </trkpt>
      <trkpt lat="44.77978" lon="4.98917">
        <ele>328</ele>
        <time>2013-08-22T17:05:46Z</time>
      </trkpt>
      <trkpt lat="44.77981" lon="4.9892">
        <ele>328</ele>
        <time>2013-08-22T17:05:47Z</time>
      </trkpt>
      <trkpt lat="44.77983" lon="4.98922">
        <ele>328</ele>
        <time>2013-08-22T17:05:48Z</time>
      </trkpt>
      <trkpt lat="44.77986" lon="4.98925">
        <ele>328</ele>
        <time>2013-08-22T17:05:49Z</time>
      </trkpt>
      <trkpt lat="44.77989" lon="4.98927">
        <ele>328</ele>
        <time>2013-08-22T17:05:50Z</time>
      </trkpt>
      <trkpt lat="44.77993" lon="4.9893">
        <ele>328</ele>
        <time>2013-08-22T17:05:51Z</time>
      </trkpt>
      <trkpt lat="44.77996" lon="4.98932">
        <ele>328</ele>
        <time>2013-08-22T17:05:52Z</time>
      </trkpt>
      <trkpt lat="44.77998" lon="4.98935">
        <ele>328</ele>
        <time>2013-08-22T17:05:53Z</time>
      </trkpt>
      <trkpt lat="44.78001" lon="4.98938">
        <ele>328</ele>
        <time>2013-08-22T17:05:54Z</time>
      </trkpt>
      <trkpt lat="44.78003" lon="4.98941">
        <ele>328</ele>
        <time>2013-08-22T17:05:55Z</time>
      </trkpt>
      <trkpt lat="44.78006" lon="4.98945">
        <ele>328</ele>
        <time>2013-08-22T17:05:56Z</time>
      </trkpt>
      <trkpt lat="44.78008" lon="4.98949">
        <ele>328</ele>
        <time>2013-08-22T17:05:57Z</time>
      </trkpt>
      <trkpt lat="44.78009" lon="4.98953">
        <ele>328</ele>
        <time>2013-08-22T17:05:58Z</time>
      </trkpt>
      <trkpt lat="44.78011" lon="4.98956">
        <ele>328</ele>
        <time>2013-08-22T17:05:59Z</time>
      </trkpt>
      <trkpt lat="44.78012" lon="4.9896">
        <ele>328</ele>
        <time>2013-08-22T17:06:00Z</time>
      </trkpt>
      <trkpt lat="44.78013" lon="4.98963">
        <ele>328</ele>
        <time>2013-08-22T17:06:01Z</time>
      </trkpt>
      <trkpt lat="44.78015" lon="4.98967">
        <ele>328</ele>
        <time>2013-08-22T17:06:02Z</time>
      </trkpt>
      <trkpt lat="44.78016" lon="4.9897">
        <ele>328</ele>
        <time>2013-08-22T17:06:03Z</time>
      </trkpt>
      <trkpt lat="44.78017" lon="4.98974">
        <ele>328</ele>
        <time>2013-08-22T17:06:04Z</time>
      </trkpt>
      <trkpt lat="44.78017" lon="4.98978">
        <ele>328</ele>
        <time>2013-08-22T17:06:05Z</time>
      </trkpt>
      <trkpt lat="44.78018" lon="4.98982">
        <ele>328</ele>
        <time>2013-08-22T17:06:06Z</time>
      </trkpt>
      <trkpt lat="44.78019" lon="4.98985">
        <ele>329</ele>
        <time>2013-08-22T17:06:07Z</time>
      </trkpt>
      <trkpt lat="44.78021" lon="4.98989">
        <ele>330</ele>
        <time>2013-08-22T17:06:08Z</time>
      </trkpt>
      <trkpt lat="44.78022" lon="4.98993">
        <ele>330</ele>
        <time>2013-08-22T17:06:09Z</time>
      </trkpt>
      <trkpt lat="44.78024" lon="4.98996">
        <ele>331</ele>
        <time>2013-08-22T17:06:10Z</time>
      </trkpt>
      <trkpt lat="44.78026" lon="4.99">
        <ele>331</ele>
        <time>2013-08-22T17:06:11Z</time>
      </trkpt>
      <trkpt lat="44.78027" lon="4.99004">
        <ele>331</ele>
        <time>2013-08-22T17:06:12Z</time>
      </trkpt>
      <trkpt lat="44.78029" lon="4.99008">
        <ele>331</ele>
        <time>2013-08-22T17:06:13Z</time>
      </trkpt>
      <trkpt lat="44.7803" lon="4.99013">
        <ele>331</ele>
        <time>2013-08-22T17:06:14Z</time>
      </trkpt>
      <trkpt lat="44.78032" lon="4.99018">
        <ele>331</ele>
        <time>2013-08-22T17:06:15Z</time>
      </trkpt>
      <trkpt lat="44.78034" lon="4.99022">
        <ele>331</ele>
        <time>2013-08-22T17:06:16Z</time>
      </trkpt>
      <trkpt lat="44.78036" lon="4.99026">
        <ele>331</ele>
        <time>2013-08-22T17:06:17Z</time>
      </trkpt>
      <trkpt lat="44.78038" lon="4.9903">
        <ele>331</ele>
        <time>2013-08-22T17:06:18Z</time>
      </trkpt>
      <trkpt lat="44.7804" lon="4.99033">
        <ele>331</ele>
        <time>2013-08-22T17:06:19Z</time>
      </trkpt>
      <trkpt lat="44.78043" lon="4.99036">
        <ele>331</ele>
        <time>2013-08-22T17:06:20Z</time>
      </trkpt>
      <trkpt lat="44.78045" lon="4.99039">
        <ele>331</ele>
        <time>2013-08-22T17:06:21Z</time>
      </trkpt>
      <trkpt lat="44.78048" lon="4.99043">
        <ele>331</ele>
        <time>2013-08-22T17:06:22Z</time>
      </trkpt>
      <trkpt lat="44.78049" lon="4.99046">
        <ele>331</ele>
        <time>2013-08-22T17:06:23Z</time>
      </trkpt>
      <trkpt lat="44.78051" lon="4.99049">
        <ele>331</ele>
        <time>2013-08-22T17:06:24Z</time>
      </trkpt>
      <trkpt lat="44.78053" lon="4.99052">
        <ele>331</ele>
        <time>2013-08-22T17:06:25Z</time>
      </trkpt>
      <trkpt lat="44.78055" lon="4.99055">
        <ele>331</ele>
        <time>2013-08-22T17:06:26Z</time>
      </trkpt>
      <trkpt lat="44.78057" lon="4.99059">
        <ele>331</ele>
        <time>2013-08-22T17:06:27Z</time>
      </trkpt>
      <trkpt lat="44.78058" lon="4.99062">
        <ele>331</ele>
        <time>2013-08-22T17:06:28Z</time>
      </trkpt>
      <trkpt lat="44.7806" lon="4.99065">
        <ele>331</ele>
        <time>2013-08-22T17:06:29Z</time>
      </trkpt>
      <trkpt lat="44.78062" lon="4.99068">
        <ele>331</ele>
        <time>2013-08-22T17:06:30Z</time>
      </trkpt>
      <trkpt lat="44.78064" lon="4.99071">
        <ele>331</ele>
        <time>2013-08-22T17:06:31Z</time>
      </trkpt>
      <trkpt lat="44.78066" lon="4.99074">
        <ele>331</ele>
        <time>2013-08-22T17:06:32Z</time>
      </trkpt>
      <trkpt lat="44.78067" lon="4.99078">
        <ele>331</ele>
        <time>2013-08-22T17:06:33Z</time>
      </trkpt>
      <trkpt lat="44.7807" lon="4.99081">
        <ele>331</ele>
        <time>2013-08-22T17:06:34Z</time>
      </trkpt>
      <trkpt lat="44.78072" lon="4.99084">
        <ele>331</ele>
        <time>2013-08-22T17:06:35Z</time>
      </trkpt>
      <trkpt lat="44.78073" lon="4.99087">
        <ele>331</ele>
        <time>2013-08-22T17:06:36Z</time>
      </trkpt>
      <trkpt lat="44.78075" lon="4.99091">
        <ele>331</ele>
        <time>2013-08-22T17:06:37Z</time>
      </trkpt>
      <trkpt lat="44.78076" lon="4.99094">
        <ele>331</ele>
        <time>2013-08-22T17:06:38Z</time>
      </trkpt>
      <trkpt lat="44.78077" lon="4.99098">
        <ele>331</ele>
        <time>2013-08-22T17:06:39Z</time>
      </trkpt>
      <trkpt lat="44.78077" lon="4.99102">
        <ele>331</ele>
        <time>2013-08-22T17:06:40Z</time>
      </trkpt>
      <trkpt lat="44.78078" lon="4.99106">
        <ele>331</ele>
        <time>2013-08-22T17:06:41Z</time>
      </trkpt>
      <trkpt lat="44.78079" lon="4.9911">
        <ele>331</ele>
        <time>2013-08-22T17:06:42Z</time>
      </trkpt>
      <trkpt lat="44.78079" lon="4.99113">
        <ele>331</ele>
        <time>2013-08-22T17:06:43Z</time>
      </trkpt>
      <trkpt lat="44.7808" lon="4.99118">
        <ele>331</ele>
        <time>2013-08-22T17:06:44Z</time>
      </trkpt>
      <trkpt lat="44.7808" lon="4.99121">
        <ele>331</ele>
        <time>2013-08-22T17:06:45Z</time>
      </trkpt>
      <trkpt lat="44.78082" lon="4.99125">
        <ele>331</ele>
        <time>2013-08-22T17:06:46Z</time>
      </trkpt>
      <trkpt lat="44.78083" lon="4.99129">
        <ele>331</ele>
        <time>2013-08-22T17:06:47Z</time>
      </trkpt>
      <trkpt lat="44.78083" lon="4.99132">
        <ele>331</ele>
        <time>2013-08-22T17:06:48Z</time>
      </trkpt>
      <trkpt lat="44.78084" lon="4.99136">
        <ele>331</ele>
        <time>2013-08-22T17:06:49Z</time>
      </trkpt>
      <trkpt lat="44.78085" lon="4.99139">
        <ele>331</ele>
        <time>2013-08-22T17:06:50Z</time>
      </trkpt>
      <trkpt lat="44.78085" lon="4.99142">
        <ele>331</ele>
        <time>2013-08-22T17:06:51Z</time>
      </trkpt>
      <trkpt lat="44.78086" lon="4.99146">
        <ele>331</ele>
        <time>2013-08-22T17:06:52Z</time>
      </trkpt>
      <trkpt lat="44.78087" lon="4.99149">
        <ele>331</ele>
        <time>2013-08-22T17:06:53Z</time>
      </trkpt>
      <trkpt lat="44.78088" lon="4.99152">
        <ele>331</ele>
        <time>2013-08-22T17:06:54Z</time>
      </trkpt>
      <trkpt lat="44.78088" lon="4.99156">
        <ele>331</ele>
        <time>2013-08-22T17:06:55Z</time>
      </trkpt>
      <trkpt lat="44.7809" lon="4.99159">
        <ele>331</ele>
        <time>2013-08-22T17:06:56Z</time>
      </trkpt>
      <trkpt lat="44.78091" lon="4.99162">
        <ele>331</ele>
        <time>2013-08-22T17:06:57Z</time>
      </trkpt>
      <trkpt lat="44.78092" lon="4.99165">
        <ele>331</ele>
        <time>2013-08-22T17:06:58Z</time>
      </trkpt>
      <trkpt lat="44.78094" lon="4.99166">
        <ele>331</ele>
        <time>2013-08-22T17:06:59Z</time>
      </trkpt>
      <trkpt lat="44.78095" lon="4.99166">
        <ele>331</ele>
        <time>2013-08-22T17:07:00Z</time>
      </trkpt>
      <trkpt lat="44.78098" lon="4.99166">
        <ele>331</ele>
        <time>2013-08-22T17:07:01Z</time>
      </trkpt>
      <trkpt lat="44.78099" lon="4.99167">
        <ele>331</ele>
        <time>2013-08-22T17:07:02Z</time>
      </trkpt>
      <trkpt lat="44.78101" lon="4.99168">
        <ele>331</ele>
        <time>2013-08-22T17:07:03Z</time>
      </trkpt>
      <trkpt lat="44.78103" lon="4.99169">
        <ele>332</ele>
        <time>2013-08-22T17:07:04Z</time>
      </trkpt>
      <trkpt lat="44.78105" lon="4.9917">
        <ele>332</ele>
        <time>2013-08-22T17:07:05Z</time>
      </trkpt>
      <trkpt lat="44.78106" lon="4.99171">
        <ele>332</ele>
        <time>2013-08-22T17:07:06Z</time>
      </trkpt>
      <trkpt lat="44.78108" lon="4.99172">
        <ele>333</ele>
        <time>2013-08-22T17:07:07Z</time>
      </trkpt>
      <trkpt lat="44.78109" lon="4.99173">
        <ele>333</ele>
        <time>2013-08-22T17:07:08Z</time>
      </trkpt>
      <trkpt lat="44.78111" lon="4.99174">
        <ele>333</ele>
        <time>2013-08-22T17:07:09Z</time>
      </trkpt>
      <trkpt lat="44.78112" lon="4.99175">
        <ele>333</ele>
        <time>2013-08-22T17:07:10Z</time>
      </trkpt>
      <trkpt lat="44.78114" lon="4.99176">
        <ele>333</ele>
        <time>2013-08-22T17:07:11Z</time>
      </trkpt>
      <trkpt lat="44.78116" lon="4.99176">
        <ele>334</ele>
        <time>2013-08-22T17:07:12Z</time>
      </trkpt>
      <trkpt lat="44.78117" lon="4.99177">
        <ele>334</ele>
        <time>2013-08-22T17:07:13Z</time>
      </trkpt>
      <trkpt lat="44.78119" lon="4.99177">
        <ele>334</ele>
        <time>2013-08-22T17:07:14Z</time>
      </trkpt>
      <trkpt lat="44.78121" lon="4.9918">
        <ele>335</ele>
        <time>2013-08-22T17:07:16Z</time>
      </trkpt>
      <trkpt lat="44.78122" lon="4.99182">
        <ele>335</ele>
        <time>2013-08-22T17:07:17Z</time>
      </trkpt>
      <trkpt lat="44.78123" lon="4.99184">
        <ele>336</ele>
        <time>2013-08-22T17:07:18Z</time>
      </trkpt>
      <trkpt lat="44.78123" lon="4.99187">
        <ele>336</ele>
        <time>2013-08-22T17:07:19Z</time>
      </trkpt>
      <trkpt lat="44.78124" lon="4.99188">
        <ele>337</ele>
        <time>2013-08-22T17:07:20Z</time>
      </trkpt>
      <trkpt lat="44.78125" lon="4.99191">
        <ele>337</ele>
        <time>2013-08-22T17:07:21Z</time>
      </trkpt>
      <trkpt lat="44.78127" lon="4.99193">
        <ele>337</ele>
        <time>2013-08-22T17:07:22Z</time>
      </trkpt>
      <trkpt lat="44.78127" lon="4.99195">
        <ele>338</ele>
        <time>2013-08-22T17:07:23Z</time>
      </trkpt>
      <trkpt lat="44.78129" lon="4.99197">
        <ele>338</ele>
        <time>2013-08-22T17:07:24Z</time>
      </trkpt>
      <trkpt lat="44.7813" lon="4.99198">
        <ele>338</ele>
        <time>2013-08-22T17:07:25Z</time>
      </trkpt>
      <trkpt lat="44.78132" lon="4.992">
        <ele>338</ele>
        <time>2013-08-22T17:07:26Z</time>
      </trkpt>
      <trkpt lat="44.78134" lon="4.99202">
        <ele>338</ele>
        <time>2013-08-22T17:07:27Z</time>
      </trkpt>
      <trkpt lat="44.78135" lon="4.99203">
        <ele>339</ele>
        <time>2013-08-22T17:07:28Z</time>
      </trkpt>
      <trkpt lat="44.78136" lon="4.99204">
        <ele>340</ele>
        <time>2013-08-22T17:07:29Z</time>
      </trkpt>
      <trkpt lat="44.78138" lon="4.99204">
        <ele>341</ele>
        <time>2013-08-22T17:07:30Z</time>
      </trkpt>
      <trkpt lat="44.78139" lon="4.99205">
        <ele>341</ele>
        <time>2013-08-22T17:07:31Z</time>
      </trkpt>
      <trkpt lat="44.7814" lon="4.99205">
        <ele>342</ele>
        <time>2013-08-22T17:07:32Z</time>
      </trkpt>
      <trkpt lat="44.78141" lon="4.99204">
        <ele>343</ele>
        <time>2013-08-22T17:07:33Z</time>
      </trkpt>
      <trkpt lat="44.78143" lon="4.99202">
        <ele>344</ele>
        <time>2013-08-22T17:07:34Z</time>
      </trkpt>
      <trkpt lat="44.78144" lon="4.992">
        <ele>344</ele>
        <time>2013-08-22T17:07:35Z</time>
      </trkpt>
      <trkpt lat="44.78145" lon="4.99198">
        <ele>345</ele>
        <time>2013-08-22T17:07:36Z</time>
      </trkpt>
      <trkpt lat="44.78145" lon="4.99195">
        <ele>346</ele>
        <time>2013-08-22T17:07:37Z</time>
      </trkpt>
      <trkpt lat="44.78146" lon="4.99193">
        <ele>347</ele>
        <time>2013-08-22T17:07:38Z</time>
      </trkpt>
      <trkpt lat="44.78147" lon="4.99191">
        <ele>347</ele>
        <time>2013-08-22T17:07:39Z</time>
      </trkpt>
      <trkpt lat="44.78148" lon="4.99189">
        <ele>348</ele>
        <time>2013-08-22T17:07:40Z</time>
      </trkpt>
      <trkpt lat="44.78149" lon="4.99186">
        <ele>349</ele>
        <time>2013-08-22T17:07:41Z</time>
      </trkpt>
      <trkpt lat="44.7815" lon="4.99184">
        <ele>349</ele>
        <time>2013-08-22T17:07:42Z</time>
      </trkpt>
      <trkpt lat="44.7815" lon="4.99181">
        <ele>350</ele>
        <time>2013-08-22T17:07:43Z</time>
      </trkpt>
      <trkpt lat="44.78151" lon="4.99179">
        <ele>351</ele>
        <time>2013-08-22T17:07:44Z</time>
      </trkpt>
      <trkpt lat="44.78153" lon="4.99177">
        <ele>352</ele>
        <time>2013-08-22T17:07:45Z</time>
      </trkpt>
      <trkpt lat="44.78154" lon="4.99176">
        <ele>352</ele>
        <time>2013-08-22T17:07:46Z</time>
      </trkpt>
      <trkpt lat="44.78156" lon="4.99175">
        <ele>353</ele>
        <time>2013-08-22T17:07:47Z</time>
      </trkpt>
      <trkpt lat="44.78157" lon="4.99173">
        <ele>354</ele>
        <time>2013-08-22T17:07:49Z</time>
      </trkpt>
      <trkpt lat="44.78158" lon="4.99172">
        <ele>354</ele>
        <time>2013-08-22T17:07:50Z</time>
      </trkpt>
      <trkpt lat="44.7816" lon="4.99171">
        <ele>355</ele>
        <time>2013-08-22T17:07:51Z</time>
      </trkpt>
      <trkpt lat="44.78161" lon="4.9917">
        <ele>355</ele>
        <time>2013-08-22T17:07:52Z</time>
      </trkpt>
      <trkpt lat="44.78163" lon="4.99169">
        <ele>355</ele>
        <time>2013-08-22T17:07:53Z</time>
      </trkpt>
      <trkpt lat="44.78164" lon="4.99168">
        <ele>355</ele>
        <time>2013-08-22T17:07:54Z</time>
      </trkpt>
      <trkpt lat="44.78166" lon="4.99168">
        <ele>355</ele>
        <time>2013-08-22T17:07:55Z</time>
      </trkpt>
      <trkpt lat="44.78167" lon="4.99167">
        <ele>355</ele>
        <time>2013-08-22T17:07:56Z</time>
      </trkpt>
      <trkpt lat="44.78169" lon="4.99165">
        <ele>355</ele>
        <time>2013-08-22T17:07:57Z</time>
      </trkpt>
      <trkpt lat="44.78171" lon="4.99164">
        <ele>355</ele>
        <time>2013-08-22T17:07:58Z</time>
      </trkpt>
      <trkpt lat="44.78172" lon="4.99163">
        <ele>355</ele>
        <time>2013-08-22T17:07:59Z</time>
      </trkpt>
      <trkpt lat="44.78174" lon="4.99163">
        <ele>355</ele>
        <time>2013-08-22T17:08:00Z</time>
      </trkpt>
      <trkpt lat="44.78176" lon="4.99163">
        <ele>355</ele>
        <time>2013-08-22T17:08:01Z</time>
      </trkpt>
      <trkpt lat="44.78178" lon="4.99162">
        <ele>355</ele>
        <time>2013-08-22T17:08:02Z</time>
      </trkpt>
      <trkpt lat="44.78181" lon="4.99161">
        <ele>355</ele>
        <time>2013-08-22T17:08:03Z</time>
      </trkpt>
      <trkpt lat="44.78184" lon="4.99161">
        <ele>355</ele>
        <time>2013-08-22T17:08:04Z</time>
      </trkpt>
      <trkpt lat="44.78187" lon="4.99161">
        <ele>355</ele>
        <time>2013-08-22T17:08:05Z</time>
      </trkpt>
      <trkpt lat="44.78189" lon="4.99161">
        <ele>355</ele>
        <time>2013-08-22T17:08:06Z</time>
      </trkpt>
      <trkpt lat="44.78191" lon="4.99162">
        <ele>355</ele>
        <time>2013-08-22T17:08:07Z</time>
      </trkpt>
      <trkpt lat="44.78193" lon="4.99162">
        <ele>355</ele>
        <time>2013-08-22T17:08:08Z</time>
      </trkpt>
      <trkpt lat="44.78195" lon="4.99161">
        <ele>355</ele>
        <time>2013-08-22T17:08:09Z</time>
      </trkpt>
      <trkpt lat="44.78197" lon="4.99161">
        <ele>355</ele>
        <time>2013-08-22T17:08:10Z</time>
      </trkpt>
      <trkpt lat="44.78199" lon="4.99162">
        <ele>355</ele>
        <time>2013-08-22T17:08:11Z</time>
      </trkpt>
      <trkpt lat="44.78202" lon="4.99162">
        <ele>355</ele>
        <time>2013-08-22T17:08:12Z</time>
      </trkpt>
      <trkpt lat="44.78204" lon="4.99163">
        <ele>355</ele>
        <time>2013-08-22T17:08:13Z</time>
      </trkpt>
      <trkpt lat="44.78206" lon="4.99163">
        <ele>355</ele>
        <time>2013-08-22T17:08:14Z</time>
      </trkpt>
      <trkpt lat="44.78208" lon="4.99163">
        <ele>355</ele>
        <time>2013-08-22T17:08:15Z</time>
      </trkpt>
      <trkpt lat="44.78209" lon="4.99163">
        <ele>355</ele>
        <time>2013-08-22T17:08:16Z</time>
      </trkpt>
      <trkpt lat="44.78211" lon="4.99165">
        <ele>355</ele>
        <time>2013-08-22T17:08:17Z</time>
      </trkpt>
      <trkpt lat="44.78213" lon="4.99167">
        <ele>355</ele>
        <time>2013-08-22T17:08:18Z</time>
      </trkpt>
      <trkpt lat="44.78214" lon="4.99169">
        <ele>355</ele>
        <time>2013-08-22T17:08:19Z</time>
      </trkpt>
      <trkpt lat="44.78216" lon="4.99172">
        <ele>355</ele>
        <time>2013-08-22T17:08:20Z</time>
      </trkpt>
      <trkpt lat="44.78217" lon="4.99174">
        <ele>355</ele>
        <time>2013-08-22T17:08:21Z</time>
      </trkpt>
      <trkpt lat="44.78218" lon="4.99176">
        <ele>355</ele>
        <time>2013-08-22T17:08:22Z</time>
      </trkpt>
      <trkpt lat="44.7822" lon="4.99179">
        <ele>355</ele>
        <time>2013-08-22T17:08:23Z</time>
      </trkpt>
      <trkpt lat="44.78221" lon="4.9918">
        <ele>355</ele>
        <time>2013-08-22T17:08:24Z</time>
      </trkpt>
      <trkpt lat="44.78222" lon="4.99182">
        <ele>355</ele>
        <time>2013-08-22T17:08:25Z</time>
      </trkpt>
      <trkpt lat="44.78224" lon="4.99184">
        <ele>355</ele>
        <time>2013-08-22T17:08:26Z</time>
      </trkpt>
      <trkpt lat="44.78226" lon="4.99186">
        <ele>355</ele>
        <time>2013-08-22T17:08:27Z</time>
      </trkpt>
      <trkpt lat="44.78227" lon="4.99187">
        <ele>355</ele>
        <time>2013-08-22T17:08:28Z</time>
      </trkpt>
      <trkpt lat="44.78229" lon="4.9919">
        <ele>355</ele>
        <time>2013-08-22T17:08:29Z</time>
      </trkpt>
      <trkpt lat="44.7823" lon="4.99191">
        <ele>355</ele>
        <time>2013-08-22T17:08:30Z</time>
      </trkpt>
      <trkpt lat="44.78232" lon="4.99191">
        <ele>356</ele>
        <time>2013-08-22T17:08:33Z</time>
      </trkpt>
      <trkpt lat="44.78234" lon="4.99191">
        <ele>356</ele>
        <time>2013-08-22T17:08:34Z</time>
      </trkpt>
      <trkpt lat="44.78235" lon="4.99193">
        <ele>357</ele>
        <time>2013-08-22T17:08:35Z</time>
      </trkpt>
      <trkpt lat="44.78237" lon="4.99195">
        <ele>357</ele>
        <time>2013-08-22T17:08:36Z</time>
      </trkpt>
      <trkpt lat="44.78239" lon="4.99197">
        <ele>357</ele>
        <time>2013-08-22T17:08:37Z</time>
      </trkpt>
      <trkpt lat="44.78241" lon="4.99199">
        <ele>357</ele>
        <time>2013-08-22T17:08:38Z</time>
      </trkpt>
      <trkpt lat="44.78242" lon="4.99202">
        <ele>357</ele>
        <time>2013-08-22T17:08:39Z</time>
      </trkpt>
      <trkpt lat="44.78244" lon="4.99204">
        <ele>357</ele>
        <time>2013-08-22T17:08:40Z</time>
      </trkpt>
      <trkpt lat="44.78246" lon="4.99206">
        <ele>357</ele>
        <time>2013-08-22T17:08:41Z</time>
      </trkpt>
      <trkpt lat="44.78248" lon="4.99208">
        <ele>357</ele>
        <time>2013-08-22T17:08:42Z</time>
      </trkpt>
      <trkpt lat="44.78249" lon="4.9921">
        <ele>357</ele>
        <time>2013-08-22T17:08:43Z</time>
      </trkpt>
      <trkpt lat="44.78251" lon="4.99212">
        <ele>358</ele>
        <time>2013-08-22T17:08:44Z</time>
      </trkpt>
      <trkpt lat="44.78253" lon="4.99215">
        <ele>358</ele>
        <time>2013-08-22T17:08:45Z</time>
      </trkpt>
      <trkpt lat="44.78255" lon="4.99218">
        <ele>358</ele>
        <time>2013-08-22T17:08:46Z</time>
      </trkpt>
      <trkpt lat="44.78257" lon="4.99221">
        <ele>359</ele>
        <time>2013-08-22T17:08:47Z</time>
      </trkpt>
      <trkpt lat="44.78259" lon="4.99224">
        <ele>359</ele>
        <time>2013-08-22T17:08:48Z</time>
      </trkpt>
      <trkpt lat="44.78261" lon="4.99226">
        <ele>360</ele>
        <time>2013-08-22T17:08:49Z</time>
      </trkpt>
      <trkpt lat="44.78263" lon="4.99228">
        <ele>360</ele>
        <time>2013-08-22T17:08:50Z</time>
      </trkpt>
      <trkpt lat="44.78265" lon="4.99229">
        <ele>360</ele>
        <time>2013-08-22T17:08:51Z</time>
      </trkpt>
      <trkpt lat="44.78267" lon="4.9923">
        <ele>361</ele>
        <time>2013-08-22T17:08:52Z</time>
      </trkpt>
      <trkpt lat="44.78269" lon="4.99232">
        <ele>361</ele>
        <time>2013-08-22T17:08:53Z</time>
      </trkpt>
      <trkpt lat="44.78271" lon="4.99233">
        <ele>361</ele>
        <time>2013-08-22T17:08:54Z</time>
      </trkpt>
      <trkpt lat="44.78274" lon="4.99235">
        <ele>362</ele>
        <time>2013-08-22T17:08:55Z</time>
      </trkpt>
      <trkpt lat="44.78276" lon="4.99237">
        <ele>362</ele>
        <time>2013-08-22T17:08:56Z</time>
      </trkpt>
      <trkpt lat="44.78278" lon="4.9924">
        <ele>362</ele>
        <time>2013-08-22T17:08:57Z</time>
      </trkpt>
      <trkpt lat="44.78281" lon="4.99242">
        <ele>363</ele>
        <time>2013-08-22T17:08:58Z</time>
      </trkpt>
      <trkpt lat="44.78283" lon="4.99244">
        <ele>363</ele>
        <time>2013-08-22T17:08:59Z</time>
      </trkpt>
      <trkpt lat="44.78285" lon="4.99246">
        <ele>363</ele>
        <time>2013-08-22T17:09:00Z</time>
      </trkpt>
      <trkpt lat="44.78287" lon="4.99248">
        <ele>363</ele>
        <time>2013-08-22T17:09:01Z</time>
      </trkpt>
      <trkpt lat="44.7829" lon="4.99249">
        <ele>363</ele>
        <time>2013-08-22T17:09:02Z</time>
      </trkpt>
      <trkpt lat="44.78293" lon="4.99251">
        <ele>364</ele>
        <time>2013-08-22T17:09:03Z</time>
      </trkpt>
      <trkpt lat="44.78296" lon="4.99252">
        <ele>364</ele>
        <time>2013-08-22T17:09:04Z</time>
      </trkpt>
      <trkpt lat="44.78299" lon="4.99253">
        <ele>364</ele>
        <time>2013-08-22T17:09:05Z</time>
      </trkpt>
      <trkpt lat="44.78302" lon="4.99255">
        <ele>364</ele>
        <time>2013-08-22T17:09:06Z</time>
      </trkpt>
      <trkpt lat="44.78306" lon="4.99256">
        <ele>364</ele>
        <time>2013-08-22T17:09:07Z</time>
      </trkpt>
      <trkpt lat="44.78309" lon="4.99257">
        <ele>364</ele>
        <time>2013-08-22T17:09:08Z</time>
      </trkpt>
      <trkpt lat="44.78312" lon="4.99258">
        <ele>364</ele>
        <time>2013-08-22T17:09:09Z</time>
      </trkpt>
      <trkpt lat="44.78314" lon="4.99258">
        <ele>364</ele>
        <time>2013-08-22T17:09:10Z</time>
      </trkpt>
      <trkpt lat="44.78317" lon="4.99259">
        <ele>364</ele>
        <time>2013-08-22T17:09:11Z</time>
      </trkpt>
      <trkpt lat="44.7832" lon="4.99259">
        <ele>364</ele>
        <time>2013-08-22T17:09:12Z</time>
      </trkpt>
      <trkpt lat="44.78323" lon="4.99259">
        <ele>364</ele>
        <time>2013-08-22T17:09:13Z</time>
      </trkpt>
      <trkpt lat="44.78326" lon="4.99259">
        <ele>364</ele>
        <time>2013-08-22T17:09:14Z</time>
      </trkpt>
      <trkpt lat="44.78329" lon="4.99259">
        <ele>364</ele>
        <time>2013-08-22T17:09:15Z</time>
      </trkpt>
      <trkpt lat="44.78331" lon="4.9926">
        <ele>364</ele>
        <time>2013-08-22T17:09:16Z</time>
      </trkpt>
      <trkpt lat="44.78334" lon="4.99261">
        <ele>364</ele>
        <time>2013-08-22T17:09:17Z</time>
      </trkpt>
      <trkpt lat="44.78337" lon="4.99262">
        <ele>364</ele>
        <time>2013-08-22T17:09:18Z</time>
      </trkpt>
      <trkpt lat="44.7834" lon="4.99263">
        <ele>364</ele>
        <time>2013-08-22T17:09:19Z</time>
      </trkpt>
      <trkpt lat="44.78342" lon="4.99266">
        <ele>364</ele>
        <time>2013-08-22T17:09:20Z</time>
      </trkpt>
      <trkpt lat="44.78344" lon="4.99267">
        <ele>364</ele>
        <time>2013-08-22T17:09:21Z</time>
      </trkpt>
      <trkpt lat="44.78347" lon="4.99269">
        <ele>364</ele>
        <time>2013-08-22T17:09:22Z</time>
      </trkpt>
      <trkpt lat="44.78348" lon="4.9927">
        <ele>364</ele>
        <time>2013-08-22T17:09:23Z</time>
      </trkpt>
      <trkpt lat="44.7835" lon="4.99271">
        <ele>364</ele>
        <time>2013-08-22T17:09:24Z</time>
      </trkpt>
      <trkpt lat="44.78352" lon="4.99273">
        <ele>364</ele>
        <time>2013-08-22T17:09:25Z</time>
      </trkpt>
      <trkpt lat="44.78355" lon="4.99274">
        <ele>364</ele>
        <time>2013-08-22T17:09:26Z</time>
      </trkpt>
      <trkpt lat="44.78357" lon="4.99275">
        <ele>364</ele>
        <time>2013-08-22T17:09:27Z</time>
      </trkpt>
      <trkpt lat="44.78358" lon="4.99277">
        <ele>364</ele>
        <time>2013-08-22T17:09:28Z</time>
      </trkpt>
      <trkpt lat="44.7836" lon="4.99278">
        <ele>364</ele>
        <time>2013-08-22T17:09:29Z</time>
      </trkpt>
      <trkpt lat="44.78362" lon="4.9928">
        <ele>364</ele>
        <time>2013-08-22T17:09:30Z</time>
      </trkpt>
      <trkpt lat="44.78363" lon="4.99282">
        <ele>364</ele>
        <time>2013-08-22T17:09:31Z</time>
      </trkpt>
      <trkpt lat="44.78365" lon="4.99284">
        <ele>364</ele>
        <time>2013-08-22T17:09:32Z</time>
      </trkpt>
      <trkpt lat="44.78367" lon="4.99286">
        <ele>364</ele>
        <time>2013-08-22T17:09:33Z</time>
      </trkpt>
      <trkpt lat="44.78369" lon="4.99288">
        <ele>364</ele>
        <time>2013-08-22T17:09:34Z</time>
      </trkpt>
      <trkpt lat="44.78371" lon="4.99289">
        <ele>364</ele>
        <time>2013-08-22T17:09:35Z</time>
      </trkpt>
      <trkpt lat="44.78373" lon="4.99289">
        <ele>364</ele>
        <time>2013-08-22T17:09:36Z</time>
      </trkpt>
      <trkpt lat="44.78375" lon="4.9929">
        <ele>364</ele>
        <time>2013-08-22T17:09:37Z</time>
      </trkpt>
      <trkpt lat="44.78377" lon="4.99291">
        <ele>364</ele>
        <time>2013-08-22T17:09:38Z</time>
      </trkpt>
      <trkpt lat="44.78379" lon="4.99291">
        <ele>364</ele>
        <time>2013-08-22T17:09:39Z</time>
      </trkpt>
      <trkpt lat="44.78381" lon="4.99293">
        <ele>364</ele>
        <time>2013-08-22T17:09:40Z</time>
      </trkpt>
      <trkpt lat="44.78383" lon="4.99295">
        <ele>364</ele>
        <time>2013-08-22T17:09:41Z</time>
      </trkpt>
      <trkpt lat="44.78385" lon="4.99296">
        <ele>364</ele>
        <time>2013-08-22T17:09:42Z</time>
      </trkpt>
      <trkpt lat="44.78387" lon="4.99298">
        <ele>364</ele>
        <time>2013-08-22T17:09:43Z</time>
      </trkpt>
      <trkpt lat="44.78389" lon="4.993">
        <ele>364</ele>
        <time>2013-08-22T17:09:44Z</time>
      </trkpt>
      <trkpt lat="44.7839" lon="4.99302">
        <ele>364</ele>
        <time>2013-08-22T17:09:45Z</time>
      </trkpt>
      <trkpt lat="44.78392" lon="4.99304">
        <ele>364</ele>
        <time>2013-08-22T17:09:46Z</time>
      </trkpt>
      <trkpt lat="44.78395" lon="4.99306">
        <ele>364</ele>
        <time>2013-08-22T17:09:47Z</time>
      </trkpt>
      <trkpt lat="44.78397" lon="4.99308">
        <ele>364</ele>
        <time>2013-08-22T17:09:48Z</time>
      </trkpt>
      <trkpt lat="44.78399" lon="4.99311">
        <ele>364</ele>
        <time>2013-08-22T17:09:49Z</time>
      </trkpt>
      <trkpt lat="44.784" lon="4.99313">
        <ele>364</ele>
        <time>2013-08-22T17:09:50Z</time>
      </trkpt>
      <trkpt lat="44.78402" lon="4.99315">
        <ele>364</ele>
        <time>2013-08-22T17:09:51Z</time>
      </trkpt>
      <trkpt lat="44.78403" lon="4.99317">
        <ele>365</ele>
        <time>2013-08-22T17:09:52Z</time>
      </trkpt>
      <trkpt lat="44.78406" lon="4.99319">
        <ele>365</ele>
        <time>2013-08-22T17:09:53Z</time>
      </trkpt>
      <trkpt lat="44.78408" lon="4.99321">
        <ele>365</ele>
        <time>2013-08-22T17:09:54Z</time>
      </trkpt>
      <trkpt lat="44.78409" lon="4.99323">
        <ele>365</ele>
        <time>2013-08-22T17:09:55Z</time>
      </trkpt>
      <trkpt lat="44.78411" lon="4.99326">
        <ele>366</ele>
        <time>2013-08-22T17:09:56Z</time>
      </trkpt>
      <trkpt lat="44.78414" lon="4.99328">
        <ele>366</ele>
        <time>2013-08-22T17:09:57Z</time>
      </trkpt>
      <trkpt lat="44.78416" lon="4.9933">
        <ele>366</ele>
        <time>2013-08-22T17:09:58Z</time>
      </trkpt>
      <trkpt lat="44.78418" lon="4.99332">
        <ele>366</ele>
        <time>2013-08-22T17:09:59Z</time>
      </trkpt>
      <trkpt lat="44.7842" lon="4.99333">
        <ele>366</ele>
        <time>2013-08-22T17:10:00Z</time>
      </trkpt>
      <trkpt lat="44.78423" lon="4.99335">
        <ele>366</ele>
        <time>2013-08-22T17:10:01Z</time>
      </trkpt>
      <trkpt lat="44.78425" lon="4.99336">
        <ele>366</ele>
        <time>2013-08-22T17:10:02Z</time>
      </trkpt>
      <trkpt lat="44.78427" lon="4.99337">
        <ele>366</ele>
        <time>2013-08-22T17:10:03Z</time>
      </trkpt>
      <trkpt lat="44.7843" lon="4.99338">
        <ele>366</ele>
        <time>2013-08-22T17:10:04Z</time>
      </trkpt>
      <trkpt lat="44.78432" lon="4.99339">
        <ele>366</ele>
        <time>2013-08-22T17:10:05Z</time>
      </trkpt>
      <trkpt lat="44.78436" lon="4.99339">
        <ele>366</ele>
        <time>2013-08-22T17:10:06Z</time>
      </trkpt>
      <trkpt lat="44.78438" lon="4.99339">
        <ele>366</ele>
        <time>2013-08-22T17:10:07Z</time>
      </trkpt>
      <trkpt lat="44.78439" lon="4.99339">
        <ele>366</ele>
        <time>2013-08-22T17:10:08Z</time>
      </trkpt>
      <trkpt lat="44.78441" lon="4.99341">
        <ele>366</ele>
        <time>2013-08-22T17:10:09Z</time>
      </trkpt>
      <trkpt lat="44.78442" lon="4.99343">
        <ele>366</ele>
        <time>2013-08-22T17:10:10Z</time>
      </trkpt>
      <trkpt lat="44.78442" lon="4.99345">
        <ele>366</ele>
        <time>2013-08-22T17:10:11Z</time>
      </trkpt>
      <trkpt lat="44.78443" lon="4.99347">
        <ele>366</ele>
        <time>2013-08-22T17:10:12Z</time>
      </trkpt>
      <trkpt lat="44.78444" lon="4.99348">
        <ele>366</ele>
        <time>2013-08-22T17:10:13Z</time>
      </trkpt>
      <trkpt lat="44.78443" lon="4.99351">
        <ele>366</ele>
        <time>2013-08-22T17:10:14Z</time>
      </trkpt>
      <trkpt lat="44.78443" lon="4.99355">
        <ele>366</ele>
        <time>2013-08-22T17:10:15Z</time>
      </trkpt>
      <trkpt lat="44.78443" lon="4.99359">
        <ele>366</ele>
        <time>2013-08-22T17:10:16Z</time>
      </trkpt>
      <trkpt lat="44.78443" lon="4.99363">
        <ele>366</ele>
        <time>2013-08-22T17:10:17Z</time>
      </trkpt>
      <trkpt lat="44.78442" lon="4.99368">
        <ele>366</ele>
        <time>2013-08-22T17:10:18Z</time>
      </trkpt>
      <trkpt lat="44.78442" lon="4.99373">
        <ele>366</ele>
        <time>2013-08-22T17:10:19Z</time>
      </trkpt>
      <trkpt lat="44.78441" lon="4.99377">
        <ele>366</ele>
        <time>2013-08-22T17:10:20Z</time>
      </trkpt>
      <trkpt lat="44.7844" lon="4.99381">
        <ele>366</ele>
        <time>2013-08-22T17:10:21Z</time>
      </trkpt>
      <trkpt lat="44.78439" lon="4.99385">
        <ele>366</ele>
        <time>2013-08-22T17:10:22Z</time>
      </trkpt>
      <trkpt lat="44.78438" lon="4.99389">
        <ele>366</ele>
        <time>2013-08-22T17:10:23Z</time>
      </trkpt>
      <trkpt lat="44.78437" lon="4.99394">
        <ele>366</ele>
        <time>2013-08-22T17:10:24Z</time>
      </trkpt>
      <trkpt lat="44.78436" lon="4.99397">
        <ele>366</ele>
        <time>2013-08-22T17:10:25Z</time>
      </trkpt>
      <trkpt lat="44.78435" lon="4.99401">
        <ele>367</ele>
        <time>2013-08-22T17:10:26Z</time>
      </trkpt>
      <trkpt lat="44.78434" lon="4.99405">
        <ele>368</ele>
        <time>2013-08-22T17:10:27Z</time>
      </trkpt>
      <trkpt lat="44.78433" lon="4.99408">
        <ele>368</ele>
        <time>2013-08-22T17:10:28Z</time>
      </trkpt>
      <trkpt lat="44.78432" lon="4.99412">
        <ele>369</ele>
        <time>2013-08-22T17:10:29Z</time>
      </trkpt>
      <trkpt lat="44.78431" lon="4.99415">
        <ele>369</ele>
        <time>2013-08-22T17:10:30Z</time>
      </trkpt>
      <trkpt lat="44.78431" lon="4.99419">
        <ele>369</ele>
        <time>2013-08-22T17:10:31Z</time>
      </trkpt>
      <trkpt lat="44.7843" lon="4.99423">
        <ele>370</ele>
        <time>2013-08-22T17:10:32Z</time>
      </trkpt>
      <trkpt lat="44.78429" lon="4.99428">
        <ele>370</ele>
        <time>2013-08-22T17:10:33Z</time>
      </trkpt>
      <trkpt lat="44.78428" lon="4.99433">
        <ele>370</ele>
        <time>2013-08-22T17:10:34Z</time>
      </trkpt>
      <trkpt lat="44.78426" lon="4.99437">
        <ele>370</ele>
        <time>2013-08-22T17:10:35Z</time>
      </trkpt>
      <trkpt lat="44.78424" lon="4.99441">
        <ele>371</ele>
        <time>2013-08-22T17:10:36Z</time>
      </trkpt>
      <trkpt lat="44.78422" lon="4.99445">
        <ele>371</ele>
        <time>2013-08-22T17:10:37Z</time>
      </trkpt>
      <trkpt lat="44.7842" lon="4.99448">
        <ele>371</ele>
        <time>2013-08-22T17:10:38Z</time>
      </trkpt>
      <trkpt lat="44.78418" lon="4.99451">
        <ele>371</ele>
        <time>2013-08-22T17:10:39Z</time>
      </trkpt>
      <trkpt lat="44.78418" lon="4.99454">
        <ele>371</ele>
        <time>2013-08-22T17:10:40Z</time>
      </trkpt>
      <trkpt lat="44.78417" lon="4.99458">
        <ele>371</ele>
        <time>2013-08-22T17:10:41Z</time>
      </trkpt>
      <trkpt lat="44.78417" lon="4.99462">
        <ele>371</ele>
        <time>2013-08-22T17:10:42Z</time>
      </trkpt>
      <trkpt lat="44.78417" lon="4.99466">
        <ele>371</ele>
        <time>2013-08-22T17:10:43Z</time>
      </trkpt>
      <trkpt lat="44.78417" lon="4.99471">
        <ele>371</ele>
        <time>2013-08-22T17:10:44Z</time>
      </trkpt>
      <trkpt lat="44.78416" lon="4.99476">
        <ele>371</ele>
        <time>2013-08-22T17:10:45Z</time>
      </trkpt>
      <trkpt lat="44.78416" lon="4.9948">
        <ele>371</ele>
        <time>2013-08-22T17:10:46Z</time>
      </trkpt>
      <trkpt lat="44.78415" lon="4.99484">
        <ele>370</ele>
        <time>2013-08-22T17:10:47Z</time>
      </trkpt>
      <trkpt lat="44.78414" lon="4.99488">
        <ele>369</ele>
        <time>2013-08-22T17:10:48Z</time>
      </trkpt>
      <trkpt lat="44.78414" lon="4.99492">
        <ele>368</ele>
        <time>2013-08-22T17:10:49Z</time>
      </trkpt>
      <trkpt lat="44.78414" lon="4.99497">
        <ele>367</ele>
        <time>2013-08-22T17:10:50Z</time>
      </trkpt>
      <trkpt lat="44.78413" lon="4.99502">
        <ele>367</ele>
        <time>2013-08-22T17:10:51Z</time>
      </trkpt>
      <trkpt lat="44.78413" lon="4.99507">
        <ele>366</ele>
        <time>2013-08-22T17:10:52Z</time>
      </trkpt>
      <trkpt lat="44.78413" lon="4.99511">
        <ele>366</ele>
        <time>2013-08-22T17:10:53Z</time>
      </trkpt>
      <trkpt lat="44.78412" lon="4.99515">
        <ele>366</ele>
        <time>2013-08-22T17:10:54Z</time>
      </trkpt>
      <trkpt lat="44.78411" lon="4.99519">
        <ele>366</ele>
        <time>2013-08-22T17:10:55Z</time>
      </trkpt>
      <trkpt lat="44.7841" lon="4.99523">
        <ele>366</ele>
        <time>2013-08-22T17:10:56Z</time>
      </trkpt>
      <trkpt lat="44.78408" lon="4.99527">
        <ele>366</ele>
        <time>2013-08-22T17:10:57Z</time>
      </trkpt>
      <trkpt lat="44.78407" lon="4.99531">
        <ele>366</ele>
        <time>2013-08-22T17:10:58Z</time>
      </trkpt>
      <trkpt lat="44.78406" lon="4.99535">
        <ele>366</ele>
        <time>2013-08-22T17:10:59Z</time>
      </trkpt>
      <trkpt lat="44.78406" lon="4.99538">
        <ele>366</ele>
        <time>2013-08-22T17:11:00Z</time>
      </trkpt>
      <trkpt lat="44.78405" lon="4.99542">
        <ele>366</ele>
        <time>2013-08-22T17:11:01Z</time>
      </trkpt>
      <trkpt lat="44.78405" lon="4.99546">
        <ele>366</ele>
        <time>2013-08-22T17:11:02Z</time>
      </trkpt>
      <trkpt lat="44.78403" lon="4.9955">
        <ele>366</ele>
        <time>2013-08-22T17:11:03Z</time>
      </trkpt>
      <trkpt lat="44.78402" lon="4.99554">
        <ele>366</ele>
        <time>2013-08-22T17:11:04Z</time>
      </trkpt>
      <trkpt lat="44.784" lon="4.99557">
        <ele>366</ele>
        <time>2013-08-22T17:11:05Z</time>
      </trkpt>
      <trkpt lat="44.78399" lon="4.9956">
        <ele>366</ele>
        <time>2013-08-22T17:11:06Z</time>
      </trkpt>
      <trkpt lat="44.78398" lon="4.99564">
        <ele>366</ele>
        <time>2013-08-22T17:11:07Z</time>
      </trkpt>
      <trkpt lat="44.78397" lon="4.99568">
        <ele>366</ele>
        <time>2013-08-22T17:11:08Z</time>
      </trkpt>
      <trkpt lat="44.78396" lon="4.99573">
        <ele>366</ele>
        <time>2013-08-22T17:11:09Z</time>
      </trkpt>
      <trkpt lat="44.78395" lon="4.99577">
        <ele>366</ele>
        <time>2013-08-22T17:11:10Z</time>
      </trkpt>
      <trkpt lat="44.78394" lon="4.99581">
        <ele>366</ele>
        <time>2013-08-22T17:11:11Z</time>
      </trkpt>
      <trkpt lat="44.78393" lon="4.99585">
        <ele>366</ele>
        <time>2013-08-22T17:11:12Z</time>
      </trkpt>
      <trkpt lat="44.78392" lon="4.99588">
        <ele>366</ele>
        <time>2013-08-22T17:11:13Z</time>
      </trkpt>
      <trkpt lat="44.78392" lon="4.99592">
        <ele>366</ele>
        <time>2013-08-22T17:11:14Z</time>
      </trkpt>
      <trkpt lat="44.78392" lon="4.99595">
        <ele>366</ele>
        <time>2013-08-22T17:11:15Z</time>
      </trkpt>
      <trkpt lat="44.78391" lon="4.99599">
        <ele>366</ele>
        <time>2013-08-22T17:11:16Z</time>
      </trkpt>
      <trkpt lat="44.78391" lon="4.99603">
        <ele>366</ele>
        <time>2013-08-22T17:11:17Z</time>
      </trkpt>
      <trkpt lat="44.78391" lon="4.99607">
        <ele>366</ele>
        <time>2013-08-22T17:11:18Z</time>
      </trkpt>
      <trkpt lat="44.78392" lon="4.99609">
        <ele>366</ele>
        <time>2013-08-22T17:11:19Z</time>
      </trkpt>
      <trkpt lat="44.78393" lon="4.99609">
        <ele>366</ele>
        <time>2013-08-22T17:11:20Z</time>
      </trkpt>
      <trkpt lat="44.78395" lon="4.99608">
        <ele>366</ele>
        <time>2013-08-22T17:11:21Z</time>
      </trkpt>
      <trkpt lat="44.78397" lon="4.99608">
        <ele>366</ele>
        <time>2013-08-22T17:11:22Z</time>
      </trkpt>
      <trkpt lat="44.78399" lon="4.99607">
        <ele>366</ele>
        <time>2013-08-22T17:11:23Z</time>
      </trkpt>
      <trkpt lat="44.78401" lon="4.99606">
        <ele>365</ele>
        <time>2013-08-22T17:11:24Z</time>
      </trkpt>
      <trkpt lat="44.78404" lon="4.99605">
        <ele>365</ele>
        <time>2013-08-22T17:11:25Z</time>
      </trkpt>
      <trkpt lat="44.78407" lon="4.99605">
        <ele>364</ele>
        <time>2013-08-22T17:11:26Z</time>
      </trkpt>
      <trkpt lat="44.78408" lon="4.99605">
        <ele>363</ele>
        <time>2013-08-22T17:11:27Z</time>
      </trkpt>
      <trkpt lat="44.78411" lon="4.99606">
        <ele>362</ele>
        <time>2013-08-22T17:11:28Z</time>
      </trkpt>
      <trkpt lat="44.78413" lon="4.99607">
        <ele>361</ele>
        <time>2013-08-22T17:11:29Z</time>
      </trkpt>
      <trkpt lat="44.78415" lon="4.99607">
        <ele>360</ele>
        <time>2013-08-22T17:11:30Z</time>
      </trkpt>
      <trkpt lat="44.78416" lon="4.99607">
        <ele>359</ele>
        <time>2013-08-22T17:11:31Z</time>
      </trkpt>
      <trkpt lat="44.78418" lon="4.99608">
        <ele>359</ele>
        <time>2013-08-22T17:11:32Z</time>
      </trkpt>
      <trkpt lat="44.7842" lon="4.99608">
        <ele>358</ele>
        <time>2013-08-22T17:11:33Z</time>
      </trkpt>
      <trkpt lat="44.78422" lon="4.99608">
        <ele>357</ele>
        <time>2013-08-22T17:11:34Z</time>
      </trkpt>
      <trkpt lat="44.78424" lon="4.99609">
        <ele>356</ele>
        <time>2013-08-22T17:11:35Z</time>
      </trkpt>
      <trkpt lat="44.78427" lon="4.9961">
        <ele>355</ele>
        <time>2013-08-22T17:11:36Z</time>
      </trkpt>
      <trkpt lat="44.78429" lon="4.99612">
        <ele>354</ele>
        <time>2013-08-22T17:11:37Z</time>
      </trkpt>
      <trkpt lat="44.78432" lon="4.99614">
        <ele>353</ele>
        <time>2013-08-22T17:11:38Z</time>
      </trkpt>
      <trkpt lat="44.78435" lon="4.99616">
        <ele>352</ele>
        <time>2013-08-22T17:11:39Z</time>
      </trkpt>
      <trkpt lat="44.78437" lon="4.99619">
        <ele>351</ele>
        <time>2013-08-22T17:11:40Z</time>
      </trkpt>
      <trkpt lat="44.78439" lon="4.99622">
        <ele>350</ele>
        <time>2013-08-22T17:11:41Z</time>
      </trkpt>
      <trkpt lat="44.78441" lon="4.99625">
        <ele>349</ele>
        <time>2013-08-22T17:11:42Z</time>
      </trkpt>
      <trkpt lat="44.78442" lon="4.99627">
        <ele>348</ele>
        <time>2013-08-22T17:11:43Z</time>
      </trkpt>
      <trkpt lat="44.78443" lon="4.9963">
        <ele>347</ele>
        <time>2013-08-22T17:11:44Z</time>
      </trkpt>
      <trkpt lat="44.78445" lon="4.99633">
        <ele>347</ele>
        <time>2013-08-22T17:11:45Z</time>
      </trkpt>
      <trkpt lat="44.78446" lon="4.99634">
        <ele>347</ele>
        <time>2013-08-22T17:11:46Z</time>
      </trkpt>
      <trkpt lat="44.78448" lon="4.99636">
        <ele>347</ele>
        <time>2013-08-22T17:11:47Z</time>
      </trkpt>
      <trkpt lat="44.7845" lon="4.99638">
        <ele>347</ele>
        <time>2013-08-22T17:11:48Z</time>
      </trkpt>
      <trkpt lat="44.78451" lon="4.9964">
        <ele>346</ele>
        <time>2013-08-22T17:11:49Z</time>
      </trkpt>
      <trkpt lat="44.78452" lon="4.99643">
        <ele>346</ele>
        <time>2013-08-22T17:11:50Z</time>
      </trkpt>
      <trkpt lat="44.78454" lon="4.99644">
        <ele>346</ele>
        <time>2013-08-22T17:11:51Z</time>
      </trkpt>
      <trkpt lat="44.78457" lon="4.99644">
        <ele>345</ele>
        <time>2013-08-22T17:11:52Z</time>
      </trkpt>
      <trkpt lat="44.7846" lon="4.99644">
        <ele>345</ele>
        <time>2013-08-22T17:11:53Z</time>
      </trkpt>
      <trkpt lat="44.78463" lon="4.99644">
        <ele>344</ele>
        <time>2013-08-22T17:11:54Z</time>
      </trkpt>
      <trkpt lat="44.78466" lon="4.99643">
        <ele>343</ele>
        <time>2013-08-22T17:11:55Z</time>
      </trkpt>
      <trkpt lat="44.7847" lon="4.99642">
        <ele>342</ele>
        <time>2013-08-22T17:11:56Z</time>
      </trkpt>
      <trkpt lat="44.78472" lon="4.99641">
        <ele>341</ele>
        <time>2013-08-22T17:11:57Z</time>
      </trkpt>
      <trkpt lat="44.78475" lon="4.9964">
        <ele>340</ele>
        <time>2013-08-22T17:11:58Z</time>
      </trkpt>
      <trkpt lat="44.78477" lon="4.99638">
        <ele>339</ele>
        <time>2013-08-22T17:11:59Z</time>
      </trkpt>
      <trkpt lat="44.7848" lon="4.99635">
        <ele>338</ele>
        <time>2013-08-22T17:12:00Z</time>
      </trkpt>
      <trkpt lat="44.78482" lon="4.99633">
        <ele>337</ele>
        <time>2013-08-22T17:12:01Z</time>
      </trkpt>
      <trkpt lat="44.78484" lon="4.99631">
        <ele>337</ele>
        <time>2013-08-22T17:12:02Z</time>
      </trkpt>
      <trkpt lat="44.78486" lon="4.99629">
        <ele>336</ele>
        <time>2013-08-22T17:12:03Z</time>
      </trkpt>
      <trkpt lat="44.78488" lon="4.99626">
        <ele>335</ele>
        <time>2013-08-22T17:12:04Z</time>
      </trkpt>
      <trkpt lat="44.7849" lon="4.99624">
        <ele>334</ele>
        <time>2013-08-22T17:12:05Z</time>
      </trkpt>
      <trkpt lat="44.78492" lon="4.99622">
        <ele>333</ele>
        <time>2013-08-22T17:12:06Z</time>
      </trkpt>
      <trkpt lat="44.78494" lon="4.99619">
        <ele>333</ele>
        <time>2013-08-22T17:12:07Z</time>
      </trkpt>
      <trkpt lat="44.78496" lon="4.99617">
        <ele>332</ele>
        <time>2013-08-22T17:12:08Z</time>
      </trkpt>
      <trkpt lat="44.78498" lon="4.99615">
        <ele>332</ele>
        <time>2013-08-22T17:12:09Z</time>
      </trkpt>
      <trkpt lat="44.78501" lon="4.99613">
        <ele>331</ele>
        <time>2013-08-22T17:12:10Z</time>
      </trkpt>
      <trkpt lat="44.78503" lon="4.99612">
        <ele>331</ele>
        <time>2013-08-22T17:12:11Z</time>
      </trkpt>
      <trkpt lat="44.78506" lon="4.9961">
        <ele>330</ele>
        <time>2013-08-22T17:12:12Z</time>
      </trkpt>
      <trkpt lat="44.78508" lon="4.9961">
        <ele>330</ele>
        <time>2013-08-22T17:12:13Z</time>
      </trkpt>
      <trkpt lat="44.78511" lon="4.99609">
        <ele>329</ele>
        <time>2013-08-22T17:12:14Z</time>
      </trkpt>
      <trkpt lat="44.78514" lon="4.9961">
        <ele>328</ele>
        <time>2013-08-22T17:12:15Z</time>
      </trkpt>
      <trkpt lat="44.78517" lon="4.99612">
        <ele>328</ele>
        <time>2013-08-22T17:12:16Z</time>
      </trkpt>
      <trkpt lat="44.7852" lon="4.99613">
        <ele>327</ele>
        <time>2013-08-22T17:12:17Z</time>
      </trkpt>
      <trkpt lat="44.78524" lon="4.99614">
        <ele>326</ele>
        <time>2013-08-22T17:12:18Z</time>
      </trkpt>
      <trkpt lat="44.78527" lon="4.99613">
        <ele>326</ele>
        <time>2013-08-22T17:12:19Z</time>
      </trkpt>
      <trkpt lat="44.78531" lon="4.9961">
        <ele>325</ele>
        <time>2013-08-22T17:12:20Z</time>
      </trkpt>
      <trkpt lat="44.78533" lon="4.99608">
        <ele>325</ele>
        <time>2013-08-22T17:12:21Z</time>
      </trkpt>
      <trkpt lat="44.78535" lon="4.99605">
        <ele>324</ele>
        <time>2013-08-22T17:12:22Z</time>
      </trkpt>
      <trkpt lat="44.78537" lon="4.99603">
        <ele>324</ele>
        <time>2013-08-22T17:12:23Z</time>
      </trkpt>
      <trkpt lat="44.7854" lon="4.99602">
        <ele>324</ele>
        <time>2013-08-22T17:12:24Z</time>
      </trkpt>
      <trkpt lat="44.78541" lon="4.99601">
        <ele>323</ele>
        <time>2013-08-22T17:12:25Z</time>
      </trkpt>
      <trkpt lat="44.78544" lon="4.99599">
        <ele>323</ele>
        <time>2013-08-22T17:12:26Z</time>
      </trkpt>
      <trkpt lat="44.78546" lon="4.99598">
        <ele>323</ele>
        <time>2013-08-22T17:12:27Z</time>
      </trkpt>
      <trkpt lat="44.78549" lon="4.99596">
        <ele>323</ele>
        <time>2013-08-22T17:12:28Z</time>
      </trkpt>
      <trkpt lat="44.78551" lon="4.99594">
        <ele>323</ele>
        <time>2013-08-22T17:12:29Z</time>
      </trkpt>
      <trkpt lat="44.78553" lon="4.99592">
        <ele>322</ele>
        <time>2013-08-22T17:12:30Z</time>
      </trkpt>
      <trkpt lat="44.78555" lon="4.9959">
        <ele>322</ele>
        <time>2013-08-22T17:12:31Z</time>
      </trkpt>
      <trkpt lat="44.78558" lon="4.99588">
        <ele>322</ele>
        <time>2013-08-22T17:12:32Z</time>
      </trkpt>
      <trkpt lat="44.7856" lon="4.99585">
        <ele>322</ele>
        <time>2013-08-22T17:12:33Z</time>
      </trkpt>
      <trkpt lat="44.78562" lon="4.99583">
        <ele>322</ele>
        <time>2013-08-22T17:12:34Z</time>
      </trkpt>
      <trkpt lat="44.78564" lon="4.99581">
        <ele>322</ele>
        <time>2013-08-22T17:12:35Z</time>
      </trkpt>
      <trkpt lat="44.78567" lon="4.99579">
        <ele>322</ele>
        <time>2013-08-22T17:12:36Z</time>
      </trkpt>
      <trkpt lat="44.78569" lon="4.99576">
        <ele>321</ele>
        <time>2013-08-22T17:12:37Z</time>
      </trkpt>
      <trkpt lat="44.78571" lon="4.99573">
        <ele>321</ele>
        <time>2013-08-22T17:12:38Z</time>
      </trkpt>
      <trkpt lat="44.78573" lon="4.9957">
        <ele>321</ele>
        <time>2013-08-22T17:12:39Z</time>
      </trkpt>
      <trkpt lat="44.78575" lon="4.99567">
        <ele>321</ele>
        <time>2013-08-22T17:12:40Z</time>
      </trkpt>
      <trkpt lat="44.78577" lon="4.99564">
        <ele>321</ele>
        <time>2013-08-22T17:12:41Z</time>
      </trkpt>
      <trkpt lat="44.78579" lon="4.99562">
        <ele>321</ele>
        <time>2013-08-22T17:12:42Z</time>
      </trkpt>
      <trkpt lat="44.7858" lon="4.99558">
        <ele>321</ele>
        <time>2013-08-22T17:12:43Z</time>
      </trkpt>
      <trkpt lat="44.78583" lon="4.99556">
        <ele>321</ele>
        <time>2013-08-22T17:12:44Z</time>
      </trkpt>
      <trkpt lat="44.78586" lon="4.99555">
        <ele>321</ele>
        <time>2013-08-22T17:12:45Z</time>
      </trkpt>
      <trkpt lat="44.78589" lon="4.99552">
        <ele>321</ele>
        <time>2013-08-22T17:12:46Z</time>
      </trkpt>
      <trkpt lat="44.78592" lon="4.9955">
        <ele>321</ele>
        <time>2013-08-22T17:12:47Z</time>
      </trkpt>
      <trkpt lat="44.78595" lon="4.99547">
        <ele>321</ele>
        <time>2013-08-22T17:12:48Z</time>
      </trkpt>
      <trkpt lat="44.78598" lon="4.99544">
        <ele>321</ele>
        <time>2013-08-22T17:12:49Z</time>
      </trkpt>
      <trkpt lat="44.78602" lon="4.99541">
        <ele>321</ele>
        <time>2013-08-22T17:12:50Z</time>
      </trkpt>
      <trkpt lat="44.78605" lon="4.99537">
        <ele>321</ele>
        <time>2013-08-22T17:12:51Z</time>
      </trkpt>
      <trkpt lat="44.78607" lon="4.99533">
        <ele>321</ele>
        <time>2013-08-22T17:12:52Z</time>
      </trkpt>
      <trkpt lat="44.78609" lon="4.9953">
        <ele>321</ele>
        <time>2013-08-22T17:12:53Z</time>
      </trkpt>
      <trkpt lat="44.78612" lon="4.99526">
        <ele>321</ele>
        <time>2013-08-22T17:12:54Z</time>
      </trkpt>
      <trkpt lat="44.78614" lon="4.99523">
        <ele>321</ele>
        <time>2013-08-22T17:12:55Z</time>
      </trkpt>
      <trkpt lat="44.78617" lon="4.9952">
        <ele>321</ele>
        <time>2013-08-22T17:12:56Z</time>
      </trkpt>
      <trkpt lat="44.78619" lon="4.99518">
        <ele>321</ele>
        <time>2013-08-22T17:12:57Z</time>
      </trkpt>
      <trkpt lat="44.78622" lon="4.99515">
        <ele>321</ele>
        <time>2013-08-22T17:12:58Z</time>
      </trkpt>
      <trkpt lat="44.78624" lon="4.99511">
        <ele>322</ele>
        <time>2013-08-22T17:12:59Z</time>
      </trkpt>
      <trkpt lat="44.78626" lon="4.99508">
        <ele>323</ele>
        <time>2013-08-22T17:13:00Z</time>
      </trkpt>
      <trkpt lat="44.78628" lon="4.99506">
        <ele>323</ele>
        <time>2013-08-22T17:13:01Z</time>
      </trkpt>
      <trkpt lat="44.78629" lon="4.99503">
        <ele>323</ele>
        <time>2013-08-22T17:13:02Z</time>
      </trkpt>
      <trkpt lat="44.78631" lon="4.995">
        <ele>323</ele>
        <time>2013-08-22T17:13:03Z</time>
      </trkpt>
      <trkpt lat="44.78632" lon="4.99496">
        <ele>323</ele>
        <time>2013-08-22T17:13:04Z</time>
      </trkpt>
      <trkpt lat="44.78635" lon="4.99493">
        <ele>323</ele>
        <time>2013-08-22T17:13:05Z</time>
      </trkpt>
      <trkpt lat="44.78637" lon="4.99489">
        <ele>323</ele>
        <time>2013-08-22T17:13:06Z</time>
      </trkpt>
      <trkpt lat="44.78639" lon="4.99485">
        <ele>323</ele>
        <time>2013-08-22T17:13:07Z</time>
      </trkpt>
      <trkpt lat="44.78641" lon="4.99481">
        <ele>323</ele>
        <time>2013-08-22T17:13:08Z</time>
      </trkpt>
      <trkpt lat="44.78643" lon="4.99477">
        <ele>323</ele>
        <time>2013-08-22T17:13:09Z</time>
      </trkpt>
      <trkpt lat="44.78645" lon="4.99474">
        <ele>323</ele>
        <time>2013-08-22T17:13:10Z</time>
      </trkpt>
      <trkpt lat="44.78647" lon="4.99471">
        <ele>323</ele>
        <time>2013-08-22T17:13:11Z</time>
      </trkpt>
      <trkpt lat="44.78649" lon="4.99468">
        <ele>323</ele>
        <time>2013-08-22T17:13:12Z</time>
      </trkpt>
      <trkpt lat="44.78651" lon="4.99465">
        <ele>323</ele>
        <time>2013-08-22T17:13:13Z</time>
      </trkpt>
      <trkpt lat="44.78653" lon="4.99461">
        <ele>323</ele>
        <time>2013-08-22T17:13:14Z</time>
      </trkpt>
      <trkpt lat="44.78655" lon="4.99458">
        <ele>323</ele>
        <time>2013-08-22T17:13:15Z</time>
      </trkpt>
      <trkpt lat="44.78657" lon="4.99454">
        <ele>323</ele>
        <time>2013-08-22T17:13:16Z</time>
      </trkpt>
      <trkpt lat="44.78659" lon="4.9945">
        <ele>323</ele>
        <time>2013-08-22T17:13:17Z</time>
      </trkpt>
      <trkpt lat="44.7866" lon="4.99446">
        <ele>323</ele>
        <time>2013-08-22T17:13:18Z</time>
      </trkpt>
      <trkpt lat="44.78661" lon="4.99442">
        <ele>323</ele>
        <time>2013-08-22T17:13:19Z</time>
      </trkpt>
      <trkpt lat="44.78661" lon="4.99438">
        <ele>323</ele>
        <time>2013-08-22T17:13:20Z</time>
      </trkpt>
      <trkpt lat="44.78662" lon="4.99434">
        <ele>323</ele>
        <time>2013-08-22T17:13:21Z</time>
      </trkpt>
      <trkpt lat="44.78662" lon="4.9943">
        <ele>323</ele>
        <time>2013-08-22T17:13:22Z</time>
      </trkpt>
      <trkpt lat="44.78662" lon="4.99426">
        <ele>323</ele>
        <time>2013-08-22T17:13:23Z</time>
      </trkpt>
      <trkpt lat="44.78663" lon="4.99423">
        <ele>323</ele>
        <time>2013-08-22T17:13:24Z</time>
      </trkpt>
      <trkpt lat="44.78664" lon="4.99419">
        <ele>323</ele>
        <time>2013-08-22T17:13:25Z</time>
      </trkpt>
      <trkpt lat="44.78664" lon="4.99415">
        <ele>323</ele>
        <time>2013-08-22T17:13:26Z</time>
      </trkpt>
      <trkpt lat="44.78664" lon="4.99411">
        <ele>323</ele>
        <time>2013-08-22T17:13:27Z</time>
      </trkpt>
      <trkpt lat="44.78664" lon="4.99407">
        <ele>323</ele>
        <time>2013-08-22T17:13:28Z</time>
      </trkpt>
      <trkpt lat="44.78665" lon="4.99403">
        <ele>323</ele>
        <time>2013-08-22T17:13:29Z</time>
      </trkpt>
      <trkpt lat="44.78666" lon="4.99398">
        <ele>323</ele>
        <time>2013-08-22T17:13:30Z</time>
      </trkpt>
      <trkpt lat="44.78667" lon="4.99393">
        <ele>323</ele>
        <time>2013-08-22T17:13:31Z</time>
      </trkpt>
      <trkpt lat="44.78668" lon="4.99388">
        <ele>323</ele>
        <time>2013-08-22T17:13:32Z</time>
      </trkpt>
      <trkpt lat="44.78669" lon="4.99384">
        <ele>323</ele>
        <time>2013-08-22T17:13:33Z</time>
      </trkpt>
      <trkpt lat="44.7867" lon="4.9938">
        <ele>323</ele>
        <time>2013-08-22T17:13:34Z</time>
      </trkpt>
      <trkpt lat="44.78672" lon="4.99377">
        <ele>323</ele>
        <time>2013-08-22T17:13:35Z</time>
      </trkpt>
      <trkpt lat="44.78673" lon="4.99373">
        <ele>323</ele>
        <time>2013-08-22T17:13:36Z</time>
      </trkpt>
      <trkpt lat="44.78675" lon="4.99369">
        <ele>323</ele>
        <time>2013-08-22T17:13:37Z</time>
      </trkpt>
      <trkpt lat="44.78676" lon="4.99367">
        <ele>323</ele>
        <time>2013-08-22T17:13:38Z</time>
      </trkpt>
      <trkpt lat="44.78678" lon="4.99364">
        <ele>323</ele>
        <time>2013-08-22T17:13:39Z</time>
      </trkpt>
      <trkpt lat="44.7868" lon="4.9936">
        <ele>323</ele>
        <time>2013-08-22T17:13:40Z</time>
      </trkpt>
      <trkpt lat="44.78681" lon="4.99356">
        <ele>322</ele>
        <time>2013-08-22T17:13:41Z</time>
      </trkpt>
      <trkpt lat="44.78682" lon="4.99353">
        <ele>321</ele>
        <time>2013-08-22T17:13:42Z</time>
      </trkpt>
      <trkpt lat="44.78684" lon="4.9935">
        <ele>321</ele>
        <time>2013-08-22T17:13:43Z</time>
      </trkpt>
      <trkpt lat="44.78686" lon="4.99347">
        <ele>320</ele>
        <time>2013-08-22T17:13:44Z</time>
      </trkpt>
      <trkpt lat="44.78688" lon="4.99344">
        <ele>320</ele>
        <time>2013-08-22T17:13:45Z</time>
      </trkpt>
      <trkpt lat="44.7869" lon="4.99342">
        <ele>319</ele>
        <time>2013-08-22T17:13:46Z</time>
      </trkpt>
      <trkpt lat="44.78691" lon="4.99339">
        <ele>319</ele>
        <time>2013-08-22T17:13:47Z</time>
      </trkpt>
      <trkpt lat="44.78693" lon="4.99336">
        <ele>318</ele>
        <time>2013-08-22T17:13:48Z</time>
      </trkpt>
      <trkpt lat="44.78694" lon="4.99333">
        <ele>318</ele>
        <time>2013-08-22T17:13:49Z</time>
      </trkpt>
      <trkpt lat="44.78696" lon="4.9933">
        <ele>318</ele>
        <time>2013-08-22T17:13:50Z</time>
      </trkpt>
      <trkpt lat="44.78698" lon="4.99327">
        <ele>318</ele>
        <time>2013-08-22T17:13:51Z</time>
      </trkpt>
      <trkpt lat="44.787" lon="4.99324">
        <ele>317</ele>
        <time>2013-08-22T17:13:52Z</time>
      </trkpt>
      <trkpt lat="44.78701" lon="4.99322">
        <ele>317</ele>
        <time>2013-08-22T17:13:53Z</time>
      </trkpt>
      <trkpt lat="44.78702" lon="4.99318">
        <ele>316</ele>
        <time>2013-08-22T17:13:54Z</time>
      </trkpt>
      <trkpt lat="44.78702" lon="4.99313">
        <ele>316</ele>
        <time>2013-08-22T17:13:55Z</time>
      </trkpt>
      <trkpt lat="44.78702" lon="4.99309">
        <ele>316</ele>
        <time>2013-08-22T17:13:56Z</time>
      </trkpt>
      <trkpt lat="44.78704" lon="4.99307">
        <ele>315</ele>
        <time>2013-08-22T17:13:57Z</time>
      </trkpt>
      <trkpt lat="44.78704" lon="4.99303">
        <ele>315</ele>
        <time>2013-08-22T17:13:58Z</time>
      </trkpt>
      <trkpt lat="44.78705" lon="4.993">
        <ele>315</ele>
        <time>2013-08-22T17:13:59Z</time>
      </trkpt>
      <trkpt lat="44.78706" lon="4.99298">
        <ele>315</ele>
        <time>2013-08-22T17:14:00Z</time>
      </trkpt>
      <trkpt lat="44.78707" lon="4.99295">
        <ele>315</ele>
        <time>2013-08-22T17:14:01Z</time>
      </trkpt>
      <trkpt lat="44.78709" lon="4.99292">
        <ele>315</ele>
        <time>2013-08-22T17:14:02Z</time>
      </trkpt>
      <trkpt lat="44.78711" lon="4.9929">
        <ele>315</ele>
        <time>2013-08-22T17:14:03Z</time>
      </trkpt>
      <trkpt lat="44.78713" lon="4.99288">
        <ele>315</ele>
        <time>2013-08-22T17:14:04Z</time>
      </trkpt>
      <trkpt lat="44.78716" lon="4.99286">
        <ele>315</ele>
        <time>2013-08-22T17:14:05Z</time>
      </trkpt>
      <trkpt lat="44.78718" lon="4.99285">
        <ele>315</ele>
        <time>2013-08-22T17:14:06Z</time>
      </trkpt>
      <trkpt lat="44.7872" lon="4.99283">
        <ele>315</ele>
        <time>2013-08-22T17:14:07Z</time>
      </trkpt>
      <trkpt lat="44.78722" lon="4.9928">
        <ele>315</ele>
        <time>2013-08-22T17:14:08Z</time>
      </trkpt>
      <trkpt lat="44.78724" lon="4.99277">
        <ele>315</ele>
        <time>2013-08-22T17:14:09Z</time>
      </trkpt>
      <trkpt lat="44.78725" lon="4.99274">
        <ele>315</ele>
        <time>2013-08-22T17:14:10Z</time>
      </trkpt>
      <trkpt lat="44.78727" lon="4.9927">
        <ele>315</ele>
        <time>2013-08-22T17:14:11Z</time>
      </trkpt>
      <trkpt lat="44.78729" lon="4.99267">
        <ele>315</ele>
        <time>2013-08-22T17:14:12Z</time>
      </trkpt>
      <trkpt lat="44.7873" lon="4.99266">
        <ele>315</ele>
        <time>2013-08-22T17:14:13Z</time>
      </trkpt>
      <trkpt lat="44.78731" lon="4.99264">
        <ele>318</ele>
        <time>2013-08-22T17:14:17Z</time>
      </trkpt>
      <trkpt lat="44.78732" lon="4.99262">
        <ele>323</ele>
        <time>2013-08-22T17:14:23Z</time>
      </trkpt>
      <trkpt lat="44.78734" lon="4.9926">
        <ele>323</ele>
        <time>2013-08-22T17:14:25Z</time>
      </trkpt>
      <trkpt lat="44.78736" lon="4.99258">
        <ele>324</ele>
        <time>2013-08-22T17:14:27Z</time>
      </trkpt>
      <trkpt lat="44.78738" lon="4.99256">
        <ele>325</ele>
        <time>2013-08-22T17:14:29Z</time>
      </trkpt>
      <trkpt lat="44.7874" lon="4.99256">
        <ele>325</ele>
        <time>2013-08-22T17:14:30Z</time>
      </trkpt>
      <trkpt lat="44.78741" lon="4.99258">
        <ele>325</ele>
        <time>2013-08-22T17:14:31Z</time>
      </trkpt>
      <trkpt lat="44.78743" lon="4.9926">
        <ele>325</ele>
        <time>2013-08-22T17:14:32Z</time>
      </trkpt>
      <trkpt lat="44.78745" lon="4.99262">
        <ele>325</ele>
        <time>2013-08-22T17:14:33Z</time>
      </trkpt>
      <trkpt lat="44.78748" lon="4.99264">
        <ele>325</ele>
        <time>2013-08-22T17:14:34Z</time>
      </trkpt>
      <trkpt lat="44.7875" lon="4.99265">
        <ele>325</ele>
        <time>2013-08-22T17:14:35Z</time>
      </trkpt>
      <trkpt lat="44.78752" lon="4.99266">
        <ele>325</ele>
        <time>2013-08-22T17:14:36Z</time>
      </trkpt>
      <trkpt lat="44.78755" lon="4.99268">
        <ele>325</ele>
        <time>2013-08-22T17:14:37Z</time>
      </trkpt>
      <trkpt lat="44.78757" lon="4.99269">
        <ele>325</ele>
        <time>2013-08-22T17:14:38Z</time>
      </trkpt>
      <trkpt lat="44.7876" lon="4.9927">
        <ele>325</ele>
        <time>2013-08-22T17:14:39Z</time>
      </trkpt>
      <trkpt lat="44.78763" lon="4.99272">
        <ele>325</ele>
        <time>2013-08-22T17:14:40Z</time>
      </trkpt>
      <trkpt lat="44.78765" lon="4.99275">
        <ele>325</ele>
        <time>2013-08-22T17:14:41Z</time>
      </trkpt>
      <trkpt lat="44.78765" lon="4.99278">
        <ele>325</ele>
        <time>2013-08-22T17:14:42Z</time>
      </trkpt>
      <trkpt lat="44.78766" lon="4.99281">
        <ele>325</ele>
        <time>2013-08-22T17:14:43Z</time>
      </trkpt>
      <trkpt lat="44.78768" lon="4.99284">
        <ele>325</ele>
        <time>2013-08-22T17:14:44Z</time>
      </trkpt>
      <trkpt lat="44.7877" lon="4.99286">
        <ele>325</ele>
        <time>2013-08-22T17:14:45Z</time>
      </trkpt>
      <trkpt lat="44.78771" lon="4.99289">
        <ele>325</ele>
        <time>2013-08-22T17:14:46Z</time>
      </trkpt>
      <trkpt lat="44.78772" lon="4.99292">
        <ele>324</ele>
        <time>2013-08-22T17:14:47Z</time>
      </trkpt>
      <trkpt lat="44.78772" lon="4.99297">
        <ele>324</ele>
        <time>2013-08-22T17:14:48Z</time>
      </trkpt>
      <trkpt lat="44.78772" lon="4.993">
        <ele>323</ele>
        <time>2013-08-22T17:14:49Z</time>
      </trkpt>
      <trkpt lat="44.78771" lon="4.99305">
        <ele>323</ele>
        <time>2013-08-22T17:14:50Z</time>
      </trkpt>
      <trkpt lat="44.7877" lon="4.9931">
        <ele>323</ele>
        <time>2013-08-22T17:14:51Z</time>
      </trkpt>
      <trkpt lat="44.7877" lon="4.99314">
        <ele>323</ele>
        <time>2013-08-22T17:14:52Z</time>
      </trkpt>
      <trkpt lat="44.7877" lon="4.99317">
        <ele>322</ele>
        <time>2013-08-22T17:14:53Z</time>
      </trkpt>
      <trkpt lat="44.7877" lon="4.9932">
        <ele>322</ele>
        <time>2013-08-22T17:14:54Z</time>
      </trkpt>
      <trkpt lat="44.7877" lon="4.99324">
        <ele>322</ele>
        <time>2013-08-22T17:14:55Z</time>
      </trkpt>
      <trkpt lat="44.7877" lon="4.99329">
        <ele>322</ele>
        <time>2013-08-22T17:14:56Z</time>
      </trkpt>
      <trkpt lat="44.78772" lon="4.99333">
        <ele>322</ele>
        <time>2013-08-22T17:14:57Z</time>
      </trkpt>
      <trkpt lat="44.78773" lon="4.99337">
        <ele>322</ele>
        <time>2013-08-22T17:14:58Z</time>
      </trkpt>
      <trkpt lat="44.78775" lon="4.99341">
        <ele>322</ele>
        <time>2013-08-22T17:14:59Z</time>
      </trkpt>
      <trkpt lat="44.78777" lon="4.99346">
        <ele>322</ele>
        <time>2013-08-22T17:15:00Z</time>
      </trkpt>
      <trkpt lat="44.78778" lon="4.9935">
        <ele>322</ele>
        <time>2013-08-22T17:15:01Z</time>
      </trkpt>
      <trkpt lat="44.78779" lon="4.99355">
        <ele>322</ele>
        <time>2013-08-22T17:15:03Z</time>
      </trkpt>
      <trkpt lat="44.7878" lon="4.9936">
        <ele>322</ele>
        <time>2013-08-22T17:15:03Z</time>
      </trkpt>
      <trkpt lat="44.7878" lon="4.99363">
        <ele>322</ele>
        <time>2013-08-22T17:15:04Z</time>
      </trkpt>
      <trkpt lat="44.7878" lon="4.99368">
        <ele>322</ele>
        <time>2013-08-22T17:15:05Z</time>
      </trkpt>
      <trkpt lat="44.78779" lon="4.99372">
        <ele>322</ele>
        <time>2013-08-22T17:15:06Z</time>
      </trkpt>
      <trkpt lat="44.78779" lon="4.99375">
        <ele>322</ele>
        <time>2013-08-22T17:15:07Z</time>
      </trkpt>
      <trkpt lat="44.78779" lon="4.99377">
        <ele>322</ele>
        <time>2013-08-22T17:15:08Z</time>
      </trkpt>
      <trkpt lat="44.78781" lon="4.99378">
        <ele>322</ele>
        <time>2013-08-22T17:15:09Z</time>
      </trkpt>
      <trkpt lat="44.78783" lon="4.99379">
        <ele>322</ele>
        <time>2013-08-22T17:15:11Z</time>
      </trkpt>
      <trkpt lat="44.78784" lon="4.9938">
        <ele>322</ele>
        <time>2013-08-22T17:15:12Z</time>
      </trkpt>
      <trkpt lat="44.78786" lon="4.99381">
        <ele>322</ele>
        <time>2013-08-22T17:15:13Z</time>
      </trkpt>
      <trkpt lat="44.78788" lon="4.99382">
        <ele>321</ele>
        <time>2013-08-22T17:15:14Z</time>
      </trkpt>
      <trkpt lat="44.7879" lon="4.99382">
        <ele>321</ele>
        <time>2013-08-22T17:15:15Z</time>
      </trkpt>
      <trkpt lat="44.78793" lon="4.99382">
        <ele>320</ele>
        <time>2013-08-22T17:15:16Z</time>
      </trkpt>
      <trkpt lat="44.78794" lon="4.99381">
        <ele>320</ele>
        <time>2013-08-22T17:15:17Z</time>
      </trkpt>
      <trkpt lat="44.78796" lon="4.9938">
        <ele>319</ele>
        <time>2013-08-22T17:15:18Z</time>
      </trkpt>
      <trkpt lat="44.78797" lon="4.9938">
        <ele>319</ele>
        <time>2013-08-22T17:15:19Z</time>
      </trkpt>
      <trkpt lat="44.78799" lon="4.9938">
        <ele>318</ele>
        <time>2013-08-22T17:15:20Z</time>
      </trkpt>
      <trkpt lat="44.78801" lon="4.9938">
        <ele>318</ele>
        <time>2013-08-22T17:15:21Z</time>
      </trkpt>
      <trkpt lat="44.78802" lon="4.9938">
        <ele>317</ele>
        <time>2013-08-22T17:15:22Z</time>
      </trkpt>
      <trkpt lat="44.78804" lon="4.99378">
        <ele>316</ele>
        <time>2013-08-22T17:15:23Z</time>
      </trkpt>
      <trkpt lat="44.78805" lon="4.99376">
        <ele>315</ele>
        <time>2013-08-22T17:15:24Z</time>
      </trkpt>
      <trkpt lat="44.78807" lon="4.99373">
        <ele>314</ele>
        <time>2013-08-22T17:15:25Z</time>
      </trkpt>
      <trkpt lat="44.78808" lon="4.99371">
        <ele>313</ele>
        <time>2013-08-22T17:15:26Z</time>
      </trkpt>
      <trkpt lat="44.7881" lon="4.9937">
        <ele>312</ele>
        <time>2013-08-22T17:15:27Z</time>
      </trkpt>
      <trkpt lat="44.78812" lon="4.99368">
        <ele>311</ele>
        <time>2013-08-22T17:15:28Z</time>
      </trkpt>
      <trkpt lat="44.78814" lon="4.99365">
        <ele>310</ele>
        <time>2013-08-22T17:15:29Z</time>
      </trkpt>
      <trkpt lat="44.78817" lon="4.99364">
        <ele>309</ele>
        <time>2013-08-22T17:15:30Z</time>
      </trkpt>
      <trkpt lat="44.78819" lon="4.99362">
        <ele>309</ele>
        <time>2013-08-22T17:15:31Z</time>
      </trkpt>
      <trkpt lat="44.78821" lon="4.99362">
        <ele>308</ele>
        <time>2013-08-22T17:15:32Z</time>
      </trkpt>
      <trkpt lat="44.78823" lon="4.99362">
        <ele>308</ele>
        <time>2013-08-22T17:15:33Z</time>
      </trkpt>
      <trkpt lat="44.78826" lon="4.9936">
        <ele>307</ele>
        <time>2013-08-22T17:15:34Z</time>
      </trkpt>
      <trkpt lat="44.78828" lon="4.99359">
        <ele>306</ele>
        <time>2013-08-22T17:15:35Z</time>
      </trkpt>
      <trkpt lat="44.7883" lon="4.99357">
        <ele>306</ele>
        <time>2013-08-22T17:15:36Z</time>
      </trkpt>
      <trkpt lat="44.78832" lon="4.99355">
        <ele>306</ele>
        <time>2013-08-22T17:15:37Z</time>
      </trkpt>
      <trkpt lat="44.78834" lon="4.99354">
        <ele>305</ele>
        <time>2013-08-22T17:15:38Z</time>
      </trkpt>
      <trkpt lat="44.78837" lon="4.99352">
        <ele>305</ele>
        <time>2013-08-22T17:15:39Z</time>
      </trkpt>
      <trkpt lat="44.7884" lon="4.99351">
        <ele>305</ele>
        <time>2013-08-22T17:15:40Z</time>
      </trkpt>
      <trkpt lat="44.78843" lon="4.99349">
        <ele>304</ele>
        <time>2013-08-22T17:15:41Z</time>
      </trkpt>
      <trkpt lat="44.78846" lon="4.99347">
        <ele>303</ele>
        <time>2013-08-22T17:15:42Z</time>
      </trkpt>
      <trkpt lat="44.7885" lon="4.99346">
        <ele>303</ele>
        <time>2013-08-22T17:15:43Z</time>
      </trkpt>
      <trkpt lat="44.78853" lon="4.99345">
        <ele>303</ele>
        <time>2013-08-22T17:15:44Z</time>
      </trkpt>
      <trkpt lat="44.78855" lon="4.99344">
        <ele>303</ele>
        <time>2013-08-22T17:15:45Z</time>
      </trkpt>
      <trkpt lat="44.78857" lon="4.99343">
        <ele>303</ele>
        <time>2013-08-22T17:15:46Z</time>
      </trkpt>
      <trkpt lat="44.7886" lon="4.99341">
        <ele>303</ele>
        <time>2013-08-22T17:15:47Z</time>
      </trkpt>
      <trkpt lat="44.78863" lon="4.9934">
        <ele>303</ele>
        <time>2013-08-22T17:15:48Z</time>
      </trkpt>
      <trkpt lat="44.78866" lon="4.99338">
        <ele>302</ele>
        <time>2013-08-22T17:15:49Z</time>
      </trkpt>
      <trkpt lat="44.78868" lon="4.99336">
        <ele>301</ele>
        <time>2013-08-22T17:15:50Z</time>
      </trkpt>
      <trkpt lat="44.78871" lon="4.99335">
        <ele>301</ele>
        <time>2013-08-22T17:15:51Z</time>
      </trkpt>
      <trkpt lat="44.78874" lon="4.99334">
        <ele>300</ele>
        <time>2013-08-22T17:15:52Z</time>
      </trkpt>
      <trkpt lat="44.78877" lon="4.99333">
        <ele>300</ele>
        <time>2013-08-22T17:15:53Z</time>
      </trkpt>
      <trkpt lat="44.7888" lon="4.99332">
        <ele>300</ele>
        <time>2013-08-22T17:15:54Z</time>
      </trkpt>
      <trkpt lat="44.78883" lon="4.99331">
        <ele>299</ele>
        <time>2013-08-22T17:15:55Z</time>
      </trkpt>
      <trkpt lat="44.78886" lon="4.9933">
        <ele>299</ele>
        <time>2013-08-22T17:15:56Z</time>
      </trkpt>
      <trkpt lat="44.78888" lon="4.99329">
        <ele>299</ele>
        <time>2013-08-22T17:15:57Z</time>
      </trkpt>
      <trkpt lat="44.78891" lon="4.99327">
        <ele>298</ele>
        <time>2013-08-22T17:15:58Z</time>
      </trkpt>
      <trkpt lat="44.78893" lon="4.99326">
        <ele>298</ele>
        <time>2013-08-22T17:15:59Z</time>
      </trkpt>
      <trkpt lat="44.78896" lon="4.99324">
        <ele>297</ele>
        <time>2013-08-22T17:16:00Z</time>
      </trkpt>
      <trkpt lat="44.78899" lon="4.99323">
        <ele>297</ele>
        <time>2013-08-22T17:16:01Z</time>
      </trkpt>
      <trkpt lat="44.78902" lon="4.99321">
        <ele>297</ele>
        <time>2013-08-22T17:16:02Z</time>
      </trkpt>
      <trkpt lat="44.78904" lon="4.9932">
        <ele>297</ele>
        <time>2013-08-22T17:16:03Z</time>
      </trkpt>
      <trkpt lat="44.78906" lon="4.99319">
        <ele>297</ele>
        <time>2013-08-22T17:16:04Z</time>
      </trkpt>
      <trkpt lat="44.78908" lon="4.99317">
        <ele>296</ele>
        <time>2013-08-22T17:16:05Z</time>
      </trkpt>
      <trkpt lat="44.7891" lon="4.99317">
        <ele>296</ele>
        <time>2013-08-22T17:16:06Z</time>
      </trkpt>
      <trkpt lat="44.78912" lon="4.99316">
        <ele>296</ele>
        <time>2013-08-22T17:16:07Z</time>
      </trkpt>
      <trkpt lat="44.78916" lon="4.99314">
        <ele>296</ele>
        <time>2013-08-22T17:16:08Z</time>
      </trkpt>
      <trkpt lat="44.78919" lon="4.99313">
        <ele>296</ele>
        <time>2013-08-22T17:16:09Z</time>
      </trkpt>
      <trkpt lat="44.78921" lon="4.99312">
        <ele>296</ele>
        <time>2013-08-22T17:16:10Z</time>
      </trkpt>
      <trkpt lat="44.78923" lon="4.99311">
        <ele>296</ele>
        <time>2013-08-22T17:16:11Z</time>
      </trkpt>
      <trkpt lat="44.78925" lon="4.99309">
        <ele>296</ele>
        <time>2013-08-22T17:16:12Z</time>
      </trkpt>
      <trkpt lat="44.78926" lon="4.99306">
        <ele>296</ele>
        <time>2013-08-22T17:16:13Z</time>
      </trkpt>
      <trkpt lat="44.78929" lon="4.99304">
        <ele>296</ele>
        <time>2013-08-22T17:16:14Z</time>
      </trkpt>
      <trkpt lat="44.78931" lon="4.99301">
        <ele>296</ele>
        <time>2013-08-22T17:16:15Z</time>
      </trkpt>
      <trkpt lat="44.78934" lon="4.99299">
        <ele>296</ele>
        <time>2013-08-22T17:16:16Z</time>
      </trkpt>
      <trkpt lat="44.78938" lon="4.99296">
        <ele>296</ele>
        <time>2013-08-22T17:16:17Z</time>
      </trkpt>
      <trkpt lat="44.78941" lon="4.99293">
        <ele>296</ele>
        <time>2013-08-22T17:16:18Z</time>
      </trkpt>
      <trkpt lat="44.78944" lon="4.99289">
        <ele>296</ele>
        <time>2013-08-22T17:16:19Z</time>
      </trkpt>
      <trkpt lat="44.78947" lon="4.99286">
        <ele>296</ele>
        <time>2013-08-22T17:16:20Z</time>
      </trkpt>
      <trkpt lat="44.7895" lon="4.99284">
        <ele>296</ele>
        <time>2013-08-22T17:16:21Z</time>
      </trkpt>
      <trkpt lat="44.78954" lon="4.99281">
        <ele>296</ele>
        <time>2013-08-22T17:16:22Z</time>
      </trkpt>
      <trkpt lat="44.78957" lon="4.99278">
        <ele>296</ele>
        <time>2013-08-22T17:16:23Z</time>
      </trkpt>
      <trkpt lat="44.78959" lon="4.99275">
        <ele>296</ele>
        <time>2013-08-22T17:16:24Z</time>
      </trkpt>
      <trkpt lat="44.7896" lon="4.99272">
        <ele>296</ele>
        <time>2013-08-22T17:16:25Z</time>
      </trkpt>
      <trkpt lat="44.78963" lon="4.99269">
        <ele>296</ele>
        <time>2013-08-22T17:16:26Z</time>
      </trkpt>
      <trkpt lat="44.78966" lon="4.99266">
        <ele>296</ele>
        <time>2013-08-22T17:16:27Z</time>
      </trkpt>
      <trkpt lat="44.78969" lon="4.99264">
        <ele>296</ele>
        <time>2013-08-22T17:16:28Z</time>
      </trkpt>
      <trkpt lat="44.78971" lon="4.9926">
        <ele>296</ele>
        <time>2013-08-22T17:16:29Z</time>
      </trkpt>
      <trkpt lat="44.78973" lon="4.99257">
        <ele>296</ele>
        <time>2013-08-22T17:16:30Z</time>
      </trkpt>
      <trkpt lat="44.78976" lon="4.99254">
        <ele>296</ele>
        <time>2013-08-22T17:16:31Z</time>
      </trkpt>
      <trkpt lat="44.78978" lon="4.99253">
        <ele>296</ele>
        <time>2013-08-22T17:16:32Z</time>
      </trkpt>
      <trkpt lat="44.78981" lon="4.99252">
        <ele>296</ele>
        <time>2013-08-22T17:16:33Z</time>
      </trkpt>
      <trkpt lat="44.78984" lon="4.99252">
        <ele>296</ele>
        <time>2013-08-22T17:16:34Z</time>
      </trkpt>
      <trkpt lat="44.78987" lon="4.99252">
        <ele>296</ele>
        <time>2013-08-22T17:16:35Z</time>
      </trkpt>
      <trkpt lat="44.78991" lon="4.99252">
        <ele>296</ele>
        <time>2013-08-22T17:16:36Z</time>
      </trkpt>
      <trkpt lat="44.78994" lon="4.99252">
        <ele>296</ele>
        <time>2013-08-22T17:16:37Z</time>
      </trkpt>
      <trkpt lat="44.78998" lon="4.99253">
        <ele>296</ele>
        <time>2013-08-22T17:16:38Z</time>
      </trkpt>
      <trkpt lat="44.79001" lon="4.99253">
        <ele>296</ele>
        <time>2013-08-22T17:16:39Z</time>
      </trkpt>
      <trkpt lat="44.79005" lon="4.99254">
        <ele>296</ele>
        <time>2013-08-22T17:16:40Z</time>
      </trkpt>
      <trkpt lat="44.79008" lon="4.99254">
        <ele>296</ele>
        <time>2013-08-22T17:16:41Z</time>
      </trkpt>
      <trkpt lat="44.79012" lon="4.99254">
        <ele>296</ele>
        <time>2013-08-22T17:16:42Z</time>
      </trkpt>
      <trkpt lat="44.79015" lon="4.99253">
        <ele>296</ele>
        <time>2013-08-22T17:16:43Z</time>
      </trkpt>
      <trkpt lat="44.79019" lon="4.99251">
        <ele>296</ele>
        <time>2013-08-22T17:16:44Z</time>
      </trkpt>
      <trkpt lat="44.79022" lon="4.99248">
        <ele>295</ele>
        <time>2013-08-22T17:16:45Z</time>
      </trkpt>
      <trkpt lat="44.79024" lon="4.99245">
        <ele>295</ele>
        <time>2013-08-22T17:16:46Z</time>
      </trkpt>
      <trkpt lat="44.79026" lon="4.99242">
        <ele>295</ele>
        <time>2013-08-22T17:16:47Z</time>
      </trkpt>
      <trkpt lat="44.79028" lon="4.99239">
        <ele>295</ele>
        <time>2013-08-22T17:16:48Z</time>
      </trkpt>
      <trkpt lat="44.79031" lon="4.99235">
        <ele>295</ele>
        <time>2013-08-22T17:16:49Z</time>
      </trkpt>
      <trkpt lat="44.79033" lon="4.99232">
        <ele>295</ele>
        <time>2013-08-22T17:16:50Z</time>
      </trkpt>
      <trkpt lat="44.79035" lon="4.99229">
        <ele>295</ele>
        <time>2013-08-22T17:16:51Z</time>
      </trkpt>
      <trkpt lat="44.79038" lon="4.99226">
        <ele>295</ele>
        <time>2013-08-22T17:16:52Z</time>
      </trkpt>
      <trkpt lat="44.79041" lon="4.99224">
        <ele>295</ele>
        <time>2013-08-22T17:16:53Z</time>
      </trkpt>
      <trkpt lat="44.79043" lon="4.99222">
        <ele>295</ele>
        <time>2013-08-22T17:16:54Z</time>
      </trkpt>
      <trkpt lat="44.79046" lon="4.9922">
        <ele>295</ele>
        <time>2013-08-22T17:16:55Z</time>
      </trkpt>
      <trkpt lat="44.79049" lon="4.99218">
        <ele>295</ele>
        <time>2013-08-22T17:16:56Z</time>
      </trkpt>
      <trkpt lat="44.79051" lon="4.99216">
        <ele>295</ele>
        <time>2013-08-22T17:16:57Z</time>
      </trkpt>
      <trkpt lat="44.79054" lon="4.99215">
        <ele>295</ele>
        <time>2013-08-22T17:16:58Z</time>
      </trkpt>
      <trkpt lat="44.79056" lon="4.99215">
        <ele>295</ele>
        <time>2013-08-22T17:16:59Z</time>
      </trkpt>
      <trkpt lat="44.79059" lon="4.99216">
        <ele>295</ele>
        <time>2013-08-22T17:17:00Z</time>
      </trkpt>
      <trkpt lat="44.79062" lon="4.99217">
        <ele>294</ele>
        <time>2013-08-22T17:17:01Z</time>
      </trkpt>
      <trkpt lat="44.79064" lon="4.99218">
        <ele>294</ele>
        <time>2013-08-22T17:17:02Z</time>
      </trkpt>
      <trkpt lat="44.79066" lon="4.99218">
        <ele>294</ele>
        <time>2013-08-22T17:17:03Z</time>
      </trkpt>
      <trkpt lat="44.79068" lon="4.99219">
        <ele>294</ele>
        <time>2013-08-22T17:17:04Z</time>
      </trkpt>
      <trkpt lat="44.7907" lon="4.9922">
        <ele>294</ele>
        <time>2013-08-22T17:17:05Z</time>
      </trkpt>
      <trkpt lat="44.79071" lon="4.9922">
        <ele>294</ele>
        <time>2013-08-22T17:17:06Z</time>
      </trkpt>
      <trkpt lat="44.79073" lon="4.9922">
        <ele>294</ele>
        <time>2013-08-22T17:17:07Z</time>
      </trkpt>
      <trkpt lat="44.79074" lon="4.9922">
        <ele>294</ele>
        <time>2013-08-22T17:17:08Z</time>
      </trkpt>
      <trkpt lat="44.79075" lon="4.99221">
        <ele>294</ele>
        <time>2013-08-22T17:17:09Z</time>
      </trkpt>
      <trkpt lat="44.79077" lon="4.99222">
        <ele>294</ele>
        <time>2013-08-22T17:17:10Z</time>
      </trkpt>
      <trkpt lat="44.79079" lon="4.99224">
        <ele>294</ele>
        <time>2013-08-22T17:17:11Z</time>
      </trkpt>
      <trkpt lat="44.79083" lon="4.99226">
        <ele>293</ele>
        <time>2013-08-22T17:17:12Z</time>
      </trkpt>
      <trkpt lat="44.79086" lon="4.99229">
        <ele>293</ele>
        <time>2013-08-22T17:17:13Z</time>
      </trkpt>
      <trkpt lat="44.79089" lon="4.99231">
        <ele>293</ele>
        <time>2013-08-22T17:17:14Z</time>
      </trkpt>
      <trkpt lat="44.79091" lon="4.99233">
        <ele>292</ele>
        <time>2013-08-22T17:17:15Z</time>
      </trkpt>
      <trkpt lat="44.79094" lon="4.99235">
        <ele>292</ele>
        <time>2013-08-22T17:17:16Z</time>
      </trkpt>
      <trkpt lat="44.79097" lon="4.99237">
        <ele>292</ele>
        <time>2013-08-22T17:17:17Z</time>
      </trkpt>
      <trkpt lat="44.79099" lon="4.99239">
        <ele>291</ele>
        <time>2013-08-22T17:17:18Z</time>
      </trkpt>
      <trkpt lat="44.79102" lon="4.99241">
        <ele>291</ele>
        <time>2013-08-22T17:17:19Z</time>
      </trkpt>
      <trkpt lat="44.79104" lon="4.99243">
        <ele>291</ele>
        <time>2013-08-22T17:17:20Z</time>
      </trkpt>
      <trkpt lat="44.79106" lon="4.99245">
        <ele>291</ele>
        <time>2013-08-22T17:17:21Z</time>
      </trkpt>
      <trkpt lat="44.79109" lon="4.99247">
        <ele>291</ele>
        <time>2013-08-22T17:17:22Z</time>
      </trkpt>
      <trkpt lat="44.79111" lon="4.9925">
        <ele>291</ele>
        <time>2013-08-22T17:17:23Z</time>
      </trkpt>
      <trkpt lat="44.79114" lon="4.99253">
        <ele>291</ele>
        <time>2013-08-22T17:17:24Z</time>
      </trkpt>
      <trkpt lat="44.79117" lon="4.99256">
        <ele>291</ele>
        <time>2013-08-22T17:17:25Z</time>
      </trkpt>
      <trkpt lat="44.79119" lon="4.99258">
        <ele>291</ele>
        <time>2013-08-22T17:17:26Z</time>
      </trkpt>
      <trkpt lat="44.79122" lon="4.9926">
        <ele>291</ele>
        <time>2013-08-22T17:17:27Z</time>
      </trkpt>
      <trkpt lat="44.79124" lon="4.99263">
        <ele>291</ele>
        <time>2013-08-22T17:17:28Z</time>
      </trkpt>
      <trkpt lat="44.79127" lon="4.99265">
        <ele>291</ele>
        <time>2013-08-22T17:17:29Z</time>
      </trkpt>
      <trkpt lat="44.79129" lon="4.99267">
        <ele>291</ele>
        <time>2013-08-22T17:17:30Z</time>
      </trkpt>
      <trkpt lat="44.79131" lon="4.99269">
        <ele>291</ele>
        <time>2013-08-22T17:17:31Z</time>
      </trkpt>
      <trkpt lat="44.79134" lon="4.99271">
        <ele>291</ele>
        <time>2013-08-22T17:17:32Z</time>
      </trkpt>
      <trkpt lat="44.79136" lon="4.99273">
        <ele>291</ele>
        <time>2013-08-22T17:17:33Z</time>
      </trkpt>
      <trkpt lat="44.79138" lon="4.99274">
        <ele>291</ele>
        <time>2013-08-22T17:17:34Z</time>
      </trkpt>
      <trkpt lat="44.79141" lon="4.99276">
        <ele>291</ele>
        <time>2013-08-22T17:17:35Z</time>
      </trkpt>
      <trkpt lat="44.79143" lon="4.99278">
        <ele>291</ele>
        <time>2013-08-22T17:17:36Z</time>
      </trkpt>
      <trkpt lat="44.79146" lon="4.99281">
        <ele>291</ele>
        <time>2013-08-22T17:17:37Z</time>
      </trkpt>
      <trkpt lat="44.79148" lon="4.99283">
        <ele>291</ele>
        <time>2013-08-22T17:17:38Z</time>
      </trkpt>
      <trkpt lat="44.7915" lon="4.99286">
        <ele>291</ele>
        <time>2013-08-22T17:17:39Z</time>
      </trkpt>
      <trkpt lat="44.79153" lon="4.99289">
        <ele>291</ele>
        <time>2013-08-22T17:17:40Z</time>
      </trkpt>
      <trkpt lat="44.79155" lon="4.99291">
        <ele>291</ele>
        <time>2013-08-22T17:17:41Z</time>
      </trkpt>
      <trkpt lat="44.79156" lon="4.99294">
        <ele>291</ele>
        <time>2013-08-22T17:17:42Z</time>
      </trkpt>
      <trkpt lat="44.79157" lon="4.99298">
        <ele>291</ele>
        <time>2013-08-22T17:17:43Z</time>
      </trkpt>
      <trkpt lat="44.79158" lon="4.99302">
        <ele>291</ele>
        <time>2013-08-22T17:17:44Z</time>
      </trkpt>
      <trkpt lat="44.79159" lon="4.99305">
        <ele>291</ele>
        <time>2013-08-22T17:17:45Z</time>
      </trkpt>
      <trkpt lat="44.79161" lon="4.99308">
        <ele>291</ele>
        <time>2013-08-22T17:17:46Z</time>
      </trkpt>
      <trkpt lat="44.79163" lon="4.99311">
        <ele>291</ele>
        <time>2013-08-22T17:17:47Z</time>
      </trkpt>
      <trkpt lat="44.79165" lon="4.99314">
        <ele>291</ele>
        <time>2013-08-22T17:17:48Z</time>
      </trkpt>
      <trkpt lat="44.79166" lon="4.99317">
        <ele>291</ele>
        <time>2013-08-22T17:17:49Z</time>
      </trkpt>
      <trkpt lat="44.79168" lon="4.99319">
        <ele>291</ele>
        <time>2013-08-22T17:17:50Z</time>
      </trkpt>
      <trkpt lat="44.7917" lon="4.99322">
        <ele>291</ele>
        <time>2013-08-22T17:17:51Z</time>
      </trkpt>
      <trkpt lat="44.79173" lon="4.99325">
        <ele>291</ele>
        <time>2013-08-22T17:17:52Z</time>
      </trkpt>
      <trkpt lat="44.79176" lon="4.99328">
        <ele>291</ele>
        <time>2013-08-22T17:17:53Z</time>
      </trkpt>
      <trkpt lat="44.79178" lon="4.99331">
        <ele>291</ele>
        <time>2013-08-22T17:17:54Z</time>
      </trkpt>
      <trkpt lat="44.7918" lon="4.99333">
        <ele>291</ele>
        <time>2013-08-22T17:17:55Z</time>
      </trkpt>
      <trkpt lat="44.79183" lon="4.99335">
        <ele>291</ele>
        <time>2013-08-22T17:17:56Z</time>
      </trkpt>
      <trkpt lat="44.79186" lon="4.99337">
        <ele>291</ele>
        <time>2013-08-22T17:17:57Z</time>
      </trkpt>
      <trkpt lat="44.79188" lon="4.9934">
        <ele>291</ele>
        <time>2013-08-22T17:17:58Z</time>
      </trkpt>
      <trkpt lat="44.79191" lon="4.99343">
        <ele>291</ele>
        <time>2013-08-22T17:17:59Z</time>
      </trkpt>
      <trkpt lat="44.79194" lon="4.99346">
        <ele>291</ele>
        <time>2013-08-22T17:18:00Z</time>
      </trkpt>
      <trkpt lat="44.79196" lon="4.99349">
        <ele>291</ele>
        <time>2013-08-22T17:18:01Z</time>
      </trkpt>
      <trkpt lat="44.79199" lon="4.99352">
        <ele>290</ele>
        <time>2013-08-22T17:18:02Z</time>
      </trkpt>
      <trkpt lat="44.79201" lon="4.99355">
        <ele>289</ele>
        <time>2013-08-22T17:18:03Z</time>
      </trkpt>
      <trkpt lat="44.79203" lon="4.99358">
        <ele>289</ele>
        <time>2013-08-22T17:18:04Z</time>
      </trkpt>
      <trkpt lat="44.79205" lon="4.99361">
        <ele>288</ele>
        <time>2013-08-22T17:18:05Z</time>
      </trkpt>
      <trkpt lat="44.79207" lon="4.99364">
        <ele>288</ele>
        <time>2013-08-22T17:18:06Z</time>
      </trkpt>
      <trkpt lat="44.79209" lon="4.99366">
        <ele>288</ele>
        <time>2013-08-22T17:18:07Z</time>
      </trkpt>
      <trkpt lat="44.79211" lon="4.99369">
        <ele>288</ele>
        <time>2013-08-22T17:18:08Z</time>
      </trkpt>
      <trkpt lat="44.79213" lon="4.99372">
        <ele>288</ele>
        <time>2013-08-22T17:18:09Z</time>
      </trkpt>
      <trkpt lat="44.79216" lon="4.99375">
        <ele>287</ele>
        <time>2013-08-22T17:18:10Z</time>
      </trkpt>
      <trkpt lat="44.79218" lon="4.99378">
        <ele>287</ele>
        <time>2013-08-22T17:18:11Z</time>
      </trkpt>
      <trkpt lat="44.79221" lon="4.99382">
        <ele>287</ele>
        <time>2013-08-22T17:18:12Z</time>
      </trkpt>
      <trkpt lat="44.79223" lon="4.99385">
        <ele>286</ele>
        <time>2013-08-22T17:18:13Z</time>
      </trkpt>
      <trkpt lat="44.79226" lon="4.99389">
        <ele>286</ele>
        <time>2013-08-22T17:18:14Z</time>
      </trkpt>
      <trkpt lat="44.79228" lon="4.99391">
        <ele>285</ele>
        <time>2013-08-22T17:18:15Z</time>
      </trkpt>
      <trkpt lat="44.79231" lon="4.99393">
        <ele>284</ele>
        <time>2013-08-22T17:18:16Z</time>
      </trkpt>
      <trkpt lat="44.79233" lon="4.99396">
        <ele>283</ele>
        <time>2013-08-22T17:18:17Z</time>
      </trkpt>
      <trkpt lat="44.79236" lon="4.99398">
        <ele>283</ele>
        <time>2013-08-22T17:18:18Z</time>
      </trkpt>
      <trkpt lat="44.79239" lon="4.99401">
        <ele>282</ele>
        <time>2013-08-22T17:18:19Z</time>
      </trkpt>
      <trkpt lat="44.7924" lon="4.99403">
        <ele>281</ele>
        <time>2013-08-22T17:18:20Z</time>
      </trkpt>
      <trkpt lat="44.79243" lon="4.99405">
        <ele>280</ele>
        <time>2013-08-22T17:18:21Z</time>
      </trkpt>
      <trkpt lat="44.79246" lon="4.99407">
        <ele>279</ele>
        <time>2013-08-22T17:18:22Z</time>
      </trkpt>
      <trkpt lat="44.79248" lon="4.99409">
        <ele>279</ele>
        <time>2013-08-22T17:18:23Z</time>
      </trkpt>
      <trkpt lat="44.79251" lon="4.99412">
        <ele>278</ele>
        <time>2013-08-22T17:18:24Z</time>
      </trkpt>
      <trkpt lat="44.79253" lon="4.99415">
        <ele>278</ele>
        <time>2013-08-22T17:18:25Z</time>
      </trkpt>
      <trkpt lat="44.79256" lon="4.99418">
        <ele>277</ele>
        <time>2013-08-22T17:18:26Z</time>
      </trkpt>
      <trkpt lat="44.7926" lon="4.99421">
        <ele>277</ele>
        <time>2013-08-22T17:18:27Z</time>
      </trkpt>
      <trkpt lat="44.79262" lon="4.99424">
        <ele>276</ele>
        <time>2013-08-22T17:18:28Z</time>
      </trkpt>
      <trkpt lat="44.79265" lon="4.99427">
        <ele>275</ele>
        <time>2013-08-22T17:18:29Z</time>
      </trkpt>
      <trkpt lat="44.79267" lon="4.9943">
        <ele>275</ele>
        <time>2013-08-22T17:18:30Z</time>
      </trkpt>
      <trkpt lat="44.79269" lon="4.99434">
        <ele>274</ele>
        <time>2013-08-22T17:18:31Z</time>
      </trkpt>
      <trkpt lat="44.79272" lon="4.99437">
        <ele>274</ele>
        <time>2013-08-22T17:18:32Z</time>
      </trkpt>
      <trkpt lat="44.79274" lon="4.99439">
        <ele>274</ele>
        <time>2013-08-22T17:18:33Z</time>
      </trkpt>
      <trkpt lat="44.79276" lon="4.99443">
        <ele>273</ele>
        <time>2013-08-22T17:18:34Z</time>
      </trkpt>
      <trkpt lat="44.79278" lon="4.99447">
        <ele>273</ele>
        <time>2013-08-22T17:18:35Z</time>
      </trkpt>
      <trkpt lat="44.7928" lon="4.99451">
        <ele>273</ele>
        <time>2013-08-22T17:18:36Z</time>
      </trkpt>
      <trkpt lat="44.79283" lon="4.99454">
        <ele>272</ele>
        <time>2013-08-22T17:18:37Z</time>
      </trkpt>
      <trkpt lat="44.79285" lon="4.99457">
        <ele>272</ele>
        <time>2013-08-22T17:18:38Z</time>
      </trkpt>
      <trkpt lat="44.79287" lon="4.9946">
        <ele>272</ele>
        <time>2013-08-22T17:18:39Z</time>
      </trkpt>
      <trkpt lat="44.79289" lon="4.99464">
        <ele>272</ele>
        <time>2013-08-22T17:18:40Z</time>
      </trkpt>
      <trkpt lat="44.79291" lon="4.99468">
        <ele>272</ele>
        <time>2013-08-22T17:18:41Z</time>
      </trkpt>
      <trkpt lat="44.79293" lon="4.99472">
        <ele>272</ele>
        <time>2013-08-22T17:18:42Z</time>
      </trkpt>
      <trkpt lat="44.79295" lon="4.99475">
        <ele>271</ele>
        <time>2013-08-22T17:18:43Z</time>
      </trkpt>
      <trkpt lat="44.79297" lon="4.99479">
        <ele>271</ele>
        <time>2013-08-22T17:18:44Z</time>
      </trkpt>
      <trkpt lat="44.793" lon="4.99483">
        <ele>271</ele>
        <time>2013-08-22T17:18:45Z</time>
      </trkpt>
      <trkpt lat="44.79302" lon="4.99487">
        <ele>270</ele>
        <time>2013-08-22T17:18:46Z</time>
      </trkpt>
      <trkpt lat="44.79305" lon="4.99492">
        <ele>270</ele>
        <time>2013-08-22T17:18:47Z</time>
      </trkpt>
      <trkpt lat="44.79307" lon="4.99496">
        <ele>270</ele>
        <time>2013-08-22T17:18:48Z</time>
      </trkpt>
      <trkpt lat="44.79308" lon="4.99501">
        <ele>269</ele>
        <time>2013-08-22T17:18:49Z</time>
      </trkpt>
      <trkpt lat="44.79311" lon="4.99506">
        <ele>269</ele>
        <time>2013-08-22T17:18:50Z</time>
      </trkpt>
      <trkpt lat="44.79313" lon="4.9951">
        <ele>269</ele>
        <time>2013-08-22T17:18:51Z</time>
      </trkpt>
      <trkpt lat="44.79316" lon="4.99514">
        <ele>268</ele>
        <time>2013-08-22T17:18:52Z</time>
      </trkpt>
      <trkpt lat="44.79318" lon="4.99518">
        <ele>268</ele>
        <time>2013-08-22T17:18:53Z</time>
      </trkpt>
      <trkpt lat="44.7932" lon="4.99522">
        <ele>268</ele>
        <time>2013-08-22T17:18:54Z</time>
      </trkpt>
      <trkpt lat="44.79322" lon="4.99526">
        <ele>268</ele>
        <time>2013-08-22T17:18:55Z</time>
      </trkpt>
      <trkpt lat="44.79324" lon="4.99531">
        <ele>268</ele>
        <time>2013-08-22T17:18:56Z</time>
      </trkpt>
      <trkpt lat="44.79325" lon="4.99536">
        <ele>268</ele>
        <time>2013-08-22T17:18:57Z</time>
      </trkpt>
      <trkpt lat="44.79327" lon="4.99539">
        <ele>268</ele>
        <time>2013-08-22T17:18:58Z</time>
      </trkpt>
      <trkpt lat="44.79329" lon="4.99542">
        <ele>268</ele>
        <time>2013-08-22T17:18:59Z</time>
      </trkpt>
      <trkpt lat="44.79331" lon="4.99545">
        <ele>267</ele>
        <time>2013-08-22T17:19:00Z</time>
      </trkpt>
      <trkpt lat="44.79333" lon="4.99548">
        <ele>267</ele>
        <time>2013-08-22T17:19:01Z</time>
      </trkpt>
      <trkpt lat="44.79336" lon="4.99549">
        <ele>267</ele>
        <time>2013-08-22T17:19:02Z</time>
      </trkpt>
      <trkpt lat="44.79339" lon="4.9955">
        <ele>267</ele>
        <time>2013-08-22T17:19:03Z</time>
      </trkpt>
      <trkpt lat="44.79342" lon="4.99551">
        <ele>267</ele>
        <time>2013-08-22T17:19:04Z</time>
      </trkpt>
      <trkpt lat="44.79344" lon="4.99553">
        <ele>267</ele>
        <time>2013-08-22T17:19:05Z</time>
      </trkpt>
      <trkpt lat="44.79346" lon="4.99556">
        <ele>267</ele>
        <time>2013-08-22T17:19:06Z</time>
      </trkpt>
      <trkpt lat="44.79348" lon="4.99558">
        <ele>267</ele>
        <time>2013-08-22T17:19:07Z</time>
      </trkpt>
      <trkpt lat="44.79351" lon="4.9956">
        <ele>267</ele>
        <time>2013-08-22T17:19:08Z</time>
      </trkpt>
      <trkpt lat="44.79353" lon="4.99562">
        <ele>267</ele>
        <time>2013-08-22T17:19:09Z</time>
      </trkpt>
      <trkpt lat="44.79356" lon="4.99564">
        <ele>266</ele>
        <time>2013-08-22T17:19:10Z</time>
      </trkpt>
      <trkpt lat="44.79358" lon="4.99565">
        <ele>266</ele>
        <time>2013-08-22T17:19:11Z</time>
      </trkpt>
      <trkpt lat="44.79361" lon="4.99567">
        <ele>266</ele>
        <time>2013-08-22T17:19:12Z</time>
      </trkpt>
      <trkpt lat="44.79364" lon="4.99568">
        <ele>266</ele>
        <time>2013-08-22T17:19:13Z</time>
      </trkpt>
      <trkpt lat="44.79367" lon="4.99569">
        <ele>266</ele>
        <time>2013-08-22T17:19:14Z</time>
      </trkpt>
      <trkpt lat="44.7937" lon="4.9957">
        <ele>266</ele>
        <time>2013-08-22T17:19:15Z</time>
      </trkpt>
      <trkpt lat="44.79373" lon="4.99571">
        <ele>266</ele>
        <time>2013-08-22T17:19:16Z</time>
      </trkpt>
      <trkpt lat="44.79375" lon="4.99573">
        <ele>266</ele>
        <time>2013-08-22T17:19:17Z</time>
      </trkpt>
      <trkpt lat="44.79378" lon="4.99574">
        <ele>265</ele>
        <time>2013-08-22T17:19:18Z</time>
      </trkpt>
      <trkpt lat="44.79381" lon="4.99576">
        <ele>264</ele>
        <time>2013-08-22T17:19:19Z</time>
      </trkpt>
      <trkpt lat="44.79383" lon="4.99579">
        <ele>264</ele>
        <time>2013-08-22T17:19:20Z</time>
      </trkpt>
      <trkpt lat="44.79385" lon="4.99583">
        <ele>263</ele>
        <time>2013-08-22T17:19:21Z</time>
      </trkpt>
      <trkpt lat="44.79388" lon="4.99586">
        <ele>262</ele>
        <time>2013-08-22T17:19:22Z</time>
      </trkpt>
      <trkpt lat="44.79389" lon="4.99589">
        <ele>261</ele>
        <time>2013-08-22T17:19:23Z</time>
      </trkpt>
      <trkpt lat="44.79391" lon="4.99592">
        <ele>260</ele>
        <time>2013-08-22T17:19:24Z</time>
      </trkpt>
      <trkpt lat="44.79393" lon="4.99596">
        <ele>259</ele>
        <time>2013-08-22T17:19:25Z</time>
      </trkpt>
      <trkpt lat="44.79394" lon="4.996">
        <ele>258</ele>
        <time>2013-08-22T17:19:26Z</time>
      </trkpt>
      <trkpt lat="44.79396" lon="4.99604">
        <ele>257</ele>
        <time>2013-08-22T17:19:27Z</time>
      </trkpt>
      <trkpt lat="44.79397" lon="4.99608">
        <ele>256</ele>
        <time>2013-08-22T17:19:28Z</time>
      </trkpt>
      <trkpt lat="44.79399" lon="4.99611">
        <ele>255</ele>
        <time>2013-08-22T17:19:29Z</time>
      </trkpt>
      <trkpt lat="44.79401" lon="4.99614">
        <ele>255</ele>
        <time>2013-08-22T17:19:30Z</time>
      </trkpt>
      <trkpt lat="44.79403" lon="4.99616">
        <ele>254</ele>
        <time>2013-08-22T17:19:31Z</time>
      </trkpt>
      <trkpt lat="44.79406" lon="4.99619">
        <ele>254</ele>
        <time>2013-08-22T17:19:32Z</time>
      </trkpt>
      <trkpt lat="44.79409" lon="4.99621">
        <ele>254</ele>
        <time>2013-08-22T17:19:33Z</time>
      </trkpt>
      <trkpt lat="44.79412" lon="4.99623">
        <ele>254</ele>
        <time>2013-08-22T17:19:34Z</time>
      </trkpt>
      <trkpt lat="44.79416" lon="4.99624">
        <ele>254</ele>
        <time>2013-08-22T17:19:35Z</time>
      </trkpt>
      <trkpt lat="44.79419" lon="4.99625">
        <ele>254</ele>
        <time>2013-08-22T17:19:36Z</time>
      </trkpt>
      <trkpt lat="44.79422" lon="4.99626">
        <ele>254</ele>
        <time>2013-08-22T17:19:37Z</time>
      </trkpt>
      <trkpt lat="44.79425" lon="4.99626">
        <ele>254</ele>
        <time>2013-08-22T17:19:38Z</time>
      </trkpt>
      <trkpt lat="44.79427" lon="4.99627">
        <ele>254</ele>
        <time>2013-08-22T17:19:39Z</time>
      </trkpt>
      <trkpt lat="44.7943" lon="4.99628">
        <ele>254</ele>
        <time>2013-08-22T17:19:40Z</time>
      </trkpt>
      <trkpt lat="44.79433" lon="4.99629">
        <ele>254</ele>
        <time>2013-08-22T17:19:41Z</time>
      </trkpt>
      <trkpt lat="44.79436" lon="4.9963">
        <ele>254</ele>
        <time>2013-08-22T17:19:42Z</time>
      </trkpt>
      <trkpt lat="44.79439" lon="4.99631">
        <ele>254</ele>
        <time>2013-08-22T17:19:43Z</time>
      </trkpt>
      <trkpt lat="44.79442" lon="4.99633">
        <ele>254</ele>
        <time>2013-08-22T17:19:44Z</time>
      </trkpt>
      <trkpt lat="44.79445" lon="4.99634">
        <ele>254</ele>
        <time>2013-08-22T17:19:45Z</time>
      </trkpt>
      <trkpt lat="44.79447" lon="4.99636">
        <ele>254</ele>
        <time>2013-08-22T17:19:46Z</time>
      </trkpt>
      <trkpt lat="44.79449" lon="4.99637">
        <ele>254</ele>
        <time>2013-08-22T17:19:47Z</time>
      </trkpt>
      <trkpt lat="44.79452" lon="4.99638">
        <ele>254</ele>
        <time>2013-08-22T17:19:48Z</time>
      </trkpt>
      <trkpt lat="44.79455" lon="4.99639">
        <ele>254</ele>
        <time>2013-08-22T17:19:49Z</time>
      </trkpt>
      <trkpt lat="44.79458" lon="4.9964">
        <ele>254</ele>
        <time>2013-08-22T17:19:50Z</time>
      </trkpt>
      <trkpt lat="44.79461" lon="4.99642">
        <ele>254</ele>
        <time>2013-08-22T17:19:51Z</time>
      </trkpt>
      <trkpt lat="44.79464" lon="4.99643">
        <ele>254</ele>
        <time>2013-08-22T17:19:52Z</time>
      </trkpt>
      <trkpt lat="44.79467" lon="4.99643">
        <ele>254</ele>
        <time>2013-08-22T17:19:53Z</time>
      </trkpt>
      <trkpt lat="44.7947" lon="4.99644">
        <ele>254</ele>
        <time>2013-08-22T17:19:54Z</time>
      </trkpt>
      <trkpt lat="44.79473" lon="4.99645">
        <ele>254</ele>
        <time>2013-08-22T17:19:55Z</time>
      </trkpt>
      <trkpt lat="44.79476" lon="4.99645">
        <ele>254</ele>
        <time>2013-08-22T17:19:56Z</time>
      </trkpt>
      <trkpt lat="44.79479" lon="4.99644">
        <ele>254</ele>
        <time>2013-08-22T17:19:57Z</time>
      </trkpt>
      <trkpt lat="44.79482" lon="4.99643">
        <ele>254</ele>
        <time>2013-08-22T17:19:58Z</time>
      </trkpt>
      <trkpt lat="44.79485" lon="4.99642">
        <ele>254</ele>
        <time>2013-08-22T17:19:59Z</time>
      </trkpt>
      <trkpt lat="44.79488" lon="4.99641">
        <ele>254</ele>
        <time>2013-08-22T17:20:00Z</time>
      </trkpt>
      <trkpt lat="44.79491" lon="4.9964">
        <ele>254</ele>
        <time>2013-08-22T17:20:01Z</time>
      </trkpt>
      <trkpt lat="44.79494" lon="4.99639">
        <ele>254</ele>
        <time>2013-08-22T17:20:02Z</time>
      </trkpt>
      <trkpt lat="44.79497" lon="4.99637">
        <ele>254</ele>
        <time>2013-08-22T17:20:03Z</time>
      </trkpt>
      <trkpt lat="44.795" lon="4.99636">
        <ele>254</ele>
        <time>2013-08-22T17:20:04Z</time>
      </trkpt>
      <trkpt lat="44.79502" lon="4.99635">
        <ele>254</ele>
        <time>2013-08-22T17:20:05Z</time>
      </trkpt>
      <trkpt lat="44.79506" lon="4.99633">
        <ele>254</ele>
        <time>2013-08-22T17:20:06Z</time>
      </trkpt>
      <trkpt lat="44.79509" lon="4.99633">
        <ele>254</ele>
        <time>2013-08-22T17:20:07Z</time>
      </trkpt>
      <trkpt lat="44.79512" lon="4.99632">
        <ele>253</ele>
        <time>2013-08-22T17:20:08Z</time>
      </trkpt>
      <trkpt lat="44.79515" lon="4.99631">
        <ele>253</ele>
        <time>2013-08-22T17:20:09Z</time>
      </trkpt>
      <trkpt lat="44.79518" lon="4.9963">
        <ele>252</ele>
        <time>2013-08-22T17:20:10Z</time>
      </trkpt>
      <trkpt lat="44.79521" lon="4.99629">
        <ele>252</ele>
        <time>2013-08-22T17:20:11Z</time>
      </trkpt>
      <trkpt lat="44.79524" lon="4.99628">
        <ele>251</ele>
        <time>2013-08-22T17:20:12Z</time>
      </trkpt>
      <trkpt lat="44.79527" lon="4.99628">
        <ele>251</ele>
        <time>2013-08-22T17:20:13Z</time>
      </trkpt>
      <trkpt lat="44.79529" lon="4.99629">
        <ele>251</ele>
        <time>2013-08-22T17:20:14Z</time>
      </trkpt>
      <trkpt lat="44.79533" lon="4.99629">
        <ele>250</ele>
        <time>2013-08-22T17:20:15Z</time>
      </trkpt>
      <trkpt lat="44.79536" lon="4.99629">
        <ele>250</ele>
        <time>2013-08-22T17:20:16Z</time>
      </trkpt>
      <trkpt lat="44.79539" lon="4.9963">
        <ele>250</ele>
        <time>2013-08-22T17:20:17Z</time>
      </trkpt>
      <trkpt lat="44.79542" lon="4.99632">
        <ele>250</ele>
        <time>2013-08-22T17:20:18Z</time>
      </trkpt>
      <trkpt lat="44.79545" lon="4.99633">
        <ele>249</ele>
        <time>2013-08-22T17:20:19Z</time>
      </trkpt>
      <trkpt lat="44.79547" lon="4.99634">
        <ele>249</ele>
        <time>2013-08-22T17:20:20Z</time>
      </trkpt>
      <trkpt lat="44.7955" lon="4.99634">
        <ele>249</ele>
        <time>2013-08-22T17:20:21Z</time>
      </trkpt>
      <trkpt lat="44.79553" lon="4.99635">
        <ele>248</ele>
        <time>2013-08-22T17:20:22Z</time>
      </trkpt>
      <trkpt lat="44.79555" lon="4.99636">
        <ele>248</ele>
        <time>2013-08-22T17:20:23Z</time>
      </trkpt>
      <trkpt lat="44.79557" lon="4.99637">
        <ele>248</ele>
        <time>2013-08-22T17:20:24Z</time>
      </trkpt>
      <trkpt lat="44.7956" lon="4.99638">
        <ele>248</ele>
        <time>2013-08-22T17:20:25Z</time>
      </trkpt>
      <trkpt lat="44.79564" lon="4.99639">
        <ele>248</ele>
        <time>2013-08-22T17:20:26Z</time>
      </trkpt>
      <trkpt lat="44.79567" lon="4.9964">
        <ele>248</ele>
        <time>2013-08-22T17:20:27Z</time>
      </trkpt>
      <trkpt lat="44.7957" lon="4.99641">
        <ele>248</ele>
        <time>2013-08-22T17:20:28Z</time>
      </trkpt>
      <trkpt lat="44.79573" lon="4.99641">
        <ele>248</ele>
        <time>2013-08-22T17:20:29Z</time>
      </trkpt>
      <trkpt lat="44.79576" lon="4.99642">
        <ele>248</ele>
        <time>2013-08-22T17:20:30Z</time>
      </trkpt>
      <trkpt lat="44.79579" lon="4.99642">
        <ele>248</ele>
        <time>2013-08-22T17:20:31Z</time>
      </trkpt>
      <trkpt lat="44.79581" lon="4.99642">
        <ele>248</ele>
        <time>2013-08-22T17:20:32Z</time>
      </trkpt>
      <trkpt lat="44.79585" lon="4.99642">
        <ele>248</ele>
        <time>2013-08-22T17:20:33Z</time>
      </trkpt>
      <trkpt lat="44.79587" lon="4.99642">
        <ele>247</ele>
        <time>2013-08-22T17:20:34Z</time>
      </trkpt>
      <trkpt lat="44.7959" lon="4.99643">
        <ele>247</ele>
        <time>2013-08-22T17:20:35Z</time>
      </trkpt>
      <trkpt lat="44.79593" lon="4.99642">
        <ele>247</ele>
        <time>2013-08-22T17:20:36Z</time>
      </trkpt>
      <trkpt lat="44.79596" lon="4.99642">
        <ele>247</ele>
        <time>2013-08-22T17:20:37Z</time>
      </trkpt>
      <trkpt lat="44.79599" lon="4.99641">
        <ele>246</ele>
        <time>2013-08-22T17:20:38Z</time>
      </trkpt>
      <trkpt lat="44.79601" lon="4.9964">
        <ele>246</ele>
        <time>2013-08-22T17:20:39Z</time>
      </trkpt>
      <trkpt lat="44.79604" lon="4.99638">
        <ele>246</ele>
        <time>2013-08-22T17:20:40Z</time>
      </trkpt>
      <trkpt lat="44.79607" lon="4.99636">
        <ele>245</ele>
        <time>2013-08-22T17:20:41Z</time>
      </trkpt>
      <trkpt lat="44.79611" lon="4.99636">
        <ele>245</ele>
        <time>2013-08-22T17:20:42Z</time>
      </trkpt>
      <trkpt lat="44.79614" lon="4.99635">
        <ele>244</ele>
        <time>2013-08-22T17:20:43Z</time>
      </trkpt>
      <trkpt lat="44.79617" lon="4.99634">
        <ele>244</ele>
        <time>2013-08-22T17:20:44Z</time>
      </trkpt>
      <trkpt lat="44.7962" lon="4.99632">
        <ele>243</ele>
        <time>2013-08-22T17:20:45Z</time>
      </trkpt>
      <trkpt lat="44.79624" lon="4.99631">
        <ele>243</ele>
        <time>2013-08-22T17:20:46Z</time>
      </trkpt>
      <trkpt lat="44.79627" lon="4.9963">
        <ele>242</ele>
        <time>2013-08-22T17:20:47Z</time>
      </trkpt>
      <trkpt lat="44.79629" lon="4.99628">
        <ele>241</ele>
        <time>2013-08-22T17:20:48Z</time>
      </trkpt>
      <trkpt lat="44.79632" lon="4.99627">
        <ele>241</ele>
        <time>2013-08-22T17:20:49Z</time>
      </trkpt>
      <trkpt lat="44.79634" lon="4.99627">
        <ele>240</ele>
        <time>2013-08-22T17:20:50Z</time>
      </trkpt>
      <trkpt lat="44.79637" lon="4.99627">
        <ele>240</ele>
        <time>2013-08-22T17:20:51Z</time>
      </trkpt>
      <trkpt lat="44.79641" lon="4.99628">
        <ele>240</ele>
        <time>2013-08-22T17:20:52Z</time>
      </trkpt>
      <trkpt lat="44.79643" lon="4.99629">
        <ele>240</ele>
        <time>2013-08-22T17:20:53Z</time>
      </trkpt>
      <trkpt lat="44.79646" lon="4.9963">
        <ele>240</ele>
        <time>2013-08-22T17:20:54Z</time>
      </trkpt>
      <trkpt lat="44.79649" lon="4.99632">
        <ele>240</ele>
        <time>2013-08-22T17:20:55Z</time>
      </trkpt>
      <trkpt lat="44.79652" lon="4.99633">
        <ele>240</ele>
        <time>2013-08-22T17:20:56Z</time>
      </trkpt>
      <trkpt lat="44.79655" lon="4.99635">
        <ele>240</ele>
        <time>2013-08-22T17:20:57Z</time>
      </trkpt>
      <trkpt lat="44.79658" lon="4.99636">
        <ele>240</ele>
        <time>2013-08-22T17:20:58Z</time>
      </trkpt>
      <trkpt lat="44.79661" lon="4.99637">
        <ele>240</ele>
        <time>2013-08-22T17:20:59Z</time>
      </trkpt>
      <trkpt lat="44.79663" lon="4.99638">
        <ele>240</ele>
        <time>2013-08-22T17:21:00Z</time>
      </trkpt>
      <trkpt lat="44.79666" lon="4.99639">
        <ele>239</ele>
        <time>2013-08-22T17:21:01Z</time>
      </trkpt>
      <trkpt lat="44.79669" lon="4.9964">
        <ele>239</ele>
        <time>2013-08-22T17:21:02Z</time>
      </trkpt>
      <trkpt lat="44.79671" lon="4.99641">
        <ele>239</ele>
        <time>2013-08-22T17:21:03Z</time>
      </trkpt>
      <trkpt lat="44.79674" lon="4.99642">
        <ele>239</ele>
        <time>2013-08-22T17:21:04Z</time>
      </trkpt>
      <trkpt lat="44.79677" lon="4.99643">
        <ele>239</ele>
        <time>2013-08-22T17:21:05Z</time>
      </trkpt>
      <trkpt lat="44.7968" lon="4.99644">
        <ele>239</ele>
        <time>2013-08-22T17:21:06Z</time>
      </trkpt>
      <trkpt lat="44.79683" lon="4.99645">
        <ele>239</ele>
        <time>2013-08-22T17:21:07Z</time>
      </trkpt>
      <trkpt lat="44.79685" lon="4.99646">
        <ele>239</ele>
        <time>2013-08-22T17:21:08Z</time>
      </trkpt>
      <trkpt lat="44.79688" lon="4.99647">
        <ele>239</ele>
        <time>2013-08-22T17:21:09Z</time>
      </trkpt>
      <trkpt lat="44.79692" lon="4.99649">
        <ele>239</ele>
        <time>2013-08-22T17:21:10Z</time>
      </trkpt>
      <trkpt lat="44.79695" lon="4.9965">
        <ele>239</ele>
        <time>2013-08-22T17:21:11Z</time>
      </trkpt>
      <trkpt lat="44.79698" lon="4.99651">
        <ele>239</ele>
        <time>2013-08-22T17:21:12Z</time>
      </trkpt>
      <trkpt lat="44.79701" lon="4.99653">
        <ele>239</ele>
        <time>2013-08-22T17:21:13Z</time>
      </trkpt>
      <trkpt lat="44.79704" lon="4.99654">
        <ele>239</ele>
        <time>2013-08-22T17:21:14Z</time>
      </trkpt>
      <trkpt lat="44.79706" lon="4.99655">
        <ele>239</ele>
        <time>2013-08-22T17:21:15Z</time>
      </trkpt>
      <trkpt lat="44.79708" lon="4.99657">
        <ele>239</ele>
        <time>2013-08-22T17:21:16Z</time>
      </trkpt>
      <trkpt lat="44.79711" lon="4.9966">
        <ele>239</ele>
        <time>2013-08-22T17:21:17Z</time>
      </trkpt>
      <trkpt lat="44.79713" lon="4.99662">
        <ele>239</ele>
        <time>2013-08-22T17:21:18Z</time>
      </trkpt>
      <trkpt lat="44.79716" lon="4.99664">
        <ele>239</ele>
        <time>2013-08-22T17:21:19Z</time>
      </trkpt>
      <trkpt lat="44.79718" lon="4.99666">
        <ele>239</ele>
        <time>2013-08-22T17:21:20Z</time>
      </trkpt>
      <trkpt lat="44.7972" lon="4.99667">
        <ele>239</ele>
        <time>2013-08-22T17:21:21Z</time>
      </trkpt>
      <trkpt lat="44.79723" lon="4.99666">
        <ele>239</ele>
        <time>2013-08-22T17:21:22Z</time>
      </trkpt>
      <trkpt lat="44.79724" lon="4.99664">
        <ele>239</ele>
        <time>2013-08-22T17:21:23Z</time>
      </trkpt>
      <trkpt lat="44.79726" lon="4.99662">
        <ele>239</ele>
        <time>2013-08-22T17:21:24Z</time>
      </trkpt>
      <trkpt lat="44.79728" lon="4.99658">
        <ele>239</ele>
        <time>2013-08-22T17:21:25Z</time>
      </trkpt>
      <trkpt lat="44.7973" lon="4.99654">
        <ele>239</ele>
        <time>2013-08-22T17:21:26Z</time>
      </trkpt>
      <trkpt lat="44.79732" lon="4.9965">
        <ele>239</ele>
        <time>2013-08-22T17:21:27Z</time>
      </trkpt>
      <trkpt lat="44.79734" lon="4.99647">
        <ele>239</ele>
        <time>2013-08-22T17:21:28Z</time>
      </trkpt>
      <trkpt lat="44.79736" lon="4.99644">
        <ele>239</ele>
        <time>2013-08-22T17:21:29Z</time>
      </trkpt>
      <trkpt lat="44.79737" lon="4.99642">
        <ele>239</ele>
        <time>2013-08-22T17:21:30Z</time>
      </trkpt>
      <trkpt lat="44.79739" lon="4.99639">
        <ele>239</ele>
        <time>2013-08-22T17:21:31Z</time>
      </trkpt>
      <trkpt lat="44.79739" lon="4.99636">
        <ele>239</ele>
        <time>2013-08-22T17:21:32Z</time>
      </trkpt>
      <trkpt lat="44.7974" lon="4.99633">
        <ele>239</ele>
        <time>2013-08-22T17:21:33Z</time>
      </trkpt>
      <trkpt lat="44.79741" lon="4.99629">
        <ele>239</ele>
        <time>2013-08-22T17:21:34Z</time>
      </trkpt>
      <trkpt lat="44.79742" lon="4.99625">
        <ele>239</ele>
        <time>2013-08-22T17:21:35Z</time>
      </trkpt>
      <trkpt lat="44.79744" lon="4.99621">
        <ele>238</ele>
        <time>2013-08-22T17:21:36Z</time>
      </trkpt>
      <trkpt lat="44.79745" lon="4.99618">
        <ele>237</ele>
        <time>2013-08-22T17:21:37Z</time>
      </trkpt>
      <trkpt lat="44.79748" lon="4.99615">
        <ele>237</ele>
        <time>2013-08-22T17:21:38Z</time>
      </trkpt>
      <trkpt lat="44.7975" lon="4.99612">
        <ele>236</ele>
        <time>2013-08-22T17:21:39Z</time>
      </trkpt>
      <trkpt lat="44.79753" lon="4.9961">
        <ele>236</ele>
        <time>2013-08-22T17:21:40Z</time>
      </trkpt>
      <trkpt lat="44.79755" lon="4.99608">
        <ele>236</ele>
        <time>2013-08-22T17:21:41Z</time>
      </trkpt>
      <trkpt lat="44.79758" lon="4.99606">
        <ele>236</ele>
        <time>2013-08-22T17:21:42Z</time>
      </trkpt>
      <trkpt lat="44.79761" lon="4.99604">
        <ele>236</ele>
        <time>2013-08-22T17:21:43Z</time>
      </trkpt>
      <trkpt lat="44.79764" lon="4.99602">
        <ele>236</ele>
        <time>2013-08-22T17:21:44Z</time>
      </trkpt>
      <trkpt lat="44.79767" lon="4.996">
        <ele>236</ele>
        <time>2013-08-22T17:21:45Z</time>
      </trkpt>
      <trkpt lat="44.7977" lon="4.99598">
        <ele>236</ele>
        <time>2013-08-22T17:21:46Z</time>
      </trkpt>
      <trkpt lat="44.79773" lon="4.99596">
        <ele>236</ele>
        <time>2013-08-22T17:21:47Z</time>
      </trkpt>
      <trkpt lat="44.79774" lon="4.99594">
        <ele>236</ele>
        <time>2013-08-22T17:21:48Z</time>
      </trkpt>
      <trkpt lat="44.79776" lon="4.99591">
        <ele>236</ele>
        <time>2013-08-22T17:21:49Z</time>
      </trkpt>
      <trkpt lat="44.79776" lon="4.99588">
        <ele>236</ele>
        <time>2013-08-22T17:21:50Z</time>
      </trkpt>
      <trkpt lat="44.79777" lon="4.99585">
        <ele>236</ele>
        <time>2013-08-22T17:21:51Z</time>
      </trkpt>
      <trkpt lat="44.79778" lon="4.99583">
        <ele>236</ele>
        <time>2013-08-22T17:21:52Z</time>
      </trkpt>
      <trkpt lat="44.79777" lon="4.99581">
        <ele>236</ele>
        <time>2013-08-22T17:21:53Z</time>
      </trkpt>
      <trkpt lat="44.79776" lon="4.99579">
        <ele>236</ele>
        <time>2013-08-22T17:21:54Z</time>
      </trkpt>
      <trkpt lat="44.79775" lon="4.99578">
        <ele>236</ele>
        <time>2013-08-22T17:21:55Z</time>
      </trkpt>
      <trkpt lat="44.79773" lon="4.99576">
        <ele>236</ele>
        <time>2013-08-22T17:21:56Z</time>
      </trkpt>
      <trkpt lat="44.79771" lon="4.99575">
        <ele>236</ele>
        <time>2013-08-22T17:21:57Z</time>
      </trkpt>
      <trkpt lat="44.79769" lon="4.99574">
        <ele>236</ele>
        <time>2013-08-22T17:21:58Z</time>
      </trkpt>
      <trkpt lat="44.79767" lon="4.99572">
        <ele>236</ele>
        <time>2013-08-22T17:21:59Z</time>
      </trkpt>
      <trkpt lat="44.79766" lon="4.9957">
        <ele>236</ele>
        <time>2013-08-22T17:22:00Z</time>
      </trkpt>
      <trkpt lat="44.79764" lon="4.99568">
        <ele>236</ele>
        <time>2013-08-22T17:22:01Z</time>
      </trkpt>
      <trkpt lat="44.79763" lon="4.99567">
        <ele>237</ele>
        <time>2013-08-22T17:22:02Z</time>
      </trkpt>
      <trkpt lat="44.79762" lon="4.99565">
        <ele>238</ele>
        <time>2013-08-22T17:22:03Z</time>
      </trkpt>
      <trkpt lat="44.7976" lon="4.99563">
        <ele>239</ele>
        <time>2013-08-22T17:22:04Z</time>
      </trkpt>
      <trkpt lat="44.79758" lon="4.9956">
        <ele>239</ele>
        <time>2013-08-22T17:22:05Z</time>
      </trkpt>
      <trkpt lat="44.79756" lon="4.99558">
        <ele>240</ele>
        <time>2013-08-22T17:22:06Z</time>
      </trkpt>
      <trkpt lat="44.79755" lon="4.99555">
        <ele>240</ele>
        <time>2013-08-22T17:22:07Z</time>
      </trkpt>
      <trkpt lat="44.79753" lon="4.99553">
        <ele>241</ele>
        <time>2013-08-22T17:22:08Z</time>
      </trkpt>
      <trkpt lat="44.79752" lon="4.99551">
        <ele>241</ele>
        <time>2013-08-22T17:22:09Z</time>
      </trkpt>
      <trkpt lat="44.7975" lon="4.99548">
        <ele>241</ele>
        <time>2013-08-22T17:22:10Z</time>
      </trkpt>
      <trkpt lat="44.79748" lon="4.99545">
        <ele>241</ele>
        <time>2013-08-22T17:22:11Z</time>
      </trkpt>
      <trkpt lat="44.79746" lon="4.99542">
        <ele>241</ele>
        <time>2013-08-22T17:22:12Z</time>
      </trkpt>
      <trkpt lat="44.79744" lon="4.99538">
        <ele>241</ele>
        <time>2013-08-22T17:22:13Z</time>
      </trkpt>
      <trkpt lat="44.79742" lon="4.99536">
        <ele>241</ele>
        <time>2013-08-22T17:22:14Z</time>
      </trkpt>
      <trkpt lat="44.7974" lon="4.99535">
        <ele>241</ele>
        <time>2013-08-22T17:22:15Z</time>
      </trkpt>
      <trkpt lat="44.79738" lon="4.99533">
        <ele>241</ele>
        <time>2013-08-22T17:22:16Z</time>
      </trkpt>
      <trkpt lat="44.79736" lon="4.99532">
        <ele>241</ele>
        <time>2013-08-22T17:22:17Z</time>
      </trkpt>
      <trkpt lat="44.79734" lon="4.9953">
        <ele>241</ele>
        <time>2013-08-22T17:22:18Z</time>
      </trkpt>
      <trkpt lat="44.79731" lon="4.99529">
        <ele>242</ele>
        <time>2013-08-22T17:22:19Z</time>
      </trkpt>
      <trkpt lat="44.79729" lon="4.99527">
        <ele>242</ele>
        <time>2013-08-22T17:22:20Z</time>
      </trkpt>
      <trkpt lat="44.79728" lon="4.99526">
        <ele>243</ele>
        <time>2013-08-22T17:22:21Z</time>
      </trkpt>
      <trkpt lat="44.79726" lon="4.99525">
        <ele>243</ele>
        <time>2013-08-22T17:22:22Z</time>
      </trkpt>
      <trkpt lat="44.79724" lon="4.99524">
        <ele>244</ele>
        <time>2013-08-22T17:22:23Z</time>
      </trkpt>
      <trkpt lat="44.79722" lon="4.99522">
        <ele>244</ele>
        <time>2013-08-22T17:22:24Z</time>
      </trkpt>
      <trkpt lat="44.7972" lon="4.9952">
        <ele>245</ele>
        <time>2013-08-22T17:22:25Z</time>
      </trkpt>
      <trkpt lat="44.79718" lon="4.99518">
        <ele>245</ele>
        <time>2013-08-22T17:22:26Z</time>
      </trkpt>
      <trkpt lat="44.79716" lon="4.99517">
        <ele>245</ele>
        <time>2013-08-22T17:22:27Z</time>
      </trkpt>
      <trkpt lat="44.79715" lon="4.99515">
        <ele>245</ele>
        <time>2013-08-22T17:22:28Z</time>
      </trkpt>
      <trkpt lat="44.79713" lon="4.99513">
        <ele>245</ele>
        <time>2013-08-22T17:22:29Z</time>
      </trkpt>
      <trkpt lat="44.79711" lon="4.99512">
        <ele>245</ele>
        <time>2013-08-22T17:22:30Z</time>
      </trkpt>
      <trkpt lat="44.7971" lon="4.9951">
        <ele>246</ele>
        <time>2013-08-22T17:22:31Z</time>
      </trkpt>
      <trkpt lat="44.79708" lon="4.99509">
        <ele>246</ele>
        <time>2013-08-22T17:22:32Z</time>
      </trkpt>
      <trkpt lat="44.79706" lon="4.99508">
        <ele>246</ele>
        <time>2013-08-22T17:22:33Z</time>
      </trkpt>
      <trkpt lat="44.79704" lon="4.99507">
        <ele>247</ele>
        <time>2013-08-22T17:22:34Z</time>
      </trkpt>
      <trkpt lat="44.79702" lon="4.99505">
        <ele>248</ele>
        <time>2013-08-22T17:22:35Z</time>
      </trkpt>
      <trkpt lat="44.797" lon="4.99503">
        <ele>249</ele>
        <time>2013-08-22T17:22:36Z</time>
      </trkpt>
      <trkpt lat="44.79699" lon="4.99501">
        <ele>249</ele>
        <time>2013-08-22T17:22:37Z</time>
      </trkpt>
      <trkpt lat="44.79697" lon="4.99498">
        <ele>250</ele>
        <time>2013-08-22T17:22:38Z</time>
      </trkpt>
      <trkpt lat="44.79695" lon="4.99497">
        <ele>250</ele>
        <time>2013-08-22T17:22:39Z</time>
      </trkpt>
      <trkpt lat="44.79694" lon="4.99495">
        <ele>250</ele>
        <time>2013-08-22T17:22:40Z</time>
      </trkpt>
      <trkpt lat="44.79692" lon="4.99493">
        <ele>250</ele>
        <time>2013-08-22T17:22:41Z</time>
      </trkpt>
      <trkpt lat="44.79691" lon="4.99491">
        <ele>251</ele>
        <time>2013-08-22T17:22:42Z</time>
      </trkpt>
      <trkpt lat="44.79689" lon="4.99489">
        <ele>252</ele>
        <time>2013-08-22T17:22:43Z</time>
      </trkpt>
      <trkpt lat="44.79688" lon="4.99486">
        <ele>252</ele>
        <time>2013-08-22T17:22:44Z</time>
      </trkpt>
      <trkpt lat="44.79686" lon="4.99484">
        <ele>253</ele>
        <time>2013-08-22T17:22:45Z</time>
      </trkpt>
      <trkpt lat="44.79684" lon="4.99483">
        <ele>253</ele>
        <time>2013-08-22T17:22:46Z</time>
      </trkpt>
      <trkpt lat="44.79682" lon="4.99481">
        <ele>254</ele>
        <time>2013-08-22T17:22:47Z</time>
      </trkpt>
      <trkpt lat="44.79679" lon="4.99479">
        <ele>254</ele>
        <time>2013-08-22T17:22:48Z</time>
      </trkpt>
      <trkpt lat="44.79678" lon="4.99477">
        <ele>255</ele>
        <time>2013-08-22T17:22:49Z</time>
      </trkpt>
      <trkpt lat="44.79677" lon="4.99475">
        <ele>255</ele>
        <time>2013-08-22T17:22:50Z</time>
      </trkpt>
      <trkpt lat="44.79676" lon="4.99473">
        <ele>256</ele>
        <time>2013-08-22T17:22:51Z</time>
      </trkpt>
      <trkpt lat="44.79674" lon="4.99471">
        <ele>256</ele>
        <time>2013-08-22T17:22:52Z</time>
      </trkpt>
      <trkpt lat="44.79671" lon="4.99469">
        <ele>256</ele>
        <time>2013-08-22T17:22:53Z</time>
      </trkpt>
      <trkpt lat="44.7967" lon="4.99467">
        <ele>257</ele>
        <time>2013-08-22T17:22:54Z</time>
      </trkpt>
      <trkpt lat="44.79668" lon="4.99464">
        <ele>258</ele>
        <time>2013-08-22T17:22:55Z</time>
      </trkpt>
      <trkpt lat="44.79666" lon="4.99461">
        <ele>258</ele>
        <time>2013-08-22T17:22:56Z</time>
      </trkpt>
      <trkpt lat="44.79664" lon="4.9946">
        <ele>259</ele>
        <time>2013-08-22T17:22:57Z</time>
      </trkpt>
      <trkpt lat="44.79662" lon="4.99458">
        <ele>259</ele>
        <time>2013-08-22T17:22:58Z</time>
      </trkpt>
      <trkpt lat="44.7966" lon="4.99455">
        <ele>259</ele>
        <time>2013-08-22T17:22:59Z</time>
      </trkpt>
      <trkpt lat="44.79658" lon="4.99453">
        <ele>260</ele>
        <time>2013-08-22T17:23:00Z</time>
      </trkpt>
      <trkpt lat="44.79656" lon="4.9945">
        <ele>260</ele>
        <time>2013-08-22T17:23:01Z</time>
      </trkpt>
      <trkpt lat="44.79654" lon="4.99448">
        <ele>260</ele>
        <time>2013-08-22T17:23:02Z</time>
      </trkpt>
      <trkpt lat="44.79652" lon="4.99446">
        <ele>260</ele>
        <time>2013-08-22T17:23:03Z</time>
      </trkpt>
      <trkpt lat="44.79649" lon="4.99445">
        <ele>260</ele>
        <time>2013-08-22T17:23:04Z</time>
      </trkpt>
      <trkpt lat="44.79647" lon="4.99443">
        <ele>260</ele>
        <time>2013-08-22T17:23:05Z</time>
      </trkpt>
      <trkpt lat="44.79645" lon="4.99442">
        <ele>260</ele>
        <time>2013-08-22T17:23:06Z</time>
      </trkpt>
      <trkpt lat="44.79642" lon="4.99442">
        <ele>260</ele>
        <time>2013-08-22T17:23:07Z</time>
      </trkpt>
      <trkpt lat="44.7964" lon="4.99441">
        <ele>260</ele>
        <time>2013-08-22T17:23:08Z</time>
      </trkpt>
      <trkpt lat="44.79638" lon="4.9944">
        <ele>261</ele>
        <time>2013-08-22T17:23:09Z</time>
      </trkpt>
      <trkpt lat="44.79637" lon="4.99439">
        <ele>261</ele>
        <time>2013-08-22T17:23:10Z</time>
      </trkpt>
      <trkpt lat="44.79634" lon="4.99438">
        <ele>261</ele>
        <time>2013-08-22T17:23:11Z</time>
      </trkpt>
      <trkpt lat="44.79632" lon="4.99436">
        <ele>262</ele>
        <time>2013-08-22T17:23:12Z</time>
      </trkpt>
      <trkpt lat="44.79629" lon="4.99434">
        <ele>262</ele>
        <time>2013-08-22T17:23:13Z</time>
      </trkpt>
      <trkpt lat="44.79626" lon="4.99432">
        <ele>262</ele>
        <time>2013-08-22T17:23:14Z</time>
      </trkpt>
      <trkpt lat="44.79624" lon="4.9943">
        <ele>262</ele>
        <time>2013-08-22T17:23:15Z</time>
      </trkpt>
      <trkpt lat="44.79621" lon="4.99429">
        <ele>262</ele>
        <time>2013-08-22T17:23:16Z</time>
      </trkpt>
      <trkpt lat="44.79619" lon="4.99427">
        <ele>262</ele>
        <time>2013-08-22T17:23:17Z</time>
      </trkpt>
      <trkpt lat="44.79617" lon="4.99426">
        <ele>262</ele>
        <time>2013-08-22T17:23:18Z</time>
      </trkpt>
      <trkpt lat="44.79614" lon="4.99424">
        <ele>262</ele>
        <time>2013-08-22T17:23:19Z</time>
      </trkpt>
      <trkpt lat="44.79612" lon="4.99422">
        <ele>262</ele>
        <time>2013-08-22T17:23:20Z</time>
      </trkpt>
      <trkpt lat="44.79609" lon="4.9942">
        <ele>262</ele>
        <time>2013-08-22T17:23:21Z</time>
      </trkpt>
      <trkpt lat="44.79606" lon="4.99418">
        <ele>262</ele>
        <time>2013-08-22T17:23:22Z</time>
      </trkpt>
      <trkpt lat="44.79603" lon="4.99417">
        <ele>262</ele>
        <time>2013-08-22T17:23:23Z</time>
      </trkpt>
      <trkpt lat="44.79601" lon="4.99415">
        <ele>262</ele>
        <time>2013-08-22T17:23:24Z</time>
      </trkpt>
      <trkpt lat="44.79598" lon="4.99413">
        <ele>262</ele>
        <time>2013-08-22T17:23:25Z</time>
      </trkpt>
      <trkpt lat="44.79596" lon="4.99411">
        <ele>262</ele>
        <time>2013-08-22T17:23:26Z</time>
      </trkpt>
      <trkpt lat="44.79594" lon="4.99408">
        <ele>262</ele>
        <time>2013-08-22T17:23:27Z</time>
      </trkpt>
      <trkpt lat="44.79593" lon="4.99406">
        <ele>262</ele>
        <time>2013-08-22T17:23:28Z</time>
      </trkpt>
      <trkpt lat="44.79591" lon="4.99404">
        <ele>262</ele>
        <time>2013-08-22T17:23:29Z</time>
      </trkpt>
      <trkpt lat="44.79589" lon="4.99403">
        <ele>262</ele>
        <time>2013-08-22T17:23:30Z</time>
      </trkpt>
      <trkpt lat="44.79586" lon="4.99401">
        <ele>262</ele>
        <time>2013-08-22T17:23:31Z</time>
      </trkpt>
      <trkpt lat="44.79584" lon="4.99399">
        <ele>262</ele>
        <time>2013-08-22T17:23:32Z</time>
      </trkpt>
      <trkpt lat="44.79581" lon="4.99397">
        <ele>262</ele>
        <time>2013-08-22T17:23:33Z</time>
      </trkpt>
      <trkpt lat="44.79578" lon="4.99395">
        <ele>262</ele>
        <time>2013-08-22T17:23:34Z</time>
      </trkpt>
      <trkpt lat="44.79576" lon="4.99393">
        <ele>262</ele>
        <time>2013-08-22T17:23:35Z</time>
      </trkpt>
      <trkpt lat="44.79574" lon="4.99391">
        <ele>262</ele>
        <time>2013-08-22T17:23:36Z</time>
      </trkpt>
      <trkpt lat="44.79572" lon="4.99389">
        <ele>262</ele>
        <time>2013-08-22T17:23:37Z</time>
      </trkpt>
      <trkpt lat="44.7957" lon="4.99387">
        <ele>262</ele>
        <time>2013-08-22T17:23:38Z</time>
      </trkpt>
      <trkpt lat="44.79568" lon="4.99385">
        <ele>262</ele>
        <time>2013-08-22T17:23:39Z</time>
      </trkpt>
      <trkpt lat="44.79567" lon="4.99383">
        <ele>262</ele>
        <time>2013-08-22T17:23:40Z</time>
      </trkpt>
      <trkpt lat="44.79565" lon="4.99381">
        <ele>263</ele>
        <time>2013-08-22T17:23:41Z</time>
      </trkpt>
      <trkpt lat="44.79563" lon="4.9938">
        <ele>263</ele>
        <time>2013-08-22T17:23:42Z</time>
      </trkpt>
      <trkpt lat="44.79561" lon="4.99379">
        <ele>263</ele>
        <time>2013-08-22T17:23:43Z</time>
      </trkpt>
      <trkpt lat="44.79559" lon="4.99376">
        <ele>263</ele>
        <time>2013-08-22T17:23:44Z</time>
      </trkpt>
      <trkpt lat="44.79556" lon="4.99375">
        <ele>263</ele>
        <time>2013-08-22T17:23:45Z</time>
      </trkpt>
      <trkpt lat="44.79554" lon="4.99373">
        <ele>263</ele>
        <time>2013-08-22T17:23:46Z</time>
      </trkpt>
      <trkpt lat="44.79552" lon="4.99372">
        <ele>263</ele>
        <time>2013-08-22T17:23:47Z</time>
      </trkpt>
      <trkpt lat="44.79549" lon="4.99372">
        <ele>263</ele>
        <time>2013-08-22T17:23:48Z</time>
      </trkpt>
      <trkpt lat="44.79546" lon="4.99372">
        <ele>263</ele>
        <time>2013-08-22T17:23:49Z</time>
      </trkpt>
      <trkpt lat="44.79544" lon="4.99371">
        <ele>263</ele>
        <time>2013-08-22T17:23:50Z</time>
      </trkpt>
      <trkpt lat="44.79541" lon="4.99371">
        <ele>263</ele>
        <time>2013-08-22T17:23:51Z</time>
      </trkpt>
      <trkpt lat="44.79539" lon="4.9937">
        <ele>263</ele>
        <time>2013-08-22T17:23:52Z</time>
      </trkpt>
      <trkpt lat="44.79537" lon="4.99369">
        <ele>263</ele>
        <time>2013-08-22T17:23:53Z</time>
      </trkpt>
      <trkpt lat="44.79535" lon="4.99367">
        <ele>263</ele>
        <time>2013-08-22T17:23:54Z</time>
      </trkpt>
      <trkpt lat="44.79533" lon="4.99365">
        <ele>263</ele>
        <time>2013-08-22T17:23:55Z</time>
      </trkpt>
      <trkpt lat="44.79531" lon="4.99363">
        <ele>263</ele>
        <time>2013-08-22T17:23:56Z</time>
      </trkpt>
      <trkpt lat="44.79529" lon="4.9936">
        <ele>263</ele>
        <time>2013-08-22T17:23:57Z</time>
      </trkpt>
      <trkpt lat="44.79527" lon="4.99358">
        <ele>263</ele>
        <time>2013-08-22T17:23:58Z</time>
      </trkpt>
      <trkpt lat="44.79525" lon="4.99356">
        <ele>263</ele>
        <time>2013-08-22T17:23:59Z</time>
      </trkpt>
      <trkpt lat="44.79522" lon="4.99355">
        <ele>263</ele>
        <time>2013-08-22T17:24:00Z</time>
      </trkpt>
      <trkpt lat="44.7952" lon="4.99354">
        <ele>263</ele>
        <time>2013-08-22T17:24:01Z</time>
      </trkpt>
      <trkpt lat="44.79518" lon="4.99353">
        <ele>263</ele>
        <time>2013-08-22T17:24:02Z</time>
      </trkpt>
      <trkpt lat="44.79516" lon="4.99351">
        <ele>263</ele>
        <time>2013-08-22T17:24:03Z</time>
      </trkpt>
      <trkpt lat="44.79513" lon="4.9935">
        <ele>264</ele>
        <time>2013-08-22T17:24:04Z</time>
      </trkpt>
      <trkpt lat="44.79511" lon="4.9935">
        <ele>264</ele>
        <time>2013-08-22T17:24:05Z</time>
      </trkpt>
      <trkpt lat="44.79509" lon="4.99349">
        <ele>264</ele>
        <time>2013-08-22T17:24:06Z</time>
      </trkpt>
      <trkpt lat="44.79507" lon="4.99348">
        <ele>264</ele>
        <time>2013-08-22T17:24:07Z</time>
      </trkpt>
      <trkpt lat="44.79504" lon="4.99347">
        <ele>265</ele>
        <time>2013-08-22T17:24:08Z</time>
      </trkpt>
      <trkpt lat="44.79502" lon="4.99347">
        <ele>265</ele>
        <time>2013-08-22T17:24:09Z</time>
      </trkpt>
      <trkpt lat="44.795" lon="4.99346">
        <ele>266</ele>
        <time>2013-08-22T17:24:10Z</time>
      </trkpt>
      <trkpt lat="44.79497" lon="4.99347">
        <ele>267</ele>
        <time>2013-08-22T17:24:11Z</time>
      </trkpt>
      <trkpt lat="44.79494" lon="4.99347">
        <ele>268</ele>
        <time>2013-08-22T17:24:12Z</time>
      </trkpt>
      <trkpt lat="44.79492" lon="4.99347">
        <ele>269</ele>
        <time>2013-08-22T17:24:13Z</time>
      </trkpt>
      <trkpt lat="44.7949" lon="4.99347">
        <ele>269</ele>
        <time>2013-08-22T17:24:14Z</time>
      </trkpt>
      <trkpt lat="44.79487" lon="4.99348">
        <ele>270</ele>
        <time>2013-08-22T17:24:15Z</time>
      </trkpt>
      <trkpt lat="44.79484" lon="4.99349">
        <ele>271</ele>
        <time>2013-08-22T17:24:16Z</time>
      </trkpt>
      <trkpt lat="44.79482" lon="4.99349">
        <ele>272</ele>
        <time>2013-08-22T17:24:17Z</time>
      </trkpt>
      <trkpt lat="44.7948" lon="4.99348">
        <ele>273</ele>
        <time>2013-08-22T17:24:18Z</time>
      </trkpt>
      <trkpt lat="44.79477" lon="4.99348">
        <ele>273</ele>
        <time>2013-08-22T17:24:19Z</time>
      </trkpt>
      <trkpt lat="44.79475" lon="4.99347">
        <ele>274</ele>
        <time>2013-08-22T17:24:20Z</time>
      </trkpt>
      <trkpt lat="44.79474" lon="4.99346">
        <ele>274</ele>
        <time>2013-08-22T17:24:21Z</time>
      </trkpt>
      <trkpt lat="44.79472" lon="4.99345">
        <ele>275</ele>
        <time>2013-08-22T17:24:22Z</time>
      </trkpt>
      <trkpt lat="44.79471" lon="4.99344">
        <ele>275</ele>
        <time>2013-08-22T17:24:23Z</time>
      </trkpt>
      <trkpt lat="44.7947" lon="4.99343">
        <ele>275</ele>
        <time>2013-08-22T17:24:24Z</time>
      </trkpt>
      <trkpt lat="44.79468" lon="4.99342">
        <ele>275</ele>
        <time>2013-08-22T17:24:25Z</time>
      </trkpt>
      <trkpt lat="44.79467" lon="4.9934">
        <ele>275</ele>
        <time>2013-08-22T17:24:26Z</time>
      </trkpt>
      <trkpt lat="44.79466" lon="4.99338">
        <ele>275</ele>
        <time>2013-08-22T17:24:27Z</time>
      </trkpt>
      <trkpt lat="44.79464" lon="4.99336">
        <ele>275</ele>
        <time>2013-08-22T17:24:28Z</time>
      </trkpt>
      <trkpt lat="44.79462" lon="4.99334">
        <ele>275</ele>
        <time>2013-08-22T17:24:29Z</time>
      </trkpt>
      <trkpt lat="44.7946" lon="4.99332">
        <ele>275</ele>
        <time>2013-08-22T17:24:30Z</time>
      </trkpt>
      <trkpt lat="44.79458" lon="4.9933">
        <ele>275</ele>
        <time>2013-08-22T17:24:31Z</time>
      </trkpt>
      <trkpt lat="44.79456" lon="4.99328">
        <ele>275</ele>
        <time>2013-08-22T17:24:32Z</time>
      </trkpt>
      <trkpt lat="44.79454" lon="4.99326">
        <ele>276</ele>
        <time>2013-08-22T17:24:33Z</time>
      </trkpt>
      <trkpt lat="44.79452" lon="4.99325">
        <ele>276</ele>
        <time>2013-08-22T17:24:34Z</time>
      </trkpt>
      <trkpt lat="44.7945" lon="4.99324">
        <ele>276</ele>
        <time>2013-08-22T17:24:35Z</time>
      </trkpt>
      <trkpt lat="44.79448" lon="4.99323">
        <ele>276</ele>
        <time>2013-08-22T17:24:36Z</time>
      </trkpt>
      <trkpt lat="44.79446" lon="4.99321">
        <ele>276</ele>
        <time>2013-08-22T17:24:37Z</time>
      </trkpt>
      <trkpt lat="44.79445" lon="4.9932">
        <ele>276</ele>
        <time>2013-08-22T17:24:38Z</time>
      </trkpt>
      <trkpt lat="44.79443" lon="4.99319">
        <ele>276</ele>
        <time>2013-08-22T17:24:39Z</time>
      </trkpt>
      <trkpt lat="44.79441" lon="4.99317">
        <ele>277</ele>
        <time>2013-08-22T17:24:40Z</time>
      </trkpt>
      <trkpt lat="44.79438" lon="4.99316">
        <ele>277</ele>
        <time>2013-08-22T17:24:41Z</time>
      </trkpt>
      <trkpt lat="44.79436" lon="4.99315">
        <ele>278</ele>
        <time>2013-08-22T17:24:42Z</time>
      </trkpt>
      <trkpt lat="44.79434" lon="4.99313">
        <ele>278</ele>
        <time>2013-08-22T17:24:43Z</time>
      </trkpt>
      <trkpt lat="44.79432" lon="4.99312">
        <ele>278</ele>
        <time>2013-08-22T17:24:44Z</time>
      </trkpt>
      <trkpt lat="44.79429" lon="4.9931">
        <ele>278</ele>
        <time>2013-08-22T17:24:45Z</time>
      </trkpt>
      <trkpt lat="44.79426" lon="4.99308">
        <ele>278</ele>
        <time>2013-08-22T17:24:46Z</time>
      </trkpt>
      <trkpt lat="44.79424" lon="4.99307">
        <ele>278</ele>
        <time>2013-08-22T17:24:47Z</time>
      </trkpt>
      <trkpt lat="44.79421" lon="4.99307">
        <ele>278</ele>
        <time>2013-08-22T17:24:48Z</time>
      </trkpt>
      <trkpt lat="44.79418" lon="4.99306">
        <ele>278</ele>
        <time>2013-08-22T17:24:49Z</time>
      </trkpt>
      <trkpt lat="44.79416" lon="4.99306">
        <ele>278</ele>
        <time>2013-08-22T17:24:50Z</time>
      </trkpt>
      <trkpt lat="44.79413" lon="4.99305">
        <ele>278</ele>
        <time>2013-08-22T17:24:51Z</time>
      </trkpt>
      <trkpt lat="44.79411" lon="4.99303">
        <ele>279</ele>
        <time>2013-08-22T17:24:52Z</time>
      </trkpt>
      <trkpt lat="44.79408" lon="4.99302">
        <ele>279</ele>
        <time>2013-08-22T17:24:53Z</time>
      </trkpt>
      <trkpt lat="44.79406" lon="4.99301">
        <ele>279</ele>
        <time>2013-08-22T17:24:54Z</time>
      </trkpt>
      <trkpt lat="44.79403" lon="4.993">
        <ele>279</ele>
        <time>2013-08-22T17:24:55Z</time>
      </trkpt>
      <trkpt lat="44.79401" lon="4.99299">
        <ele>279</ele>
        <time>2013-08-22T17:24:56Z</time>
      </trkpt>
      <trkpt lat="44.79398" lon="4.99298">
        <ele>279</ele>
        <time>2013-08-22T17:24:57Z</time>
      </trkpt>
      <trkpt lat="44.79396" lon="4.99296">
        <ele>279</ele>
        <time>2013-08-22T17:24:58Z</time>
      </trkpt>
      <trkpt lat="44.79393" lon="4.99294">
        <ele>279</ele>
        <time>2013-08-22T17:24:59Z</time>
      </trkpt>
      <trkpt lat="44.79391" lon="4.99292">
        <ele>279</ele>
        <time>2013-08-22T17:25:00Z</time>
      </trkpt>
      <trkpt lat="44.79388" lon="4.9929">
        <ele>279</ele>
        <time>2013-08-22T17:25:01Z</time>
      </trkpt>
      <trkpt lat="44.79386" lon="4.99289">
        <ele>279</ele>
        <time>2013-08-22T17:25:02Z</time>
      </trkpt>
      <trkpt lat="44.79383" lon="4.99288">
        <ele>279</ele>
        <time>2013-08-22T17:25:03Z</time>
      </trkpt>
      <trkpt lat="44.79381" lon="4.99288">
        <ele>280</ele>
        <time>2013-08-22T17:25:04Z</time>
      </trkpt>
      <trkpt lat="44.79379" lon="4.99288">
        <ele>280</ele>
        <time>2013-08-22T17:25:05Z</time>
      </trkpt>
      <trkpt lat="44.79377" lon="4.99288">
        <ele>280</ele>
        <time>2013-08-22T17:25:06Z</time>
      </trkpt>
      <trkpt lat="44.79375" lon="4.99288">
        <ele>280</ele>
        <time>2013-08-22T17:25:07Z</time>
      </trkpt>
      <trkpt lat="44.79373" lon="4.99287">
        <ele>280</ele>
        <time>2013-08-22T17:25:08Z</time>
      </trkpt>
      <trkpt lat="44.7937" lon="4.99287">
        <ele>280</ele>
        <time>2013-08-22T17:25:09Z</time>
      </trkpt>
      <trkpt lat="44.79368" lon="4.99286">
        <ele>280</ele>
        <time>2013-08-22T17:25:10Z</time>
      </trkpt>
      <trkpt lat="44.79364" lon="4.99286">
        <ele>280</ele>
        <time>2013-08-22T17:25:11Z</time>
      </trkpt>
      <trkpt lat="44.79362" lon="4.99285">
        <ele>280</ele>
        <time>2013-08-22T17:25:12Z</time>
      </trkpt>
      <trkpt lat="44.79359" lon="4.99285">
        <ele>280</ele>
        <time>2013-08-22T17:25:13Z</time>
      </trkpt>
      <trkpt lat="44.79356" lon="4.99285">
        <ele>280</ele>
        <time>2013-08-22T17:25:14Z</time>
      </trkpt>
      <trkpt lat="44.79353" lon="4.99284">
        <ele>280</ele>
        <time>2013-08-22T17:25:15Z</time>
      </trkpt>
      <trkpt lat="44.7935" lon="4.99282">
        <ele>280</ele>
        <time>2013-08-22T17:25:16Z</time>
      </trkpt>
      <trkpt lat="44.79347" lon="4.9928">
        <ele>280</ele>
        <time>2013-08-22T17:25:17Z</time>
      </trkpt>
      <trkpt lat="44.79343" lon="4.99279">
        <ele>280</ele>
        <time>2013-08-22T17:25:18Z</time>
      </trkpt>
      <trkpt lat="44.7934" lon="4.99279">
        <ele>280</ele>
        <time>2013-08-22T17:25:19Z</time>
      </trkpt>
      <trkpt lat="44.79336" lon="4.99279">
        <ele>280</ele>
        <time>2013-08-22T17:25:20Z</time>
      </trkpt>
      <trkpt lat="44.79333" lon="4.99278">
        <ele>280</ele>
        <time>2013-08-22T17:25:21Z</time>
      </trkpt>
      <trkpt lat="44.79331" lon="4.99277">
        <ele>280</ele>
        <time>2013-08-22T17:25:22Z</time>
      </trkpt>
      <trkpt lat="44.79328" lon="4.99277">
        <ele>280</ele>
        <time>2013-08-22T17:25:23Z</time>
      </trkpt>
      <trkpt lat="44.79325" lon="4.99276">
        <ele>280</ele>
        <time>2013-08-22T17:25:24Z</time>
      </trkpt>
      <trkpt lat="44.79323" lon="4.99275">
        <ele>280</ele>
        <time>2013-08-22T17:25:25Z</time>
      </trkpt>
      <trkpt lat="44.7932" lon="4.99273">
        <ele>281</ele>
        <time>2013-08-22T17:25:26Z</time>
      </trkpt>
      <trkpt lat="44.79318" lon="4.99271">
        <ele>281</ele>
        <time>2013-08-22T17:25:27Z</time>
      </trkpt>
      <trkpt lat="44.79316" lon="4.99269">
        <ele>282</ele>
        <time>2013-08-22T17:25:28Z</time>
      </trkpt>
      <trkpt lat="44.79313" lon="4.99268">
        <ele>282</ele>
        <time>2013-08-22T17:25:29Z</time>
      </trkpt>
      <trkpt lat="44.7931" lon="4.99266">
        <ele>283</ele>
        <time>2013-08-22T17:25:30Z</time>
      </trkpt>
      <trkpt lat="44.79307" lon="4.99265">
        <ele>283</ele>
        <time>2013-08-22T17:25:31Z</time>
      </trkpt>
      <trkpt lat="44.79305" lon="4.99265">
        <ele>283</ele>
        <time>2013-08-22T17:25:32Z</time>
      </trkpt>
      <trkpt lat="44.79301" lon="4.99264">
        <ele>284</ele>
        <time>2013-08-22T17:25:33Z</time>
      </trkpt>
      <trkpt lat="44.79299" lon="4.99263">
        <ele>284</ele>
        <time>2013-08-22T17:25:34Z</time>
      </trkpt>
      <trkpt lat="44.79297" lon="4.99263">
        <ele>284</ele>
        <time>2013-08-22T17:25:35Z</time>
      </trkpt>
      <trkpt lat="44.79295" lon="4.99262">
        <ele>285</ele>
        <time>2013-08-22T17:25:36Z</time>
      </trkpt>
      <trkpt lat="44.79293" lon="4.9926">
        <ele>285</ele>
        <time>2013-08-22T17:25:37Z</time>
      </trkpt>
      <trkpt lat="44.79292" lon="4.99258">
        <ele>285</ele>
        <time>2013-08-22T17:25:38Z</time>
      </trkpt>
      <trkpt lat="44.79292" lon="4.99256">
        <ele>285</ele>
        <time>2013-08-22T17:25:39Z</time>
      </trkpt>
      <trkpt lat="44.79293" lon="4.99252">
        <ele>285</ele>
        <time>2013-08-22T17:25:40Z</time>
      </trkpt>
      <trkpt lat="44.79293" lon="4.9925">
        <ele>285</ele>
        <time>2013-08-22T17:25:41Z</time>
      </trkpt>
      <trkpt lat="44.79292" lon="4.99247">
        <ele>285</ele>
        <time>2013-08-22T17:25:42Z</time>
      </trkpt>
      <trkpt lat="44.7929" lon="4.99244">
        <ele>285</ele>
        <time>2013-08-22T17:25:43Z</time>
      </trkpt>
      <trkpt lat="44.79288" lon="4.99243">
        <ele>285</ele>
        <time>2013-08-22T17:25:44Z</time>
      </trkpt>
      <trkpt lat="44.79287" lon="4.99243">
        <ele>285</ele>
        <time>2013-08-22T17:25:45Z</time>
      </trkpt>
      <trkpt lat="44.79283" lon="4.99242">
        <ele>285</ele>
        <time>2013-08-22T17:25:46Z</time>
      </trkpt>
      <trkpt lat="44.79279" lon="4.99241">
        <ele>285</ele>
        <time>2013-08-22T17:25:47Z</time>
      </trkpt>
      <trkpt lat="44.79275" lon="4.9924">
        <ele>285</ele>
        <time>2013-08-22T17:25:48Z</time>
      </trkpt>
      <trkpt lat="44.79271" lon="4.99239">
        <ele>285</ele>
        <time>2013-08-22T17:25:49Z</time>
      </trkpt>
      <trkpt lat="44.79267" lon="4.99239">
        <ele>285</ele>
        <time>2013-08-22T17:25:50Z</time>
      </trkpt>
      <trkpt lat="44.79263" lon="4.99239">
        <ele>285</ele>
        <time>2013-08-22T17:25:51Z</time>
      </trkpt>
      <trkpt lat="44.7926" lon="4.99238">
        <ele>285</ele>
        <time>2013-08-22T17:25:52Z</time>
      </trkpt>
      <trkpt lat="44.79258" lon="4.99237">
        <ele>285</ele>
        <time>2013-08-22T17:25:53Z</time>
      </trkpt>
      <trkpt lat="44.79254" lon="4.99235">
        <ele>285</ele>
        <time>2013-08-22T17:25:54Z</time>
      </trkpt>
      <trkpt lat="44.79251" lon="4.99234">
        <ele>285</ele>
        <time>2013-08-22T17:25:55Z</time>
      </trkpt>
      <trkpt lat="44.79248" lon="4.99233">
        <ele>285</ele>
        <time>2013-08-22T17:25:56Z</time>
      </trkpt>
      <trkpt lat="44.79246" lon="4.99229">
        <ele>286</ele>
        <time>2013-08-22T17:25:57Z</time>
      </trkpt>
      <trkpt lat="44.79244" lon="4.99225">
        <ele>286</ele>
        <time>2013-08-22T17:25:58Z</time>
      </trkpt>
      <trkpt lat="44.79243" lon="4.9922">
        <ele>286</ele>
        <time>2013-08-22T17:25:59Z</time>
      </trkpt>
      <trkpt lat="44.79242" lon="4.99216">
        <ele>287</ele>
        <time>2013-08-22T17:26:00Z</time>
      </trkpt>
      <trkpt lat="44.79243" lon="4.99212">
        <ele>287</ele>
        <time>2013-08-22T17:26:01Z</time>
      </trkpt>
      <trkpt lat="44.79244" lon="4.99209">
        <ele>287</ele>
        <time>2013-08-22T17:26:02Z</time>
      </trkpt>
      <trkpt lat="44.79245" lon="4.99206">
        <ele>287</ele>
        <time>2013-08-22T17:26:03Z</time>
      </trkpt>
      <trkpt lat="44.79245" lon="4.99202">
        <ele>287</ele>
        <time>2013-08-22T17:26:04Z</time>
      </trkpt>
      <trkpt lat="44.79247" lon="4.99199">
        <ele>287</ele>
        <time>2013-08-22T17:26:05Z</time>
      </trkpt>
      <trkpt lat="44.79249" lon="4.99196">
        <ele>287</ele>
        <time>2013-08-22T17:26:06Z</time>
      </trkpt>
      <trkpt lat="44.79251" lon="4.99193">
        <ele>287</ele>
        <time>2013-08-22T17:26:07Z</time>
      </trkpt>
      <trkpt lat="44.79252" lon="4.99191">
        <ele>287</ele>
        <time>2013-08-22T17:26:08Z</time>
      </trkpt>
      <trkpt lat="44.79253" lon="4.99188">
        <ele>287</ele>
        <time>2013-08-22T17:26:09Z</time>
      </trkpt>
      <trkpt lat="44.79254" lon="4.99185">
        <ele>287</ele>
        <time>2013-08-22T17:26:10Z</time>
      </trkpt>
      <trkpt lat="44.79254" lon="4.99181">
        <ele>287</ele>
        <time>2013-08-22T17:26:11Z</time>
      </trkpt>
      <trkpt lat="44.79253" lon="4.99176">
        <ele>287</ele>
        <time>2013-08-22T17:26:12Z</time>
      </trkpt>
      <trkpt lat="44.79253" lon="4.99171">
        <ele>287</ele>
        <time>2013-08-22T17:26:13Z</time>
      </trkpt>
      <trkpt lat="44.79254" lon="4.99167">
        <ele>287</ele>
        <time>2013-08-22T17:26:14Z</time>
      </trkpt>
      <trkpt lat="44.79255" lon="4.99163">
        <ele>287</ele>
        <time>2013-08-22T17:26:15Z</time>
      </trkpt>
      <trkpt lat="44.79255" lon="4.99159">
        <ele>287</ele>
        <time>2013-08-22T17:26:16Z</time>
      </trkpt>
      <trkpt lat="44.79256" lon="4.99156">
        <ele>287</ele>
        <time>2013-08-22T17:26:17Z</time>
      </trkpt>
      <trkpt lat="44.79257" lon="4.99152">
        <ele>287</ele>
        <time>2013-08-22T17:26:18Z</time>
      </trkpt>
      <trkpt lat="44.79258" lon="4.99148">
        <ele>286</ele>
        <time>2013-08-22T17:26:19Z</time>
      </trkpt>
      <trkpt lat="44.7926" lon="4.99144">
        <ele>285</ele>
        <time>2013-08-22T17:26:20Z</time>
      </trkpt>
      <trkpt lat="44.79261" lon="4.99141">
        <ele>284</ele>
        <time>2013-08-22T17:26:21Z</time>
      </trkpt>
      <trkpt lat="44.79262" lon="4.99137">
        <ele>283</ele>
        <time>2013-08-22T17:26:22Z</time>
      </trkpt>
      <trkpt lat="44.79262" lon="4.99134">
        <ele>282</ele>
        <time>2013-08-22T17:26:23Z</time>
      </trkpt>
      <trkpt lat="44.79261" lon="4.99131">
        <ele>281</ele>
        <time>2013-08-22T17:26:24Z</time>
      </trkpt>
      <trkpt lat="44.7926" lon="4.99129">
        <ele>281</ele>
        <time>2013-08-22T17:26:25Z</time>
      </trkpt>
      <trkpt lat="44.79259" lon="4.99127">
        <ele>280</ele>
        <time>2013-08-22T17:26:26Z</time>
      </trkpt>
      <trkpt lat="44.79257" lon="4.99125">
        <ele>280</ele>
        <time>2013-08-22T17:26:27Z</time>
      </trkpt>
      <trkpt lat="44.79255" lon="4.99123">
        <ele>279</ele>
        <time>2013-08-22T17:26:28Z</time>
      </trkpt>
      <trkpt lat="44.7925" lon="4.9912">
        <ele>279</ele>
        <time>2013-08-22T17:26:29Z</time>
      </trkpt>
      <trkpt lat="44.79246" lon="4.99117">
        <ele>279</ele>
        <time>2013-08-22T17:26:30Z</time>
      </trkpt>
      <trkpt lat="44.79241" lon="4.99115">
        <ele>279</ele>
        <time>2013-08-22T17:26:31Z</time>
      </trkpt>
      <trkpt lat="44.79237" lon="4.99113">
        <ele>279</ele>
        <time>2013-08-22T17:26:32Z</time>
      </trkpt>
      <trkpt lat="44.79233" lon="4.99111">
        <ele>279</ele>
        <time>2013-08-22T17:26:33Z</time>
      </trkpt>
      <trkpt lat="44.7923" lon="4.99108">
        <ele>279</ele>
        <time>2013-08-22T17:26:34Z</time>
      </trkpt>
      <trkpt lat="44.79227" lon="4.99105">
        <ele>279</ele>
        <time>2013-08-22T17:26:35Z</time>
      </trkpt>
      <trkpt lat="44.79224" lon="4.99104">
        <ele>279</ele>
        <time>2013-08-22T17:26:36Z</time>
      </trkpt>
      <trkpt lat="44.7922" lon="4.99102">
        <ele>279</ele>
        <time>2013-08-22T17:26:37Z</time>
      </trkpt>
      <trkpt lat="44.79217" lon="4.99102">
        <ele>279</ele>
        <time>2013-08-22T17:26:38Z</time>
      </trkpt>
      <trkpt lat="44.79214" lon="4.99101">
        <ele>279</ele>
        <time>2013-08-22T17:26:39Z</time>
      </trkpt>
      <trkpt lat="44.79211" lon="4.99099">
        <ele>279</ele>
        <time>2013-08-22T17:26:40Z</time>
      </trkpt>
      <trkpt lat="44.79209" lon="4.99096">
        <ele>280</ele>
        <time>2013-08-22T17:26:41Z</time>
      </trkpt>
      <trkpt lat="44.79208" lon="4.99092">
        <ele>280</ele>
        <time>2013-08-22T17:26:42Z</time>
      </trkpt>
      <trkpt lat="44.79207" lon="4.99087">
        <ele>280</ele>
        <time>2013-08-22T17:26:43Z</time>
      </trkpt>
      <trkpt lat="44.79208" lon="4.99083">
        <ele>280</ele>
        <time>2013-08-22T17:26:44Z</time>
      </trkpt>
      <trkpt lat="44.79208" lon="4.99079">
        <ele>280</ele>
        <time>2013-08-22T17:26:45Z</time>
      </trkpt>
      <trkpt lat="44.79209" lon="4.99075">
        <ele>280</ele>
        <time>2013-08-22T17:26:46Z</time>
      </trkpt>
      <trkpt lat="44.7921" lon="4.99073">
        <ele>280</ele>
        <time>2013-08-22T17:26:47Z</time>
      </trkpt>
      <trkpt lat="44.79211" lon="4.99071">
        <ele>280</ele>
        <time>2013-08-22T17:26:49Z</time>
      </trkpt>
      <trkpt lat="44.79209" lon="4.99069">
        <ele>280</ele>
        <time>2013-08-22T17:26:50Z</time>
      </trkpt>
      <trkpt lat="44.79206" lon="4.99068">
        <ele>280</ele>
        <time>2013-08-22T17:26:51Z</time>
      </trkpt>
      <trkpt lat="44.79203" lon="4.99066">
        <ele>280</ele>
        <time>2013-08-22T17:26:52Z</time>
      </trkpt>
      <trkpt lat="44.79201" lon="4.99065">
        <ele>280</ele>
        <time>2013-08-22T17:26:53Z</time>
      </trkpt>
      <trkpt lat="44.79198" lon="4.99063">
        <ele>280</ele>
        <time>2013-08-22T17:26:54Z</time>
      </trkpt>
      <trkpt lat="44.79195" lon="4.99061">
        <ele>280</ele>
        <time>2013-08-22T17:26:55Z</time>
      </trkpt>
      <trkpt lat="44.79192" lon="4.99059">
        <ele>280</ele>
        <time>2013-08-22T17:26:56Z</time>
      </trkpt>
      <trkpt lat="44.79191" lon="4.99058">
        <ele>280</ele>
        <time>2013-08-22T17:26:57Z</time>
      </trkpt>
      <trkpt lat="44.79189" lon="4.99057">
        <ele>280</ele>
        <time>2013-08-22T17:26:58Z</time>
      </trkpt>
      <trkpt lat="44.79187" lon="4.99056">
        <ele>281</ele>
        <time>2013-08-22T17:26:59Z</time>
      </trkpt>
      <trkpt lat="44.79186" lon="4.99054">
        <ele>281</ele>
        <time>2013-08-22T17:27:00Z</time>
      </trkpt>
      <trkpt lat="44.79184" lon="4.99053">
        <ele>281</ele>
        <time>2013-08-22T17:27:01Z</time>
      </trkpt>
      <trkpt lat="44.79182" lon="4.99052">
        <ele>281</ele>
        <time>2013-08-22T17:27:02Z</time>
      </trkpt>
      <trkpt lat="44.79179" lon="4.9905">
        <ele>282</ele>
        <time>2013-08-22T17:27:03Z</time>
      </trkpt>
      <trkpt lat="44.79177" lon="4.99049">
        <ele>282</ele>
        <time>2013-08-22T17:27:04Z</time>
      </trkpt>
      <trkpt lat="44.79174" lon="4.99049">
        <ele>282</ele>
        <time>2013-08-22T17:27:05Z</time>
      </trkpt>
      <trkpt lat="44.79171" lon="4.99049">
        <ele>283</ele>
        <time>2013-08-22T17:27:06Z</time>
      </trkpt>
      <trkpt lat="44.79168" lon="4.99049">
        <ele>283</ele>
        <time>2013-08-22T17:27:07Z</time>
      </trkpt>
      <trkpt lat="44.79165" lon="4.99049">
        <ele>284</ele>
        <time>2013-08-22T17:27:08Z</time>
      </trkpt>
      <trkpt lat="44.79163" lon="4.99049">
        <ele>284</ele>
        <time>2013-08-22T17:27:09Z</time>
      </trkpt>
      <trkpt lat="44.79161" lon="4.99049">
        <ele>284</ele>
        <time>2013-08-22T17:27:10Z</time>
      </trkpt>
      <trkpt lat="44.79159" lon="4.99051">
        <ele>284</ele>
        <time>2013-08-22T17:27:11Z</time>
      </trkpt>
      <trkpt lat="44.79158" lon="4.99052">
        <ele>284</ele>
        <time>2013-08-22T17:27:12Z</time>
      </trkpt>
      <trkpt lat="44.79157" lon="4.99055">
        <ele>284</ele>
        <time>2013-08-22T17:27:13Z</time>
      </trkpt>
      <trkpt lat="44.79155" lon="4.99057">
        <ele>284</ele>
        <time>2013-08-22T17:27:14Z</time>
      </trkpt>
      <trkpt lat="44.79154" lon="4.99059">
        <ele>284</ele>
        <time>2013-08-22T17:27:15Z</time>
      </trkpt>
      <trkpt lat="44.79153" lon="4.99063">
        <ele>284</ele>
        <time>2013-08-22T17:27:16Z</time>
      </trkpt>
      <trkpt lat="44.79152" lon="4.99065">
        <ele>284</ele>
        <time>2013-08-22T17:27:17Z</time>
      </trkpt>
      <trkpt lat="44.7915" lon="4.99069">
        <ele>284</ele>
        <time>2013-08-22T17:27:18Z</time>
      </trkpt>
      <trkpt lat="44.79148" lon="4.99072">
        <ele>284</ele>
        <time>2013-08-22T17:27:19Z</time>
      </trkpt>
      <trkpt lat="44.79146" lon="4.99075">
        <ele>285</ele>
        <time>2013-08-22T17:27:20Z</time>
      </trkpt>
      <trkpt lat="44.79144" lon="4.99076">
        <ele>286</ele>
        <time>2013-08-22T17:27:21Z</time>
      </trkpt>
      <trkpt lat="44.79142" lon="4.99076">
        <ele>286</ele>
        <time>2013-08-22T17:27:22Z</time>
      </trkpt>
      <trkpt lat="44.79139" lon="4.99077">
        <ele>287</ele>
        <time>2013-08-22T17:27:23Z</time>
      </trkpt>
      <trkpt lat="44.79137" lon="4.99077">
        <ele>287</ele>
        <time>2013-08-22T17:27:24Z</time>
      </trkpt>
      <trkpt lat="44.79135" lon="4.99078">
        <ele>287</ele>
        <time>2013-08-22T17:27:25Z</time>
      </trkpt>
      <trkpt lat="44.79132" lon="4.99079">
        <ele>287</ele>
        <time>2013-08-22T17:27:26Z</time>
      </trkpt>
      <trkpt lat="44.79131" lon="4.99079">
        <ele>288</ele>
        <time>2013-08-22T17:27:27Z</time>
      </trkpt>
      <trkpt lat="44.7913" lon="4.99079">
        <ele>288</ele>
        <time>2013-08-22T17:27:28Z</time>
      </trkpt>
      <trkpt lat="44.79128" lon="4.9908">
        <ele>288</ele>
        <time>2013-08-22T17:27:29Z</time>
      </trkpt>
      <trkpt lat="44.79127" lon="4.9908">
        <ele>288</ele>
        <time>2013-08-22T17:27:30Z</time>
      </trkpt>
      <trkpt lat="44.79125" lon="4.99081">
        <ele>288</ele>
        <time>2013-08-22T17:27:31Z</time>
      </trkpt>
      <trkpt lat="44.79124" lon="4.99082">
        <ele>288</ele>
        <time>2013-08-22T17:27:32Z</time>
      </trkpt>
      <trkpt lat="44.79122" lon="4.99083">
        <ele>288</ele>
        <time>2013-08-22T17:27:33Z</time>
      </trkpt>
      <trkpt lat="44.7912" lon="4.99084">
        <ele>288</ele>
        <time>2013-08-22T17:27:34Z</time>
      </trkpt>
      <trkpt lat="44.79118" lon="4.99085">
        <ele>288</ele>
        <time>2013-08-22T17:27:35Z</time>
      </trkpt>
      <trkpt lat="44.79116" lon="4.99086">
        <ele>288</ele>
        <time>2013-08-22T17:27:36Z</time>
      </trkpt>
      <trkpt lat="44.79114" lon="4.99087">
        <ele>288</ele>
        <time>2013-08-22T17:27:37Z</time>
      </trkpt>
      <trkpt lat="44.79112" lon="4.99088">
        <ele>288</ele>
        <time>2013-08-22T17:27:38Z</time>
      </trkpt>
      <trkpt lat="44.7911" lon="4.99088">
        <ele>288</ele>
        <time>2013-08-22T17:27:39Z</time>
      </trkpt>
      <trkpt lat="44.79108" lon="4.99088">
        <ele>288</ele>
        <time>2013-08-22T17:27:40Z</time>
      </trkpt>
      <trkpt lat="44.79106" lon="4.99088">
        <ele>288</ele>
        <time>2013-08-22T17:27:41Z</time>
      </trkpt>
      <trkpt lat="44.79105" lon="4.99088">
        <ele>288</ele>
        <time>2013-08-22T17:27:42Z</time>
      </trkpt>
      <trkpt lat="44.79102" lon="4.99089">
        <ele>288</ele>
        <time>2013-08-22T17:27:43Z</time>
      </trkpt>
      <trkpt lat="44.791" lon="4.99091">
        <ele>288</ele>
        <time>2013-08-22T17:27:44Z</time>
      </trkpt>
      <trkpt lat="44.79098" lon="4.99092">
        <ele>288</ele>
        <time>2013-08-22T17:27:45Z</time>
      </trkpt>
      <trkpt lat="44.79096" lon="4.99092">
        <ele>288</ele>
        <time>2013-08-22T17:27:46Z</time>
      </trkpt>
      <trkpt lat="44.79093" lon="4.99092">
        <ele>288</ele>
        <time>2013-08-22T17:27:47Z</time>
      </trkpt>
      <trkpt lat="44.79091" lon="4.99092">
        <ele>288</ele>
        <time>2013-08-22T17:27:48Z</time>
      </trkpt>
      <trkpt lat="44.79088" lon="4.99092">
        <ele>288</ele>
        <time>2013-08-22T17:27:49Z</time>
      </trkpt>
      <trkpt lat="44.79086" lon="4.99091">
        <ele>288</ele>
        <time>2013-08-22T17:27:50Z</time>
      </trkpt>
      <trkpt lat="44.79084" lon="4.99091">
        <ele>289</ele>
        <time>2013-08-22T17:27:51Z</time>
      </trkpt>
      <trkpt lat="44.79083" lon="4.99091">
        <ele>290</ele>
        <time>2013-08-22T17:27:52Z</time>
      </trkpt>
      <trkpt lat="44.79081" lon="4.9909">
        <ele>291</ele>
        <time>2013-08-22T17:27:53Z</time>
      </trkpt>
      <trkpt lat="44.79079" lon="4.99089">
        <ele>292</ele>
        <time>2013-08-22T17:27:54Z</time>
      </trkpt>
      <trkpt lat="44.79078" lon="4.99088">
        <ele>293</ele>
        <time>2013-08-22T17:27:55Z</time>
      </trkpt>
      <trkpt lat="44.79076" lon="4.99086">
        <ele>294</ele>
        <time>2013-08-22T17:27:56Z</time>
      </trkpt>
      <trkpt lat="44.79074" lon="4.99085">
        <ele>295</ele>
        <time>2013-08-22T17:27:57Z</time>
      </trkpt>
      <trkpt lat="44.79072" lon="4.99085">
        <ele>295</ele>
        <time>2013-08-22T17:27:58Z</time>
      </trkpt>
      <trkpt lat="44.7907" lon="4.99083">
        <ele>296</ele>
        <time>2013-08-22T17:27:59Z</time>
      </trkpt>
      <trkpt lat="44.79068" lon="4.99081">
        <ele>296</ele>
        <time>2013-08-22T17:28:00Z</time>
      </trkpt>
      <trkpt lat="44.79066" lon="4.99076">
        <ele>296</ele>
        <time>2013-08-22T17:28:01Z</time>
      </trkpt>
      <trkpt lat="44.79065" lon="4.99074">
        <ele>297</ele>
        <time>2013-08-22T17:28:02Z</time>
      </trkpt>
      <trkpt lat="44.79065" lon="4.99072">
        <ele>297</ele>
        <time>2013-08-22T17:28:03Z</time>
      </trkpt>
      <trkpt lat="44.79063" lon="4.99071">
        <ele>298</ele>
        <time>2013-08-22T17:28:04Z</time>
      </trkpt>
      <trkpt lat="44.79061" lon="4.9907">
        <ele>298</ele>
        <time>2013-08-22T17:28:05Z</time>
      </trkpt>
      <trkpt lat="44.79058" lon="4.9907">
        <ele>299</ele>
        <time>2013-08-22T17:28:06Z</time>
      </trkpt>
      <trkpt lat="44.79055" lon="4.9907">
        <ele>299</ele>
        <time>2013-08-22T17:28:07Z</time>
      </trkpt>
      <trkpt lat="44.79052" lon="4.99069">
        <ele>299</ele>
        <time>2013-08-22T17:28:08Z</time>
      </trkpt>
      <trkpt lat="44.7905" lon="4.99069">
        <ele>299</ele>
        <time>2013-08-22T17:28:09Z</time>
      </trkpt>
      <trkpt lat="44.79047" lon="4.99067">
        <ele>299</ele>
        <time>2013-08-22T17:28:10Z</time>
      </trkpt>
      <trkpt lat="44.79045" lon="4.99066">
        <ele>299</ele>
        <time>2013-08-22T17:28:11Z</time>
      </trkpt>
      <trkpt lat="44.79043" lon="4.99066">
        <ele>299</ele>
        <time>2013-08-22T17:28:12Z</time>
      </trkpt>
      <trkpt lat="44.79041" lon="4.99064">
        <ele>299</ele>
        <time>2013-08-22T17:28:13Z</time>
      </trkpt>
      <trkpt lat="44.79039" lon="4.99063">
        <ele>300</ele>
        <time>2013-08-22T17:28:14Z</time>
      </trkpt>
      <trkpt lat="44.79036" lon="4.99063">
        <ele>300</ele>
        <time>2013-08-22T17:28:15Z</time>
      </trkpt>
      <trkpt lat="44.79034" lon="4.99063">
        <ele>300</ele>
        <time>2013-08-22T17:28:16Z</time>
      </trkpt>
      <trkpt lat="44.79031" lon="4.99064">
        <ele>301</ele>
        <time>2013-08-22T17:28:17Z</time>
      </trkpt>
      <trkpt lat="44.79028" lon="4.99064">
        <ele>301</ele>
        <time>2013-08-22T17:28:18Z</time>
      </trkpt>
      <trkpt lat="44.79026" lon="4.99064">
        <ele>301</ele>
        <time>2013-08-22T17:28:19Z</time>
      </trkpt>
      <trkpt lat="44.79024" lon="4.99064">
        <ele>301</ele>
        <time>2013-08-22T17:28:20Z</time>
      </trkpt>
      <trkpt lat="44.79022" lon="4.99065">
        <ele>301</ele>
        <time>2013-08-22T17:28:21Z</time>
      </trkpt>
      <trkpt lat="44.7902" lon="4.99065">
        <ele>301</ele>
        <time>2013-08-22T17:28:22Z</time>
      </trkpt>
      <trkpt lat="44.79019" lon="4.99065">
        <ele>301</ele>
        <time>2013-08-22T17:28:23Z</time>
      </trkpt>
      <trkpt lat="44.79018" lon="4.99066">
        <ele>301</ele>
        <time>2013-08-22T17:28:24Z</time>
      </trkpt>
      <trkpt lat="44.79016" lon="4.99067">
        <ele>301</ele>
        <time>2013-08-22T17:28:25Z</time>
      </trkpt>
      <trkpt lat="44.79014" lon="4.99068">
        <ele>301</ele>
        <time>2013-08-22T17:28:26Z</time>
      </trkpt>
      <trkpt lat="44.79011" lon="4.99067">
        <ele>301</ele>
        <time>2013-08-22T17:28:27Z</time>
      </trkpt>
      <trkpt lat="44.79009" lon="4.99066">
        <ele>301</ele>
        <time>2013-08-22T17:28:28Z</time>
      </trkpt>
      <trkpt lat="44.79007" lon="4.99066">
        <ele>301</ele>
        <time>2013-08-22T17:28:29Z</time>
      </trkpt>
      <trkpt lat="44.79006" lon="4.99065">
        <ele>301</ele>
        <time>2013-08-22T17:28:30Z</time>
      </trkpt>
      <trkpt lat="44.79004" lon="4.99064">
        <ele>301</ele>
        <time>2013-08-22T17:28:31Z</time>
      </trkpt>
      <trkpt lat="44.79003" lon="4.99063">
        <ele>301</ele>
        <time>2013-08-22T17:28:32Z</time>
      </trkpt>
      <trkpt lat="44.79001" lon="4.99063">
        <ele>301</ele>
        <time>2013-08-22T17:28:33Z</time>
      </trkpt>
      <trkpt lat="44.79" lon="4.99061">
        <ele>302</ele>
        <time>2013-08-22T17:28:34Z</time>
      </trkpt>
      <trkpt lat="44.78999" lon="4.99059">
        <ele>302</ele>
        <time>2013-08-22T17:28:35Z</time>
      </trkpt>
      <trkpt lat="44.78998" lon="4.99057">
        <ele>303</ele>
        <time>2013-08-22T17:28:36Z</time>
      </trkpt>
      <trkpt lat="44.78998" lon="4.99055">
        <ele>303</ele>
        <time>2013-08-22T17:28:37Z</time>
      </trkpt>
      <trkpt lat="44.78998" lon="4.99054">
        <ele>303</ele>
        <time>2013-08-22T17:28:38Z</time>
      </trkpt>
      <trkpt lat="44.78997" lon="4.99052">
        <ele>304</ele>
        <time>2013-08-22T17:28:39Z</time>
      </trkpt>
      <trkpt lat="44.78997" lon="4.9905">
        <ele>304</ele>
        <time>2013-08-22T17:28:40Z</time>
      </trkpt>
      <trkpt lat="44.78997" lon="4.99048">
        <ele>304</ele>
        <time>2013-08-22T17:28:41Z</time>
      </trkpt>
      <trkpt lat="44.78996" lon="4.99045">
        <ele>304</ele>
        <time>2013-08-22T17:28:42Z</time>
      </trkpt>
      <trkpt lat="44.78995" lon="4.99042">
        <ele>304</ele>
        <time>2013-08-22T17:28:43Z</time>
      </trkpt>
      <trkpt lat="44.78994" lon="4.99038">
        <ele>304</ele>
        <time>2013-08-22T17:28:44Z</time>
      </trkpt>
      <trkpt lat="44.78993" lon="4.99035">
        <ele>304</ele>
        <time>2013-08-22T17:28:45Z</time>
      </trkpt>
      <trkpt lat="44.78993" lon="4.99031">
        <ele>304</ele>
        <time>2013-08-22T17:28:46Z</time>
      </trkpt>
      <trkpt lat="44.78992" lon="4.99028">
        <ele>304</ele>
        <time>2013-08-22T17:28:47Z</time>
      </trkpt>
      <trkpt lat="44.78991" lon="4.99024">
        <ele>304</ele>
        <time>2013-08-22T17:28:48Z</time>
      </trkpt>
      <trkpt lat="44.78991" lon="4.9902">
        <ele>304</ele>
        <time>2013-08-22T17:28:49Z</time>
      </trkpt>
      <trkpt lat="44.78992" lon="4.99017">
        <ele>304</ele>
        <time>2013-08-22T17:28:50Z</time>
      </trkpt>
      <trkpt lat="44.78993" lon="4.99014">
        <ele>304</ele>
        <time>2013-08-22T17:28:51Z</time>
      </trkpt>
      <trkpt lat="44.78994" lon="4.99011">
        <ele>304</ele>
        <time>2013-08-22T17:28:52Z</time>
      </trkpt>
      <trkpt lat="44.78994" lon="4.99007">
        <ele>304</ele>
        <time>2013-08-22T17:28:53Z</time>
      </trkpt>
      <trkpt lat="44.78995" lon="4.99004">
        <ele>304</ele>
        <time>2013-08-22T17:28:54Z</time>
      </trkpt>
      <trkpt lat="44.78996" lon="4.99">
        <ele>304</ele>
        <time>2013-08-22T17:28:55Z</time>
      </trkpt>
      <trkpt lat="44.78995" lon="4.98995">
        <ele>304</ele>
        <time>2013-08-22T17:28:56Z</time>
      </trkpt>
      <trkpt lat="44.78995" lon="4.98993">
        <ele>305</ele>
        <time>2013-08-22T17:28:57Z</time>
      </trkpt>
      <trkpt lat="44.78996" lon="4.9899">
        <ele>305</ele>
        <time>2013-08-22T17:28:58Z</time>
      </trkpt>
      <trkpt lat="44.78997" lon="4.98987">
        <ele>306</ele>
        <time>2013-08-22T17:28:59Z</time>
      </trkpt>
      <trkpt lat="44.78998" lon="4.98985">
        <ele>307</ele>
        <time>2013-08-22T17:29:00Z</time>
      </trkpt>
      <trkpt lat="44.79" lon="4.98982">
        <ele>307</ele>
        <time>2013-08-22T17:29:01Z</time>
      </trkpt>
      <trkpt lat="44.79" lon="4.9898">
        <ele>308</ele>
        <time>2013-08-22T17:29:02Z</time>
      </trkpt>
      <trkpt lat="44.79" lon="4.98977">
        <ele>308</ele>
        <time>2013-08-22T17:29:03Z</time>
      </trkpt>
      <trkpt lat="44.79001" lon="4.98975">
        <ele>308</ele>
        <time>2013-08-22T17:29:04Z</time>
      </trkpt>
      <trkpt lat="44.79" lon="4.98972">
        <ele>308</ele>
        <time>2013-08-22T17:29:05Z</time>
      </trkpt>
      <trkpt lat="44.79" lon="4.98968">
        <ele>308</ele>
        <time>2013-08-22T17:29:06Z</time>
      </trkpt>
      <trkpt lat="44.78999" lon="4.98964">
        <ele>309</ele>
        <time>2013-08-22T17:29:07Z</time>
      </trkpt>
      <trkpt lat="44.78997" lon="4.9896">
        <ele>309</ele>
        <time>2013-08-22T17:29:08Z</time>
      </trkpt>
      <trkpt lat="44.78997" lon="4.98957">
        <ele>309</ele>
        <time>2013-08-22T17:29:09Z</time>
      </trkpt>
      <trkpt lat="44.78996" lon="4.98954">
        <ele>309</ele>
        <time>2013-08-22T17:29:10Z</time>
      </trkpt>
      <trkpt lat="44.78996" lon="4.98951">
        <ele>309</ele>
        <time>2013-08-22T17:29:11Z</time>
      </trkpt>
      <trkpt lat="44.78995" lon="4.98948">
        <ele>309</ele>
        <time>2013-08-22T17:29:12Z</time>
      </trkpt>
      <trkpt lat="44.78996" lon="4.98944">
        <ele>310</ele>
        <time>2013-08-22T17:29:13Z</time>
      </trkpt>
      <trkpt lat="44.78997" lon="4.98941">
        <ele>311</ele>
        <time>2013-08-22T17:29:14Z</time>
      </trkpt>
      <trkpt lat="44.78998" lon="4.98939">
        <ele>311</ele>
        <time>2013-08-22T17:29:15Z</time>
      </trkpt>
      <trkpt lat="44.78999" lon="4.98937">
        <ele>311</ele>
        <time>2013-08-22T17:29:16Z</time>
      </trkpt>
      <trkpt lat="44.79001" lon="4.98936">
        <ele>312</ele>
        <time>2013-08-22T17:29:17Z</time>
      </trkpt>
      <trkpt lat="44.79003" lon="4.98935">
        <ele>312</ele>
        <time>2013-08-22T17:29:18Z</time>
      </trkpt>
      <trkpt lat="44.79005" lon="4.98934">
        <ele>312</ele>
        <time>2013-08-22T17:29:19Z</time>
      </trkpt>
      <trkpt lat="44.79006" lon="4.98932">
        <ele>312</ele>
        <time>2013-08-22T17:29:20Z</time>
      </trkpt>
      <trkpt lat="44.79008" lon="4.98931">
        <ele>312</ele>
        <time>2013-08-22T17:29:21Z</time>
      </trkpt>
      <trkpt lat="44.79009" lon="4.98931">
        <ele>312</ele>
        <time>2013-08-22T17:29:25Z</time>
      </trkpt>
      <trkpt lat="44.79012" lon="4.98932">
        <ele>312</ele>
        <time>2013-08-22T17:29:27Z</time>
      </trkpt>
      <trkpt lat="44.79014" lon="4.98933">
        <ele>312</ele>
        <time>2013-08-22T17:29:28Z</time>
      </trkpt>
      <trkpt lat="44.79016" lon="4.98935">
        <ele>312</ele>
        <time>2013-08-22T17:29:29Z</time>
      </trkpt>
      <trkpt lat="44.79018" lon="4.98936">
        <ele>312</ele>
        <time>2013-08-22T17:29:30Z</time>
      </trkpt>
      <trkpt lat="44.79021" lon="4.98937">
        <ele>312</ele>
        <time>2013-08-22T17:29:31Z</time>
      </trkpt>
      <trkpt lat="44.79023" lon="4.98937">
        <ele>312</ele>
        <time>2013-08-22T17:29:32Z</time>
      </trkpt>
      <trkpt lat="44.79026" lon="4.98937">
        <ele>312</ele>
        <time>2013-08-22T17:29:33Z</time>
      </trkpt>
      <trkpt lat="44.79029" lon="4.98936">
        <ele>312</ele>
        <time>2013-08-22T17:29:34Z</time>
      </trkpt>
      <trkpt lat="44.79033" lon="4.98935">
        <ele>312</ele>
        <time>2013-08-22T17:29:35Z</time>
      </trkpt>
      <trkpt lat="44.79036" lon="4.98934">
        <ele>312</ele>
        <time>2013-08-22T17:29:36Z</time>
      </trkpt>
      <trkpt lat="44.79039" lon="4.98933">
        <ele>312</ele>
        <time>2013-08-22T17:29:37Z</time>
      </trkpt>
      <trkpt lat="44.79042" lon="4.98932">
        <ele>312</ele>
        <time>2013-08-22T17:29:38Z</time>
      </trkpt>
      <trkpt lat="44.79044" lon="4.9893">
        <ele>312</ele>
        <time>2013-08-22T17:29:39Z</time>
      </trkpt>
      <trkpt lat="44.79047" lon="4.98927">
        <ele>312</ele>
        <time>2013-08-22T17:29:40Z</time>
      </trkpt>
      <trkpt lat="44.79049" lon="4.98925">
        <ele>312</ele>
        <time>2013-08-22T17:29:41Z</time>
      </trkpt>
      <trkpt lat="44.79051" lon="4.98921">
        <ele>312</ele>
        <time>2013-08-22T17:29:42Z</time>
      </trkpt>
      <trkpt lat="44.79053" lon="4.98918">
        <ele>312</ele>
        <time>2013-08-22T17:29:43Z</time>
      </trkpt>
      <trkpt lat="44.79057" lon="4.98914">
        <ele>312</ele>
        <time>2013-08-22T17:29:44Z</time>
      </trkpt>
      <trkpt lat="44.7906" lon="4.98912">
        <ele>311</ele>
        <time>2013-08-22T17:29:45Z</time>
      </trkpt>
      <trkpt lat="44.79062" lon="4.9891">
        <ele>311</ele>
        <time>2013-08-22T17:29:46Z</time>
      </trkpt>
      <trkpt lat="44.79065" lon="4.98909">
        <ele>310</ele>
        <time>2013-08-22T17:29:47Z</time>
      </trkpt>
      <trkpt lat="44.79068" lon="4.98907">
        <ele>309</ele>
        <time>2013-08-22T17:29:48Z</time>
      </trkpt>
      <trkpt lat="44.79071" lon="4.98905">
        <ele>309</ele>
        <time>2013-08-22T17:29:49Z</time>
      </trkpt>
      <trkpt lat="44.79074" lon="4.98902">
        <ele>309</ele>
        <time>2013-08-22T17:29:50Z</time>
      </trkpt>
      <trkpt lat="44.79076" lon="4.98899">
        <ele>308</ele>
        <time>2013-08-22T17:29:51Z</time>
      </trkpt>
      <trkpt lat="44.79079" lon="4.98897">
        <ele>308</ele>
        <time>2013-08-22T17:29:52Z</time>
      </trkpt>
      <trkpt lat="44.79082" lon="4.98894">
        <ele>308</ele>
        <time>2013-08-22T17:29:53Z</time>
      </trkpt>
      <trkpt lat="44.79085" lon="4.98891">
        <ele>307</ele>
        <time>2013-08-22T17:29:54Z</time>
      </trkpt>
      <trkpt lat="44.79088" lon="4.98887">
        <ele>307</ele>
        <time>2013-08-22T17:29:55Z</time>
      </trkpt>
      <trkpt lat="44.7909" lon="4.98883">
        <ele>306</ele>
        <time>2013-08-22T17:29:56Z</time>
      </trkpt>
      <trkpt lat="44.79092" lon="4.9888">
        <ele>306</ele>
        <time>2013-08-22T17:29:57Z</time>
      </trkpt>
      <trkpt lat="44.79094" lon="4.98877">
        <ele>305</ele>
        <time>2013-08-22T17:29:58Z</time>
      </trkpt>
      <trkpt lat="44.79094" lon="4.98874">
        <ele>305</ele>
        <time>2013-08-22T17:29:59Z</time>
      </trkpt>
      <trkpt lat="44.79095" lon="4.98871">
        <ele>305</ele>
        <time>2013-08-22T17:30:00Z</time>
      </trkpt>
      <trkpt lat="44.79096" lon="4.98868">
        <ele>304</ele>
        <time>2013-08-22T17:30:01Z</time>
      </trkpt>
      <trkpt lat="44.79097" lon="4.98865">
        <ele>304</ele>
        <time>2013-08-22T17:30:02Z</time>
      </trkpt>
      <trkpt lat="44.79099" lon="4.98861">
        <ele>303</ele>
        <time>2013-08-22T17:30:03Z</time>
      </trkpt>
      <trkpt lat="44.791" lon="4.98858">
        <ele>302</ele>
        <time>2013-08-22T17:30:04Z</time>
      </trkpt>
      <trkpt lat="44.79101" lon="4.98855">
        <ele>302</ele>
        <time>2013-08-22T17:30:05Z</time>
      </trkpt>
      <trkpt lat="44.79102" lon="4.98851">
        <ele>301</ele>
        <time>2013-08-22T17:30:06Z</time>
      </trkpt>
      <trkpt lat="44.79101" lon="4.98846">
        <ele>300</ele>
        <time>2013-08-22T17:30:07Z</time>
      </trkpt>
      <trkpt lat="44.79102" lon="4.98841">
        <ele>299</ele>
        <time>2013-08-22T17:30:08Z</time>
      </trkpt>
      <trkpt lat="44.79103" lon="4.98837">
        <ele>298</ele>
        <time>2013-08-22T17:30:09Z</time>
      </trkpt>
      <trkpt lat="44.79103" lon="4.98833">
        <ele>297</ele>
        <time>2013-08-22T17:30:10Z</time>
      </trkpt>
      <trkpt lat="44.79103" lon="4.98829">
        <ele>296</ele>
        <time>2013-08-22T17:30:11Z</time>
      </trkpt>
      <trkpt lat="44.79104" lon="4.98826">
        <ele>295</ele>
        <time>2013-08-22T17:30:12Z</time>
      </trkpt>
      <trkpt lat="44.79104" lon="4.98823">
        <ele>294</ele>
        <time>2013-08-22T17:30:13Z</time>
      </trkpt>
      <trkpt lat="44.79103" lon="4.98819">
        <ele>293</ele>
        <time>2013-08-22T17:30:14Z</time>
      </trkpt>
      <trkpt lat="44.79102" lon="4.98816">
        <ele>292</ele>
        <time>2013-08-22T17:30:15Z</time>
      </trkpt>
      <trkpt lat="44.79103" lon="4.98812">
        <ele>291</ele>
        <time>2013-08-22T17:30:16Z</time>
      </trkpt>
      <trkpt lat="44.79104" lon="4.9881">
        <ele>290</ele>
        <time>2013-08-22T17:30:17Z</time>
      </trkpt>
      <trkpt lat="44.79104" lon="4.98808">
        <ele>289</ele>
        <time>2013-08-22T17:30:18Z</time>
      </trkpt>
      <trkpt lat="44.79105" lon="4.98806">
        <ele>289</ele>
        <time>2013-08-22T17:30:19Z</time>
      </trkpt>
      <trkpt lat="44.79105" lon="4.98804">
        <ele>289</ele>
        <time>2013-08-22T17:30:20Z</time>
      </trkpt>
      <trkpt lat="44.79105" lon="4.98801">
        <ele>289</ele>
        <time>2013-08-22T17:30:21Z</time>
      </trkpt>
      <trkpt lat="44.79103" lon="4.98799">
        <ele>289</ele>
        <time>2013-08-22T17:30:22Z</time>
      </trkpt>
      <trkpt lat="44.79102" lon="4.98795">
        <ele>289</ele>
        <time>2013-08-22T17:30:23Z</time>
      </trkpt>
      <trkpt lat="44.79102" lon="4.98792">
        <ele>289</ele>
        <time>2013-08-22T17:30:24Z</time>
      </trkpt>
      <trkpt lat="44.79103" lon="4.98788">
        <ele>289</ele>
        <time>2013-08-22T17:30:25Z</time>
      </trkpt>
      <trkpt lat="44.79104" lon="4.98785">
        <ele>289</ele>
        <time>2013-08-22T17:30:26Z</time>
      </trkpt>
      <trkpt lat="44.79105" lon="4.98783">
        <ele>289</ele>
        <time>2013-08-22T17:30:27Z</time>
      </trkpt>
      <trkpt lat="44.79105" lon="4.9878">
        <ele>288</ele>
        <time>2013-08-22T17:30:28Z</time>
      </trkpt>
      <trkpt lat="44.79104" lon="4.98778">
        <ele>287</ele>
        <time>2013-08-22T17:30:29Z</time>
      </trkpt>
      <trkpt lat="44.79102" lon="4.98776">
        <ele>286</ele>
        <time>2013-08-22T17:30:30Z</time>
      </trkpt>
      <trkpt lat="44.791" lon="4.98773">
        <ele>285</ele>
        <time>2013-08-22T17:30:31Z</time>
      </trkpt>
      <trkpt lat="44.79098" lon="4.98771">
        <ele>284</ele>
        <time>2013-08-22T17:30:32Z</time>
      </trkpt>
      <trkpt lat="44.79097" lon="4.98768">
        <ele>284</ele>
        <time>2013-08-22T17:30:33Z</time>
      </trkpt>
      <trkpt lat="44.79097" lon="4.98765">
        <ele>283</ele>
        <time>2013-08-22T17:30:34Z</time>
      </trkpt>
      <trkpt lat="44.79097" lon="4.98761">
        <ele>282</ele>
        <time>2013-08-22T17:30:35Z</time>
      </trkpt>
      <trkpt lat="44.79098" lon="4.98759">
        <ele>281</ele>
        <time>2013-08-22T17:30:36Z</time>
      </trkpt>
      <trkpt lat="44.79098" lon="4.98757">
        <ele>280</ele>
        <time>2013-08-22T17:30:37Z</time>
      </trkpt>
      <trkpt lat="44.79099" lon="4.98755">
        <ele>279</ele>
        <time>2013-08-22T17:30:38Z</time>
      </trkpt>
      <trkpt lat="44.79099" lon="4.98752">
        <ele>278</ele>
        <time>2013-08-22T17:30:39Z</time>
      </trkpt>
      <trkpt lat="44.791" lon="4.98749">
        <ele>277</ele>
        <time>2013-08-22T17:30:40Z</time>
      </trkpt>
      <trkpt lat="44.791" lon="4.98745">
        <ele>276</ele>
        <time>2013-08-22T17:30:41Z</time>
      </trkpt>
      <trkpt lat="44.791" lon="4.98743">
        <ele>275</ele>
        <time>2013-08-22T17:30:42Z</time>
      </trkpt>
      <trkpt lat="44.79098" lon="4.98739">
        <ele>274</ele>
        <time>2013-08-22T17:30:43Z</time>
      </trkpt>
      <trkpt lat="44.79095" lon="4.98734">
        <ele>274</ele>
        <time>2013-08-22T17:30:44Z</time>
      </trkpt>
      <trkpt lat="44.79096" lon="4.98732">
        <ele>274</ele>
        <time>2013-08-22T17:30:45Z</time>
      </trkpt>
      <trkpt lat="44.79095" lon="4.98729">
        <ele>274</ele>
        <time>2013-08-22T17:30:46Z</time>
      </trkpt>
      <trkpt lat="44.79093" lon="4.98725">
        <ele>274</ele>
        <time>2013-08-22T17:30:47Z</time>
      </trkpt>
      <trkpt lat="44.79092" lon="4.98723">
        <ele>274</ele>
        <time>2013-08-22T17:30:48Z</time>
      </trkpt>
      <trkpt lat="44.79091" lon="4.9872">
        <ele>274</ele>
        <time>2013-08-22T17:30:49Z</time>
      </trkpt>
      <trkpt lat="44.79091" lon="4.98718">
        <ele>274</ele>
        <time>2013-08-22T17:30:50Z</time>
      </trkpt>
      <trkpt lat="44.79093" lon="4.98715">
        <ele>274</ele>
        <time>2013-08-22T17:30:51Z</time>
      </trkpt>
      <trkpt lat="44.79095" lon="4.98713">
        <ele>274</ele>
        <time>2013-08-22T17:30:52Z</time>
      </trkpt>
      <trkpt lat="44.79095" lon="4.9871">
        <ele>275</ele>
        <time>2013-08-22T17:30:53Z</time>
      </trkpt>
      <trkpt lat="44.79097" lon="4.98709">
        <ele>276</ele>
        <time>2013-08-22T17:30:54Z</time>
      </trkpt>
      <trkpt lat="44.79099" lon="4.9871">
        <ele>276</ele>
        <time>2013-08-22T17:30:55Z</time>
      </trkpt>
      <trkpt lat="44.79101" lon="4.98711">
        <ele>277</ele>
        <time>2013-08-22T17:30:56Z</time>
      </trkpt>
      <trkpt lat="44.79103" lon="4.98712">
        <ele>278</ele>
        <time>2013-08-22T17:30:57Z</time>
      </trkpt>
      <trkpt lat="44.79105" lon="4.98713">
        <ele>279</ele>
        <time>2013-08-22T17:30:58Z</time>
      </trkpt>
      <trkpt lat="44.79107" lon="4.98714">
        <ele>280</ele>
        <time>2013-08-22T17:30:59Z</time>
      </trkpt>
      <trkpt lat="44.79109" lon="4.98715">
        <ele>281</ele>
        <time>2013-08-22T17:31:00Z</time>
      </trkpt>
      <trkpt lat="44.79111" lon="4.98716">
        <ele>282</ele>
        <time>2013-08-22T17:31:01Z</time>
      </trkpt>
      <trkpt lat="44.79113" lon="4.98716">
        <ele>283</ele>
        <time>2013-08-22T17:31:02Z</time>
      </trkpt>
      <trkpt lat="44.79115" lon="4.98715">
        <ele>284</ele>
        <time>2013-08-22T17:31:03Z</time>
      </trkpt>
      <trkpt lat="44.79116" lon="4.98715">
        <ele>285</ele>
        <time>2013-08-22T17:31:04Z</time>
      </trkpt>
      <trkpt lat="44.79117" lon="4.98715">
        <ele>286</ele>
        <time>2013-08-22T17:31:05Z</time>
      </trkpt>
      <trkpt lat="44.79118" lon="4.98716">
        <ele>287</ele>
        <time>2013-08-22T17:31:06Z</time>
      </trkpt>
      <trkpt lat="44.7912" lon="4.98716">
        <ele>288</ele>
        <time>2013-08-22T17:31:07Z</time>
      </trkpt>
      <trkpt lat="44.79122" lon="4.98717">
        <ele>289</ele>
        <time>2013-08-22T17:31:08Z</time>
      </trkpt>
      <trkpt lat="44.79124" lon="4.98717">
        <ele>290</ele>
        <time>2013-08-22T17:31:09Z</time>
      </trkpt>
      <trkpt lat="44.79126" lon="4.98718">
        <ele>291</ele>
        <time>2013-08-22T17:31:10Z</time>
      </trkpt>
      <trkpt lat="44.79128" lon="4.98719">
        <ele>292</ele>
        <time>2013-08-22T17:31:11Z</time>
      </trkpt>
      <trkpt lat="44.7913" lon="4.98719">
        <ele>293</ele>
        <time>2013-08-22T17:31:12Z</time>
      </trkpt>
      <trkpt lat="44.79132" lon="4.98719">
        <ele>294</ele>
        <time>2013-08-22T17:31:13Z</time>
      </trkpt>
      <trkpt lat="44.79133" lon="4.9872">
        <ele>295</ele>
        <time>2013-08-22T17:31:14Z</time>
      </trkpt>
      <trkpt lat="44.79135" lon="4.9872">
        <ele>296</ele>
        <time>2013-08-22T17:31:15Z</time>
      </trkpt>
      <trkpt lat="44.79137" lon="4.9872">
        <ele>297</ele>
        <time>2013-08-22T17:31:16Z</time>
      </trkpt>
      <trkpt lat="44.7914" lon="4.9872">
        <ele>298</ele>
        <time>2013-08-22T17:31:17Z</time>
      </trkpt>
      <trkpt lat="44.79142" lon="4.98721">
        <ele>299</ele>
        <time>2013-08-22T17:31:18Z</time>
      </trkpt>
      <trkpt lat="44.79144" lon="4.98722">
        <ele>300</ele>
        <time>2013-08-22T17:31:19Z</time>
      </trkpt>
      <trkpt lat="44.79147" lon="4.98723">
        <ele>301</ele>
        <time>2013-08-22T17:31:20Z</time>
      </trkpt>
      <trkpt lat="44.7915" lon="4.98724">
        <ele>302</ele>
        <time>2013-08-22T17:31:21Z</time>
      </trkpt>
      <trkpt lat="44.79151" lon="4.98725">
        <ele>303</ele>
        <time>2013-08-22T17:31:22Z</time>
      </trkpt>
      <trkpt lat="44.79153" lon="4.98726">
        <ele>304</ele>
        <time>2013-08-22T17:31:23Z</time>
      </trkpt>
      <trkpt lat="44.79155" lon="4.98727">
        <ele>305</ele>
        <time>2013-08-22T17:31:24Z</time>
      </trkpt>
      <trkpt lat="44.79157" lon="4.98729">
        <ele>305</ele>
        <time>2013-08-22T17:31:25Z</time>
      </trkpt>
      <trkpt lat="44.79158" lon="4.9873">
        <ele>305</ele>
        <time>2013-08-22T17:31:26Z</time>
      </trkpt>
      <trkpt lat="44.79161" lon="4.98732">
        <ele>305</ele>
        <time>2013-08-22T17:31:27Z</time>
      </trkpt>
      <trkpt lat="44.79163" lon="4.98733">
        <ele>305</ele>
        <time>2013-08-22T17:31:28Z</time>
      </trkpt>
      <trkpt lat="44.79166" lon="4.98734">
        <ele>305</ele>
        <time>2013-08-22T17:31:29Z</time>
      </trkpt>
      <trkpt lat="44.79169" lon="4.98736">
        <ele>305</ele>
        <time>2013-08-22T17:31:30Z</time>
      </trkpt>
      <trkpt lat="44.79172" lon="4.98738">
        <ele>305</ele>
        <time>2013-08-22T17:31:31Z</time>
      </trkpt>
      <trkpt lat="44.79175" lon="4.9874">
        <ele>305</ele>
        <time>2013-08-22T17:31:32Z</time>
      </trkpt>
      <trkpt lat="44.79178" lon="4.98742">
        <ele>305</ele>
        <time>2013-08-22T17:31:33Z</time>
      </trkpt>
      <trkpt lat="44.7918" lon="4.98743">
        <ele>305</ele>
        <time>2013-08-22T17:31:34Z</time>
      </trkpt>
      <trkpt lat="44.79182" lon="4.98744">
        <ele>305</ele>
        <time>2013-08-22T17:31:35Z</time>
      </trkpt>
      <trkpt lat="44.79184" lon="4.98744">
        <ele>305</ele>
        <time>2013-08-22T17:31:36Z</time>
      </trkpt>
      <trkpt lat="44.79186" lon="4.98742">
        <ele>305</ele>
        <time>2013-08-22T17:31:37Z</time>
      </trkpt>
      <trkpt lat="44.79188" lon="4.9874">
        <ele>305</ele>
        <time>2013-08-22T17:31:38Z</time>
      </trkpt>
      <trkpt lat="44.79189" lon="4.98737">
        <ele>305</ele>
        <time>2013-08-22T17:31:39Z</time>
      </trkpt>
      <trkpt lat="44.79191" lon="4.98735">
        <ele>305</ele>
        <time>2013-08-22T17:31:40Z</time>
      </trkpt>
      <trkpt lat="44.79192" lon="4.98732">
        <ele>305</ele>
        <time>2013-08-22T17:31:41Z</time>
      </trkpt>
      <trkpt lat="44.79192" lon="4.98728">
        <ele>305</ele>
        <time>2013-08-22T17:31:42Z</time>
      </trkpt>
      <trkpt lat="44.79193" lon="4.98725">
        <ele>305</ele>
        <time>2013-08-22T17:31:43Z</time>
      </trkpt>
      <trkpt lat="44.79195" lon="4.98721">
        <ele>305</ele>
        <time>2013-08-22T17:31:44Z</time>
      </trkpt>
      <trkpt lat="44.79196" lon="4.98718">
        <ele>305</ele>
        <time>2013-08-22T17:31:45Z</time>
      </trkpt>
      <trkpt lat="44.79197" lon="4.98715">
        <ele>305</ele>
        <time>2013-08-22T17:31:46Z</time>
      </trkpt>
      <trkpt lat="44.79198" lon="4.98712">
        <ele>304</ele>
        <time>2013-08-22T17:31:47Z</time>
      </trkpt>
      <trkpt lat="44.79199" lon="4.9871">
        <ele>303</ele>
        <time>2013-08-22T17:31:48Z</time>
      </trkpt>
      <trkpt lat="44.792" lon="4.98707">
        <ele>303</ele>
        <time>2013-08-22T17:31:49Z</time>
      </trkpt>
      <trkpt lat="44.79201" lon="4.98704">
        <ele>302</ele>
        <time>2013-08-22T17:31:50Z</time>
      </trkpt>
      <trkpt lat="44.79203" lon="4.98701">
        <ele>301</ele>
        <time>2013-08-22T17:31:51Z</time>
      </trkpt>
      <trkpt lat="44.79204" lon="4.98699">
        <ele>300</ele>
        <time>2013-08-22T17:31:52Z</time>
      </trkpt>
      <trkpt lat="44.79206" lon="4.98696">
        <ele>299</ele>
        <time>2013-08-22T17:31:53Z</time>
      </trkpt>
      <trkpt lat="44.79206" lon="4.98692">
        <ele>298</ele>
        <time>2013-08-22T17:31:54Z</time>
      </trkpt>
      <trkpt lat="44.79208" lon="4.98689">
        <ele>298</ele>
        <time>2013-08-22T17:31:55Z</time>
      </trkpt>
      <trkpt lat="44.79209" lon="4.98686">
        <ele>297</ele>
        <time>2013-08-22T17:31:56Z</time>
      </trkpt>
      <trkpt lat="44.7921" lon="4.98684">
        <ele>296</ele>
        <time>2013-08-22T17:31:57Z</time>
      </trkpt>
      <trkpt lat="44.79212" lon="4.98681">
        <ele>296</ele>
        <time>2013-08-22T17:31:58Z</time>
      </trkpt>
      <trkpt lat="44.79213" lon="4.98678">
        <ele>295</ele>
        <time>2013-08-22T17:31:59Z</time>
      </trkpt>
      <trkpt lat="44.79212" lon="4.98674">
        <ele>294</ele>
        <time>2013-08-22T17:32:00Z</time>
      </trkpt>
      <trkpt lat="44.79213" lon="4.98671">
        <ele>294</ele>
        <time>2013-08-22T17:32:01Z</time>
      </trkpt>
      <trkpt lat="44.79214" lon="4.98669">
        <ele>293</ele>
        <time>2013-08-22T17:32:02Z</time>
      </trkpt>
      <trkpt lat="44.79216" lon="4.98666">
        <ele>293</ele>
        <time>2013-08-22T17:32:03Z</time>
      </trkpt>
      <trkpt lat="44.79217" lon="4.98662">
        <ele>293</ele>
        <time>2013-08-22T17:32:04Z</time>
      </trkpt>
      <trkpt lat="44.79219" lon="4.98659">
        <ele>293</ele>
        <time>2013-08-22T17:32:05Z</time>
      </trkpt>
      <trkpt lat="44.7922" lon="4.98656">
        <ele>292</ele>
        <time>2013-08-22T17:32:06Z</time>
      </trkpt>
      <trkpt lat="44.79221" lon="4.98653">
        <ele>292</ele>
        <time>2013-08-22T17:32:07Z</time>
      </trkpt>
      <trkpt lat="44.79221" lon="4.98649">
        <ele>292</ele>
        <time>2013-08-22T17:32:08Z</time>
      </trkpt>
      <trkpt lat="44.79222" lon="4.98646">
        <ele>291</ele>
        <time>2013-08-22T17:32:09Z</time>
      </trkpt>
      <trkpt lat="44.79224" lon="4.98643">
        <ele>291</ele>
        <time>2013-08-22T17:32:10Z</time>
      </trkpt>
      <trkpt lat="44.79225" lon="4.98641">
        <ele>291</ele>
        <time>2013-08-22T17:32:11Z</time>
      </trkpt>
      <trkpt lat="44.79227" lon="4.98638">
        <ele>291</ele>
        <time>2013-08-22T17:32:12Z</time>
      </trkpt>
      <trkpt lat="44.79228" lon="4.98636">
        <ele>291</ele>
        <time>2013-08-22T17:32:13Z</time>
      </trkpt>
      <trkpt lat="44.7923" lon="4.98634">
        <ele>291</ele>
        <time>2013-08-22T17:32:14Z</time>
      </trkpt>
      <trkpt lat="44.79229" lon="4.9863">
        <ele>291</ele>
        <time>2013-08-22T17:32:15Z</time>
      </trkpt>
      <trkpt lat="44.79229" lon="4.98626">
        <ele>291</ele>
        <time>2013-08-22T17:32:16Z</time>
      </trkpt>
      <trkpt lat="44.79229" lon="4.98622">
        <ele>291</ele>
        <time>2013-08-22T17:32:17Z</time>
      </trkpt>
      <trkpt lat="44.7923" lon="4.9862">
        <ele>291</ele>
        <time>2013-08-22T17:32:18Z</time>
      </trkpt>
      <trkpt lat="44.7923" lon="4.98618">
        <ele>291</ele>
        <time>2013-08-22T17:32:19Z</time>
      </trkpt>
      <trkpt lat="44.79231" lon="4.98615">
        <ele>291</ele>
        <time>2013-08-22T17:32:20Z</time>
      </trkpt>
      <trkpt lat="44.79233" lon="4.98612">
        <ele>291</ele>
        <time>2013-08-22T17:32:21Z</time>
      </trkpt>
      <trkpt lat="44.79234" lon="4.98611">
        <ele>291</ele>
        <time>2013-08-22T17:32:22Z</time>
      </trkpt>
      <trkpt lat="44.79235" lon="4.98611">
        <ele>291</ele>
        <time>2013-08-22T17:32:23Z</time>
      </trkpt>
      <trkpt lat="44.79238" lon="4.98609">
        <ele>291</ele>
        <time>2013-08-22T17:32:25Z</time>
      </trkpt>
      <trkpt lat="44.79239" lon="4.98607">
        <ele>291</ele>
        <time>2013-08-22T17:32:26Z</time>
      </trkpt>
      <trkpt lat="44.79239" lon="4.98605">
        <ele>291</ele>
        <time>2013-08-22T17:32:27Z</time>
      </trkpt>
      <trkpt lat="44.79239" lon="4.98603">
        <ele>291</ele>
        <time>2013-08-22T17:32:28Z</time>
      </trkpt>
      <trkpt lat="44.79239" lon="4.986">
        <ele>291</ele>
        <time>2013-08-22T17:32:29Z</time>
      </trkpt>
      <trkpt lat="44.7924" lon="4.98598">
        <ele>291</ele>
        <time>2013-08-22T17:32:30Z</time>
      </trkpt>
      <trkpt lat="44.7924" lon="4.98596">
        <ele>291</ele>
        <time>2013-08-22T17:32:31Z</time>
      </trkpt>
      <trkpt lat="44.79241" lon="4.98594">
        <ele>291</ele>
        <time>2013-08-22T17:32:32Z</time>
      </trkpt>
      <trkpt lat="44.79242" lon="4.98592">
        <ele>291</ele>
        <time>2013-08-22T17:32:33Z</time>
      </trkpt>
      <trkpt lat="44.79245" lon="4.9859">
        <ele>291</ele>
        <time>2013-08-22T17:32:34Z</time>
      </trkpt>
      <trkpt lat="44.79247" lon="4.98588">
        <ele>292</ele>
        <time>2013-08-22T17:32:35Z</time>
      </trkpt>
      <trkpt lat="44.79249" lon="4.98587">
        <ele>293</ele>
        <time>2013-08-22T17:32:36Z</time>
      </trkpt>
      <trkpt lat="44.7925" lon="4.98586">
        <ele>293</ele>
        <time>2013-08-22T17:32:37Z</time>
      </trkpt>
      <trkpt lat="44.79253" lon="4.98585">
        <ele>294</ele>
        <time>2013-08-22T17:32:38Z</time>
      </trkpt>
      <trkpt lat="44.79255" lon="4.98583">
        <ele>294</ele>
        <time>2013-08-22T17:32:39Z</time>
      </trkpt>
      <trkpt lat="44.79257" lon="4.98581">
        <ele>294</ele>
        <time>2013-08-22T17:32:40Z</time>
      </trkpt>
      <trkpt lat="44.79259" lon="4.98579">
        <ele>294</ele>
        <time>2013-08-22T17:32:41Z</time>
      </trkpt>
      <trkpt lat="44.79261" lon="4.98577">
        <ele>294</ele>
        <time>2013-08-22T17:32:42Z</time>
      </trkpt>
      <trkpt lat="44.79264" lon="4.98575">
        <ele>294</ele>
        <time>2013-08-22T17:32:43Z</time>
      </trkpt>
      <trkpt lat="44.79266" lon="4.98573">
        <ele>294</ele>
        <time>2013-08-22T17:32:44Z</time>
      </trkpt>
      <trkpt lat="44.79269" lon="4.98571">
        <ele>295</ele>
        <time>2013-08-22T17:32:45Z</time>
      </trkpt>
      <trkpt lat="44.79272" lon="4.98569">
        <ele>295</ele>
        <time>2013-08-22T17:32:46Z</time>
      </trkpt>
      <trkpt lat="44.79276" lon="4.98567">
        <ele>296</ele>
        <time>2013-08-22T17:32:47Z</time>
      </trkpt>
      <trkpt lat="44.79279" lon="4.98565">
        <ele>296</ele>
        <time>2013-08-22T17:32:48Z</time>
      </trkpt>
      <trkpt lat="44.79281" lon="4.98562">
        <ele>297</ele>
        <time>2013-08-22T17:32:49Z</time>
      </trkpt>
      <trkpt lat="44.79284" lon="4.9856">
        <ele>297</ele>
        <time>2013-08-22T17:32:50Z</time>
      </trkpt>
      <trkpt lat="44.79287" lon="4.98556">
        <ele>298</ele>
        <time>2013-08-22T17:32:51Z</time>
      </trkpt>
      <trkpt lat="44.79291" lon="4.98554">
        <ele>298</ele>
        <time>2013-08-22T17:32:52Z</time>
      </trkpt>
      <trkpt lat="44.79295" lon="4.98551">
        <ele>298</ele>
        <time>2013-08-22T17:32:53Z</time>
      </trkpt>
      <trkpt lat="44.79299" lon="4.98549">
        <ele>298</ele>
        <time>2013-08-22T17:32:54Z</time>
      </trkpt>
      <trkpt lat="44.79302" lon="4.98547">
        <ele>298</ele>
        <time>2013-08-22T17:32:55Z</time>
      </trkpt>
      <trkpt lat="44.79305" lon="4.98545">
        <ele>299</ele>
        <time>2013-08-22T17:32:56Z</time>
      </trkpt>
      <trkpt lat="44.79308" lon="4.98542">
        <ele>300</ele>
        <time>2013-08-22T17:32:57Z</time>
      </trkpt>
      <trkpt lat="44.79311" lon="4.9854">
        <ele>300</ele>
        <time>2013-08-22T17:32:58Z</time>
      </trkpt>
      <trkpt lat="44.79314" lon="4.98537">
        <ele>301</ele>
        <time>2013-08-22T17:32:59Z</time>
      </trkpt>
      <trkpt lat="44.79316" lon="4.98534">
        <ele>301</ele>
        <time>2013-08-22T17:33:00Z</time>
      </trkpt>
      <trkpt lat="44.79319" lon="4.98532">
        <ele>301</ele>
        <time>2013-08-22T17:33:01Z</time>
      </trkpt>
      <trkpt lat="44.79322" lon="4.9853">
        <ele>301</ele>
        <time>2013-08-22T17:33:02Z</time>
      </trkpt>
      <trkpt lat="44.79324" lon="4.98528">
        <ele>301</ele>
        <time>2013-08-22T17:33:03Z</time>
      </trkpt>
      <trkpt lat="44.79327" lon="4.98526">
        <ele>301</ele>
        <time>2013-08-22T17:33:04Z</time>
      </trkpt>
      <trkpt lat="44.7933" lon="4.98524">
        <ele>302</ele>
        <time>2013-08-22T17:33:05Z</time>
      </trkpt>
      <trkpt lat="44.79333" lon="4.98521">
        <ele>302</ele>
        <time>2013-08-22T17:33:06Z</time>
      </trkpt>
      <trkpt lat="44.79337" lon="4.98519">
        <ele>302</ele>
        <time>2013-08-22T17:33:07Z</time>
      </trkpt>
      <trkpt lat="44.7934" lon="4.98515">
        <ele>303</ele>
        <time>2013-08-22T17:33:08Z</time>
      </trkpt>
      <trkpt lat="44.79344" lon="4.98512">
        <ele>303</ele>
        <time>2013-08-22T17:33:09Z</time>
      </trkpt>
      <trkpt lat="44.79347" lon="4.98509">
        <ele>303</ele>
        <time>2013-08-22T17:33:10Z</time>
      </trkpt>
      <trkpt lat="44.7935" lon="4.98505">
        <ele>303</ele>
        <time>2013-08-22T17:33:11Z</time>
      </trkpt>
      <trkpt lat="44.79352" lon="4.98502">
        <ele>303</ele>
        <time>2013-08-22T17:33:12Z</time>
      </trkpt>
      <trkpt lat="44.79353" lon="4.98499">
        <ele>303</ele>
        <time>2013-08-22T17:33:13Z</time>
      </trkpt>
      <trkpt lat="44.79353" lon="4.98495">
        <ele>303</ele>
        <time>2013-08-22T17:33:14Z</time>
      </trkpt>
      <trkpt lat="44.79351" lon="4.98491">
        <ele>303</ele>
        <time>2013-08-22T17:33:15Z</time>
      </trkpt>
      <trkpt lat="44.79348" lon="4.98488">
        <ele>303</ele>
        <time>2013-08-22T17:33:16Z</time>
      </trkpt>
      <trkpt lat="44.79347" lon="4.98485">
        <ele>303</ele>
        <time>2013-08-22T17:33:17Z</time>
      </trkpt>
      <trkpt lat="44.79346" lon="4.98482">
        <ele>303</ele>
        <time>2013-08-22T17:33:18Z</time>
      </trkpt>
      <trkpt lat="44.79347" lon="4.98479">
        <ele>303</ele>
        <time>2013-08-22T17:33:19Z</time>
      </trkpt>
      <trkpt lat="44.79349" lon="4.98477">
        <ele>303</ele>
        <time>2013-08-22T17:33:20Z</time>
      </trkpt>
      <trkpt lat="44.79351" lon="4.98474">
        <ele>303</ele>
        <time>2013-08-22T17:33:21Z</time>
      </trkpt>
      <trkpt lat="44.79353" lon="4.98472">
        <ele>303</ele>
        <time>2013-08-22T17:33:22Z</time>
      </trkpt>
      <trkpt lat="44.79356" lon="4.9847">
        <ele>303</ele>
        <time>2013-08-22T17:33:23Z</time>
      </trkpt>
      <trkpt lat="44.79358" lon="4.98468">
        <ele>303</ele>
        <time>2013-08-22T17:33:24Z</time>
      </trkpt>
      <trkpt lat="44.7936" lon="4.98466">
        <ele>303</ele>
        <time>2013-08-22T17:33:25Z</time>
      </trkpt>
      <trkpt lat="44.79362" lon="4.98463">
        <ele>303</ele>
        <time>2013-08-22T17:33:26Z</time>
      </trkpt>
      <trkpt lat="44.79365" lon="4.98461">
        <ele>303</ele>
        <time>2013-08-22T17:33:27Z</time>
      </trkpt>
      <trkpt lat="44.79367" lon="4.98458">
        <ele>303</ele>
        <time>2013-08-22T17:33:28Z</time>
      </trkpt>
      <trkpt lat="44.79369" lon="4.98457">
        <ele>303</ele>
        <time>2013-08-22T17:33:29Z</time>
      </trkpt>
      <trkpt lat="44.7937" lon="4.98455">
        <ele>303</ele>
        <time>2013-08-22T17:33:30Z</time>
      </trkpt>
      <trkpt lat="44.79373" lon="4.98454">
        <ele>303</ele>
        <time>2013-08-22T17:33:31Z</time>
      </trkpt>
      <trkpt lat="44.79376" lon="4.98454">
        <ele>303</ele>
        <time>2013-08-22T17:33:32Z</time>
      </trkpt>
      <trkpt lat="44.79379" lon="4.98455">
        <ele>303</ele>
        <time>2013-08-22T17:33:33Z</time>
      </trkpt>
      <trkpt lat="44.79382" lon="4.98456">
        <ele>303</ele>
        <time>2013-08-22T17:33:34Z</time>
      </trkpt>
      <trkpt lat="44.79385" lon="4.98459">
        <ele>303</ele>
        <time>2013-08-22T17:33:35Z</time>
      </trkpt>
      <trkpt lat="44.79387" lon="4.98462">
        <ele>303</ele>
        <time>2013-08-22T17:33:36Z</time>
      </trkpt>
      <trkpt lat="44.7939" lon="4.98465">
        <ele>303</ele>
        <time>2013-08-22T17:33:37Z</time>
      </trkpt>
      <trkpt lat="44.79393" lon="4.98467">
        <ele>303</ele>
        <time>2013-08-22T17:33:38Z</time>
      </trkpt>
      <trkpt lat="44.79396" lon="4.98469">
        <ele>303</ele>
        <time>2013-08-22T17:33:39Z</time>
      </trkpt>
      <trkpt lat="44.79398" lon="4.98471">
        <ele>303</ele>
        <time>2013-08-22T17:33:40Z</time>
      </trkpt>
      <trkpt lat="44.79401" lon="4.98473">
        <ele>303</ele>
        <time>2013-08-22T17:33:41Z</time>
      </trkpt>
      <trkpt lat="44.79404" lon="4.98476">
        <ele>302</ele>
        <time>2013-08-22T17:33:42Z</time>
      </trkpt>
      <trkpt lat="44.79407" lon="4.98477">
        <ele>302</ele>
        <time>2013-08-22T17:33:43Z</time>
      </trkpt>
      <trkpt lat="44.79411" lon="4.98478">
        <ele>302</ele>
        <time>2013-08-22T17:33:44Z</time>
      </trkpt>
      <trkpt lat="44.79414" lon="4.98479">
        <ele>301</ele>
        <time>2013-08-22T17:33:45Z</time>
      </trkpt>
      <trkpt lat="44.79417" lon="4.98481">
        <ele>300</ele>
        <time>2013-08-22T17:33:46Z</time>
      </trkpt>
      <trkpt lat="44.7942" lon="4.98482">
        <ele>300</ele>
        <time>2013-08-22T17:33:47Z</time>
      </trkpt>
      <trkpt lat="44.79423" lon="4.98482">
        <ele>299</ele>
        <time>2013-08-22T17:33:48Z</time>
      </trkpt>
      <trkpt lat="44.79426" lon="4.98483">
        <ele>299</ele>
        <time>2013-08-22T17:33:49Z</time>
      </trkpt>
      <trkpt lat="44.79428" lon="4.98485">
        <ele>298</ele>
        <time>2013-08-22T17:33:50Z</time>
      </trkpt>
      <trkpt lat="44.79431" lon="4.98486">
        <ele>297</ele>
        <time>2013-08-22T17:33:51Z</time>
      </trkpt>
      <trkpt lat="44.79434" lon="4.98488">
        <ele>297</ele>
        <time>2013-08-22T17:33:52Z</time>
      </trkpt>
      <trkpt lat="44.79437" lon="4.9849">
        <ele>296</ele>
        <time>2013-08-22T17:33:53Z</time>
      </trkpt>
      <trkpt lat="44.79439" lon="4.9849">
        <ele>295</ele>
        <time>2013-08-22T17:33:54Z</time>
      </trkpt>
      <trkpt lat="44.79442" lon="4.98491">
        <ele>295</ele>
        <time>2013-08-22T17:33:55Z</time>
      </trkpt>
      <trkpt lat="44.79445" lon="4.98493">
        <ele>294</ele>
        <time>2013-08-22T17:33:56Z</time>
      </trkpt>
      <trkpt lat="44.79447" lon="4.98494">
        <ele>294</ele>
        <time>2013-08-22T17:33:57Z</time>
      </trkpt>
      <trkpt lat="44.79449" lon="4.98495">
        <ele>293</ele>
        <time>2013-08-22T17:33:58Z</time>
      </trkpt>
      <trkpt lat="44.79451" lon="4.98496">
        <ele>293</ele>
        <time>2013-08-22T17:33:59Z</time>
      </trkpt>
      <trkpt lat="44.79453" lon="4.98498">
        <ele>293</ele>
        <time>2013-08-22T17:34:00Z</time>
      </trkpt>
      <trkpt lat="44.79454" lon="4.98499">
        <ele>293</ele>
        <time>2013-08-22T17:34:01Z</time>
      </trkpt>
      <trkpt lat="44.79456" lon="4.98501">
        <ele>292</ele>
        <time>2013-08-22T17:34:03Z</time>
      </trkpt>
      <trkpt lat="44.79458" lon="4.98501">
        <ele>292</ele>
        <time>2013-08-22T17:34:04Z</time>
      </trkpt>
      <trkpt lat="44.7946" lon="4.985">
        <ele>292</ele>
        <time>2013-08-22T17:34:05Z</time>
      </trkpt>
      <trkpt lat="44.79462" lon="4.98499">
        <ele>292</ele>
        <time>2013-08-22T17:34:06Z</time>
      </trkpt>
      <trkpt lat="44.79464" lon="4.98497">
        <ele>291</ele>
        <time>2013-08-22T17:34:07Z</time>
      </trkpt>
      <trkpt lat="44.79467" lon="4.98496">
        <ele>291</ele>
        <time>2013-08-22T17:34:08Z</time>
      </trkpt>
      <trkpt lat="44.79469" lon="4.98496">
        <ele>291</ele>
        <time>2013-08-22T17:34:09Z</time>
      </trkpt>
      <trkpt lat="44.79471" lon="4.98495">
        <ele>291</ele>
        <time>2013-08-22T17:34:10Z</time>
      </trkpt>
      <trkpt lat="44.79473" lon="4.98494">
        <ele>290</ele>
        <time>2013-08-22T17:34:11Z</time>
      </trkpt>
      <trkpt lat="44.79477" lon="4.98494">
        <ele>290</ele>
        <time>2013-08-22T17:34:12Z</time>
      </trkpt>
      <trkpt lat="44.7948" lon="4.98494">
        <ele>290</ele>
        <time>2013-08-22T17:34:13Z</time>
      </trkpt>
      <trkpt lat="44.79484" lon="4.98494">
        <ele>290</ele>
        <time>2013-08-22T17:34:14Z</time>
      </trkpt>
      <trkpt lat="44.79487" lon="4.98494">
        <ele>290</ele>
        <time>2013-08-22T17:34:15Z</time>
      </trkpt>
      <trkpt lat="44.7949" lon="4.98494">
        <ele>290</ele>
        <time>2013-08-22T17:34:16Z</time>
      </trkpt>
      <trkpt lat="44.79493" lon="4.98493">
        <ele>290</ele>
        <time>2013-08-22T17:34:17Z</time>
      </trkpt>
      <trkpt lat="44.79495" lon="4.98492">
        <ele>290</ele>
        <time>2013-08-22T17:34:18Z</time>
      </trkpt>
      <trkpt lat="44.79498" lon="4.9849">
        <ele>290</ele>
        <time>2013-08-22T17:34:19Z</time>
      </trkpt>
      <trkpt lat="44.79501" lon="4.98488">
        <ele>289</ele>
        <time>2013-08-22T17:34:20Z</time>
      </trkpt>
      <trkpt lat="44.79504" lon="4.98485">
        <ele>289</ele>
        <time>2013-08-22T17:34:21Z</time>
      </trkpt>
      <trkpt lat="44.79507" lon="4.98481">
        <ele>289</ele>
        <time>2013-08-22T17:34:22Z</time>
      </trkpt>
      <trkpt lat="44.7951" lon="4.98477">
        <ele>289</ele>
        <time>2013-08-22T17:34:23Z</time>
      </trkpt>
      <trkpt lat="44.79512" lon="4.98474">
        <ele>289</ele>
        <time>2013-08-22T17:34:24Z</time>
      </trkpt>
      <trkpt lat="44.79514" lon="4.9847">
        <ele>289</ele>
        <time>2013-08-22T17:34:25Z</time>
      </trkpt>
      <trkpt lat="44.79517" lon="4.98466">
        <ele>289</ele>
        <time>2013-08-22T17:34:26Z</time>
      </trkpt>
      <trkpt lat="44.79519" lon="4.98463">
        <ele>289</ele>
        <time>2013-08-22T17:34:27Z</time>
      </trkpt>
      <trkpt lat="44.79522" lon="4.9846">
        <ele>289</ele>
        <time>2013-08-22T17:34:28Z</time>
      </trkpt>
      <trkpt lat="44.79525" lon="4.98458">
        <ele>288</ele>
        <time>2013-08-22T17:34:29Z</time>
      </trkpt>
      <trkpt lat="44.79527" lon="4.98455">
        <ele>287</ele>
        <time>2013-08-22T17:34:30Z</time>
      </trkpt>
      <trkpt lat="44.79529" lon="4.98454">
        <ele>287</ele>
        <time>2013-08-22T17:34:31Z</time>
      </trkpt>
      <trkpt lat="44.79531" lon="4.98453">
        <ele>286</ele>
        <time>2013-08-22T17:34:32Z</time>
      </trkpt>
      <trkpt lat="44.79533" lon="4.98452">
        <ele>285</ele>
        <time>2013-08-22T17:34:33Z</time>
      </trkpt>
      <trkpt lat="44.79535" lon="4.9845">
        <ele>285</ele>
        <time>2013-08-22T17:34:34Z</time>
      </trkpt>
      <trkpt lat="44.79537" lon="4.98449">
        <ele>284</ele>
        <time>2013-08-22T17:34:35Z</time>
      </trkpt>
      <trkpt lat="44.79539" lon="4.98448">
        <ele>283</ele>
        <time>2013-08-22T17:34:36Z</time>
      </trkpt>
      <trkpt lat="44.79542" lon="4.98448">
        <ele>283</ele>
        <time>2013-08-22T17:34:37Z</time>
      </trkpt>
      <trkpt lat="44.79545" lon="4.98447">
        <ele>282</ele>
        <time>2013-08-22T17:34:38Z</time>
      </trkpt>
      <trkpt lat="44.79548" lon="4.98445">
        <ele>281</ele>
        <time>2013-08-22T17:34:39Z</time>
      </trkpt>
      <trkpt lat="44.7955" lon="4.98444">
        <ele>280</ele>
        <time>2013-08-22T17:34:40Z</time>
      </trkpt>
      <trkpt lat="44.79552" lon="4.98442">
        <ele>280</ele>
        <time>2013-08-22T17:34:41Z</time>
      </trkpt>
      <trkpt lat="44.79556" lon="4.98441">
        <ele>279</ele>
        <time>2013-08-22T17:34:42Z</time>
      </trkpt>
      <trkpt lat="44.79558" lon="4.98439">
        <ele>278</ele>
        <time>2013-08-22T17:34:43Z</time>
      </trkpt>
      <trkpt lat="44.7956" lon="4.98436">
        <ele>277</ele>
        <time>2013-08-22T17:34:44Z</time>
      </trkpt>
      <trkpt lat="44.79563" lon="4.98434">
        <ele>277</ele>
        <time>2013-08-22T17:34:45Z</time>
      </trkpt>
      <trkpt lat="44.79565" lon="4.98431">
        <ele>276</ele>
        <time>2013-08-22T17:34:46Z</time>
      </trkpt>
      <trkpt lat="44.79566" lon="4.98428">
        <ele>275</ele>
        <time>2013-08-22T17:34:47Z</time>
      </trkpt>
      <trkpt lat="44.79568" lon="4.98426">
        <ele>274</ele>
        <time>2013-08-22T17:34:48Z</time>
      </trkpt>
      <trkpt lat="44.79571" lon="4.98424">
        <ele>273</ele>
        <time>2013-08-22T17:34:49Z</time>
      </trkpt>
      <trkpt lat="44.79574" lon="4.98423">
        <ele>272</ele>
        <time>2013-08-22T17:34:50Z</time>
      </trkpt>
      <trkpt lat="44.79576" lon="4.98422">
        <ele>272</ele>
        <time>2013-08-22T17:34:51Z</time>
      </trkpt>
      <trkpt lat="44.79578" lon="4.98422">
        <ele>271</ele>
        <time>2013-08-22T17:34:52Z</time>
      </trkpt>
      <trkpt lat="44.79581" lon="4.98421">
        <ele>270</ele>
        <time>2013-08-22T17:34:53Z</time>
      </trkpt>
      <trkpt lat="44.79583" lon="4.9842">
        <ele>269</ele>
        <time>2013-08-22T17:34:54Z</time>
      </trkpt>
      <trkpt lat="44.79586" lon="4.98419">
        <ele>268</ele>
        <time>2013-08-22T17:34:55Z</time>
      </trkpt>
      <trkpt lat="44.79589" lon="4.98417">
        <ele>267</ele>
        <time>2013-08-22T17:34:56Z</time>
      </trkpt>
      <trkpt lat="44.79592" lon="4.98415">
        <ele>266</ele>
        <time>2013-08-22T17:34:57Z</time>
      </trkpt>
      <trkpt lat="44.79596" lon="4.98412">
        <ele>266</ele>
        <time>2013-08-22T17:34:58Z</time>
      </trkpt>
      <trkpt lat="44.796" lon="4.98409">
        <ele>266</ele>
        <time>2013-08-22T17:34:59Z</time>
      </trkpt>
      <trkpt lat="44.79603" lon="4.98406">
        <ele>265</ele>
        <time>2013-08-22T17:35:00Z</time>
      </trkpt>
      <trkpt lat="44.79607" lon="4.98403">
        <ele>265</ele>
        <time>2013-08-22T17:35:01Z</time>
      </trkpt>
      <trkpt lat="44.79611" lon="4.984">
        <ele>265</ele>
        <time>2013-08-22T17:35:02Z</time>
      </trkpt>
      <trkpt lat="44.79615" lon="4.98398">
        <ele>264</ele>
        <time>2013-08-22T17:35:03Z</time>
      </trkpt>
      <trkpt lat="44.79618" lon="4.98395">
        <ele>264</ele>
        <time>2013-08-22T17:35:04Z</time>
      </trkpt>
      <trkpt lat="44.79621" lon="4.98393">
        <ele>264</ele>
        <time>2013-08-22T17:35:05Z</time>
      </trkpt>
      <trkpt lat="44.79625" lon="4.9839">
        <ele>263</ele>
        <time>2013-08-22T17:35:06Z</time>
      </trkpt>
      <trkpt lat="44.79627" lon="4.98388">
        <ele>263</ele>
        <time>2013-08-22T17:35:07Z</time>
      </trkpt>
      <trkpt lat="44.7963" lon="4.98386">
        <ele>263</ele>
        <time>2013-08-22T17:35:08Z</time>
      </trkpt>
      <trkpt lat="44.79633" lon="4.98384">
        <ele>262</ele>
        <time>2013-08-22T17:35:09Z</time>
      </trkpt>
      <trkpt lat="44.79635" lon="4.98382">
        <ele>262</ele>
        <time>2013-08-22T17:35:10Z</time>
      </trkpt>
      <trkpt lat="44.79637" lon="4.98379">
        <ele>262</ele>
        <time>2013-08-22T17:35:11Z</time>
      </trkpt>
      <trkpt lat="44.79638" lon="4.98376">
        <ele>262</ele>
        <time>2013-08-22T17:35:12Z</time>
      </trkpt>
      <trkpt lat="44.79641" lon="4.98373">
        <ele>262</ele>
        <time>2013-08-22T17:35:13Z</time>
      </trkpt>
      <trkpt lat="44.79644" lon="4.9837">
        <ele>262</ele>
        <time>2013-08-22T17:35:14Z</time>
      </trkpt>
      <trkpt lat="44.79646" lon="4.98367">
        <ele>262</ele>
        <time>2013-08-22T17:35:15Z</time>
      </trkpt>
      <trkpt lat="44.79649" lon="4.98365">
        <ele>262</ele>
        <time>2013-08-22T17:35:16Z</time>
      </trkpt>
      <trkpt lat="44.79652" lon="4.98363">
        <ele>261</ele>
        <time>2013-08-22T17:35:17Z</time>
      </trkpt>
      <trkpt lat="44.79655" lon="4.98362">
        <ele>261</ele>
        <time>2013-08-22T17:35:18Z</time>
      </trkpt>
      <trkpt lat="44.79658" lon="4.98361">
        <ele>261</ele>
        <time>2013-08-22T17:35:19Z</time>
      </trkpt>
      <trkpt lat="44.79662" lon="4.9836">
        <ele>261</ele>
        <time>2013-08-22T17:35:20Z</time>
      </trkpt>
      <trkpt lat="44.79665" lon="4.98359">
        <ele>261</ele>
        <time>2013-08-22T17:35:21Z</time>
      </trkpt>
      <trkpt lat="44.79668" lon="4.98359">
        <ele>261</ele>
        <time>2013-08-22T17:35:22Z</time>
      </trkpt>
      <trkpt lat="44.79671" lon="4.98358">
        <ele>261</ele>
        <time>2013-08-22T17:35:23Z</time>
      </trkpt>
      <trkpt lat="44.79674" lon="4.98358">
        <ele>261</ele>
        <time>2013-08-22T17:35:24Z</time>
      </trkpt>
      <trkpt lat="44.79677" lon="4.98357">
        <ele>261</ele>
        <time>2013-08-22T17:35:25Z</time>
      </trkpt>
      <trkpt lat="44.7968" lon="4.98355">
        <ele>261</ele>
        <time>2013-08-22T17:35:26Z</time>
      </trkpt>
      <trkpt lat="44.79684" lon="4.98352">
        <ele>260</ele>
        <time>2013-08-22T17:35:27Z</time>
      </trkpt>
      <trkpt lat="44.79686" lon="4.9835">
        <ele>259</ele>
        <time>2013-08-22T17:35:28Z</time>
      </trkpt>
      <trkpt lat="44.79689" lon="4.98349">
        <ele>259</ele>
        <time>2013-08-22T17:35:29Z</time>
      </trkpt>
      <trkpt lat="44.79689" lon="4.98345">
        <ele>259</ele>
        <time>2013-08-22T17:35:30Z</time>
      </trkpt>
      <trkpt lat="44.79691" lon="4.98345">
        <ele>258</ele>
        <time>2013-08-22T17:35:31Z</time>
      </trkpt>
      <trkpt lat="44.79693" lon="4.98344">
        <ele>258</ele>
        <time>2013-08-22T17:35:32Z</time>
      </trkpt>
      <trkpt lat="44.79697" lon="4.98343">
        <ele>258</ele>
        <time>2013-08-22T17:35:33Z</time>
      </trkpt>
      <trkpt lat="44.797" lon="4.98343">
        <ele>258</ele>
        <time>2013-08-22T17:35:34Z</time>
      </trkpt>
      <trkpt lat="44.79704" lon="4.98342">
        <ele>257</ele>
        <time>2013-08-22T17:35:35Z</time>
      </trkpt>
      <trkpt lat="44.79707" lon="4.98341">
        <ele>256</ele>
        <time>2013-08-22T17:35:36Z</time>
      </trkpt>
      <trkpt lat="44.79711" lon="4.9834">
        <ele>256</ele>
        <time>2013-08-22T17:35:37Z</time>
      </trkpt>
      <trkpt lat="44.79713" lon="4.98339">
        <ele>255</ele>
        <time>2013-08-22T17:35:38Z</time>
      </trkpt>
      <trkpt lat="44.79715" lon="4.98339">
        <ele>254</ele>
        <time>2013-08-22T17:35:39Z</time>
      </trkpt>
      <trkpt lat="44.79718" lon="4.98338">
        <ele>254</ele>
        <time>2013-08-22T17:35:40Z</time>
      </trkpt>
      <trkpt lat="44.79721" lon="4.98336">
        <ele>253</ele>
        <time>2013-08-22T17:35:41Z</time>
      </trkpt>
      <trkpt lat="44.79724" lon="4.98335">
        <ele>253</ele>
        <time>2013-08-22T17:35:42Z</time>
      </trkpt>
      <trkpt lat="44.79726" lon="4.98334">
        <ele>253</ele>
        <time>2013-08-22T17:35:43Z</time>
      </trkpt>
      <trkpt lat="44.79726" lon="4.98332">
        <ele>253</ele>
        <time>2013-08-22T17:35:45Z</time>
      </trkpt>
      <trkpt lat="44.79725" lon="4.9833">
        <ele>253</ele>
        <time>2013-08-22T17:35:47Z</time>
      </trkpt>
      <trkpt lat="44.79726" lon="4.98331">
        <ele>253</ele>
        <time>2013-08-22T17:35:50Z</time>
      </trkpt>
      <trkpt lat="44.79728" lon="4.98331">
        <ele>253</ele>
        <time>2013-08-22T17:35:52Z</time>
      </trkpt>
      <trkpt lat="44.79729" lon="4.9833">
        <ele>254</ele>
        <time>2013-08-22T17:35:55Z</time>
      </trkpt>
      <trkpt lat="44.79729" lon="4.98328">
        <ele>259</ele>
        <time>2013-08-22T17:36:01Z</time>
      </trkpt>
      <trkpt lat="44.79728" lon="4.98327">
        <ele>260</ele>
        <time>2013-08-22T17:36:03Z</time>
      </trkpt>
      <trkpt lat="44.79727" lon="4.98326">
        <ele>260</ele>
        <time>2013-08-22T17:36:08Z</time>
      </trkpt>
      <trkpt lat="44.79728" lon="4.98327">
        <ele>260</ele>
        <time>2013-08-22T17:36:13Z</time>
      </trkpt>
      <trkpt lat="44.7973" lon="4.98326">
        <ele>260</ele>
        <time>2013-08-22T17:36:18Z</time>
      </trkpt>
      <trkpt lat="44.79731" lon="4.98327">
        <ele>260</ele>
        <time>2013-08-22T17:36:20Z</time>
      </trkpt>
      <trkpt lat="44.79733" lon="4.98329">
        <ele>260</ele>
        <time>2013-08-22T17:36:22Z</time>
      </trkpt>
      <trkpt lat="44.79734" lon="4.9833">
        <ele>260</ele>
        <time>2013-08-22T17:36:26Z</time>
      </trkpt>
      <trkpt lat="44.79736" lon="4.9833">
        <ele>260</ele>
        <time>2013-08-22T17:36:31Z</time>
      </trkpt>
      <trkpt lat="44.79738" lon="4.98328">
        <ele>260</ele>
        <time>2013-08-22T17:36:33Z</time>
      </trkpt>
      <trkpt lat="44.79739" lon="4.98325">
        <ele>260</ele>
        <time>2013-08-22T17:36:34Z</time>
      </trkpt>
      <trkpt lat="44.79739" lon="4.98323">
        <ele>260</ele>
        <time>2013-08-22T17:36:35Z</time>
      </trkpt>
      <trkpt lat="44.79741" lon="4.98321">
        <ele>260</ele>
        <time>2013-08-22T17:36:36Z</time>
      </trkpt>
      <trkpt lat="44.79741" lon="4.9832">
        <ele>260</ele>
        <time>2013-08-22T17:36:37Z</time>
      </trkpt>
      <trkpt lat="44.79742" lon="4.98318">
        <ele>260</ele>
        <time>2013-08-22T17:36:38Z</time>
      </trkpt>
      <trkpt lat="44.79742" lon="4.98316">
        <ele>260</ele>
        <time>2013-08-22T17:36:39Z</time>
      </trkpt>
      <trkpt lat="44.79742" lon="4.98313">
        <ele>260</ele>
        <time>2013-08-22T17:36:40Z</time>
      </trkpt>
      <trkpt lat="44.79743" lon="4.98311">
        <ele>260</ele>
        <time>2013-08-22T17:36:41Z</time>
      </trkpt>
      <trkpt lat="44.79744" lon="4.98309">
        <ele>260</ele>
        <time>2013-08-22T17:36:42Z</time>
      </trkpt>
      <trkpt lat="44.79745" lon="4.98306">
        <ele>259</ele>
        <time>2013-08-22T17:36:43Z</time>
      </trkpt>
      <trkpt lat="44.79746" lon="4.98305">
        <ele>258</ele>
        <time>2013-08-22T17:36:44Z</time>
      </trkpt>
      <trkpt lat="44.79747" lon="4.98304">
        <ele>257</ele>
        <time>2013-08-22T17:36:45Z</time>
      </trkpt>
      <trkpt lat="44.79749" lon="4.98304">
        <ele>257</ele>
        <time>2013-08-22T17:36:46Z</time>
      </trkpt>
      <trkpt lat="44.7975" lon="4.98304">
        <ele>256</ele>
        <time>2013-08-22T17:36:47Z</time>
      </trkpt>
      <trkpt lat="44.79751" lon="4.98302">
        <ele>256</ele>
        <time>2013-08-22T17:36:48Z</time>
      </trkpt>
      <trkpt lat="44.79754" lon="4.983">
        <ele>254</ele>
        <time>2013-08-22T17:36:50Z</time>
      </trkpt>
      <trkpt lat="44.79755" lon="4.98299">
        <ele>254</ele>
        <time>2013-08-22T17:36:51Z</time>
      </trkpt>
      <trkpt lat="44.79757" lon="4.98298">
        <ele>253</ele>
        <time>2013-08-22T17:36:52Z</time>
      </trkpt>
      <trkpt lat="44.79759" lon="4.98296">
        <ele>253</ele>
        <time>2013-08-22T17:36:53Z</time>
      </trkpt>
      <trkpt lat="44.7976" lon="4.98294">
        <ele>252</ele>
        <time>2013-08-22T17:36:54Z</time>
      </trkpt>
      <trkpt lat="44.79761" lon="4.98292">
        <ele>252</ele>
        <time>2013-08-22T17:36:55Z</time>
      </trkpt>
      <trkpt lat="44.79761" lon="4.98289">
        <ele>251</ele>
        <time>2013-08-22T17:36:56Z</time>
      </trkpt>
      <trkpt lat="44.79761" lon="4.98286">
        <ele>251</ele>
        <time>2013-08-22T17:36:57Z</time>
      </trkpt>
      <trkpt lat="44.7976" lon="4.98283">
        <ele>250</ele>
        <time>2013-08-22T17:36:58Z</time>
      </trkpt>
      <trkpt lat="44.7976" lon="4.9828">
        <ele>250</ele>
        <time>2013-08-22T17:36:59Z</time>
      </trkpt>
      <trkpt lat="44.79761" lon="4.98277">
        <ele>249</ele>
        <time>2013-08-22T17:37:00Z</time>
      </trkpt>
      <trkpt lat="44.79763" lon="4.98275">
        <ele>249</ele>
        <time>2013-08-22T17:37:01Z</time>
      </trkpt>
      <trkpt lat="44.79765" lon="4.98272">
        <ele>248</ele>
        <time>2013-08-22T17:37:02Z</time>
      </trkpt>
      <trkpt lat="44.79767" lon="4.98271">
        <ele>248</ele>
        <time>2013-08-22T17:37:03Z</time>
      </trkpt>
      <trkpt lat="44.79769" lon="4.98271">
        <ele>248</ele>
        <time>2013-08-22T17:37:04Z</time>
      </trkpt>
      <trkpt lat="44.79771" lon="4.98271">
        <ele>247</ele>
        <time>2013-08-22T17:37:05Z</time>
      </trkpt>
      <trkpt lat="44.79773" lon="4.98272">
        <ele>247</ele>
        <time>2013-08-22T17:37:06Z</time>
      </trkpt>
      <trkpt lat="44.79774" lon="4.98272">
        <ele>246</ele>
        <time>2013-08-22T17:37:07Z</time>
      </trkpt>
      <trkpt lat="44.79776" lon="4.98273">
        <ele>245</ele>
        <time>2013-08-22T17:37:08Z</time>
      </trkpt>
      <trkpt lat="44.79779" lon="4.98273">
        <ele>244</ele>
        <time>2013-08-22T17:37:09Z</time>
      </trkpt>
      <trkpt lat="44.79782" lon="4.98273">
        <ele>244</ele>
        <time>2013-08-22T17:37:10Z</time>
      </trkpt>
      <trkpt lat="44.79784" lon="4.98272">
        <ele>243</ele>
        <time>2013-08-22T17:37:11Z</time>
      </trkpt>
      <trkpt lat="44.79787" lon="4.98271">
        <ele>242</ele>
        <time>2013-08-22T17:37:12Z</time>
      </trkpt>
      <trkpt lat="44.79791" lon="4.98271">
        <ele>241</ele>
        <time>2013-08-22T17:37:13Z</time>
      </trkpt>
      <trkpt lat="44.79794" lon="4.9827">
        <ele>240</ele>
        <time>2013-08-22T17:37:14Z</time>
      </trkpt>
      <trkpt lat="44.79796" lon="4.98269">
        <ele>239</ele>
        <time>2013-08-22T17:37:15Z</time>
      </trkpt>
      <trkpt lat="44.79799" lon="4.98268">
        <ele>238</ele>
        <time>2013-08-22T17:37:16Z</time>
      </trkpt>
      <trkpt lat="44.798" lon="4.98268">
        <ele>238</ele>
        <time>2013-08-22T17:37:17Z</time>
      </trkpt>
      <trkpt lat="44.79803" lon="4.98267">
        <ele>237</ele>
        <time>2013-08-22T17:37:18Z</time>
      </trkpt>
      <trkpt lat="44.79805" lon="4.98267">
        <ele>237</ele>
        <time>2013-08-22T17:37:19Z</time>
      </trkpt>
      <trkpt lat="44.79807" lon="4.98267">
        <ele>236</ele>
        <time>2013-08-22T17:37:20Z</time>
      </trkpt>
      <trkpt lat="44.7981" lon="4.98267">
        <ele>236</ele>
        <time>2013-08-22T17:37:21Z</time>
      </trkpt>
      <trkpt lat="44.79814" lon="4.98267">
        <ele>236</ele>
        <time>2013-08-22T17:37:22Z</time>
      </trkpt>
      <trkpt lat="44.79818" lon="4.98266">
        <ele>236</ele>
        <time>2013-08-22T17:37:23Z</time>
      </trkpt>
      <trkpt lat="44.79822" lon="4.98266">
        <ele>236</ele>
        <time>2013-08-22T17:37:24Z</time>
      </trkpt>
      <trkpt lat="44.79826" lon="4.98265">
        <ele>236</ele>
        <time>2013-08-22T17:37:25Z</time>
      </trkpt>
      <trkpt lat="44.7983" lon="4.98265">
        <ele>236</ele>
        <time>2013-08-22T17:37:26Z</time>
      </trkpt>
      <trkpt lat="44.79834" lon="4.98264">
        <ele>236</ele>
        <time>2013-08-22T17:37:27Z</time>
      </trkpt>
      <trkpt lat="44.79839" lon="4.98263">
        <ele>236</ele>
        <time>2013-08-22T17:37:28Z</time>
      </trkpt>
      <trkpt lat="44.79841" lon="4.98262">
        <ele>236</ele>
        <time>2013-08-22T17:37:29Z</time>
      </trkpt>
      <trkpt lat="44.79844" lon="4.9826">
        <ele>236</ele>
        <time>2013-08-22T17:37:30Z</time>
      </trkpt>
      <trkpt lat="44.79847" lon="4.98259">
        <ele>236</ele>
        <time>2013-08-22T17:37:31Z</time>
      </trkpt>
      <trkpt lat="44.79851" lon="4.98258">
        <ele>236</ele>
        <time>2013-08-22T17:37:32Z</time>
      </trkpt>
      <trkpt lat="44.79853" lon="4.98257">
        <ele>236</ele>
        <time>2013-08-22T17:37:33Z</time>
      </trkpt>
      <trkpt lat="44.79856" lon="4.98256">
        <ele>236</ele>
        <time>2013-08-22T17:37:34Z</time>
      </trkpt>
      <trkpt lat="44.79859" lon="4.98255">
        <ele>236</ele>
        <time>2013-08-22T17:37:35Z</time>
      </trkpt>
      <trkpt lat="44.79862" lon="4.98253">
        <ele>236</ele>
        <time>2013-08-22T17:37:36Z</time>
      </trkpt>
      <trkpt lat="44.79866" lon="4.98252">
        <ele>236</ele>
        <time>2013-08-22T17:37:37Z</time>
      </trkpt>
      <trkpt lat="44.79869" lon="4.98251">
        <ele>236</ele>
        <time>2013-08-22T17:37:38Z</time>
      </trkpt>
      <trkpt lat="44.79872" lon="4.9825">
        <ele>236</ele>
        <time>2013-08-22T17:37:39Z</time>
      </trkpt>
      <trkpt lat="44.79876" lon="4.98249">
        <ele>236</ele>
        <time>2013-08-22T17:37:40Z</time>
      </trkpt>
      <trkpt lat="44.79879" lon="4.98248">
        <ele>236</ele>
        <time>2013-08-22T17:37:41Z</time>
      </trkpt>
      <trkpt lat="44.79882" lon="4.98246">
        <ele>236</ele>
        <time>2013-08-22T17:37:42Z</time>
      </trkpt>
      <trkpt lat="44.79886" lon="4.98244">
        <ele>236</ele>
        <time>2013-08-22T17:37:43Z</time>
      </trkpt>
      <trkpt lat="44.79889" lon="4.98242">
        <ele>236</ele>
        <time>2013-08-22T17:37:44Z</time>
      </trkpt>
      <trkpt lat="44.79892" lon="4.9824">
        <ele>236</ele>
        <time>2013-08-22T17:37:45Z</time>
      </trkpt>
      <trkpt lat="44.79895" lon="4.98239">
        <ele>236</ele>
        <time>2013-08-22T17:37:46Z</time>
      </trkpt>
      <trkpt lat="44.79898" lon="4.98237">
        <ele>236</ele>
        <time>2013-08-22T17:37:47Z</time>
      </trkpt>
      <trkpt lat="44.799" lon="4.98235">
        <ele>236</ele>
        <time>2013-08-22T17:37:48Z</time>
      </trkpt>
      <trkpt lat="44.79903" lon="4.98233">
        <ele>236</ele>
        <time>2013-08-22T17:37:49Z</time>
      </trkpt>
      <trkpt lat="44.79905" lon="4.9823">
        <ele>236</ele>
        <time>2013-08-22T17:37:50Z</time>
      </trkpt>
      <trkpt lat="44.79905" lon="4.98227">
        <ele>236</ele>
        <time>2013-08-22T17:37:51Z</time>
      </trkpt>
      <trkpt lat="44.79907" lon="4.98223">
        <ele>236</ele>
        <time>2013-08-22T17:37:52Z</time>
      </trkpt>
      <trkpt lat="44.79908" lon="4.98221">
        <ele>236</ele>
        <time>2013-08-22T17:37:53Z</time>
      </trkpt>
      <trkpt lat="44.79909" lon="4.98218">
        <ele>236</ele>
        <time>2013-08-22T17:37:54Z</time>
      </trkpt>
      <trkpt lat="44.7991" lon="4.98216">
        <ele>236</ele>
        <time>2013-08-22T17:37:55Z</time>
      </trkpt>
      <trkpt lat="44.79911" lon="4.98214">
        <ele>236</ele>
        <time>2013-08-22T17:37:56Z</time>
      </trkpt>
      <trkpt lat="44.79911" lon="4.98211">
        <ele>236</ele>
        <time>2013-08-22T17:37:57Z</time>
      </trkpt>
      <trkpt lat="44.79913" lon="4.98208">
        <ele>236</ele>
        <time>2013-08-22T17:37:58Z</time>
      </trkpt>
      <trkpt lat="44.79915" lon="4.98206">
        <ele>236</ele>
        <time>2013-08-22T17:37:59Z</time>
      </trkpt>
      <trkpt lat="44.79916" lon="4.98204">
        <ele>236</ele>
        <time>2013-08-22T17:38:00Z</time>
      </trkpt>
      <trkpt lat="44.79917" lon="4.98203">
        <ele>236</ele>
        <time>2013-08-22T17:38:01Z</time>
      </trkpt>
      <trkpt lat="44.79919" lon="4.98202">
        <ele>236</ele>
        <time>2013-08-22T17:38:02Z</time>
      </trkpt>
      <trkpt lat="44.79922" lon="4.982">
        <ele>236</ele>
        <time>2013-08-22T17:38:03Z</time>
      </trkpt>
      <trkpt lat="44.79925" lon="4.98198">
        <ele>236</ele>
        <time>2013-08-22T17:38:04Z</time>
      </trkpt>
      <trkpt lat="44.79929" lon="4.98196">
        <ele>236</ele>
        <time>2013-08-22T17:38:05Z</time>
      </trkpt>
      <trkpt lat="44.79932" lon="4.98193">
        <ele>236</ele>
        <time>2013-08-22T17:38:06Z</time>
      </trkpt>
      <trkpt lat="44.79934" lon="4.98191">
        <ele>237</ele>
        <time>2013-08-22T17:38:07Z</time>
      </trkpt>
      <trkpt lat="44.79937" lon="4.98189">
        <ele>238</ele>
        <time>2013-08-22T17:38:08Z</time>
      </trkpt>
      <trkpt lat="44.79939" lon="4.98187">
        <ele>239</ele>
        <time>2013-08-22T17:38:09Z</time>
      </trkpt>
      <trkpt lat="44.79942" lon="4.98185">
        <ele>240</ele>
        <time>2013-08-22T17:38:10Z</time>
      </trkpt>
      <trkpt lat="44.79944" lon="4.98183">
        <ele>241</ele>
        <time>2013-08-22T17:38:11Z</time>
      </trkpt>
      <trkpt lat="44.79946" lon="4.98181">
        <ele>242</ele>
        <time>2013-08-22T17:38:12Z</time>
      </trkpt>
      <trkpt lat="44.79948" lon="4.98178">
        <ele>243</ele>
        <time>2013-08-22T17:38:13Z</time>
      </trkpt>
      <trkpt lat="44.7995" lon="4.98176">
        <ele>244</ele>
        <time>2013-08-22T17:38:14Z</time>
      </trkpt>
      <trkpt lat="44.79952" lon="4.98175">
        <ele>245</ele>
        <time>2013-08-22T17:38:15Z</time>
      </trkpt>
      <trkpt lat="44.79955" lon="4.98173">
        <ele>246</ele>
        <time>2013-08-22T17:38:16Z</time>
      </trkpt>
      <trkpt lat="44.79957" lon="4.98172">
        <ele>246</ele>
        <time>2013-08-22T17:38:17Z</time>
      </trkpt>
      <trkpt lat="44.79959" lon="4.9817">
        <ele>247</ele>
        <time>2013-08-22T17:38:18Z</time>
      </trkpt>
      <trkpt lat="44.79962" lon="4.98169">
        <ele>247</ele>
        <time>2013-08-22T17:38:19Z</time>
      </trkpt>
      <trkpt lat="44.79964" lon="4.98167">
        <ele>248</ele>
        <time>2013-08-22T17:38:20Z</time>
      </trkpt>
      <trkpt lat="44.79966" lon="4.98166">
        <ele>248</ele>
        <time>2013-08-22T17:38:21Z</time>
      </trkpt>
      <trkpt lat="44.79967" lon="4.98163">
        <ele>248</ele>
        <time>2013-08-22T17:38:22Z</time>
      </trkpt>
      <trkpt lat="44.79968" lon="4.9816">
        <ele>248</ele>
        <time>2013-08-22T17:38:23Z</time>
      </trkpt>
      <trkpt lat="44.79967" lon="4.98158">
        <ele>248</ele>
        <time>2013-08-22T17:38:24Z</time>
      </trkpt>
      <trkpt lat="44.79967" lon="4.98155">
        <ele>248</ele>
        <time>2013-08-22T17:38:25Z</time>
      </trkpt>
      <trkpt lat="44.79965" lon="4.98152">
        <ele>248</ele>
        <time>2013-08-22T17:38:26Z</time>
      </trkpt>
      <trkpt lat="44.79964" lon="4.98149">
        <ele>248</ele>
        <time>2013-08-22T17:38:27Z</time>
      </trkpt>
      <trkpt lat="44.79962" lon="4.98146">
        <ele>248</ele>
        <time>2013-08-22T17:38:28Z</time>
      </trkpt>
      <trkpt lat="44.79961" lon="4.98143">
        <ele>248</ele>
        <time>2013-08-22T17:38:29Z</time>
      </trkpt>
      <trkpt lat="44.7996" lon="4.9814">
        <ele>248</ele>
        <time>2013-08-22T17:38:30Z</time>
      </trkpt>
      <trkpt lat="44.79959" lon="4.98137">
        <ele>248</ele>
        <time>2013-08-22T17:38:31Z</time>
      </trkpt>
      <trkpt lat="44.79958" lon="4.98134">
        <ele>249</ele>
        <time>2013-08-22T17:38:32Z</time>
      </trkpt>
      <trkpt lat="44.79956" lon="4.98131">
        <ele>249</ele>
        <time>2013-08-22T17:38:33Z</time>
      </trkpt>
      <trkpt lat="44.79956" lon="4.98128">
        <ele>249</ele>
        <time>2013-08-22T17:38:34Z</time>
      </trkpt>
      <trkpt lat="44.79955" lon="4.98125">
        <ele>249</ele>
        <time>2013-08-22T17:38:35Z</time>
      </trkpt>
      <trkpt lat="44.79954" lon="4.98122">
        <ele>249</ele>
        <time>2013-08-22T17:38:36Z</time>
      </trkpt>
      <trkpt lat="44.79953" lon="4.98119">
        <ele>250</ele>
        <time>2013-08-22T17:38:37Z</time>
      </trkpt>
      <trkpt lat="44.79952" lon="4.98117">
        <ele>250</ele>
        <time>2013-08-22T17:38:38Z</time>
      </trkpt>
      <trkpt lat="44.79951" lon="4.98114">
        <ele>250</ele>
        <time>2013-08-22T17:38:39Z</time>
      </trkpt>
      <trkpt lat="44.79951" lon="4.98111">
        <ele>251</ele>
        <time>2013-08-22T17:38:40Z</time>
      </trkpt>
      <trkpt lat="44.7995" lon="4.98108">
        <ele>251</ele>
        <time>2013-08-22T17:38:41Z</time>
      </trkpt>
      <trkpt lat="44.79948" lon="4.98106">
        <ele>251</ele>
        <time>2013-08-22T17:38:42Z</time>
      </trkpt>
      <trkpt lat="44.79948" lon="4.98103">
        <ele>252</ele>
        <time>2013-08-22T17:38:43Z</time>
      </trkpt>
      <trkpt lat="44.79947" lon="4.981">
        <ele>252</ele>
        <time>2013-08-22T17:38:44Z</time>
      </trkpt>
      <trkpt lat="44.79946" lon="4.98097">
        <ele>253</ele>
        <time>2013-08-22T17:38:45Z</time>
      </trkpt>
      <trkpt lat="44.79945" lon="4.98094">
        <ele>253</ele>
        <time>2013-08-22T17:38:46Z</time>
      </trkpt>
      <trkpt lat="44.79945" lon="4.98091">
        <ele>254</ele>
        <time>2013-08-22T17:38:47Z</time>
      </trkpt>
      <trkpt lat="44.79944" lon="4.98088">
        <ele>254</ele>
        <time>2013-08-22T17:38:48Z</time>
      </trkpt>
      <trkpt lat="44.79943" lon="4.98084">
        <ele>255</ele>
        <time>2013-08-22T17:38:49Z</time>
      </trkpt>
      <trkpt lat="44.79943" lon="4.98081">
        <ele>255</ele>
        <time>2013-08-22T17:38:50Z</time>
      </trkpt>
      <trkpt lat="44.79943" lon="4.98078">
        <ele>256</ele>
        <time>2013-08-22T17:38:51Z</time>
      </trkpt>
      <trkpt lat="44.79943" lon="4.98075">
        <ele>256</ele>
        <time>2013-08-22T17:38:52Z</time>
      </trkpt>
      <trkpt lat="44.79942" lon="4.98071">
        <ele>256</ele>
        <time>2013-08-22T17:38:53Z</time>
      </trkpt>
      <trkpt lat="44.79942" lon="4.98068">
        <ele>257</ele>
        <time>2013-08-22T17:38:54Z</time>
      </trkpt>
      <trkpt lat="44.79942" lon="4.98065">
        <ele>257</ele>
        <time>2013-08-22T17:38:55Z</time>
      </trkpt>
      <trkpt lat="44.79942" lon="4.98061">
        <ele>257</ele>
        <time>2013-08-22T17:38:56Z</time>
      </trkpt>
      <trkpt lat="44.79941" lon="4.98058">
        <ele>258</ele>
        <time>2013-08-22T17:38:57Z</time>
      </trkpt>
      <trkpt lat="44.79941" lon="4.98054">
        <ele>258</ele>
        <time>2013-08-22T17:38:58Z</time>
      </trkpt>
      <trkpt lat="44.7994" lon="4.98051">
        <ele>258</ele>
        <time>2013-08-22T17:38:59Z</time>
      </trkpt>
      <trkpt lat="44.7994" lon="4.98048">
        <ele>258</ele>
        <time>2013-08-22T17:39:00Z</time>
      </trkpt>
      <trkpt lat="44.7994" lon="4.98044">
        <ele>259</ele>
        <time>2013-08-22T17:39:01Z</time>
      </trkpt>
      <trkpt lat="44.7994" lon="4.98041">
        <ele>259</ele>
        <time>2013-08-22T17:39:02Z</time>
      </trkpt>
      <trkpt lat="44.7994" lon="4.98037">
        <ele>259</ele>
        <time>2013-08-22T17:39:03Z</time>
      </trkpt>
      <trkpt lat="44.7994" lon="4.98035">
        <ele>259</ele>
        <time>2013-08-22T17:39:04Z</time>
      </trkpt>
      <trkpt lat="44.7994" lon="4.98032">
        <ele>259</ele>
        <time>2013-08-22T17:39:05Z</time>
      </trkpt>
      <trkpt lat="44.7994" lon="4.98029">
        <ele>259</ele>
        <time>2013-08-22T17:39:06Z</time>
      </trkpt>
      <trkpt lat="44.79941" lon="4.98026">
        <ele>259</ele>
        <time>2013-08-22T17:39:07Z</time>
      </trkpt>
      <trkpt lat="44.79941" lon="4.98022">
        <ele>259</ele>
        <time>2013-08-22T17:39:08Z</time>
      </trkpt>
      <trkpt lat="44.79942" lon="4.98019">
        <ele>259</ele>
        <time>2013-08-22T17:39:09Z</time>
      </trkpt>
      <trkpt lat="44.79942" lon="4.98017">
        <ele>259</ele>
        <time>2013-08-22T17:39:10Z</time>
      </trkpt>
      <trkpt lat="44.79943" lon="4.98014">
        <ele>259</ele>
        <time>2013-08-22T17:39:11Z</time>
      </trkpt>
      <trkpt lat="44.79944" lon="4.98011">
        <ele>259</ele>
        <time>2013-08-22T17:39:12Z</time>
      </trkpt>
      <trkpt lat="44.79945" lon="4.98008">
        <ele>259</ele>
        <time>2013-08-22T17:39:13Z</time>
      </trkpt>
      <trkpt lat="44.79947" lon="4.98006">
        <ele>259</ele>
        <time>2013-08-22T17:39:14Z</time>
      </trkpt>
      <trkpt lat="44.79947" lon="4.98004">
        <ele>259</ele>
        <time>2013-08-22T17:39:15Z</time>
      </trkpt>
      <trkpt lat="44.79945" lon="4.98002">
        <ele>259</ele>
        <time>2013-08-22T17:39:17Z</time>
      </trkpt>
      <trkpt lat="44.79944" lon="4.98003">
        <ele>259</ele>
        <time>2013-08-22T17:39:18Z</time>
      </trkpt>
      <trkpt lat="44.79942" lon="4.98003">
        <ele>259</ele>
        <time>2013-08-22T17:39:19Z</time>
      </trkpt>
      <trkpt lat="44.79941" lon="4.98004">
        <ele>259</ele>
        <time>2013-08-22T17:39:21Z</time>
      </trkpt>
      <trkpt lat="44.7994" lon="4.98006">
        <ele>259</ele>
        <time>2013-08-22T17:39:22Z</time>
      </trkpt>
      <trkpt lat="44.79939" lon="4.98007">
        <ele>259</ele>
        <time>2013-08-22T17:39:23Z</time>
      </trkpt>
      <trkpt lat="44.79937" lon="4.98005">
        <ele>259</ele>
        <time>2013-08-22T17:39:25Z</time>
      </trkpt>
      <trkpt lat="44.79935" lon="4.98003">
        <ele>259</ele>
        <time>2013-08-22T17:39:27Z</time>
      </trkpt>
      <trkpt lat="44.79934" lon="4.98002">
        <ele>259</ele>
        <time>2013-08-22T17:39:28Z</time>
      </trkpt>
      <trkpt lat="44.79934" lon="4.98">
        <ele>259</ele>
        <time>2013-08-22T17:39:29Z</time>
      </trkpt>
      <trkpt lat="44.79934" lon="4.97998">
        <ele>259</ele>
        <time>2013-08-22T17:39:30Z</time>
      </trkpt>
      <trkpt lat="44.79935" lon="4.97996">
        <ele>259</ele>
        <time>2013-08-22T17:39:32Z</time>
      </trkpt>
      <trkpt lat="44.79933" lon="4.97995">
        <ele>259</ele>
        <time>2013-08-22T17:39:35Z</time>
      </trkpt>
      <trkpt lat="44.79931" lon="4.97993">
        <ele>259</ele>
        <time>2013-08-22T17:39:37Z</time>
      </trkpt>
      <trkpt lat="44.7993" lon="4.97991">
        <ele>260</ele>
        <time>2013-08-22T17:39:39Z</time>
      </trkpt>
      <trkpt lat="44.79928" lon="4.97988">
        <ele>262</ele>
        <time>2013-08-22T17:39:42Z</time>
      </trkpt>
      <trkpt lat="44.79927" lon="4.97987">
        <ele>263</ele>
        <time>2013-08-22T17:39:43Z</time>
      </trkpt>
      <trkpt lat="44.79926" lon="4.97984">
        <ele>264</ele>
        <time>2013-08-22T17:39:45Z</time>
      </trkpt>
      <trkpt lat="44.79927" lon="4.97983">
        <ele>265</ele>
        <time>2013-08-22T17:39:46Z</time>
      </trkpt>
      <trkpt lat="44.79927" lon="4.97981">
        <ele>266</ele>
        <time>2013-08-22T17:39:48Z</time>
      </trkpt>
      <trkpt lat="44.79925" lon="4.97979">
        <ele>268</ele>
        <time>2013-08-22T17:39:50Z</time>
      </trkpt>
      <trkpt lat="44.79924" lon="4.97976">
        <ele>269</ele>
        <time>2013-08-22T17:39:52Z</time>
      </trkpt>
      <trkpt lat="44.79923" lon="4.97975">
        <ele>269</ele>
        <time>2013-08-22T17:39:53Z</time>
      </trkpt>
      <trkpt lat="44.79922" lon="4.97973">
        <ele>270</ele>
        <time>2013-08-22T17:39:55Z</time>
      </trkpt>
      <trkpt lat="44.79921" lon="4.97971">
        <ele>271</ele>
        <time>2013-08-22T17:39:57Z</time>
      </trkpt>
      <trkpt lat="44.79922" lon="4.9797">
        <ele>271</ele>
        <time>2013-08-22T17:39:59Z</time>
      </trkpt>
      <trkpt lat="44.79922" lon="4.97968">
        <ele>273</ele>
        <time>2013-08-22T17:40:13Z</time>
      </trkpt>
      <trkpt lat="44.79921" lon="4.97967">
        <ele>273</ele>
        <time>2013-08-22T17:40:15Z</time>
      </trkpt>
      <trkpt lat="44.7992" lon="4.97967">
        <ele>274</ele>
        <time>2013-08-22T17:40:18Z</time>
      </trkpt>
      <trkpt lat="44.79918" lon="4.97966">
        <ele>274</ele>
        <time>2013-08-22T17:40:20Z</time>
      </trkpt>
      <trkpt lat="44.79916" lon="4.97965">
        <ele>274</ele>
        <time>2013-08-22T17:40:22Z</time>
      </trkpt>
      <trkpt lat="44.79915" lon="4.97965">
        <ele>274</ele>
        <time>2013-08-22T17:40:23Z</time>
      </trkpt>
      <trkpt lat="44.79913" lon="4.97965">
        <ele>274</ele>
        <time>2013-08-22T17:40:24Z</time>
      </trkpt>
      <trkpt lat="44.79911" lon="4.97964">
        <ele>274</ele>
        <time>2013-08-22T17:40:25Z</time>
      </trkpt>
      <trkpt lat="44.79909" lon="4.97963">
        <ele>274</ele>
        <time>2013-08-22T17:40:26Z</time>
      </trkpt>
      <trkpt lat="44.79906" lon="4.97962">
        <ele>274</ele>
        <time>2013-08-22T17:40:27Z</time>
      </trkpt>
      <trkpt lat="44.79904" lon="4.97962">
        <ele>274</ele>
        <time>2013-08-22T17:40:28Z</time>
      </trkpt>
      <trkpt lat="44.79902" lon="4.97961">
        <ele>274</ele>
        <time>2013-08-22T17:40:29Z</time>
      </trkpt>
      <trkpt lat="44.799" lon="4.97961">
        <ele>274</ele>
        <time>2013-08-22T17:40:30Z</time>
      </trkpt>
      <trkpt lat="44.79898" lon="4.97961">
        <ele>274</ele>
        <time>2013-08-22T17:40:31Z</time>
      </trkpt>
      <trkpt lat="44.79895" lon="4.97961">
        <ele>274</ele>
        <time>2013-08-22T17:40:32Z</time>
      </trkpt>
      <trkpt lat="44.79893" lon="4.97961">
        <ele>274</ele>
        <time>2013-08-22T17:40:33Z</time>
      </trkpt>
      <trkpt lat="44.7989" lon="4.9796">
        <ele>274</ele>
        <time>2013-08-22T17:40:34Z</time>
      </trkpt>
      <trkpt lat="44.79888" lon="4.97959">
        <ele>274</ele>
        <time>2013-08-22T17:40:35Z</time>
      </trkpt>
      <trkpt lat="44.79885" lon="4.97958">
        <ele>274</ele>
        <time>2013-08-22T17:40:36Z</time>
      </trkpt>
      <trkpt lat="44.79881" lon="4.97956">
        <ele>274</ele>
        <time>2013-08-22T17:40:37Z</time>
      </trkpt>
      <trkpt lat="44.79878" lon="4.97954">
        <ele>274</ele>
        <time>2013-08-22T17:40:38Z</time>
      </trkpt>
      <trkpt lat="44.79875" lon="4.97952">
        <ele>274</ele>
        <time>2013-08-22T17:40:39Z</time>
      </trkpt>
      <trkpt lat="44.79873" lon="4.9795">
        <ele>274</ele>
        <time>2013-08-22T17:40:40Z</time>
      </trkpt>
      <trkpt lat="44.7987" lon="4.97949">
        <ele>274</ele>
        <time>2013-08-22T17:40:41Z</time>
      </trkpt>
      <trkpt lat="44.79867" lon="4.97948">
        <ele>274</ele>
        <time>2013-08-22T17:40:42Z</time>
      </trkpt>
      <trkpt lat="44.79865" lon="4.97947">
        <ele>274</ele>
        <time>2013-08-22T17:40:43Z</time>
      </trkpt>
      <trkpt lat="44.79862" lon="4.97947">
        <ele>274</ele>
        <time>2013-08-22T17:40:44Z</time>
      </trkpt>
      <trkpt lat="44.79859" lon="4.97948">
        <ele>274</ele>
        <time>2013-08-22T17:40:45Z</time>
      </trkpt>
      <trkpt lat="44.79856" lon="4.97949">
        <ele>274</ele>
        <time>2013-08-22T17:40:46Z</time>
      </trkpt>
      <trkpt lat="44.79853" lon="4.9795">
        <ele>274</ele>
        <time>2013-08-22T17:40:47Z</time>
      </trkpt>
      <trkpt lat="44.7985" lon="4.9795">
        <ele>274</ele>
        <time>2013-08-22T17:40:48Z</time>
      </trkpt>
      <trkpt lat="44.79847" lon="4.97949">
        <ele>274</ele>
        <time>2013-08-22T17:40:49Z</time>
      </trkpt>
      <trkpt lat="44.79845" lon="4.9795">
        <ele>274</ele>
        <time>2013-08-22T17:40:50Z</time>
      </trkpt>
      <trkpt lat="44.79842" lon="4.9795">
        <ele>274</ele>
        <time>2013-08-22T17:40:51Z</time>
      </trkpt>
      <trkpt lat="44.7984" lon="4.97951">
        <ele>274</ele>
        <time>2013-08-22T17:40:52Z</time>
      </trkpt>
      <trkpt lat="44.79837" lon="4.97951">
        <ele>274</ele>
        <time>2013-08-22T17:40:53Z</time>
      </trkpt>
      <trkpt lat="44.79834" lon="4.9795">
        <ele>274</ele>
        <time>2013-08-22T17:40:54Z</time>
      </trkpt>
      <trkpt lat="44.79831" lon="4.97951">
        <ele>274</ele>
        <time>2013-08-22T17:40:55Z</time>
      </trkpt>
      <trkpt lat="44.79829" lon="4.97951">
        <ele>274</ele>
        <time>2013-08-22T17:40:56Z</time>
      </trkpt>
      <trkpt lat="44.79826" lon="4.9795">
        <ele>274</ele>
        <time>2013-08-22T17:40:57Z</time>
      </trkpt>
      <trkpt lat="44.79823" lon="4.97951">
        <ele>274</ele>
        <time>2013-08-22T17:40:58Z</time>
      </trkpt>
      <trkpt lat="44.79821" lon="4.97951">
        <ele>274</ele>
        <time>2013-08-22T17:40:59Z</time>
      </trkpt>
      <trkpt lat="44.79818" lon="4.97949">
        <ele>274</ele>
        <time>2013-08-22T17:41:00Z</time>
      </trkpt>
      <trkpt lat="44.79816" lon="4.97948">
        <ele>274</ele>
        <time>2013-08-22T17:41:01Z</time>
      </trkpt>
      <trkpt lat="44.79813" lon="4.97947">
        <ele>274</ele>
        <time>2013-08-22T17:41:02Z</time>
      </trkpt>
      <trkpt lat="44.79811" lon="4.97945">
        <ele>274</ele>
        <time>2013-08-22T17:41:03Z</time>
      </trkpt>
      <trkpt lat="44.79809" lon="4.97943">
        <ele>274</ele>
        <time>2013-08-22T17:41:04Z</time>
      </trkpt>
      <trkpt lat="44.79807" lon="4.97941">
        <ele>274</ele>
        <time>2013-08-22T17:41:05Z</time>
      </trkpt>
      <trkpt lat="44.79805" lon="4.97939">
        <ele>274</ele>
        <time>2013-08-22T17:41:06Z</time>
      </trkpt>
      <trkpt lat="44.79803" lon="4.97937">
        <ele>274</ele>
        <time>2013-08-22T17:41:07Z</time>
      </trkpt>
      <trkpt lat="44.79801" lon="4.97935">
        <ele>274</ele>
        <time>2013-08-22T17:41:08Z</time>
      </trkpt>
      <trkpt lat="44.798" lon="4.97933">
        <ele>274</ele>
        <time>2013-08-22T17:41:09Z</time>
      </trkpt>
      <trkpt lat="44.79798" lon="4.97931">
        <ele>274</ele>
        <time>2013-08-22T17:41:10Z</time>
      </trkpt>
      <trkpt lat="44.79796" lon="4.97929">
        <ele>274</ele>
        <time>2013-08-22T17:41:11Z</time>
      </trkpt>
      <trkpt lat="44.79794" lon="4.97928">
        <ele>274</ele>
        <time>2013-08-22T17:41:12Z</time>
      </trkpt>
      <trkpt lat="44.79792" lon="4.97928">
        <ele>274</ele>
        <time>2013-08-22T17:41:13Z</time>
      </trkpt>
      <trkpt lat="44.79789" lon="4.97927">
        <ele>274</ele>
        <time>2013-08-22T17:41:14Z</time>
      </trkpt>
      <trkpt lat="44.79787" lon="4.97927">
        <ele>274</ele>
        <time>2013-08-22T17:41:15Z</time>
      </trkpt>
      <trkpt lat="44.79784" lon="4.97926">
        <ele>274</ele>
        <time>2013-08-22T17:41:16Z</time>
      </trkpt>
      <trkpt lat="44.79782" lon="4.97925">
        <ele>274</ele>
        <time>2013-08-22T17:41:17Z</time>
      </trkpt>
      <trkpt lat="44.7978" lon="4.97925">
        <ele>274</ele>
        <time>2013-08-22T17:41:18Z</time>
      </trkpt>
      <trkpt lat="44.79778" lon="4.97926">
        <ele>274</ele>
        <time>2013-08-22T17:41:19Z</time>
      </trkpt>
      <trkpt lat="44.79776" lon="4.97928">
        <ele>274</ele>
        <time>2013-08-22T17:41:20Z</time>
      </trkpt>
      <trkpt lat="44.79775" lon="4.97929">
        <ele>274</ele>
        <time>2013-08-22T17:41:21Z</time>
      </trkpt>
      <trkpt lat="44.79773" lon="4.97929">
        <ele>274</ele>
        <time>2013-08-22T17:41:22Z</time>
      </trkpt>
      <trkpt lat="44.7977" lon="4.97929">
        <ele>274</ele>
        <time>2013-08-22T17:41:23Z</time>
      </trkpt>
      <trkpt lat="44.79768" lon="4.9793">
        <ele>274</ele>
        <time>2013-08-22T17:41:24Z</time>
      </trkpt>
      <trkpt lat="44.79766" lon="4.9793">
        <ele>274</ele>
        <time>2013-08-22T17:41:25Z</time>
      </trkpt>
      <trkpt lat="44.79764" lon="4.9793">
        <ele>274</ele>
        <time>2013-08-22T17:41:26Z</time>
      </trkpt>
      <trkpt lat="44.79762" lon="4.97931">
        <ele>274</ele>
        <time>2013-08-22T17:41:27Z</time>
      </trkpt>
      <trkpt lat="44.79759" lon="4.97931">
        <ele>274</ele>
        <time>2013-08-22T17:41:28Z</time>
      </trkpt>
      <trkpt lat="44.79758" lon="4.97931">
        <ele>274</ele>
        <time>2013-08-22T17:41:29Z</time>
      </trkpt>
      <trkpt lat="44.79755" lon="4.9793">
        <ele>274</ele>
        <time>2013-08-22T17:41:30Z</time>
      </trkpt>
      <trkpt lat="44.79752" lon="4.9793">
        <ele>275</ele>
        <time>2013-08-22T17:41:31Z</time>
      </trkpt>
      <trkpt lat="44.7975" lon="4.97929">
        <ele>275</ele>
        <time>2013-08-22T17:41:32Z</time>
      </trkpt>
      <trkpt lat="44.79748" lon="4.97928">
        <ele>275</ele>
        <time>2013-08-22T17:41:33Z</time>
      </trkpt>
      <trkpt lat="44.79746" lon="4.97927">
        <ele>276</ele>
        <time>2013-08-22T17:41:34Z</time>
      </trkpt>
      <trkpt lat="44.79744" lon="4.97925">
        <ele>276</ele>
        <time>2013-08-22T17:41:35Z</time>
      </trkpt>
      <trkpt lat="44.79742" lon="4.97923">
        <ele>276</ele>
        <time>2013-08-22T17:41:36Z</time>
      </trkpt>
      <trkpt lat="44.79741" lon="4.97921">
        <ele>277</ele>
        <time>2013-08-22T17:41:37Z</time>
      </trkpt>
      <trkpt lat="44.7974" lon="4.97919">
        <ele>277</ele>
        <time>2013-08-22T17:41:38Z</time>
      </trkpt>
      <trkpt lat="44.79739" lon="4.97917">
        <ele>277</ele>
        <time>2013-08-22T17:41:39Z</time>
      </trkpt>
      <trkpt lat="44.79738" lon="4.97915">
        <ele>277</ele>
        <time>2013-08-22T17:41:40Z</time>
      </trkpt>
      <trkpt lat="44.79737" lon="4.97913">
        <ele>277</ele>
        <time>2013-08-22T17:41:41Z</time>
      </trkpt>
      <trkpt lat="44.79737" lon="4.97911">
        <ele>277</ele>
        <time>2013-08-22T17:41:42Z</time>
      </trkpt>
      <trkpt lat="44.79735" lon="4.97908">
        <ele>277</ele>
        <time>2013-08-22T17:41:44Z</time>
      </trkpt>
      <trkpt lat="44.79733" lon="4.97906">
        <ele>277</ele>
        <time>2013-08-22T17:41:45Z</time>
      </trkpt>
      <trkpt lat="44.79732" lon="4.97905">
        <ele>277</ele>
        <time>2013-08-22T17:41:46Z</time>
      </trkpt>
      <trkpt lat="44.7973" lon="4.97903">
        <ele>277</ele>
        <time>2013-08-22T17:41:47Z</time>
      </trkpt>
      <trkpt lat="44.79729" lon="4.97901">
        <ele>277</ele>
        <time>2013-08-22T17:41:48Z</time>
      </trkpt>
      <trkpt lat="44.79727" lon="4.97899">
        <ele>277</ele>
        <time>2013-08-22T17:41:49Z</time>
      </trkpt>
      <trkpt lat="44.79725" lon="4.97898">
        <ele>277</ele>
        <time>2013-08-22T17:41:50Z</time>
      </trkpt>
      <trkpt lat="44.79723" lon="4.97898">
        <ele>277</ele>
        <time>2013-08-22T17:41:51Z</time>
      </trkpt>
      <trkpt lat="44.7972" lon="4.97896">
        <ele>277</ele>
        <time>2013-08-22T17:41:52Z</time>
      </trkpt>
      <trkpt lat="44.79718" lon="4.97896">
        <ele>278</ele>
        <time>2013-08-22T17:41:53Z</time>
      </trkpt>
      <trkpt lat="44.79716" lon="4.97895">
        <ele>278</ele>
        <time>2013-08-22T17:41:54Z</time>
      </trkpt>
      <trkpt lat="44.79715" lon="4.97895">
        <ele>278</ele>
        <time>2013-08-22T17:41:55Z</time>
      </trkpt>
      <trkpt lat="44.79713" lon="4.97895">
        <ele>278</ele>
        <time>2013-08-22T17:41:56Z</time>
      </trkpt>
      <trkpt lat="44.79711" lon="4.97896">
        <ele>278</ele>
        <time>2013-08-22T17:41:57Z</time>
      </trkpt>
      <trkpt lat="44.7971" lon="4.97897">
        <ele>278</ele>
        <time>2013-08-22T17:41:58Z</time>
      </trkpt>
      <trkpt lat="44.79708" lon="4.97897">
        <ele>278</ele>
        <time>2013-08-22T17:41:59Z</time>
      </trkpt>
      <trkpt lat="44.79706" lon="4.97897">
        <ele>279</ele>
        <time>2013-08-22T17:42:00Z</time>
      </trkpt>
      <trkpt lat="44.79705" lon="4.97897">
        <ele>279</ele>
        <time>2013-08-22T17:42:01Z</time>
      </trkpt>
      <trkpt lat="44.79703" lon="4.97897">
        <ele>279</ele>
        <time>2013-08-22T17:42:02Z</time>
      </trkpt>
      <trkpt lat="44.79701" lon="4.97897">
        <ele>279</ele>
        <time>2013-08-22T17:42:03Z</time>
      </trkpt>
      <trkpt lat="44.79699" lon="4.97898">
        <ele>279</ele>
        <time>2013-08-22T17:42:04Z</time>
      </trkpt>
      <trkpt lat="44.79697" lon="4.97899">
        <ele>280</ele>
        <time>2013-08-22T17:42:06Z</time>
      </trkpt>
      <trkpt lat="44.79695" lon="4.979">
        <ele>280</ele>
        <time>2013-08-22T17:42:07Z</time>
      </trkpt>
      <trkpt lat="44.79694" lon="4.979">
        <ele>281</ele>
        <time>2013-08-22T17:42:08Z</time>
      </trkpt>
      <trkpt lat="44.79693" lon="4.97901">
        <ele>281</ele>
        <time>2013-08-22T17:42:09Z</time>
      </trkpt>
      <trkpt lat="44.79691" lon="4.979">
        <ele>282</ele>
        <time>2013-08-22T17:42:10Z</time>
      </trkpt>
      <trkpt lat="44.79689" lon="4.979">
        <ele>282</ele>
        <time>2013-08-22T17:42:11Z</time>
      </trkpt>
      <trkpt lat="44.79687" lon="4.97899">
        <ele>283</ele>
        <time>2013-08-22T17:42:13Z</time>
      </trkpt>
      <trkpt lat="44.79686" lon="4.97898">
        <ele>283</ele>
        <time>2013-08-22T17:42:14Z</time>
      </trkpt>
      <trkpt lat="44.79684" lon="4.97898">
        <ele>283</ele>
        <time>2013-08-22T17:42:15Z</time>
      </trkpt>
      <trkpt lat="44.79683" lon="4.97897">
        <ele>284</ele>
        <time>2013-08-22T17:42:16Z</time>
      </trkpt>
      <trkpt lat="44.79682" lon="4.97896">
        <ele>284</ele>
        <time>2013-08-22T17:42:17Z</time>
      </trkpt>
      <trkpt lat="44.79681" lon="4.97893">
        <ele>284</ele>
        <time>2013-08-22T17:42:18Z</time>
      </trkpt>
      <trkpt lat="44.79679" lon="4.97891">
        <ele>284</ele>
        <time>2013-08-22T17:42:19Z</time>
      </trkpt>
      <trkpt lat="44.79678" lon="4.97889">
        <ele>284</ele>
        <time>2013-08-22T17:42:20Z</time>
      </trkpt>
      <trkpt lat="44.79676" lon="4.97887">
        <ele>284</ele>
        <time>2013-08-22T17:42:21Z</time>
      </trkpt>
      <trkpt lat="44.79675" lon="4.97885">
        <ele>285</ele>
        <time>2013-08-22T17:42:22Z</time>
      </trkpt>
      <trkpt lat="44.79674" lon="4.97883">
        <ele>285</ele>
        <time>2013-08-22T17:42:23Z</time>
      </trkpt>
      <trkpt lat="44.79673" lon="4.97882">
        <ele>285</ele>
        <time>2013-08-22T17:42:24Z</time>
      </trkpt>
      <trkpt lat="44.79673" lon="4.9788">
        <ele>285</ele>
        <time>2013-08-22T17:42:25Z</time>
      </trkpt>
      <trkpt lat="44.79671" lon="4.97877">
        <ele>285</ele>
        <time>2013-08-22T17:42:26Z</time>
      </trkpt>
      <trkpt lat="44.7967" lon="4.97875">
        <ele>285</ele>
        <time>2013-08-22T17:42:27Z</time>
      </trkpt>
      <trkpt lat="44.79669" lon="4.97873">
        <ele>285</ele>
        <time>2013-08-22T17:42:28Z</time>
      </trkpt>
      <trkpt lat="44.79667" lon="4.97871">
        <ele>285</ele>
        <time>2013-08-22T17:42:30Z</time>
      </trkpt>
      <trkpt lat="44.79666" lon="4.9787">
        <ele>286</ele>
        <time>2013-08-22T17:42:31Z</time>
      </trkpt>
      <trkpt lat="44.79665" lon="4.97868">
        <ele>286</ele>
        <time>2013-08-22T17:42:32Z</time>
      </trkpt>
      <trkpt lat="44.79663" lon="4.97867">
        <ele>286</ele>
        <time>2013-08-22T17:42:33Z</time>
      </trkpt>
      <trkpt lat="44.79662" lon="4.97865">
        <ele>286</ele>
        <time>2013-08-22T17:42:34Z</time>
      </trkpt>
      <trkpt lat="44.79661" lon="4.97863">
        <ele>287</ele>
        <time>2013-08-22T17:42:35Z</time>
      </trkpt>
      <trkpt lat="44.7966" lon="4.97861">
        <ele>287</ele>
        <time>2013-08-22T17:42:36Z</time>
      </trkpt>
      <trkpt lat="44.79659" lon="4.9786">
        <ele>287</ele>
        <time>2013-08-22T17:42:37Z</time>
      </trkpt>
      <trkpt lat="44.79658" lon="4.97858">
        <ele>287</ele>
        <time>2013-08-22T17:42:38Z</time>
      </trkpt>
      <trkpt lat="44.79656" lon="4.97857">
        <ele>287</ele>
        <time>2013-08-22T17:42:39Z</time>
      </trkpt>
      <trkpt lat="44.79654" lon="4.97855">
        <ele>288</ele>
        <time>2013-08-22T17:42:40Z</time>
      </trkpt>
      <trkpt lat="44.79652" lon="4.97854">
        <ele>289</ele>
        <time>2013-08-22T17:42:41Z</time>
      </trkpt>
      <trkpt lat="44.79649" lon="4.97852">
        <ele>290</ele>
        <time>2013-08-22T17:42:42Z</time>
      </trkpt>
      <trkpt lat="44.79647" lon="4.97851">
        <ele>290</ele>
        <time>2013-08-22T17:42:43Z</time>
      </trkpt>
      <trkpt lat="44.79645" lon="4.97849">
        <ele>291</ele>
        <time>2013-08-22T17:42:44Z</time>
      </trkpt>
      <trkpt lat="44.79643" lon="4.97848">
        <ele>292</ele>
        <time>2013-08-22T17:42:45Z</time>
      </trkpt>
      <trkpt lat="44.79642" lon="4.97847">
        <ele>293</ele>
        <time>2013-08-22T17:42:46Z</time>
      </trkpt>
      <trkpt lat="44.79641" lon="4.97846">
        <ele>293</ele>
        <time>2013-08-22T17:42:47Z</time>
      </trkpt>
      <trkpt lat="44.79639" lon="4.97844">
        <ele>293</ele>
        <time>2013-08-22T17:42:48Z</time>
      </trkpt>
      <trkpt lat="44.79638" lon="4.97843">
        <ele>294</ele>
        <time>2013-08-22T17:42:49Z</time>
      </trkpt>
      <trkpt lat="44.79636" lon="4.97842">
        <ele>294</ele>
        <time>2013-08-22T17:42:50Z</time>
      </trkpt>
      <trkpt lat="44.79635" lon="4.9784">
        <ele>294</ele>
        <time>2013-08-22T17:42:51Z</time>
      </trkpt>
      <trkpt lat="44.79634" lon="4.97838">
        <ele>294</ele>
        <time>2013-08-22T17:42:52Z</time>
      </trkpt>
      <trkpt lat="44.79632" lon="4.97836">
        <ele>294</ele>
        <time>2013-08-22T17:42:53Z</time>
      </trkpt>
      <trkpt lat="44.79631" lon="4.97835">
        <ele>294</ele>
        <time>2013-08-22T17:42:54Z</time>
      </trkpt>
      <trkpt lat="44.7963" lon="4.97834">
        <ele>294</ele>
        <time>2013-08-22T17:42:55Z</time>
      </trkpt>
      <trkpt lat="44.79627" lon="4.97832">
        <ele>294</ele>
        <time>2013-08-22T17:42:57Z</time>
      </trkpt>
      <trkpt lat="44.79625" lon="4.97831">
        <ele>294</ele>
        <time>2013-08-22T17:42:59Z</time>
      </trkpt>
      <trkpt lat="44.79627" lon="4.9783">
        <ele>296</ele>
        <time>2013-08-22T17:43:02Z</time>
      </trkpt>
      <trkpt lat="44.79629" lon="4.97831">
        <ele>297</ele>
        <time>2013-08-22T17:43:04Z</time>
      </trkpt>
      <trkpt lat="44.79631" lon="4.97831">
        <ele>298</ele>
        <time>2013-08-22T17:43:06Z</time>
      </trkpt>
      <trkpt lat="44.7963" lon="4.97832">
        <ele>299</ele>
        <time>2013-08-22T17:43:09Z</time>
      </trkpt>
      <trkpt lat="44.79628" lon="4.97831">
        <ele>299</ele>
        <time>2013-08-22T17:43:11Z</time>
      </trkpt>
      <trkpt lat="44.79626" lon="4.97829">
        <ele>299</ele>
        <time>2013-08-22T17:43:13Z</time>
      </trkpt>
      <trkpt lat="44.79625" lon="4.97828">
        <ele>299</ele>
        <time>2013-08-22T17:43:14Z</time>
      </trkpt>
      <trkpt lat="44.79624" lon="4.97828">
        <ele>299</ele>
        <time>2013-08-22T17:43:15Z</time>
      </trkpt>
      <trkpt lat="44.79622" lon="4.97827">
        <ele>300</ele>
        <time>2013-08-22T17:43:16Z</time>
      </trkpt>
      <trkpt lat="44.79621" lon="4.97827">
        <ele>300</ele>
        <time>2013-08-22T17:43:17Z</time>
      </trkpt>
      <trkpt lat="44.7962" lon="4.97826">
        <ele>300</ele>
        <time>2013-08-22T17:43:18Z</time>
      </trkpt>
      <trkpt lat="44.79618" lon="4.97826">
        <ele>300</ele>
        <time>2013-08-22T17:43:19Z</time>
      </trkpt>
      <trkpt lat="44.79616" lon="4.97826">
        <ele>300</ele>
        <time>2013-08-22T17:43:20Z</time>
      </trkpt>
      <trkpt lat="44.79615" lon="4.97826">
        <ele>300</ele>
        <time>2013-08-22T17:43:21Z</time>
      </trkpt>
      <trkpt lat="44.79613" lon="4.97825">
        <ele>300</ele>
        <time>2013-08-22T17:43:22Z</time>
      </trkpt>
      <trkpt lat="44.79612" lon="4.97825">
        <ele>300</ele>
        <time>2013-08-22T17:43:23Z</time>
      </trkpt>
      <trkpt lat="44.7961" lon="4.97825">
        <ele>300</ele>
        <time>2013-08-22T17:43:24Z</time>
      </trkpt>
      <trkpt lat="44.79608" lon="4.97824">
        <ele>300</ele>
        <time>2013-08-22T17:43:25Z</time>
      </trkpt>
      <trkpt lat="44.79605" lon="4.97823">
        <ele>300</ele>
        <time>2013-08-22T17:43:26Z</time>
      </trkpt>
      <trkpt lat="44.79603" lon="4.97822">
        <ele>300</ele>
        <time>2013-08-22T17:43:27Z</time>
      </trkpt>
      <trkpt lat="44.79601" lon="4.97822">
        <ele>300</ele>
        <time>2013-08-22T17:43:28Z</time>
      </trkpt>
      <trkpt lat="44.79599" lon="4.97822">
        <ele>300</ele>
        <time>2013-08-22T17:43:29Z</time>
      </trkpt>
      <trkpt lat="44.79596" lon="4.97822">
        <ele>300</ele>
        <time>2013-08-22T17:43:30Z</time>
      </trkpt>
      <trkpt lat="44.79594" lon="4.97822">
        <ele>300</ele>
        <time>2013-08-22T17:43:31Z</time>
      </trkpt>
      <trkpt lat="44.79592" lon="4.97821">
        <ele>300</ele>
        <time>2013-08-22T17:43:32Z</time>
      </trkpt>
      <trkpt lat="44.7959" lon="4.97821">
        <ele>300</ele>
        <time>2013-08-22T17:43:33Z</time>
      </trkpt>
      <trkpt lat="44.79588" lon="4.97819">
        <ele>300</ele>
        <time>2013-08-22T17:43:34Z</time>
      </trkpt>
      <trkpt lat="44.79586" lon="4.97817">
        <ele>300</ele>
        <time>2013-08-22T17:43:35Z</time>
      </trkpt>
      <trkpt lat="44.79584" lon="4.97814">
        <ele>300</ele>
        <time>2013-08-22T17:43:36Z</time>
      </trkpt>
      <trkpt lat="44.79583" lon="4.97812">
        <ele>301</ele>
        <time>2013-08-22T17:43:37Z</time>
      </trkpt>
      <trkpt lat="44.79582" lon="4.9781">
        <ele>301</ele>
        <time>2013-08-22T17:43:38Z</time>
      </trkpt>
      <trkpt lat="44.79581" lon="4.97807">
        <ele>301</ele>
        <time>2013-08-22T17:43:39Z</time>
      </trkpt>
      <trkpt lat="44.7958" lon="4.97806">
        <ele>301</ele>
        <time>2013-08-22T17:43:40Z</time>
      </trkpt>
      <trkpt lat="44.79578" lon="4.97804">
        <ele>301</ele>
        <time>2013-08-22T17:43:41Z</time>
      </trkpt>
      <trkpt lat="44.79577" lon="4.97801">
        <ele>301</ele>
        <time>2013-08-22T17:43:42Z</time>
      </trkpt>
      <trkpt lat="44.79575" lon="4.97797">
        <ele>302</ele>
        <time>2013-08-22T17:43:43Z</time>
      </trkpt>
      <trkpt lat="44.79573" lon="4.97794">
        <ele>302</ele>
        <time>2013-08-22T17:43:44Z</time>
      </trkpt>
      <trkpt lat="44.79572" lon="4.97792">
        <ele>302</ele>
        <time>2013-08-22T17:43:45Z</time>
      </trkpt>
      <trkpt lat="44.7957" lon="4.97789">
        <ele>303</ele>
        <time>2013-08-22T17:43:46Z</time>
      </trkpt>
      <trkpt lat="44.79568" lon="4.97786">
        <ele>303</ele>
        <time>2013-08-22T17:43:48Z</time>
      </trkpt>
      <trkpt lat="44.79566" lon="4.97784">
        <ele>303</ele>
        <time>2013-08-22T17:43:49Z</time>
      </trkpt>
      <trkpt lat="44.79565" lon="4.97782">
        <ele>304</ele>
        <time>2013-08-22T17:43:50Z</time>
      </trkpt>
      <trkpt lat="44.79563" lon="4.97781">
        <ele>304</ele>
        <time>2013-08-22T17:43:51Z</time>
      </trkpt>
      <trkpt lat="44.79561" lon="4.9778">
        <ele>305</ele>
        <time>2013-08-22T17:43:52Z</time>
      </trkpt>
      <trkpt lat="44.7956" lon="4.97779">
        <ele>305</ele>
        <time>2013-08-22T17:43:53Z</time>
      </trkpt>
      <trkpt lat="44.79558" lon="4.97778">
        <ele>305</ele>
        <time>2013-08-22T17:43:54Z</time>
      </trkpt>
      <trkpt lat="44.79556" lon="4.97776">
        <ele>305</ele>
        <time>2013-08-22T17:43:56Z</time>
      </trkpt>
      <trkpt lat="44.79554" lon="4.97774">
        <ele>305</ele>
        <time>2013-08-22T17:43:57Z</time>
      </trkpt>
      <trkpt lat="44.79553" lon="4.97772">
        <ele>305</ele>
        <time>2013-08-22T17:43:58Z</time>
      </trkpt>
      <trkpt lat="44.79551" lon="4.9777">
        <ele>305</ele>
        <time>2013-08-22T17:44:00Z</time>
      </trkpt>
      <trkpt lat="44.7955" lon="4.97769">
        <ele>305</ele>
        <time>2013-08-22T17:44:01Z</time>
      </trkpt>
      <trkpt lat="44.79548" lon="4.97767">
        <ele>305</ele>
        <time>2013-08-22T17:44:02Z</time>
      </trkpt>
      <trkpt lat="44.79547" lon="4.97766">
        <ele>305</ele>
        <time>2013-08-22T17:44:03Z</time>
      </trkpt>
      <trkpt lat="44.79546" lon="4.97764">
        <ele>305</ele>
        <time>2013-08-22T17:44:04Z</time>
      </trkpt>
      <trkpt lat="44.79544" lon="4.97762">
        <ele>305</ele>
        <time>2013-08-22T17:44:05Z</time>
      </trkpt>
      <trkpt lat="44.79543" lon="4.9776">
        <ele>305</ele>
        <time>2013-08-22T17:44:06Z</time>
      </trkpt>
      <trkpt lat="44.79541" lon="4.97758">
        <ele>305</ele>
        <time>2013-08-22T17:44:07Z</time>
      </trkpt>
      <trkpt lat="44.79539" lon="4.97756">
        <ele>304</ele>
        <time>2013-08-22T17:44:08Z</time>
      </trkpt>
      <trkpt lat="44.79537" lon="4.97754">
        <ele>304</ele>
        <time>2013-08-22T17:44:09Z</time>
      </trkpt>
      <trkpt lat="44.79535" lon="4.97752">
        <ele>303</ele>
        <time>2013-08-22T17:44:10Z</time>
      </trkpt>
      <trkpt lat="44.79533" lon="4.9775">
        <ele>303</ele>
        <time>2013-08-22T17:44:11Z</time>
      </trkpt>
      <trkpt lat="44.79531" lon="4.97747">
        <ele>303</ele>
        <time>2013-08-22T17:44:12Z</time>
      </trkpt>
      <trkpt lat="44.79529" lon="4.97745">
        <ele>303</ele>
        <time>2013-08-22T17:44:13Z</time>
      </trkpt>
      <trkpt lat="44.79528" lon="4.97745">
        <ele>303</ele>
        <time>2013-08-22T17:44:14Z</time>
      </trkpt>
      <trkpt lat="44.79525" lon="4.97743">
        <ele>303</ele>
        <time>2013-08-22T17:44:15Z</time>
      </trkpt>
      <trkpt lat="44.79523" lon="4.97743">
        <ele>303</ele>
        <time>2013-08-22T17:44:16Z</time>
      </trkpt>
      <trkpt lat="44.79521" lon="4.97743">
        <ele>303</ele>
        <time>2013-08-22T17:44:17Z</time>
      </trkpt>
      <trkpt lat="44.7952" lon="4.97743">
        <ele>303</ele>
        <time>2013-08-22T17:44:18Z</time>
      </trkpt>
      <trkpt lat="44.79518" lon="4.97742">
        <ele>303</ele>
        <time>2013-08-22T17:44:19Z</time>
      </trkpt>
      <trkpt lat="44.79516" lon="4.97742">
        <ele>303</ele>
        <time>2013-08-22T17:44:20Z</time>
      </trkpt>
      <trkpt lat="44.79514" lon="4.97742">
        <ele>303</ele>
        <time>2013-08-22T17:44:21Z</time>
      </trkpt>
      <trkpt lat="44.79512" lon="4.97741">
        <ele>303</ele>
        <time>2013-08-22T17:44:22Z</time>
      </trkpt>
      <trkpt lat="44.7951" lon="4.97741">
        <ele>303</ele>
        <time>2013-08-22T17:44:23Z</time>
      </trkpt>
      <trkpt lat="44.79507" lon="4.9774">
        <ele>303</ele>
        <time>2013-08-22T17:44:24Z</time>
      </trkpt>
      <trkpt lat="44.79504" lon="4.97738">
        <ele>303</ele>
        <time>2013-08-22T17:44:25Z</time>
      </trkpt>
      <trkpt lat="44.79501" lon="4.97737">
        <ele>304</ele>
        <time>2013-08-22T17:44:26Z</time>
      </trkpt>
      <trkpt lat="44.79498" lon="4.97736">
        <ele>305</ele>
        <time>2013-08-22T17:44:27Z</time>
      </trkpt>
      <trkpt lat="44.79495" lon="4.97735">
        <ele>306</ele>
        <time>2013-08-22T17:44:28Z</time>
      </trkpt>
      <trkpt lat="44.79493" lon="4.97735">
        <ele>307</ele>
        <time>2013-08-22T17:44:29Z</time>
      </trkpt>
      <trkpt lat="44.7949" lon="4.97735">
        <ele>308</ele>
        <time>2013-08-22T17:44:30Z</time>
      </trkpt>
      <trkpt lat="44.79488" lon="4.97734">
        <ele>309</ele>
        <time>2013-08-22T17:44:31Z</time>
      </trkpt>
      <trkpt lat="44.79485" lon="4.97734">
        <ele>309</ele>
        <time>2013-08-22T17:44:32Z</time>
      </trkpt>
      <trkpt lat="44.79482" lon="4.97734">
        <ele>309</ele>
        <time>2013-08-22T17:44:33Z</time>
      </trkpt>
      <trkpt lat="44.79479" lon="4.97734">
        <ele>309</ele>
        <time>2013-08-22T17:44:34Z</time>
      </trkpt>
      <trkpt lat="44.79478" lon="4.97734">
        <ele>309</ele>
        <time>2013-08-22T17:44:35Z</time>
      </trkpt>
      <trkpt lat="44.79475" lon="4.97735">
        <ele>309</ele>
        <time>2013-08-22T17:44:37Z</time>
      </trkpt>
      <trkpt lat="44.79473" lon="4.97735">
        <ele>310</ele>
        <time>2013-08-22T17:44:38Z</time>
      </trkpt>
      <trkpt lat="44.7947" lon="4.97735">
        <ele>310</ele>
        <time>2013-08-22T17:44:39Z</time>
      </trkpt>
      <trkpt lat="44.79467" lon="4.97735">
        <ele>310</ele>
        <time>2013-08-22T17:44:40Z</time>
      </trkpt>
      <trkpt lat="44.79464" lon="4.97735">
        <ele>310</ele>
        <time>2013-08-22T17:44:41Z</time>
      </trkpt>
      <trkpt lat="44.79462" lon="4.97734">
        <ele>310</ele>
        <time>2013-08-22T17:44:42Z</time>
      </trkpt>
      <trkpt lat="44.79459" lon="4.97734">
        <ele>310</ele>
        <time>2013-08-22T17:44:43Z</time>
      </trkpt>
      <trkpt lat="44.79456" lon="4.97734">
        <ele>310</ele>
        <time>2013-08-22T17:44:44Z</time>
      </trkpt>
      <trkpt lat="44.79454" lon="4.97734">
        <ele>310</ele>
        <time>2013-08-22T17:44:45Z</time>
      </trkpt>
      <trkpt lat="44.79452" lon="4.97734">
        <ele>310</ele>
        <time>2013-08-22T17:44:46Z</time>
      </trkpt>
      <trkpt lat="44.7945" lon="4.97733">
        <ele>310</ele>
        <time>2013-08-22T17:44:47Z</time>
      </trkpt>
      <trkpt lat="44.79447" lon="4.97733">
        <ele>310</ele>
        <time>2013-08-22T17:44:48Z</time>
      </trkpt>
      <trkpt lat="44.79445" lon="4.97732">
        <ele>310</ele>
        <time>2013-08-22T17:44:49Z</time>
      </trkpt>
      <trkpt lat="44.79442" lon="4.97732">
        <ele>310</ele>
        <time>2013-08-22T17:44:50Z</time>
      </trkpt>
      <trkpt lat="44.79439" lon="4.97731">
        <ele>310</ele>
        <time>2013-08-22T17:44:51Z</time>
      </trkpt>
      <trkpt lat="44.79437" lon="4.9773">
        <ele>310</ele>
        <time>2013-08-22T17:44:52Z</time>
      </trkpt>
      <trkpt lat="44.79434" lon="4.9773">
        <ele>310</ele>
        <time>2013-08-22T17:44:53Z</time>
      </trkpt>
      <trkpt lat="44.79432" lon="4.97731">
        <ele>310</ele>
        <time>2013-08-22T17:44:54Z</time>
      </trkpt>
      <trkpt lat="44.79431" lon="4.97731">
        <ele>310</ele>
        <time>2013-08-22T17:44:55Z</time>
      </trkpt>
      <trkpt lat="44.79429" lon="4.97732">
        <ele>310</ele>
        <time>2013-08-22T17:44:56Z</time>
      </trkpt>
      <trkpt lat="44.79427" lon="4.97732">
        <ele>310</ele>
        <time>2013-08-22T17:44:57Z</time>
      </trkpt>
      <trkpt lat="44.79425" lon="4.97734">
        <ele>310</ele>
        <time>2013-08-22T17:44:58Z</time>
      </trkpt>
      <trkpt lat="44.79422" lon="4.97734">
        <ele>310</ele>
        <time>2013-08-22T17:44:59Z</time>
      </trkpt>
      <trkpt lat="44.7942" lon="4.97735">
        <ele>310</ele>
        <time>2013-08-22T17:45:00Z</time>
      </trkpt>
      <trkpt lat="44.79419" lon="4.97736">
        <ele>310</ele>
        <time>2013-08-22T17:45:01Z</time>
      </trkpt>
      <trkpt lat="44.79416" lon="4.97737">
        <ele>310</ele>
        <time>2013-08-22T17:45:02Z</time>
      </trkpt>
      <trkpt lat="44.79414" lon="4.97737">
        <ele>310</ele>
        <time>2013-08-22T17:45:03Z</time>
      </trkpt>
      <trkpt lat="44.79412" lon="4.97738">
        <ele>310</ele>
        <time>2013-08-22T17:45:04Z</time>
      </trkpt>
      <trkpt lat="44.79409" lon="4.97738">
        <ele>310</ele>
        <time>2013-08-22T17:45:05Z</time>
      </trkpt>
      <trkpt lat="44.79407" lon="4.9774">
        <ele>310</ele>
        <time>2013-08-22T17:45:06Z</time>
      </trkpt>
      <trkpt lat="44.79405" lon="4.9774">
        <ele>310</ele>
        <time>2013-08-22T17:45:07Z</time>
      </trkpt>
      <trkpt lat="44.79402" lon="4.9774">
        <ele>310</ele>
        <time>2013-08-22T17:45:08Z</time>
      </trkpt>
      <trkpt lat="44.794" lon="4.97741">
        <ele>310</ele>
        <time>2013-08-22T17:45:09Z</time>
      </trkpt>
      <trkpt lat="44.79398" lon="4.97741">
        <ele>310</ele>
        <time>2013-08-22T17:45:10Z</time>
      </trkpt>
      <trkpt lat="44.79395" lon="4.9774">
        <ele>310</ele>
        <time>2013-08-22T17:45:11Z</time>
      </trkpt>
      <trkpt lat="44.79392" lon="4.9774">
        <ele>311</ele>
        <time>2013-08-22T17:45:12Z</time>
      </trkpt>
      <trkpt lat="44.79391" lon="4.97739">
        <ele>311</ele>
        <time>2013-08-22T17:45:13Z</time>
      </trkpt>
      <trkpt lat="44.7939" lon="4.9774">
        <ele>311</ele>
        <time>2013-08-22T17:45:14Z</time>
      </trkpt>
      <trkpt lat="44.79387" lon="4.97739">
        <ele>311</ele>
        <time>2013-08-22T17:45:15Z</time>
      </trkpt>
      <trkpt lat="44.79385" lon="4.97739">
        <ele>311</ele>
        <time>2013-08-22T17:45:16Z</time>
      </trkpt>
      <trkpt lat="44.79382" lon="4.9774">
        <ele>312</ele>
        <time>2013-08-22T17:45:17Z</time>
      </trkpt>
      <trkpt lat="44.79381" lon="4.97742">
        <ele>313</ele>
        <time>2013-08-22T17:45:18Z</time>
      </trkpt>
      <trkpt lat="44.79379" lon="4.97743">
        <ele>314</ele>
        <time>2013-08-22T17:45:19Z</time>
      </trkpt>
      <trkpt lat="44.79377" lon="4.97743">
        <ele>315</ele>
        <time>2013-08-22T17:45:20Z</time>
      </trkpt>
      <trkpt lat="44.79375" lon="4.97744">
        <ele>316</ele>
        <time>2013-08-22T17:45:21Z</time>
      </trkpt>
      <trkpt lat="44.79374" lon="4.97746">
        <ele>317</ele>
        <time>2013-08-22T17:45:22Z</time>
      </trkpt>
      <trkpt lat="44.79372" lon="4.97747">
        <ele>318</ele>
        <time>2013-08-22T17:45:23Z</time>
      </trkpt>
      <trkpt lat="44.7937" lon="4.97748">
        <ele>319</ele>
        <time>2013-08-22T17:45:24Z</time>
      </trkpt>
      <trkpt lat="44.79368" lon="4.9775">
        <ele>320</ele>
        <time>2013-08-22T17:45:25Z</time>
      </trkpt>
      <trkpt lat="44.79366" lon="4.97752">
        <ele>321</ele>
        <time>2013-08-22T17:45:26Z</time>
      </trkpt>
      <trkpt lat="44.79364" lon="4.97753">
        <ele>322</ele>
        <time>2013-08-22T17:45:27Z</time>
      </trkpt>
      <trkpt lat="44.79361" lon="4.97754">
        <ele>322</ele>
        <time>2013-08-22T17:45:28Z</time>
      </trkpt>
      <trkpt lat="44.79359" lon="4.97755">
        <ele>322</ele>
        <time>2013-08-22T17:45:29Z</time>
      </trkpt>
      <trkpt lat="44.79356" lon="4.97755">
        <ele>322</ele>
        <time>2013-08-22T17:45:30Z</time>
      </trkpt>
      <trkpt lat="44.79354" lon="4.97756">
        <ele>322</ele>
        <time>2013-08-22T17:45:31Z</time>
      </trkpt>
      <trkpt lat="44.79353" lon="4.97756">
        <ele>323</ele>
        <time>2013-08-22T17:45:32Z</time>
      </trkpt>
      <trkpt lat="44.79351" lon="4.97756">
        <ele>324</ele>
        <time>2013-08-22T17:45:33Z</time>
      </trkpt>
      <trkpt lat="44.79349" lon="4.97757">
        <ele>324</ele>
        <time>2013-08-22T17:45:34Z</time>
      </trkpt>
      <trkpt lat="44.79347" lon="4.97758">
        <ele>325</ele>
        <time>2013-08-22T17:45:35Z</time>
      </trkpt>
      <trkpt lat="44.79345" lon="4.97759">
        <ele>325</ele>
        <time>2013-08-22T17:45:36Z</time>
      </trkpt>
      <trkpt lat="44.79343" lon="4.97759">
        <ele>326</ele>
        <time>2013-08-22T17:45:37Z</time>
      </trkpt>
      <trkpt lat="44.79342" lon="4.97761">
        <ele>326</ele>
        <time>2013-08-22T17:45:38Z</time>
      </trkpt>
      <trkpt lat="44.7934" lon="4.97762">
        <ele>327</ele>
        <time>2013-08-22T17:45:39Z</time>
      </trkpt>
      <trkpt lat="44.79338" lon="4.97762">
        <ele>327</ele>
        <time>2013-08-22T17:45:40Z</time>
      </trkpt>
      <trkpt lat="44.79336" lon="4.97762">
        <ele>328</ele>
        <time>2013-08-22T17:45:41Z</time>
      </trkpt>
      <trkpt lat="44.79334" lon="4.97762">
        <ele>328</ele>
        <time>2013-08-22T17:45:42Z</time>
      </trkpt>
      <trkpt lat="44.79333" lon="4.97762">
        <ele>329</ele>
        <time>2013-08-22T17:45:43Z</time>
      </trkpt>
      <trkpt lat="44.79332" lon="4.97763">
        <ele>330</ele>
        <time>2013-08-22T17:45:44Z</time>
      </trkpt>
      <trkpt lat="44.7933" lon="4.97763">
        <ele>331</ele>
        <time>2013-08-22T17:45:45Z</time>
      </trkpt>
      <trkpt lat="44.79328" lon="4.97764">
        <ele>332</ele>
        <time>2013-08-22T17:45:46Z</time>
      </trkpt>
      <trkpt lat="44.79326" lon="4.97764">
        <ele>333</ele>
        <time>2013-08-22T17:45:47Z</time>
      </trkpt>
      <trkpt lat="44.79324" lon="4.97764">
        <ele>334</ele>
        <time>2013-08-22T17:45:48Z</time>
      </trkpt>
      <trkpt lat="44.79322" lon="4.97763">
        <ele>335</ele>
        <time>2013-08-22T17:45:49Z</time>
      </trkpt>
      <trkpt lat="44.7932" lon="4.97763">
        <ele>336</ele>
        <time>2013-08-22T17:45:50Z</time>
      </trkpt>
      <trkpt lat="44.79318" lon="4.97762">
        <ele>337</ele>
        <time>2013-08-22T17:45:51Z</time>
      </trkpt>
      <trkpt lat="44.79316" lon="4.97762">
        <ele>338</ele>
        <time>2013-08-22T17:45:52Z</time>
      </trkpt>
      <trkpt lat="44.79314" lon="4.97761">
        <ele>338</ele>
        <time>2013-08-22T17:45:53Z</time>
      </trkpt>
      <trkpt lat="44.79313" lon="4.9776">
        <ele>339</ele>
        <time>2013-08-22T17:45:54Z</time>
      </trkpt>
      <trkpt lat="44.7931" lon="4.9776">
        <ele>339</ele>
        <time>2013-08-22T17:45:55Z</time>
      </trkpt>
      <trkpt lat="44.79308" lon="4.97759">
        <ele>340</ele>
        <time>2013-08-22T17:45:56Z</time>
      </trkpt>
      <trkpt lat="44.79306" lon="4.9776">
        <ele>340</ele>
        <time>2013-08-22T17:45:57Z</time>
      </trkpt>
      <trkpt lat="44.79304" lon="4.97759">
        <ele>340</ele>
        <time>2013-08-22T17:45:58Z</time>
      </trkpt>
      <trkpt lat="44.79302" lon="4.97759">
        <ele>341</ele>
        <time>2013-08-22T17:45:59Z</time>
      </trkpt>
      <trkpt lat="44.793" lon="4.97759">
        <ele>341</ele>
        <time>2013-08-22T17:46:00Z</time>
      </trkpt>
      <trkpt lat="44.79298" lon="4.97758">
        <ele>341</ele>
        <time>2013-08-22T17:46:01Z</time>
      </trkpt>
      <trkpt lat="44.79297" lon="4.97758">
        <ele>341</ele>
        <time>2013-08-22T17:46:02Z</time>
      </trkpt>
      <trkpt lat="44.79295" lon="4.97758">
        <ele>341</ele>
        <time>2013-08-22T17:46:03Z</time>
      </trkpt>
      <trkpt lat="44.79293" lon="4.97757">
        <ele>342</ele>
        <time>2013-08-22T17:46:04Z</time>
      </trkpt>
      <trkpt lat="44.7929" lon="4.97756">
        <ele>342</ele>
        <time>2013-08-22T17:46:05Z</time>
      </trkpt>
      <trkpt lat="44.79288" lon="4.97756">
        <ele>343</ele>
        <time>2013-08-22T17:46:06Z</time>
      </trkpt>
      <trkpt lat="44.79286" lon="4.97756">
        <ele>343</ele>
        <time>2013-08-22T17:46:07Z</time>
      </trkpt>
      <trkpt lat="44.79284" lon="4.97756">
        <ele>344</ele>
        <time>2013-08-22T17:46:08Z</time>
      </trkpt>
      <trkpt lat="44.79283" lon="4.97755">
        <ele>344</ele>
        <time>2013-08-22T17:46:09Z</time>
      </trkpt>
      <trkpt lat="44.79282" lon="4.97755">
        <ele>344</ele>
        <time>2013-08-22T17:46:10Z</time>
      </trkpt>
      <trkpt lat="44.7928" lon="4.97755">
        <ele>344</ele>
        <time>2013-08-22T17:46:11Z</time>
      </trkpt>
      <trkpt lat="44.79279" lon="4.97754">
        <ele>344</ele>
        <time>2013-08-22T17:46:12Z</time>
      </trkpt>
      <trkpt lat="44.79278" lon="4.97754">
        <ele>344</ele>
        <time>2013-08-22T17:46:13Z</time>
      </trkpt>
      <trkpt lat="44.79276" lon="4.97753">
        <ele>344</ele>
        <time>2013-08-22T17:46:14Z</time>
      </trkpt>
      <trkpt lat="44.79277" lon="4.97752">
        <ele>344</ele>
        <time>2013-08-22T17:46:17Z</time>
      </trkpt>
      <trkpt lat="44.79279" lon="4.97752">
        <ele>344</ele>
        <time>2013-08-22T17:46:19Z</time>
      </trkpt>
      <trkpt lat="44.79276" lon="4.97753">
        <ele>344</ele>
        <time>2013-08-22T17:46:24Z</time>
      </trkpt>
      <trkpt lat="44.79274" lon="4.97753">
        <ele>344</ele>
        <time>2013-08-22T17:46:25Z</time>
      </trkpt>
      <trkpt lat="44.79273" lon="4.97752">
        <ele>344</ele>
        <time>2013-08-22T17:46:26Z</time>
      </trkpt>
      <trkpt lat="44.79271" lon="4.97752">
        <ele>344</ele>
        <time>2013-08-22T17:46:27Z</time>
      </trkpt>
      <trkpt lat="44.79269" lon="4.97751">
        <ele>344</ele>
        <time>2013-08-22T17:46:28Z</time>
      </trkpt>
      <trkpt lat="44.79268" lon="4.97751">
        <ele>344</ele>
        <time>2013-08-22T17:46:29Z</time>
      </trkpt>
      <trkpt lat="44.79266" lon="4.9775">
        <ele>344</ele>
        <time>2013-08-22T17:46:30Z</time>
      </trkpt>
      <trkpt lat="44.79265" lon="4.9775">
        <ele>344</ele>
        <time>2013-08-22T17:46:31Z</time>
      </trkpt>
      <trkpt lat="44.79264" lon="4.9775">
        <ele>344</ele>
        <time>2013-08-22T17:46:32Z</time>
      </trkpt>
      <trkpt lat="44.79262" lon="4.97749">
        <ele>344</ele>
        <time>2013-08-22T17:46:33Z</time>
      </trkpt>
      <trkpt lat="44.79259" lon="4.97747">
        <ele>344</ele>
        <time>2013-08-22T17:46:34Z</time>
      </trkpt>
      <trkpt lat="44.79256" lon="4.97746">
        <ele>344</ele>
        <time>2013-08-22T17:46:35Z</time>
      </trkpt>
      <trkpt lat="44.79254" lon="4.97745">
        <ele>344</ele>
        <time>2013-08-22T17:46:36Z</time>
      </trkpt>
      <trkpt lat="44.79252" lon="4.97744">
        <ele>344</ele>
        <time>2013-08-22T17:46:37Z</time>
      </trkpt>
      <trkpt lat="44.7925" lon="4.97744">
        <ele>344</ele>
        <time>2013-08-22T17:46:38Z</time>
      </trkpt>
      <trkpt lat="44.79248" lon="4.97743">
        <ele>344</ele>
        <time>2013-08-22T17:46:39Z</time>
      </trkpt>
      <trkpt lat="44.79247" lon="4.97743">
        <ele>344</ele>
        <time>2013-08-22T17:46:40Z</time>
      </trkpt>
      <trkpt lat="44.79245" lon="4.97742">
        <ele>344</ele>
        <time>2013-08-22T17:46:41Z</time>
      </trkpt>
      <trkpt lat="44.79243" lon="4.97741">
        <ele>344</ele>
        <time>2013-08-22T17:46:42Z</time>
      </trkpt>
      <trkpt lat="44.7924" lon="4.97739">
        <ele>344</ele>
        <time>2013-08-22T17:46:43Z</time>
      </trkpt>
      <trkpt lat="44.79238" lon="4.97739">
        <ele>344</ele>
        <time>2013-08-22T17:46:44Z</time>
      </trkpt>
      <trkpt lat="44.79237" lon="4.97737">
        <ele>343</ele>
        <time>2013-08-22T17:46:45Z</time>
      </trkpt>
      <trkpt lat="44.79235" lon="4.97736">
        <ele>343</ele>
        <time>2013-08-22T17:46:46Z</time>
      </trkpt>
      <trkpt lat="44.79234" lon="4.97735">
        <ele>342</ele>
        <time>2013-08-22T17:46:47Z</time>
      </trkpt>
      <trkpt lat="44.79232" lon="4.97734">
        <ele>341</ele>
        <time>2013-08-22T17:46:48Z</time>
      </trkpt>
      <trkpt lat="44.7923" lon="4.97734">
        <ele>340</ele>
        <time>2013-08-22T17:46:49Z</time>
      </trkpt>
      <trkpt lat="44.79229" lon="4.97733">
        <ele>339</ele>
        <time>2013-08-22T17:46:50Z</time>
      </trkpt>
      <trkpt lat="44.79227" lon="4.97732">
        <ele>338</ele>
        <time>2013-08-22T17:46:51Z</time>
      </trkpt>
      <trkpt lat="44.79225" lon="4.9773">
        <ele>337</ele>
        <time>2013-08-22T17:46:52Z</time>
      </trkpt>
      <trkpt lat="44.79223" lon="4.97729">
        <ele>336</ele>
        <time>2013-08-22T17:46:53Z</time>
      </trkpt>
      <trkpt lat="44.79221" lon="4.97728">
        <ele>335</ele>
        <time>2013-08-22T17:46:54Z</time>
      </trkpt>
      <trkpt lat="44.79219" lon="4.97728">
        <ele>334</ele>
        <time>2013-08-22T17:46:55Z</time>
      </trkpt>
      <trkpt lat="44.79216" lon="4.97727">
        <ele>334</ele>
        <time>2013-08-22T17:46:56Z</time>
      </trkpt>
      <trkpt lat="44.79214" lon="4.97726">
        <ele>333</ele>
        <time>2013-08-22T17:46:57Z</time>
      </trkpt>
      <trkpt lat="44.79212" lon="4.97726">
        <ele>332</ele>
        <time>2013-08-22T17:46:58Z</time>
      </trkpt>
      <trkpt lat="44.7921" lon="4.97725">
        <ele>331</ele>
        <time>2013-08-22T17:46:59Z</time>
      </trkpt>
      <trkpt lat="44.79207" lon="4.97725">
        <ele>330</ele>
        <time>2013-08-22T17:47:00Z</time>
      </trkpt>
      <trkpt lat="44.79205" lon="4.97724">
        <ele>329</ele>
        <time>2013-08-22T17:47:01Z</time>
      </trkpt>
      <trkpt lat="44.79203" lon="4.97723">
        <ele>328</ele>
        <time>2013-08-22T17:47:02Z</time>
      </trkpt>
      <trkpt lat="44.792" lon="4.97722">
        <ele>327</ele>
        <time>2013-08-22T17:47:03Z</time>
      </trkpt>
      <trkpt lat="44.79197" lon="4.97722">
        <ele>326</ele>
        <time>2013-08-22T17:47:04Z</time>
      </trkpt>
      <trkpt lat="44.79195" lon="4.97721">
        <ele>326</ele>
        <time>2013-08-22T17:47:05Z</time>
      </trkpt>
      <trkpt lat="44.79192" lon="4.97721">
        <ele>325</ele>
        <time>2013-08-22T17:47:06Z</time>
      </trkpt>
      <trkpt lat="44.7919" lon="4.97721">
        <ele>324</ele>
        <time>2013-08-22T17:47:07Z</time>
      </trkpt>
      <trkpt lat="44.79187" lon="4.97721">
        <ele>323</ele>
        <time>2013-08-22T17:47:08Z</time>
      </trkpt>
      <trkpt lat="44.79184" lon="4.9772">
        <ele>322</ele>
        <time>2013-08-22T17:47:09Z</time>
      </trkpt>
      <trkpt lat="44.79181" lon="4.9772">
        <ele>322</ele>
        <time>2013-08-22T17:47:10Z</time>
      </trkpt>
      <trkpt lat="44.79178" lon="4.97718">
        <ele>322</ele>
        <time>2013-08-22T17:47:11Z</time>
      </trkpt>
      <trkpt lat="44.79174" lon="4.97716">
        <ele>322</ele>
        <time>2013-08-22T17:47:12Z</time>
      </trkpt>
      <trkpt lat="44.79171" lon="4.97716">
        <ele>322</ele>
        <time>2013-08-22T17:47:13Z</time>
      </trkpt>
      <trkpt lat="44.7917" lon="4.97717">
        <ele>322</ele>
        <time>2013-08-22T17:47:14Z</time>
      </trkpt>
      <trkpt lat="44.79168" lon="4.97719">
        <ele>323</ele>
        <time>2013-08-22T17:47:16Z</time>
      </trkpt>
      <trkpt lat="44.79168" lon="4.9772">
        <ele>324</ele>
        <time>2013-08-22T17:47:17Z</time>
      </trkpt>
      <trkpt lat="44.79168" lon="4.97722">
        <ele>325</ele>
        <time>2013-08-22T17:47:18Z</time>
      </trkpt>
      <trkpt lat="44.79168" lon="4.97723">
        <ele>325</ele>
        <time>2013-08-22T17:47:19Z</time>
      </trkpt>
      <trkpt lat="44.79167" lon="4.97725">
        <ele>326</ele>
        <time>2013-08-22T17:47:20Z</time>
      </trkpt>
      <trkpt lat="44.79166" lon="4.97727">
        <ele>327</ele>
        <time>2013-08-22T17:47:21Z</time>
      </trkpt>
      <trkpt lat="44.79165" lon="4.97728">
        <ele>328</ele>
        <time>2013-08-22T17:47:22Z</time>
      </trkpt>
      <trkpt lat="44.79163" lon="4.9773">
        <ele>329</ele>
        <time>2013-08-22T17:47:23Z</time>
      </trkpt>
      <trkpt lat="44.79161" lon="4.9773">
        <ele>330</ele>
        <time>2013-08-22T17:47:24Z</time>
      </trkpt>
      <trkpt lat="44.79161" lon="4.97733">
        <ele>332</ele>
        <time>2013-08-22T17:47:26Z</time>
      </trkpt>
      <trkpt lat="44.7916" lon="4.97735">
        <ele>334</ele>
        <time>2013-08-22T17:47:28Z</time>
      </trkpt>
      <trkpt lat="44.79159" lon="4.97738">
        <ele>336</ele>
        <time>2013-08-22T17:47:30Z</time>
      </trkpt>
      <trkpt lat="44.79159" lon="4.9774">
        <ele>337</ele>
        <time>2013-08-22T17:47:31Z</time>
      </trkpt>
      <trkpt lat="44.7916" lon="4.97741">
        <ele>338</ele>
        <time>2013-08-22T17:47:32Z</time>
      </trkpt>
      <trkpt lat="44.7916" lon="4.97743">
        <ele>339</ele>
        <time>2013-08-22T17:47:33Z</time>
      </trkpt>
      <trkpt lat="44.79159" lon="4.97745">
        <ele>340</ele>
        <time>2013-08-22T17:47:34Z</time>
      </trkpt>
      <trkpt lat="44.79158" lon="4.97748">
        <ele>341</ele>
        <time>2013-08-22T17:47:36Z</time>
      </trkpt>
      <trkpt lat="44.79158" lon="4.97751">
        <ele>342</ele>
        <time>2013-08-22T17:47:38Z</time>
      </trkpt>
      <trkpt lat="44.79157" lon="4.97753">
        <ele>342</ele>
        <time>2013-08-22T17:47:39Z</time>
      </trkpt>
      <trkpt lat="44.79156" lon="4.97755">
        <ele>342</ele>
        <time>2013-08-22T17:47:40Z</time>
      </trkpt>
      <trkpt lat="44.79156" lon="4.97757">
        <ele>342</ele>
        <time>2013-08-22T17:47:41Z</time>
      </trkpt>
      <trkpt lat="44.79156" lon="4.97759">
        <ele>342</ele>
        <time>2013-08-22T17:47:42Z</time>
      </trkpt>
      <trkpt lat="44.79156" lon="4.97762">
        <ele>342</ele>
        <time>2013-08-22T17:47:44Z</time>
      </trkpt>
      <trkpt lat="44.79156" lon="4.97764">
        <ele>343</ele>
        <time>2013-08-22T17:47:45Z</time>
      </trkpt>
      <trkpt lat="44.79157" lon="4.97765">
        <ele>343</ele>
        <time>2013-08-22T17:47:46Z</time>
      </trkpt>
      <trkpt lat="44.79157" lon="4.97767">
        <ele>343</ele>
        <time>2013-08-22T17:47:47Z</time>
      </trkpt>
      <trkpt lat="44.79157" lon="4.97769">
        <ele>344</ele>
        <time>2013-08-22T17:47:48Z</time>
      </trkpt>
      <trkpt lat="44.79156" lon="4.97771">
        <ele>344</ele>
        <time>2013-08-22T17:47:49Z</time>
      </trkpt>
      <trkpt lat="44.79157" lon="4.97774">
        <ele>344</ele>
        <time>2013-08-22T17:47:51Z</time>
      </trkpt>
      <trkpt lat="44.79157" lon="4.97776">
        <ele>344</ele>
        <time>2013-08-22T17:47:52Z</time>
      </trkpt>
      <trkpt lat="44.79158" lon="4.97778">
        <ele>344</ele>
        <time>2013-08-22T17:47:53Z</time>
      </trkpt>
      <trkpt lat="44.79159" lon="4.9778">
        <ele>345</ele>
        <time>2013-08-22T17:47:54Z</time>
      </trkpt>
      <trkpt lat="44.7916" lon="4.97783">
        <ele>346</ele>
        <time>2013-08-22T17:47:56Z</time>
      </trkpt>
      <trkpt lat="44.79161" lon="4.97786">
        <ele>348</ele>
        <time>2013-08-22T17:47:58Z</time>
      </trkpt>
      <trkpt lat="44.79162" lon="4.97788">
        <ele>349</ele>
        <time>2013-08-22T17:47:59Z</time>
      </trkpt>
      <trkpt lat="44.79163" lon="4.9779">
        <ele>350</ele>
        <time>2013-08-22T17:48:00Z</time>
      </trkpt>
      <trkpt lat="44.79163" lon="4.97792">
        <ele>351</ele>
        <time>2013-08-22T17:48:01Z</time>
      </trkpt>
      <trkpt lat="44.79163" lon="4.97793">
        <ele>352</ele>
        <time>2013-08-22T17:48:02Z</time>
      </trkpt>
      <trkpt lat="44.79163" lon="4.97795">
        <ele>353</ele>
        <time>2013-08-22T17:48:03Z</time>
      </trkpt>
      <trkpt lat="44.79163" lon="4.97797">
        <ele>354</ele>
        <time>2013-08-22T17:48:04Z</time>
      </trkpt>
      <trkpt lat="44.79163" lon="4.978">
        <ele>355</ele>
        <time>2013-08-22T17:48:05Z</time>
      </trkpt>
      <trkpt lat="44.79163" lon="4.97801">
        <ele>356</ele>
        <time>2013-08-22T17:48:06Z</time>
      </trkpt>
      <trkpt lat="44.79163" lon="4.97803">
        <ele>357</ele>
        <time>2013-08-22T17:48:07Z</time>
      </trkpt>
      <trkpt lat="44.79164" lon="4.97804">
        <ele>358</ele>
        <time>2013-08-22T17:48:08Z</time>
      </trkpt>
      <trkpt lat="44.79165" lon="4.97807">
        <ele>360</ele>
        <time>2013-08-22T17:48:10Z</time>
      </trkpt>
      <trkpt lat="44.79166" lon="4.97809">
        <ele>361</ele>
        <time>2013-08-22T17:48:11Z</time>
      </trkpt>
      <trkpt lat="44.79166" lon="4.97811">
        <ele>361</ele>
        <time>2013-08-22T17:48:12Z</time>
      </trkpt>
      <trkpt lat="44.79167" lon="4.97812">
        <ele>362</ele>
        <time>2013-08-22T17:48:13Z</time>
      </trkpt>
      <trkpt lat="44.79168" lon="4.97814">
        <ele>362</ele>
        <time>2013-08-22T17:48:14Z</time>
      </trkpt>
      <trkpt lat="44.79168" lon="4.97815">
        <ele>363</ele>
        <time>2013-08-22T17:48:15Z</time>
      </trkpt>
      <trkpt lat="44.79169" lon="4.97818">
        <ele>363</ele>
        <time>2013-08-22T17:48:17Z</time>
      </trkpt>
      <trkpt lat="44.7917" lon="4.97819">
        <ele>363</ele>
        <time>2013-08-22T17:48:18Z</time>
      </trkpt>
      <trkpt lat="44.79171" lon="4.97821">
        <ele>363</ele>
        <time>2013-08-22T17:48:19Z</time>
      </trkpt>
      <trkpt lat="44.79172" lon="4.97823">
        <ele>363</ele>
        <time>2013-08-22T17:48:20Z</time>
      </trkpt>
      <trkpt lat="44.79174" lon="4.97825">
        <ele>364</ele>
        <time>2013-08-22T17:48:21Z</time>
      </trkpt>
      <trkpt lat="44.79174" lon="4.97827">
        <ele>365</ele>
        <time>2013-08-22T17:48:22Z</time>
      </trkpt>
      <trkpt lat="44.79176" lon="4.9783">
        <ele>366</ele>
        <time>2013-08-22T17:48:24Z</time>
      </trkpt>
      <trkpt lat="44.79176" lon="4.97832">
        <ele>366</ele>
        <time>2013-08-22T17:48:25Z</time>
      </trkpt>
      <trkpt lat="44.79176" lon="4.97834">
        <ele>367</ele>
        <time>2013-08-22T17:48:26Z</time>
      </trkpt>
      <trkpt lat="44.79176" lon="4.97836">
        <ele>367</ele>
        <time>2013-08-22T17:48:27Z</time>
      </trkpt>
      <trkpt lat="44.79177" lon="4.97839">
        <ele>367</ele>
        <time>2013-08-22T17:48:29Z</time>
      </trkpt>
      <trkpt lat="44.79178" lon="4.97842">
        <ele>367</ele>
        <time>2013-08-22T17:48:30Z</time>
      </trkpt>
      <trkpt lat="44.79179" lon="4.97844">
        <ele>367</ele>
        <time>2013-08-22T17:48:31Z</time>
      </trkpt>
      <trkpt lat="44.7918" lon="4.97846">
        <ele>367</ele>
        <time>2013-08-22T17:48:32Z</time>
      </trkpt>
      <trkpt lat="44.79182" lon="4.97846">
        <ele>367</ele>
        <time>2013-08-22T17:48:34Z</time>
      </trkpt>
      <trkpt lat="44.79183" lon="4.97845">
        <ele>367</ele>
        <time>2013-08-22T17:48:35Z</time>
      </trkpt>
      <trkpt lat="44.79184" lon="4.97845">
        <ele>367</ele>
        <time>2013-08-22T17:48:36Z</time>
      </trkpt>
      <trkpt lat="44.79186" lon="4.97845">
        <ele>367</ele>
        <time>2013-08-22T17:48:37Z</time>
      </trkpt>
      <trkpt lat="44.79187" lon="4.97844">
        <ele>367</ele>
        <time>2013-08-22T17:48:38Z</time>
      </trkpt>
      <trkpt lat="44.79189" lon="4.97843">
        <ele>367</ele>
        <time>2013-08-22T17:48:39Z</time>
      </trkpt>
      <trkpt lat="44.79191" lon="4.97843">
        <ele>367</ele>
        <time>2013-08-22T17:48:40Z</time>
      </trkpt>
      <trkpt lat="44.79193" lon="4.97844">
        <ele>367</ele>
        <time>2013-08-22T17:48:41Z</time>
      </trkpt>
      <trkpt lat="44.79195" lon="4.97847">
        <ele>367</ele>
        <time>2013-08-22T17:48:42Z</time>
      </trkpt>
      <trkpt lat="44.79195" lon="4.97849">
        <ele>367</ele>
        <time>2013-08-22T17:48:43Z</time>
      </trkpt>
      <trkpt lat="44.79195" lon="4.97851">
        <ele>367</ele>
        <time>2013-08-22T17:48:44Z</time>
      </trkpt>
      <trkpt lat="44.79195" lon="4.97852">
        <ele>367</ele>
        <time>2013-08-22T17:48:45Z</time>
      </trkpt>
      <trkpt lat="44.79195" lon="4.97856">
        <ele>367</ele>
        <time>2013-08-22T17:48:47Z</time>
      </trkpt>
      <trkpt lat="44.79195" lon="4.97857">
        <ele>367</ele>
        <time>2013-08-22T17:48:48Z</time>
      </trkpt>
      <trkpt lat="44.79197" lon="4.97859">
        <ele>367</ele>
        <time>2013-08-22T17:48:50Z</time>
      </trkpt>
      <trkpt lat="44.79199" lon="4.97862">
        <ele>367</ele>
        <time>2013-08-22T17:48:52Z</time>
      </trkpt>
      <trkpt lat="44.792" lon="4.97863">
        <ele>367</ele>
        <time>2013-08-22T17:48:53Z</time>
      </trkpt>
      <trkpt lat="44.79201" lon="4.97865">
        <ele>367</ele>
        <time>2013-08-22T17:48:54Z</time>
      </trkpt>
      <trkpt lat="44.79203" lon="4.97866">
        <ele>367</ele>
        <time>2013-08-22T17:48:55Z</time>
      </trkpt>
      <trkpt lat="44.79205" lon="4.97868">
        <ele>367</ele>
        <time>2013-08-22T17:48:56Z</time>
      </trkpt>
      <trkpt lat="44.79206" lon="4.9787">
        <ele>368</ele>
        <time>2013-08-22T17:48:57Z</time>
      </trkpt>
      <trkpt lat="44.79207" lon="4.97871">
        <ele>369</ele>
        <time>2013-08-22T17:48:58Z</time>
      </trkpt>
      <trkpt lat="44.79208" lon="4.97873">
        <ele>370</ele>
        <time>2013-08-22T17:48:59Z</time>
      </trkpt>
      <trkpt lat="44.79208" lon="4.97875">
        <ele>371</ele>
        <time>2013-08-22T17:49:00Z</time>
      </trkpt>
      <trkpt lat="44.79208" lon="4.97877">
        <ele>372</ele>
        <time>2013-08-22T17:49:01Z</time>
      </trkpt>
      <trkpt lat="44.79209" lon="4.97879">
        <ele>373</ele>
        <time>2013-08-22T17:49:02Z</time>
      </trkpt>
      <trkpt lat="44.7921" lon="4.97881">
        <ele>374</ele>
        <time>2013-08-22T17:49:03Z</time>
      </trkpt>
      <trkpt lat="44.79212" lon="4.97884">
        <ele>375</ele>
        <time>2013-08-22T17:49:05Z</time>
      </trkpt>
      <trkpt lat="44.79213" lon="4.97887">
        <ele>375</ele>
        <time>2013-08-22T17:49:06Z</time>
      </trkpt>
      <trkpt lat="44.79213" lon="4.97888">
        <ele>376</ele>
        <time>2013-08-22T17:49:07Z</time>
      </trkpt>
      <trkpt lat="44.79215" lon="4.9789">
        <ele>377</ele>
        <time>2013-08-22T17:49:09Z</time>
      </trkpt>
      <trkpt lat="44.79216" lon="4.97892">
        <ele>378</ele>
        <time>2013-08-22T17:49:11Z</time>
      </trkpt>
      <trkpt lat="44.79217" lon="4.97894">
        <ele>379</ele>
        <time>2013-08-22T17:49:13Z</time>
      </trkpt>
      <trkpt lat="44.79218" lon="4.97896">
        <ele>379</ele>
        <time>2013-08-22T17:49:14Z</time>
      </trkpt>
      <trkpt lat="44.79218" lon="4.97899">
        <ele>380</ele>
        <time>2013-08-22T17:49:16Z</time>
      </trkpt>
      <trkpt lat="44.79219" lon="4.97902">
        <ele>380</ele>
        <time>2013-08-22T17:49:18Z</time>
      </trkpt>
      <trkpt lat="44.79219" lon="4.97904">
        <ele>380</ele>
        <time>2013-08-22T17:49:19Z</time>
      </trkpt>
      <trkpt lat="44.79219" lon="4.97906">
        <ele>380</ele>
        <time>2013-08-22T17:49:20Z</time>
      </trkpt>
      <trkpt lat="44.79218" lon="4.97908">
        <ele>381</ele>
        <time>2013-08-22T17:49:21Z</time>
      </trkpt>
      <trkpt lat="44.79217" lon="4.9791">
        <ele>382</ele>
        <time>2013-08-22T17:49:23Z</time>
      </trkpt>
      <trkpt lat="44.79218" lon="4.97908">
        <ele>384</ele>
        <time>2013-08-22T17:49:26Z</time>
      </trkpt>
      <trkpt lat="44.79218" lon="4.97906">
        <ele>386</ele>
        <time>2013-08-22T17:49:29Z</time>
      </trkpt>
      <trkpt lat="44.79218" lon="4.97905">
        <ele>386</ele>
        <time>2013-08-22T17:49:31Z</time>
      </trkpt>
      <trkpt lat="44.79219" lon="4.97907">
        <ele>387</ele>
        <time>2013-08-22T17:49:38Z</time>
      </trkpt>
      <trkpt lat="44.79219" lon="4.9791">
        <ele>387</ele>
        <time>2013-08-22T17:49:40Z</time>
      </trkpt>
      <trkpt lat="44.79219" lon="4.97912">
        <ele>387</ele>
        <time>2013-08-22T17:49:42Z</time>
      </trkpt>
      <trkpt lat="44.79219" lon="4.97915">
        <ele>387</ele>
        <time>2013-08-22T17:49:44Z</time>
      </trkpt>
      <trkpt lat="44.79219" lon="4.97916">
        <ele>387</ele>
        <time>2013-08-22T17:49:45Z</time>
      </trkpt>
      <trkpt lat="44.79218" lon="4.97919">
        <ele>387</ele>
        <time>2013-08-22T17:49:47Z</time>
      </trkpt>
      <trkpt lat="44.79216" lon="4.97921">
        <ele>387</ele>
        <time>2013-08-22T17:49:49Z</time>
      </trkpt>
      <trkpt lat="44.79215" lon="4.9792">
        <ele>388</ele>
        <time>2013-08-22T17:49:51Z</time>
      </trkpt>
      <trkpt lat="44.79214" lon="4.97918">
        <ele>388</ele>
        <time>2013-08-22T17:49:53Z</time>
      </trkpt>
      <trkpt lat="44.79216" lon="4.97916">
        <ele>388</ele>
        <time>2013-08-22T17:49:55Z</time>
      </trkpt>
      <trkpt lat="44.79216" lon="4.97914">
        <ele>388</ele>
        <time>2013-08-22T17:49:57Z</time>
      </trkpt>
      <trkpt lat="44.79218" lon="4.97913">
        <ele>388</ele>
        <time>2013-08-22T17:50:00Z</time>
      </trkpt>
      <trkpt lat="44.79217" lon="4.97915">
        <ele>388</ele>
        <time>2013-08-22T17:50:06Z</time>
      </trkpt>
      <trkpt lat="44.79216" lon="4.97917">
        <ele>388</ele>
        <time>2013-08-22T17:50:08Z</time>
      </trkpt>
      <trkpt lat="44.79215" lon="4.9792">
        <ele>388</ele>
        <time>2013-08-22T17:50:10Z</time>
      </trkpt>
      <trkpt lat="44.79213" lon="4.97922">
        <ele>388</ele>
        <time>2013-08-22T17:50:12Z</time>
      </trkpt>
      <trkpt lat="44.79211" lon="4.97924">
        <ele>388</ele>
        <time>2013-08-22T17:50:14Z</time>
      </trkpt>
      <trkpt lat="44.7921" lon="4.97926">
        <ele>388</ele>
        <time>2013-08-22T17:50:16Z</time>
      </trkpt>
      <trkpt lat="44.79208" lon="4.97928">
        <ele>388</ele>
        <time>2013-08-22T17:50:18Z</time>
      </trkpt>
      <trkpt lat="44.79207" lon="4.97931">
        <ele>388</ele>
        <time>2013-08-22T17:50:20Z</time>
      </trkpt>
      <trkpt lat="44.79207" lon="4.97933">
        <ele>388</ele>
        <time>2013-08-22T17:50:21Z</time>
      </trkpt>
      <trkpt lat="44.79207" lon="4.97935">
        <ele>388</ele>
        <time>2013-08-22T17:50:22Z</time>
      </trkpt>
      <trkpt lat="44.79206" lon="4.97937">
        <ele>388</ele>
        <time>2013-08-22T17:50:23Z</time>
      </trkpt>
      <trkpt lat="44.79206" lon="4.97939">
        <ele>388</ele>
        <time>2013-08-22T17:50:24Z</time>
      </trkpt>
      <trkpt lat="44.79205" lon="4.97942">
        <ele>388</ele>
        <time>2013-08-22T17:50:25Z</time>
      </trkpt>
      <trkpt lat="44.79205" lon="4.97945">
        <ele>388</ele>
        <time>2013-08-22T17:50:26Z</time>
      </trkpt>
      <trkpt lat="44.79206" lon="4.97948">
        <ele>388</ele>
        <time>2013-08-22T17:50:27Z</time>
      </trkpt>
      <trkpt lat="44.79206" lon="4.97952">
        <ele>388</ele>
        <time>2013-08-22T17:50:28Z</time>
      </trkpt>
      <trkpt lat="44.79206" lon="4.97956">
        <ele>388</ele>
        <time>2013-08-22T17:50:29Z</time>
      </trkpt>
      <trkpt lat="44.79205" lon="4.97959">
        <ele>388</ele>
        <time>2013-08-22T17:50:30Z</time>
      </trkpt>
      <trkpt lat="44.79205" lon="4.97963">
        <ele>388</ele>
        <time>2013-08-22T17:50:31Z</time>
      </trkpt>
      <trkpt lat="44.79204" lon="4.97967">
        <ele>388</ele>
        <time>2013-08-22T17:50:32Z</time>
      </trkpt>
      <trkpt lat="44.79203" lon="4.9797">
        <ele>388</ele>
        <time>2013-08-22T17:50:33Z</time>
      </trkpt>
      <trkpt lat="44.79202" lon="4.97974">
        <ele>388</ele>
        <time>2013-08-22T17:50:34Z</time>
      </trkpt>
      <trkpt lat="44.79201" lon="4.97977">
        <ele>388</ele>
        <time>2013-08-22T17:50:35Z</time>
      </trkpt>
      <trkpt lat="44.792" lon="4.97981">
        <ele>388</ele>
        <time>2013-08-22T17:50:36Z</time>
      </trkpt>
      <trkpt lat="44.79199" lon="4.97984">
        <ele>388</ele>
        <time>2013-08-22T17:50:37Z</time>
      </trkpt>
      <trkpt lat="44.79198" lon="4.97987">
        <ele>388</ele>
        <time>2013-08-22T17:50:38Z</time>
      </trkpt>
      <trkpt lat="44.79197" lon="4.97991">
        <ele>388</ele>
        <time>2013-08-22T17:50:39Z</time>
      </trkpt>
      <trkpt lat="44.79196" lon="4.97995">
        <ele>388</ele>
        <time>2013-08-22T17:50:40Z</time>
      </trkpt>
      <trkpt lat="44.79194" lon="4.97999">
        <ele>387</ele>
        <time>2013-08-22T17:50:41Z</time>
      </trkpt>
      <trkpt lat="44.79193" lon="4.98003">
        <ele>387</ele>
        <time>2013-08-22T17:50:42Z</time>
      </trkpt>
      <trkpt lat="44.79192" lon="4.98006">
        <ele>386</ele>
        <time>2013-08-22T17:50:43Z</time>
      </trkpt>
      <trkpt lat="44.79191" lon="4.9801">
        <ele>385</ele>
        <time>2013-08-22T17:50:44Z</time>
      </trkpt>
      <trkpt lat="44.7919" lon="4.98013">
        <ele>384</ele>
        <time>2013-08-22T17:50:45Z</time>
      </trkpt>
      <trkpt lat="44.79189" lon="4.98018">
        <ele>384</ele>
        <time>2013-08-22T17:50:46Z</time>
      </trkpt>
      <trkpt lat="44.79188" lon="4.98022">
        <ele>384</ele>
        <time>2013-08-22T17:50:47Z</time>
      </trkpt>
      <trkpt lat="44.79187" lon="4.98025">
        <ele>384</ele>
        <time>2013-08-22T17:50:48Z</time>
      </trkpt>
      <trkpt lat="44.79186" lon="4.98029">
        <ele>384</ele>
        <time>2013-08-22T17:50:49Z</time>
      </trkpt>
      <trkpt lat="44.79185" lon="4.98033">
        <ele>384</ele>
        <time>2013-08-22T17:50:50Z</time>
      </trkpt>
      <trkpt lat="44.79184" lon="4.98037">
        <ele>384</ele>
        <time>2013-08-22T17:50:51Z</time>
      </trkpt>
      <trkpt lat="44.79184" lon="4.9804">
        <ele>384</ele>
        <time>2013-08-22T17:50:52Z</time>
      </trkpt>
      <trkpt lat="44.79183" lon="4.98043">
        <ele>383</ele>
        <time>2013-08-22T17:50:53Z</time>
      </trkpt>
      <trkpt lat="44.79182" lon="4.98047">
        <ele>383</ele>
        <time>2013-08-22T17:50:54Z</time>
      </trkpt>
      <trkpt lat="44.79181" lon="4.9805">
        <ele>382</ele>
        <time>2013-08-22T17:50:55Z</time>
      </trkpt>
      <trkpt lat="44.7918" lon="4.98053">
        <ele>381</ele>
        <time>2013-08-22T17:50:56Z</time>
      </trkpt>
      <trkpt lat="44.79179" lon="4.98057">
        <ele>381</ele>
        <time>2013-08-22T17:50:57Z</time>
      </trkpt>
      <trkpt lat="44.79179" lon="4.98059">
        <ele>380</ele>
        <time>2013-08-22T17:50:58Z</time>
      </trkpt>
      <trkpt lat="44.79178" lon="4.98062">
        <ele>379</ele>
        <time>2013-08-22T17:50:59Z</time>
      </trkpt>
      <trkpt lat="44.79178" lon="4.98065">
        <ele>379</ele>
        <time>2013-08-22T17:51:00Z</time>
      </trkpt>
      <trkpt lat="44.79177" lon="4.98068">
        <ele>378</ele>
        <time>2013-08-22T17:51:01Z</time>
      </trkpt>
      <trkpt lat="44.79177" lon="4.98071">
        <ele>377</ele>
        <time>2013-08-22T17:51:02Z</time>
      </trkpt>
      <trkpt lat="44.79176" lon="4.98075">
        <ele>376</ele>
        <time>2013-08-22T17:51:03Z</time>
      </trkpt>
      <trkpt lat="44.79175" lon="4.98078">
        <ele>375</ele>
        <time>2013-08-22T17:51:04Z</time>
      </trkpt>
      <trkpt lat="44.79174" lon="4.98082">
        <ele>374</ele>
        <time>2013-08-22T17:51:05Z</time>
      </trkpt>
      <trkpt lat="44.79174" lon="4.98085">
        <ele>373</ele>
        <time>2013-08-22T17:51:06Z</time>
      </trkpt>
      <trkpt lat="44.79173" lon="4.98089">
        <ele>372</ele>
        <time>2013-08-22T17:51:07Z</time>
      </trkpt>
      <trkpt lat="44.79173" lon="4.98093">
        <ele>372</ele>
        <time>2013-08-22T17:51:08Z</time>
      </trkpt>
      <trkpt lat="44.79172" lon="4.98096">
        <ele>371</ele>
        <time>2013-08-22T17:51:09Z</time>
      </trkpt>
      <trkpt lat="44.79171" lon="4.981">
        <ele>370</ele>
        <time>2013-08-22T17:51:10Z</time>
      </trkpt>
      <trkpt lat="44.7917" lon="4.98103">
        <ele>369</ele>
        <time>2013-08-22T17:51:11Z</time>
      </trkpt>
      <trkpt lat="44.79169" lon="4.98106">
        <ele>368</ele>
        <time>2013-08-22T17:51:12Z</time>
      </trkpt>
      <trkpt lat="44.79168" lon="4.98109">
        <ele>367</ele>
        <time>2013-08-22T17:51:13Z</time>
      </trkpt>
      <trkpt lat="44.79166" lon="4.98113">
        <ele>367</ele>
        <time>2013-08-22T17:51:14Z</time>
      </trkpt>
      <trkpt lat="44.79165" lon="4.98117">
        <ele>366</ele>
        <time>2013-08-22T17:51:15Z</time>
      </trkpt>
      <trkpt lat="44.79164" lon="4.98121">
        <ele>365</ele>
        <time>2013-08-22T17:51:16Z</time>
      </trkpt>
      <trkpt lat="44.79163" lon="4.98125">
        <ele>364</ele>
        <time>2013-08-22T17:51:17Z</time>
      </trkpt>
      <trkpt lat="44.79162" lon="4.98129">
        <ele>363</ele>
        <time>2013-08-22T17:51:18Z</time>
      </trkpt>
      <trkpt lat="44.79161" lon="4.98134">
        <ele>362</ele>
        <time>2013-08-22T17:51:19Z</time>
      </trkpt>
      <trkpt lat="44.79159" lon="4.98138">
        <ele>362</ele>
        <time>2013-08-22T17:51:20Z</time>
      </trkpt>
      <trkpt lat="44.79158" lon="4.98142">
        <ele>362</ele>
        <time>2013-08-22T17:51:21Z</time>
      </trkpt>
      <trkpt lat="44.79157" lon="4.98145">
        <ele>362</ele>
        <time>2013-08-22T17:51:22Z</time>
      </trkpt>
      <trkpt lat="44.79155" lon="4.98148">
        <ele>361</ele>
        <time>2013-08-22T17:51:23Z</time>
      </trkpt>
      <trkpt lat="44.79154" lon="4.98151">
        <ele>361</ele>
        <time>2013-08-22T17:51:24Z</time>
      </trkpt>
      <trkpt lat="44.79152" lon="4.98156">
        <ele>360</ele>
        <time>2013-08-22T17:51:25Z</time>
      </trkpt>
      <trkpt lat="44.79151" lon="4.98159">
        <ele>360</ele>
        <time>2013-08-22T17:51:26Z</time>
      </trkpt>
      <trkpt lat="44.79149" lon="4.98163">
        <ele>359</ele>
        <time>2013-08-22T17:51:27Z</time>
      </trkpt>
      <trkpt lat="44.79147" lon="4.98167">
        <ele>359</ele>
        <time>2013-08-22T17:51:28Z</time>
      </trkpt>
      <trkpt lat="44.79146" lon="4.98172">
        <ele>358</ele>
        <time>2013-08-22T17:51:29Z</time>
      </trkpt>
      <trkpt lat="44.79145" lon="4.98176">
        <ele>358</ele>
        <time>2013-08-22T17:51:30Z</time>
      </trkpt>
      <trkpt lat="44.79143" lon="4.98179">
        <ele>358</ele>
        <time>2013-08-22T17:51:31Z</time>
      </trkpt>
      <trkpt lat="44.79142" lon="4.98183">
        <ele>358</ele>
        <time>2013-08-22T17:51:32Z</time>
      </trkpt>
      <trkpt lat="44.79141" lon="4.98187">
        <ele>357</ele>
        <time>2013-08-22T17:51:33Z</time>
      </trkpt>
      <trkpt lat="44.7914" lon="4.9819">
        <ele>357</ele>
        <time>2013-08-22T17:51:34Z</time>
      </trkpt>
      <trkpt lat="44.79139" lon="4.98194">
        <ele>357</ele>
        <time>2013-08-22T17:51:35Z</time>
      </trkpt>
      <trkpt lat="44.79137" lon="4.98198">
        <ele>357</ele>
        <time>2013-08-22T17:51:36Z</time>
      </trkpt>
      <trkpt lat="44.79136" lon="4.98202">
        <ele>357</ele>
        <time>2013-08-22T17:51:37Z</time>
      </trkpt>
      <trkpt lat="44.79134" lon="4.98206">
        <ele>356</ele>
        <time>2013-08-22T17:51:38Z</time>
      </trkpt>
      <trkpt lat="44.79132" lon="4.9821">
        <ele>356</ele>
        <time>2013-08-22T17:51:39Z</time>
      </trkpt>
      <trkpt lat="44.7913" lon="4.98214">
        <ele>356</ele>
        <time>2013-08-22T17:51:40Z</time>
      </trkpt>
      <trkpt lat="44.79129" lon="4.98218">
        <ele>355</ele>
        <time>2013-08-22T17:51:41Z</time>
      </trkpt>
      <trkpt lat="44.79127" lon="4.98223">
        <ele>355</ele>
        <time>2013-08-22T17:51:42Z</time>
      </trkpt>
      <trkpt lat="44.79126" lon="4.98226">
        <ele>354</ele>
        <time>2013-08-22T17:51:43Z</time>
      </trkpt>
      <trkpt lat="44.79125" lon="4.98229">
        <ele>354</ele>
        <time>2013-08-22T17:51:44Z</time>
      </trkpt>
      <trkpt lat="44.79123" lon="4.98233">
        <ele>354</ele>
        <time>2013-08-22T17:51:45Z</time>
      </trkpt>
      <trkpt lat="44.79122" lon="4.98236">
        <ele>353</ele>
        <time>2013-08-22T17:51:46Z</time>
      </trkpt>
      <trkpt lat="44.79121" lon="4.98239">
        <ele>353</ele>
        <time>2013-08-22T17:51:47Z</time>
      </trkpt>
      <trkpt lat="44.7912" lon="4.98243">
        <ele>353</ele>
        <time>2013-08-22T17:51:48Z</time>
      </trkpt>
      <trkpt lat="44.79118" lon="4.98246">
        <ele>353</ele>
        <time>2013-08-22T17:51:49Z</time>
      </trkpt>
      <trkpt lat="44.79117" lon="4.9825">
        <ele>352</ele>
        <time>2013-08-22T17:51:50Z</time>
      </trkpt>
      <trkpt lat="44.79115" lon="4.98253">
        <ele>352</ele>
        <time>2013-08-22T17:51:51Z</time>
      </trkpt>
      <trkpt lat="44.79113" lon="4.98256">
        <ele>352</ele>
        <time>2013-08-22T17:51:52Z</time>
      </trkpt>
      <trkpt lat="44.79112" lon="4.98259">
        <ele>351</ele>
        <time>2013-08-22T17:51:53Z</time>
      </trkpt>
      <trkpt lat="44.7911" lon="4.98261">
        <ele>351</ele>
        <time>2013-08-22T17:51:54Z</time>
      </trkpt>
      <trkpt lat="44.79109" lon="4.98264">
        <ele>351</ele>
        <time>2013-08-22T17:51:55Z</time>
      </trkpt>
      <trkpt lat="44.79108" lon="4.98268">
        <ele>351</ele>
        <time>2013-08-22T17:51:56Z</time>
      </trkpt>
      <trkpt lat="44.79106" lon="4.98271">
        <ele>351</ele>
        <time>2013-08-22T17:51:57Z</time>
      </trkpt>
      <trkpt lat="44.79104" lon="4.98274">
        <ele>351</ele>
        <time>2013-08-22T17:51:58Z</time>
      </trkpt>
      <trkpt lat="44.79103" lon="4.98277">
        <ele>351</ele>
        <time>2013-08-22T17:51:59Z</time>
      </trkpt>
      <trkpt lat="44.79102" lon="4.9828">
        <ele>351</ele>
        <time>2013-08-22T17:52:00Z</time>
      </trkpt>
      <trkpt lat="44.791" lon="4.98283">
        <ele>351</ele>
        <time>2013-08-22T17:52:01Z</time>
      </trkpt>
      <trkpt lat="44.79099" lon="4.98285">
        <ele>351</ele>
        <time>2013-08-22T17:52:02Z</time>
      </trkpt>
      <trkpt lat="44.79098" lon="4.98288">
        <ele>351</ele>
        <time>2013-08-22T17:52:03Z</time>
      </trkpt>
      <trkpt lat="44.79097" lon="4.98291">
        <ele>351</ele>
        <time>2013-08-22T17:52:04Z</time>
      </trkpt>
      <trkpt lat="44.79095" lon="4.98294">
        <ele>351</ele>
        <time>2013-08-22T17:52:05Z</time>
      </trkpt>
      <trkpt lat="44.79095" lon="4.98298">
        <ele>351</ele>
        <time>2013-08-22T17:52:06Z</time>
      </trkpt>
      <trkpt lat="44.79094" lon="4.983">
        <ele>351</ele>
        <time>2013-08-22T17:52:07Z</time>
      </trkpt>
      <trkpt lat="44.79093" lon="4.98303">
        <ele>351</ele>
        <time>2013-08-22T17:52:08Z</time>
      </trkpt>
      <trkpt lat="44.79092" lon="4.98305">
        <ele>350</ele>
        <time>2013-08-22T17:52:09Z</time>
      </trkpt>
      <trkpt lat="44.79091" lon="4.98308">
        <ele>349</ele>
        <time>2013-08-22T17:52:10Z</time>
      </trkpt>
      <trkpt lat="44.7909" lon="4.98312">
        <ele>349</ele>
        <time>2013-08-22T17:52:11Z</time>
      </trkpt>
      <trkpt lat="44.79088" lon="4.98316">
        <ele>348</ele>
        <time>2013-08-22T17:52:12Z</time>
      </trkpt>
      <trkpt lat="44.79087" lon="4.9832">
        <ele>347</ele>
        <time>2013-08-22T17:52:13Z</time>
      </trkpt>
      <trkpt lat="44.79086" lon="4.98325">
        <ele>347</ele>
        <time>2013-08-22T17:52:14Z</time>
      </trkpt>
      <trkpt lat="44.79084" lon="4.98329">
        <ele>347</ele>
        <time>2013-08-22T17:52:15Z</time>
      </trkpt>
      <trkpt lat="44.79082" lon="4.98335">
        <ele>347</ele>
        <time>2013-08-22T17:52:16Z</time>
      </trkpt>
      <trkpt lat="44.79081" lon="4.98341">
        <ele>347</ele>
        <time>2013-08-22T17:52:17Z</time>
      </trkpt>
      <trkpt lat="44.79079" lon="4.98348">
        <ele>347</ele>
        <time>2013-08-22T17:52:18Z</time>
      </trkpt>
      <trkpt lat="44.79078" lon="4.98353">
        <ele>347</ele>
        <time>2013-08-22T17:52:19Z</time>
      </trkpt>
      <trkpt lat="44.79076" lon="4.98357">
        <ele>347</ele>
        <time>2013-08-22T17:52:20Z</time>
      </trkpt>
      <trkpt lat="44.79074" lon="4.98361">
        <ele>348</ele>
        <time>2013-08-22T17:52:21Z</time>
      </trkpt>
      <trkpt lat="44.79073" lon="4.98366">
        <ele>348</ele>
        <time>2013-08-22T17:52:22Z</time>
      </trkpt>
      <trkpt lat="44.79071" lon="4.9837">
        <ele>348</ele>
        <time>2013-08-22T17:52:23Z</time>
      </trkpt>
      <trkpt lat="44.7907" lon="4.98373">
        <ele>348</ele>
        <time>2013-08-22T17:52:24Z</time>
      </trkpt>
      <trkpt lat="44.79069" lon="4.98375">
        <ele>348</ele>
        <time>2013-08-22T17:52:25Z</time>
      </trkpt>
      <trkpt lat="44.79068" lon="4.98378">
        <ele>348</ele>
        <time>2013-08-22T17:52:26Z</time>
      </trkpt>
      <trkpt lat="44.79067" lon="4.98382">
        <ele>348</ele>
        <time>2013-08-22T17:52:27Z</time>
      </trkpt>
      <trkpt lat="44.79066" lon="4.98386">
        <ele>348</ele>
        <time>2013-08-22T17:52:28Z</time>
      </trkpt>
      <trkpt lat="44.79064" lon="4.9839">
        <ele>348</ele>
        <time>2013-08-22T17:52:29Z</time>
      </trkpt>
      <trkpt lat="44.79063" lon="4.98394">
        <ele>348</ele>
        <time>2013-08-22T17:52:30Z</time>
      </trkpt>
      <trkpt lat="44.79063" lon="4.98397">
        <ele>347</ele>
        <time>2013-08-22T17:52:31Z</time>
      </trkpt>
      <trkpt lat="44.79061" lon="4.98401">
        <ele>346</ele>
        <time>2013-08-22T17:52:32Z</time>
      </trkpt>
      <trkpt lat="44.7906" lon="4.98404">
        <ele>345</ele>
        <time>2013-08-22T17:52:33Z</time>
      </trkpt>
      <trkpt lat="44.79058" lon="4.98408">
        <ele>344</ele>
        <time>2013-08-22T17:52:34Z</time>
      </trkpt>
      <trkpt lat="44.79057" lon="4.98412">
        <ele>344</ele>
        <time>2013-08-22T17:52:35Z</time>
      </trkpt>
      <trkpt lat="44.79055" lon="4.98415">
        <ele>343</ele>
        <time>2013-08-22T17:52:36Z</time>
      </trkpt>
      <trkpt lat="44.79053" lon="4.98418">
        <ele>342</ele>
        <time>2013-08-22T17:52:37Z</time>
      </trkpt>
      <trkpt lat="44.79052" lon="4.98421">
        <ele>341</ele>
        <time>2013-08-22T17:52:38Z</time>
      </trkpt>
      <trkpt lat="44.7905" lon="4.98424">
        <ele>341</ele>
        <time>2013-08-22T17:52:39Z</time>
      </trkpt>
      <trkpt lat="44.79049" lon="4.98428">
        <ele>340</ele>
        <time>2013-08-22T17:52:40Z</time>
      </trkpt>
      <trkpt lat="44.79048" lon="4.98434">
        <ele>340</ele>
        <time>2013-08-22T17:52:41Z</time>
      </trkpt>
      <trkpt lat="44.79046" lon="4.98439">
        <ele>340</ele>
        <time>2013-08-22T17:52:42Z</time>
      </trkpt>
      <trkpt lat="44.79044" lon="4.98443">
        <ele>340</ele>
        <time>2013-08-22T17:52:43Z</time>
      </trkpt>
      <trkpt lat="44.79043" lon="4.98447">
        <ele>340</ele>
        <time>2013-08-22T17:52:44Z</time>
      </trkpt>
      <trkpt lat="44.79042" lon="4.98449">
        <ele>340</ele>
        <time>2013-08-22T17:52:45Z</time>
      </trkpt>
      <trkpt lat="44.79041" lon="4.98453">
        <ele>340</ele>
        <time>2013-08-22T17:52:46Z</time>
      </trkpt>
      <trkpt lat="44.79041" lon="4.98456">
        <ele>340</ele>
        <time>2013-08-22T17:52:47Z</time>
      </trkpt>
      <trkpt lat="44.79042" lon="4.98459">
        <ele>340</ele>
        <time>2013-08-22T17:52:48Z</time>
      </trkpt>
      <trkpt lat="44.79042" lon="4.98462">
        <ele>339</ele>
        <time>2013-08-22T17:52:49Z</time>
      </trkpt>
      <trkpt lat="44.79044" lon="4.98464">
        <ele>338</ele>
        <time>2013-08-22T17:52:50Z</time>
      </trkpt>
      <trkpt lat="44.79045" lon="4.98466">
        <ele>337</ele>
        <time>2013-08-22T17:52:51Z</time>
      </trkpt>
      <trkpt lat="44.79047" lon="4.98468">
        <ele>337</ele>
        <time>2013-08-22T17:52:52Z</time>
      </trkpt>
      <trkpt lat="44.79049" lon="4.98471">
        <ele>336</ele>
        <time>2013-08-22T17:52:53Z</time>
      </trkpt>
      <trkpt lat="44.7905" lon="4.98472">
        <ele>335</ele>
        <time>2013-08-22T17:52:54Z</time>
      </trkpt>
      <trkpt lat="44.79053" lon="4.98474">
        <ele>335</ele>
        <time>2013-08-22T17:52:55Z</time>
      </trkpt>
      <trkpt lat="44.79055" lon="4.98474">
        <ele>335</ele>
        <time>2013-08-22T17:52:56Z</time>
      </trkpt>
      <trkpt lat="44.79058" lon="4.98475">
        <ele>335</ele>
        <time>2013-08-22T17:52:57Z</time>
      </trkpt>
      <trkpt lat="44.7906" lon="4.98475">
        <ele>335</ele>
        <time>2013-08-22T17:52:58Z</time>
      </trkpt>
      <trkpt lat="44.79062" lon="4.98474">
        <ele>335</ele>
        <time>2013-08-22T17:52:59Z</time>
      </trkpt>
      <trkpt lat="44.79065" lon="4.98474">
        <ele>335</ele>
        <time>2013-08-22T17:53:00Z</time>
      </trkpt>
      <trkpt lat="44.79068" lon="4.98472">
        <ele>335</ele>
        <time>2013-08-22T17:53:01Z</time>
      </trkpt>
      <trkpt lat="44.79071" lon="4.98472">
        <ele>335</ele>
        <time>2013-08-22T17:53:02Z</time>
      </trkpt>
      <trkpt lat="44.79073" lon="4.98471">
        <ele>335</ele>
        <time>2013-08-22T17:53:03Z</time>
      </trkpt>
      <trkpt lat="44.79076" lon="4.98471">
        <ele>335</ele>
        <time>2013-08-22T17:53:04Z</time>
      </trkpt>
      <trkpt lat="44.79078" lon="4.9847">
        <ele>335</ele>
        <time>2013-08-22T17:53:05Z</time>
      </trkpt>
      <trkpt lat="44.7908" lon="4.98469">
        <ele>335</ele>
        <time>2013-08-22T17:53:06Z</time>
      </trkpt>
      <trkpt lat="44.79082" lon="4.98468">
        <ele>336</ele>
        <time>2013-08-22T17:53:07Z</time>
      </trkpt>
      <trkpt lat="44.79085" lon="4.98468">
        <ele>336</ele>
        <time>2013-08-22T17:53:08Z</time>
      </trkpt>
      <trkpt lat="44.79087" lon="4.98467">
        <ele>336</ele>
        <time>2013-08-22T17:53:09Z</time>
      </trkpt>
      <trkpt lat="44.79089" lon="4.98467">
        <ele>336</ele>
        <time>2013-08-22T17:53:10Z</time>
      </trkpt>
      <trkpt lat="44.79092" lon="4.98466">
        <ele>336</ele>
        <time>2013-08-22T17:53:11Z</time>
      </trkpt>
      <trkpt lat="44.79094" lon="4.98465">
        <ele>336</ele>
        <time>2013-08-22T17:53:12Z</time>
      </trkpt>
      <trkpt lat="44.79097" lon="4.98464">
        <ele>336</ele>
        <time>2013-08-22T17:53:13Z</time>
      </trkpt>
      <trkpt lat="44.79099" lon="4.98463">
        <ele>336</ele>
        <time>2013-08-22T17:53:14Z</time>
      </trkpt>
      <trkpt lat="44.79102" lon="4.98461">
        <ele>336</ele>
        <time>2013-08-22T17:53:15Z</time>
      </trkpt>
      <trkpt lat="44.79104" lon="4.98459">
        <ele>336</ele>
        <time>2013-08-22T17:53:16Z</time>
      </trkpt>
      <trkpt lat="44.79106" lon="4.98456">
        <ele>336</ele>
        <time>2013-08-22T17:53:17Z</time>
      </trkpt>
      <trkpt lat="44.79108" lon="4.98454">
        <ele>336</ele>
        <time>2013-08-22T17:53:18Z</time>
      </trkpt>
      <trkpt lat="44.7911" lon="4.98452">
        <ele>336</ele>
        <time>2013-08-22T17:53:19Z</time>
      </trkpt>
      <trkpt lat="44.79112" lon="4.9845">
        <ele>337</ele>
        <time>2013-08-22T17:53:20Z</time>
      </trkpt>
      <trkpt lat="44.79114" lon="4.98448">
        <ele>338</ele>
        <time>2013-08-22T17:53:21Z</time>
      </trkpt>
      <trkpt lat="44.79116" lon="4.98445">
        <ele>338</ele>
        <time>2013-08-22T17:53:22Z</time>
      </trkpt>
      <trkpt lat="44.79118" lon="4.98442">
        <ele>338</ele>
        <time>2013-08-22T17:53:23Z</time>
      </trkpt>
      <trkpt lat="44.7912" lon="4.9844">
        <ele>338</ele>
        <time>2013-08-22T17:53:24Z</time>
      </trkpt>
      <trkpt lat="44.79121" lon="4.98438">
        <ele>339</ele>
        <time>2013-08-22T17:53:25Z</time>
      </trkpt>
      <trkpt lat="44.79123" lon="4.98436">
        <ele>339</ele>
        <time>2013-08-22T17:53:26Z</time>
      </trkpt>
      <trkpt lat="44.79125" lon="4.98433">
        <ele>339</ele>
        <time>2013-08-22T17:53:27Z</time>
      </trkpt>
      <trkpt lat="44.79127" lon="4.9843">
        <ele>339</ele>
        <time>2013-08-22T17:53:28Z</time>
      </trkpt>
      <trkpt lat="44.79128" lon="4.98427">
        <ele>339</ele>
        <time>2013-08-22T17:53:29Z</time>
      </trkpt>
      <trkpt lat="44.79129" lon="4.98424">
        <ele>339</ele>
        <time>2013-08-22T17:53:30Z</time>
      </trkpt>
      <trkpt lat="44.79131" lon="4.98421">
        <ele>339</ele>
        <time>2013-08-22T17:53:31Z</time>
      </trkpt>
      <trkpt lat="44.79133" lon="4.98418">
        <ele>339</ele>
        <time>2013-08-22T17:53:32Z</time>
      </trkpt>
      <trkpt lat="44.79135" lon="4.98416">
        <ele>339</ele>
        <time>2013-08-22T17:53:33Z</time>
      </trkpt>
      <trkpt lat="44.79137" lon="4.98414">
        <ele>339</ele>
        <time>2013-08-22T17:53:34Z</time>
      </trkpt>
      <trkpt lat="44.79139" lon="4.98412">
        <ele>339</ele>
        <time>2013-08-22T17:53:35Z</time>
      </trkpt>
      <trkpt lat="44.79142" lon="4.9841">
        <ele>339</ele>
        <time>2013-08-22T17:53:36Z</time>
      </trkpt>
      <trkpt lat="44.79144" lon="4.98407">
        <ele>338</ele>
        <time>2013-08-22T17:53:37Z</time>
      </trkpt>
      <trkpt lat="44.79147" lon="4.98405">
        <ele>337</ele>
        <time>2013-08-22T17:53:38Z</time>
      </trkpt>
      <trkpt lat="44.79149" lon="4.98402">
        <ele>336</ele>
        <time>2013-08-22T17:53:39Z</time>
      </trkpt>
      <trkpt lat="44.7915" lon="4.98398">
        <ele>335</ele>
        <time>2013-08-22T17:53:40Z</time>
      </trkpt>
      <trkpt lat="44.79152" lon="4.98396">
        <ele>334</ele>
        <time>2013-08-22T17:53:41Z</time>
      </trkpt>
      <trkpt lat="44.79153" lon="4.98393">
        <ele>333</ele>
        <time>2013-08-22T17:53:42Z</time>
      </trkpt>
      <trkpt lat="44.79155" lon="4.9839">
        <ele>332</ele>
        <time>2013-08-22T17:53:43Z</time>
      </trkpt>
      <trkpt lat="44.79157" lon="4.98386">
        <ele>331</ele>
        <time>2013-08-22T17:53:44Z</time>
      </trkpt>
      <trkpt lat="44.79158" lon="4.98384">
        <ele>330</ele>
        <time>2013-08-22T17:53:45Z</time>
      </trkpt>
      <trkpt lat="44.79161" lon="4.98381">
        <ele>329</ele>
        <time>2013-08-22T17:53:46Z</time>
      </trkpt>
      <trkpt lat="44.79163" lon="4.98379">
        <ele>328</ele>
        <time>2013-08-22T17:53:47Z</time>
      </trkpt>
      <trkpt lat="44.79165" lon="4.98377">
        <ele>327</ele>
        <time>2013-08-22T17:53:48Z</time>
      </trkpt>
      <trkpt lat="44.79167" lon="4.98374">
        <ele>326</ele>
        <time>2013-08-22T17:53:49Z</time>
      </trkpt>
      <trkpt lat="44.79169" lon="4.98371">
        <ele>325</ele>
        <time>2013-08-22T17:53:50Z</time>
      </trkpt>
      <trkpt lat="44.7917" lon="4.98368">
        <ele>324</ele>
        <time>2013-08-22T17:53:51Z</time>
      </trkpt>
      <trkpt lat="44.79172" lon="4.98365">
        <ele>323</ele>
        <time>2013-08-22T17:53:52Z</time>
      </trkpt>
      <trkpt lat="44.79174" lon="4.98362">
        <ele>322</ele>
        <time>2013-08-22T17:53:53Z</time>
      </trkpt>
      <trkpt lat="44.79175" lon="4.98359">
        <ele>321</ele>
        <time>2013-08-22T17:53:54Z</time>
      </trkpt>
      <trkpt lat="44.79177" lon="4.98356">
        <ele>320</ele>
        <time>2013-08-22T17:53:55Z</time>
      </trkpt>
      <trkpt lat="44.79178" lon="4.98352">
        <ele>319</ele>
        <time>2013-08-22T17:53:56Z</time>
      </trkpt>
      <trkpt lat="44.79179" lon="4.98349">
        <ele>318</ele>
        <time>2013-08-22T17:53:57Z</time>
      </trkpt>
      <trkpt lat="44.79181" lon="4.98345">
        <ele>317</ele>
        <time>2013-08-22T17:53:58Z</time>
      </trkpt>
      <trkpt lat="44.79181" lon="4.98342">
        <ele>316</ele>
        <time>2013-08-22T17:53:59Z</time>
      </trkpt>
      <trkpt lat="44.79182" lon="4.98338">
        <ele>315</ele>
        <time>2013-08-22T17:54:00Z</time>
      </trkpt>
      <trkpt lat="44.79183" lon="4.98333">
        <ele>314</ele>
        <time>2013-08-22T17:54:01Z</time>
      </trkpt>
      <trkpt lat="44.79184" lon="4.98329">
        <ele>313</ele>
        <time>2013-08-22T17:54:02Z</time>
      </trkpt>
      <trkpt lat="44.79185" lon="4.98325">
        <ele>312</ele>
        <time>2013-08-22T17:54:03Z</time>
      </trkpt>
      <trkpt lat="44.79187" lon="4.98321">
        <ele>311</ele>
        <time>2013-08-22T17:54:04Z</time>
      </trkpt>
      <trkpt lat="44.79188" lon="4.98318">
        <ele>310</ele>
        <time>2013-08-22T17:54:05Z</time>
      </trkpt>
      <trkpt lat="44.79189" lon="4.98314">
        <ele>310</ele>
        <time>2013-08-22T17:54:06Z</time>
      </trkpt>
      <trkpt lat="44.7919" lon="4.98311">
        <ele>309</ele>
        <time>2013-08-22T17:54:07Z</time>
      </trkpt>
      <trkpt lat="44.79192" lon="4.98307">
        <ele>309</ele>
        <time>2013-08-22T17:54:08Z</time>
      </trkpt>
      <trkpt lat="44.79194" lon="4.98303">
        <ele>309</ele>
        <time>2013-08-22T17:54:09Z</time>
      </trkpt>
      <trkpt lat="44.79195" lon="4.98299">
        <ele>309</ele>
        <time>2013-08-22T17:54:10Z</time>
      </trkpt>
      <trkpt lat="44.79195" lon="4.98293">
        <ele>309</ele>
        <time>2013-08-22T17:54:11Z</time>
      </trkpt>
      <trkpt lat="44.79195" lon="4.98289">
        <ele>309</ele>
        <time>2013-08-22T17:54:12Z</time>
      </trkpt>
      <trkpt lat="44.79196" lon="4.98285">
        <ele>309</ele>
        <time>2013-08-22T17:54:13Z</time>
      </trkpt>
      <trkpt lat="44.79197" lon="4.98281">
        <ele>309</ele>
        <time>2013-08-22T17:54:14Z</time>
      </trkpt>
      <trkpt lat="44.79197" lon="4.98277">
        <ele>309</ele>
        <time>2013-08-22T17:54:15Z</time>
      </trkpt>
      <trkpt lat="44.79197" lon="4.98272">
        <ele>309</ele>
        <time>2013-08-22T17:54:16Z</time>
      </trkpt>
      <trkpt lat="44.79198" lon="4.98268">
        <ele>309</ele>
        <time>2013-08-22T17:54:17Z</time>
      </trkpt>
      <trkpt lat="44.79198" lon="4.98264">
        <ele>309</ele>
        <time>2013-08-22T17:54:18Z</time>
      </trkpt>
      <trkpt lat="44.79199" lon="4.98259">
        <ele>309</ele>
        <time>2013-08-22T17:54:19Z</time>
      </trkpt>
      <trkpt lat="44.792" lon="4.98254">
        <ele>309</ele>
        <time>2013-08-22T17:54:20Z</time>
      </trkpt>
      <trkpt lat="44.792" lon="4.9825">
        <ele>309</ele>
        <time>2013-08-22T17:54:21Z</time>
      </trkpt>
      <trkpt lat="44.79201" lon="4.98245">
        <ele>309</ele>
        <time>2013-08-22T17:54:22Z</time>
      </trkpt>
      <trkpt lat="44.79203" lon="4.98242">
        <ele>309</ele>
        <time>2013-08-22T17:54:23Z</time>
      </trkpt>
      <trkpt lat="44.79206" lon="4.98239">
        <ele>309</ele>
        <time>2013-08-22T17:54:24Z</time>
      </trkpt>
      <trkpt lat="44.79208" lon="4.98236">
        <ele>309</ele>
        <time>2013-08-22T17:54:25Z</time>
      </trkpt>
      <trkpt lat="44.7921" lon="4.98232">
        <ele>309</ele>
        <time>2013-08-22T17:54:26Z</time>
      </trkpt>
      <trkpt lat="44.79211" lon="4.9823">
        <ele>309</ele>
        <time>2013-08-22T17:54:27Z</time>
      </trkpt>
      <trkpt lat="44.79214" lon="4.98226">
        <ele>309</ele>
        <time>2013-08-22T17:54:28Z</time>
      </trkpt>
      <trkpt lat="44.79216" lon="4.98224">
        <ele>309</ele>
        <time>2013-08-22T17:54:29Z</time>
      </trkpt>
      <trkpt lat="44.79218" lon="4.98222">
        <ele>309</ele>
        <time>2013-08-22T17:54:30Z</time>
      </trkpt>
      <trkpt lat="44.79219" lon="4.98219">
        <ele>310</ele>
        <time>2013-08-22T17:54:31Z</time>
      </trkpt>
      <trkpt lat="44.79221" lon="4.98217">
        <ele>311</ele>
        <time>2013-08-22T17:54:32Z</time>
      </trkpt>
      <trkpt lat="44.79222" lon="4.98214">
        <ele>312</ele>
        <time>2013-08-22T17:54:33Z</time>
      </trkpt>
      <trkpt lat="44.79226" lon="4.98213">
        <ele>313</ele>
        <time>2013-08-22T17:54:34Z</time>
      </trkpt>
      <trkpt lat="44.79226" lon="4.98209">
        <ele>314</ele>
        <time>2013-08-22T17:54:35Z</time>
      </trkpt>
      <trkpt lat="44.79227" lon="4.98204">
        <ele>315</ele>
        <time>2013-08-22T17:54:36Z</time>
      </trkpt>
      <trkpt lat="44.79229" lon="4.98201">
        <ele>316</ele>
        <time>2013-08-22T17:54:37Z</time>
      </trkpt>
      <trkpt lat="44.79232" lon="4.98199">
        <ele>317</ele>
        <time>2013-08-22T17:54:38Z</time>
      </trkpt>
      <trkpt lat="44.79234" lon="4.98196">
        <ele>319</ele>
        <time>2013-08-22T17:54:39Z</time>
      </trkpt>
      <trkpt lat="44.79237" lon="4.98194">
        <ele>320</ele>
        <time>2013-08-22T17:54:40Z</time>
      </trkpt>
      <trkpt lat="44.79239" lon="4.98192">
        <ele>321</ele>
        <time>2013-08-22T17:54:41Z</time>
      </trkpt>
      <trkpt lat="44.79242" lon="4.9819">
        <ele>322</ele>
        <time>2013-08-22T17:54:42Z</time>
      </trkpt>
      <trkpt lat="44.79244" lon="4.98188">
        <ele>323</ele>
        <time>2013-08-22T17:54:43Z</time>
      </trkpt>
      <trkpt lat="44.79247" lon="4.98187">
        <ele>324</ele>
        <time>2013-08-22T17:54:44Z</time>
      </trkpt>
      <trkpt lat="44.7925" lon="4.98186">
        <ele>325</ele>
        <time>2013-08-22T17:54:45Z</time>
      </trkpt>
      <trkpt lat="44.79253" lon="4.98184">
        <ele>326</ele>
        <time>2013-08-22T17:54:46Z</time>
      </trkpt>
      <trkpt lat="44.79255" lon="4.98183">
        <ele>327</ele>
        <time>2013-08-22T17:54:47Z</time>
      </trkpt>
      <trkpt lat="44.79258" lon="4.98181">
        <ele>328</ele>
        <time>2013-08-22T17:54:48Z</time>
      </trkpt>
      <trkpt lat="44.7926" lon="4.98179">
        <ele>329</ele>
        <time>2013-08-22T17:54:49Z</time>
      </trkpt>
      <trkpt lat="44.79261" lon="4.98177">
        <ele>330</ele>
        <time>2013-08-22T17:54:50Z</time>
      </trkpt>
      <trkpt lat="44.79264" lon="4.98175">
        <ele>331</ele>
        <time>2013-08-22T17:54:51Z</time>
      </trkpt>
      <trkpt lat="44.79265" lon="4.98172">
        <ele>331</ele>
        <time>2013-08-22T17:54:52Z</time>
      </trkpt>
      <trkpt lat="44.79266" lon="4.98169">
        <ele>331</ele>
        <time>2013-08-22T17:54:53Z</time>
      </trkpt>
      <trkpt lat="44.79268" lon="4.98166">
        <ele>331</ele>
        <time>2013-08-22T17:54:54Z</time>
      </trkpt>
      <trkpt lat="44.7927" lon="4.98163">
        <ele>331</ele>
        <time>2013-08-22T17:54:55Z</time>
      </trkpt>
      <trkpt lat="44.79272" lon="4.9816">
        <ele>331</ele>
        <time>2013-08-22T17:54:56Z</time>
      </trkpt>
      <trkpt lat="44.79274" lon="4.98158">
        <ele>331</ele>
        <time>2013-08-22T17:54:57Z</time>
      </trkpt>
      <trkpt lat="44.79276" lon="4.98156">
        <ele>331</ele>
        <time>2013-08-22T17:54:58Z</time>
      </trkpt>
      <trkpt lat="44.79278" lon="4.98154">
        <ele>331</ele>
        <time>2013-08-22T17:54:59Z</time>
      </trkpt>
      <trkpt lat="44.7928" lon="4.98152">
        <ele>331</ele>
        <time>2013-08-22T17:55:00Z</time>
      </trkpt>
      <trkpt lat="44.79281" lon="4.98149">
        <ele>331</ele>
        <time>2013-08-22T17:55:01Z</time>
      </trkpt>
      <trkpt lat="44.79282" lon="4.98145">
        <ele>331</ele>
        <time>2013-08-22T17:55:02Z</time>
      </trkpt>
      <trkpt lat="44.79284" lon="4.98141">
        <ele>331</ele>
        <time>2013-08-22T17:55:03Z</time>
      </trkpt>
      <trkpt lat="44.79285" lon="4.98138">
        <ele>331</ele>
        <time>2013-08-22T17:55:04Z</time>
      </trkpt>
      <trkpt lat="44.79285" lon="4.98134">
        <ele>331</ele>
        <time>2013-08-22T17:55:05Z</time>
      </trkpt>
      <trkpt lat="44.79287" lon="4.98131">
        <ele>331</ele>
        <time>2013-08-22T17:55:06Z</time>
      </trkpt>
      <trkpt lat="44.79288" lon="4.98127">
        <ele>331</ele>
        <time>2013-08-22T17:55:07Z</time>
      </trkpt>
      <trkpt lat="44.79289" lon="4.98124">
        <ele>331</ele>
        <time>2013-08-22T17:55:08Z</time>
      </trkpt>
      <trkpt lat="44.7929" lon="4.98121">
        <ele>331</ele>
        <time>2013-08-22T17:55:09Z</time>
      </trkpt>
      <trkpt lat="44.7929" lon="4.98117">
        <ele>331</ele>
        <time>2013-08-22T17:55:10Z</time>
      </trkpt>
      <trkpt lat="44.79291" lon="4.98114">
        <ele>331</ele>
        <time>2013-08-22T17:55:11Z</time>
      </trkpt>
      <trkpt lat="44.79292" lon="4.98111">
        <ele>331</ele>
        <time>2013-08-22T17:55:12Z</time>
      </trkpt>
      <trkpt lat="44.79292" lon="4.98106">
        <ele>331</ele>
        <time>2013-08-22T17:55:13Z</time>
      </trkpt>
      <trkpt lat="44.79293" lon="4.98102">
        <ele>331</ele>
        <time>2013-08-22T17:55:14Z</time>
      </trkpt>
      <trkpt lat="44.79295" lon="4.98099">
        <ele>331</ele>
        <time>2013-08-22T17:55:15Z</time>
      </trkpt>
      <trkpt lat="44.79296" lon="4.98096">
        <ele>331</ele>
        <time>2013-08-22T17:55:16Z</time>
      </trkpt>
      <trkpt lat="44.79298" lon="4.98092">
        <ele>331</ele>
        <time>2013-08-22T17:55:17Z</time>
      </trkpt>
      <trkpt lat="44.793" lon="4.98089">
        <ele>331</ele>
        <time>2013-08-22T17:55:18Z</time>
      </trkpt>
      <trkpt lat="44.79301" lon="4.98085">
        <ele>331</ele>
        <time>2013-08-22T17:55:19Z</time>
      </trkpt>
      <trkpt lat="44.79303" lon="4.98082">
        <ele>331</ele>
        <time>2013-08-22T17:55:20Z</time>
      </trkpt>
      <trkpt lat="44.79306" lon="4.98079">
        <ele>331</ele>
        <time>2013-08-22T17:55:21Z</time>
      </trkpt>
      <trkpt lat="44.79308" lon="4.98076">
        <ele>332</ele>
        <time>2013-08-22T17:55:22Z</time>
      </trkpt>
      <trkpt lat="44.7931" lon="4.98073">
        <ele>332</ele>
        <time>2013-08-22T17:55:23Z</time>
      </trkpt>
      <trkpt lat="44.79312" lon="4.9807">
        <ele>333</ele>
        <time>2013-08-22T17:55:24Z</time>
      </trkpt>
      <trkpt lat="44.79314" lon="4.98066">
        <ele>333</ele>
        <time>2013-08-22T17:55:25Z</time>
      </trkpt>
      <trkpt lat="44.79316" lon="4.98063">
        <ele>333</ele>
        <time>2013-08-22T17:55:26Z</time>
      </trkpt>
      <trkpt lat="44.79317" lon="4.9806">
        <ele>333</ele>
        <time>2013-08-22T17:55:27Z</time>
      </trkpt>
      <trkpt lat="44.79317" lon="4.98056">
        <ele>333</ele>
        <time>2013-08-22T17:55:28Z</time>
      </trkpt>
      <trkpt lat="44.79319" lon="4.98053">
        <ele>334</ele>
        <time>2013-08-22T17:55:29Z</time>
      </trkpt>
      <trkpt lat="44.7932" lon="4.98051">
        <ele>334</ele>
        <time>2013-08-22T17:55:30Z</time>
      </trkpt>
      <trkpt lat="44.79323" lon="4.98048">
        <ele>334</ele>
        <time>2013-08-22T17:55:31Z</time>
      </trkpt>
      <trkpt lat="44.79325" lon="4.98046">
        <ele>334</ele>
        <time>2013-08-22T17:55:32Z</time>
      </trkpt>
      <trkpt lat="44.79327" lon="4.98045">
        <ele>334</ele>
        <time>2013-08-22T17:55:33Z</time>
      </trkpt>
      <trkpt lat="44.7933" lon="4.98045">
        <ele>334</ele>
        <time>2013-08-22T17:55:34Z</time>
      </trkpt>
      <trkpt lat="44.79334" lon="4.98046">
        <ele>334</ele>
        <time>2013-08-22T17:55:35Z</time>
      </trkpt>
      <trkpt lat="44.79337" lon="4.98046">
        <ele>334</ele>
        <time>2013-08-22T17:55:36Z</time>
      </trkpt>
      <trkpt lat="44.7934" lon="4.98047">
        <ele>334</ele>
        <time>2013-08-22T17:55:37Z</time>
      </trkpt>
      <trkpt lat="44.79344" lon="4.98049">
        <ele>334</ele>
        <time>2013-08-22T17:55:38Z</time>
      </trkpt>
      <trkpt lat="44.79347" lon="4.98051">
        <ele>334</ele>
        <time>2013-08-22T17:55:39Z</time>
      </trkpt>
      <trkpt lat="44.7935" lon="4.98053">
        <ele>334</ele>
        <time>2013-08-22T17:55:40Z</time>
      </trkpt>
      <trkpt lat="44.79352" lon="4.98055">
        <ele>334</ele>
        <time>2013-08-22T17:55:41Z</time>
      </trkpt>
      <trkpt lat="44.79354" lon="4.98058">
        <ele>334</ele>
        <time>2013-08-22T17:55:42Z</time>
      </trkpt>
      <trkpt lat="44.79356" lon="4.9806">
        <ele>334</ele>
        <time>2013-08-22T17:55:43Z</time>
      </trkpt>
      <trkpt lat="44.79358" lon="4.98063">
        <ele>334</ele>
        <time>2013-08-22T17:55:44Z</time>
      </trkpt>
      <trkpt lat="44.79361" lon="4.98065">
        <ele>334</ele>
        <time>2013-08-22T17:55:45Z</time>
      </trkpt>
      <trkpt lat="44.79363" lon="4.98068">
        <ele>334</ele>
        <time>2013-08-22T17:55:46Z</time>
      </trkpt>
      <trkpt lat="44.79365" lon="4.98069">
        <ele>334</ele>
        <time>2013-08-22T17:55:47Z</time>
      </trkpt>
      <trkpt lat="44.79367" lon="4.98071">
        <ele>334</ele>
        <time>2013-08-22T17:55:48Z</time>
      </trkpt>
      <trkpt lat="44.79371" lon="4.98073">
        <ele>334</ele>
        <time>2013-08-22T17:55:49Z</time>
      </trkpt>
      <trkpt lat="44.79374" lon="4.98076">
        <ele>334</ele>
        <time>2013-08-22T17:55:50Z</time>
      </trkpt>
      <trkpt lat="44.79378" lon="4.98078">
        <ele>334</ele>
        <time>2013-08-22T17:55:51Z</time>
      </trkpt>
      <trkpt lat="44.79381" lon="4.98081">
        <ele>334</ele>
        <time>2013-08-22T17:55:52Z</time>
      </trkpt>
      <trkpt lat="44.79384" lon="4.98082">
        <ele>334</ele>
        <time>2013-08-22T17:55:53Z</time>
      </trkpt>
      <trkpt lat="44.79388" lon="4.98084">
        <ele>334</ele>
        <time>2013-08-22T17:55:54Z</time>
      </trkpt>
      <trkpt lat="44.79391" lon="4.98087">
        <ele>334</ele>
        <time>2013-08-22T17:55:55Z</time>
      </trkpt>
      <trkpt lat="44.79393" lon="4.98089">
        <ele>334</ele>
        <time>2013-08-22T17:55:56Z</time>
      </trkpt>
      <trkpt lat="44.79396" lon="4.98091">
        <ele>334</ele>
        <time>2013-08-22T17:55:57Z</time>
      </trkpt>
      <trkpt lat="44.79398" lon="4.98094">
        <ele>334</ele>
        <time>2013-08-22T17:55:58Z</time>
      </trkpt>
      <trkpt lat="44.794" lon="4.98098">
        <ele>334</ele>
        <time>2013-08-22T17:55:59Z</time>
      </trkpt>
      <trkpt lat="44.79402" lon="4.98101">
        <ele>334</ele>
        <time>2013-08-22T17:56:00Z</time>
      </trkpt>
      <trkpt lat="44.79405" lon="4.98103">
        <ele>334</ele>
        <time>2013-08-22T17:56:01Z</time>
      </trkpt>
      <trkpt lat="44.79408" lon="4.98105">
        <ele>334</ele>
        <time>2013-08-22T17:56:02Z</time>
      </trkpt>
      <trkpt lat="44.79411" lon="4.98107">
        <ele>334</ele>
        <time>2013-08-22T17:56:03Z</time>
      </trkpt>
      <trkpt lat="44.79413" lon="4.9811">
        <ele>333</ele>
        <time>2013-08-22T17:56:04Z</time>
      </trkpt>
      <trkpt lat="44.79415" lon="4.98114">
        <ele>332</ele>
        <time>2013-08-22T17:56:05Z</time>
      </trkpt>
      <trkpt lat="44.79417" lon="4.98117">
        <ele>332</ele>
        <time>2013-08-22T17:56:06Z</time>
      </trkpt>
      <trkpt lat="44.7942" lon="4.9812">
        <ele>331</ele>
        <time>2013-08-22T17:56:07Z</time>
      </trkpt>
      <trkpt lat="44.79421" lon="4.98124">
        <ele>331</ele>
        <time>2013-08-22T17:56:08Z</time>
      </trkpt>
      <trkpt lat="44.79423" lon="4.98127">
        <ele>330</ele>
        <time>2013-08-22T17:56:09Z</time>
      </trkpt>
      <trkpt lat="44.79425" lon="4.9813">
        <ele>330</ele>
        <time>2013-08-22T17:56:10Z</time>
      </trkpt>
      <trkpt lat="44.79427" lon="4.98133">
        <ele>329</ele>
        <time>2013-08-22T17:56:11Z</time>
      </trkpt>
      <trkpt lat="44.79429" lon="4.98135">
        <ele>328</ele>
        <time>2013-08-22T17:56:12Z</time>
      </trkpt>
      <trkpt lat="44.79431" lon="4.98137">
        <ele>327</ele>
        <time>2013-08-22T17:56:13Z</time>
      </trkpt>
      <trkpt lat="44.79435" lon="4.98139">
        <ele>327</ele>
        <time>2013-08-22T17:56:14Z</time>
      </trkpt>
      <trkpt lat="44.79438" lon="4.98141">
        <ele>327</ele>
        <time>2013-08-22T17:56:15Z</time>
      </trkpt>
      <trkpt lat="44.79438" lon="4.98141">
        <ele>327</ele>
        <time>2013-08-22T17:56:16Z</time>
      </trkpt>
    </trkseg>
  </trk>
</gpx>